<?xml version='1.0' encoding='UTF-8'?><gpx version="1.1" creator="JPX - https://github.com/jenetics/jpx" xmlns="http://www.topografix.com/GPX/1/1"><trk><trkseg><trkpt lat="14.560949094787743" lon="120.99566338416791"><ele>10.0</ele><time>2026-04-30T03:01:46.029Z</time></trkpt><trkpt lat="14.562301217972266" lon="120.99524832378842"><ele>10.0</ele><time>2026-04-30T03:02:46.029Z</time></trkpt><trkpt lat="14.562370711997543" lon="120.99525489861115"><ele>10.0</ele><time>2026-04-30T03:02:49.029Z</time></trkpt><trkpt lat="14.562420384215988" lon="120.99529677568222"><ele>10.0</ele><time>2026-04-30T03:02:51.029Z</time></trkpt><trkpt lat="14.562401138108234" lon="120.99540841060004"><ele>10.0</ele><time>2026-04-30T03:02:54.029Z</time></trkpt><trkpt lat="14.562462507175816" lon="120.99544344880337"><ele>10.0</ele><time>2026-04-30T03:02:56.029Z</time></trkpt><trkpt lat="14.562515197464304" lon="120.99548102239507"><ele>10.0</ele><time>2026-04-30T03:02:58.029Z</time></trkpt><trkpt lat="14.562576728096833" lon="120.99552688732206"><ele>10.0</ele><time>2026-04-30T03:03:00.029Z</time></trkpt><trkpt lat="14.562606357674506" lon="120.99559420423168"><ele>10.0</ele><time>2026-04-30T03:03:03.029Z</time></trkpt><trkpt lat="14.562665703934883" lon="120.99567330801857"><ele>10.0</ele><time>2026-04-30T03:03:05.029Z</time></trkpt><trkpt lat="14.562788536411063" lon="120.9957497862984"><ele>10.0</ele><time>2026-04-30T03:03:06.029Z</time></trkpt><trkpt lat="14.562862840411759" lon="120.99575526637547"><ele>10.0</ele><time>2026-04-30T03:03:06.999Z</time></trkpt><trkpt lat="14.562922452662324" lon="120.99581077781549"><ele>9.833333333333334</ele><time>2026-04-30T03:03:07.999Z</time></trkpt><trkpt lat="14.562975860471589" lon="120.9958871920435"><ele>9.666666666666668</ele><time>2026-04-30T03:03:12.999Z</time></trkpt><trkpt lat="14.563006480203766" lon="120.99597358213533"><ele>9.5</ele><time>2026-04-30T03:03:17.999Z</time></trkpt><trkpt lat="14.563023616661296" lon="120.99605035108918"><ele>9.333333333333334</ele><time>2026-04-30T03:03:19.999Z</time></trkpt><trkpt lat="14.563056263436017" lon="120.99612789644009"><ele>9.166666666666666</ele><time>2026-04-30T03:03:21.999Z</time></trkpt><trkpt lat="14.563091766187712" lon="120.99621621752213"><ele>9.0</ele><time>2026-04-30T03:03:23.999Z</time></trkpt><trkpt lat="14.563144357504381" lon="120.99630103007958"><ele>9.0</ele><time>2026-04-30T03:03:25.999Z</time></trkpt><trkpt lat="14.563174526636852" lon="120.99637135558976"><ele>9.0</ele><time>2026-04-30T03:03:26.999Z</time></trkpt><trkpt lat="14.563216590242686" lon="120.99648135057097"><ele>9.0</ele><time>2026-04-30T03:03:28.999Z</time></trkpt><trkpt lat="14.563262324562128" lon="120.9965838163158"><ele>9.0</ele><time>2026-04-30T03:03:30.999Z</time></trkpt><trkpt lat="14.56330450182883" lon="120.99670088209085"><ele>9.0</ele><time>2026-04-30T03:03:32.999Z</time></trkpt><trkpt lat="14.563326299255944" lon="120.99676469564294"><ele>8.666666666666666</ele><time>2026-04-30T03:03:33.999Z</time></trkpt><trkpt lat="14.563349274524313" lon="120.9968261097113"><ele>8.333333333333334</ele><time>2026-04-30T03:03:34.999Z</time></trkpt><trkpt lat="14.56336712520555" lon="120.99689588298214"><ele>8.0</ele><time>2026-04-30T03:03:35.999Z</time></trkpt><trkpt lat="14.563398112778833" lon="120.99704188077789"><ele>7.666666666666667</ele><time>2026-04-30T03:03:37.999Z</time></trkpt><trkpt lat="14.563399823049426" lon="120.99712408008007"><ele>7.333333333333334</ele><time>2026-04-30T03:03:38.999Z</time></trkpt><trkpt lat="14.563426331982543" lon="120.99719385120692"><ele>7.0</ele><time>2026-04-30T03:03:39.999Z</time></trkpt><trkpt lat="14.563471960618068" lon="120.99726556062537"><ele>7.000000000000001</ele><time>2026-04-30T03:03:40.999Z</time></trkpt><trkpt lat="14.563556082519675" lon="120.99731414482054"><ele>7.0</ele><time>2026-04-30T03:03:41.999Z</time></trkpt><trkpt lat="14.56358984448082" lon="120.99738836145455"><ele>7.0</ele><time>2026-04-30T03:03:42.999Z</time></trkpt><trkpt lat="14.563630931234517" lon="120.99745473960971"><ele>7.0</ele><time>2026-04-30T03:03:43.999Z</time></trkpt><trkpt lat="14.563677821458382" lon="120.99752697582282"><ele>7.000000000000001</ele><time>2026-04-30T03:03:44.999Z</time></trkpt><trkpt lat="14.563716046406986" lon="120.99760923268386"><ele>7.0</ele><time>2026-04-30T03:03:45.999Z</time></trkpt><trkpt lat="14.563746044961393" lon="120.99767674569698"><ele>7.000000000000001</ele><time>2026-04-30T03:03:46.999Z</time></trkpt><trkpt lat="14.56377456131276" lon="120.99774106900067"><ele>7.0</ele><time>2026-04-30T03:03:48Z</time></trkpt><trkpt lat="14.56380209305298" lon="120.99780371966861"><ele>7.0</ele><time>2026-04-30T03:03:49Z</time></trkpt><trkpt lat="14.563843926340917" lon="120.99790303477131"><ele>7.0</ele><time>2026-04-30T03:03:51Z</time></trkpt><trkpt lat="14.5638740952679" lon="120.9979732426458"><ele>7.000000000000001</ele><time>2026-04-30T03:03:53Z</time></trkpt><trkpt lat="14.563908978215862" lon="120.99804411548673"><ele>7.0</ele><time>2026-04-30T03:03:55Z</time></trkpt><trkpt lat="14.56396381790725" lon="120.99812456808749"><ele>7.000000000000001</ele><time>2026-04-30T03:03:58Z</time></trkpt><trkpt lat="14.563998198393225" lon="120.9981831087986"><ele>7.0</ele><time>2026-04-30T03:04:01Z</time></trkpt><trkpt lat="14.56403664644109" lon="120.99824551454628"><ele>7.0</ele><time>2026-04-30T03:04:07Z</time></trkpt><trkpt lat="14.564044182814559" lon="120.99831355016407"><ele>7.0</ele><time>2026-04-30T03:04:13Z</time></trkpt><trkpt lat="14.563925752370466" lon="120.99833659324946"><ele>7.000000000000001</ele><time>2026-04-30T03:04:14Z</time></trkpt><trkpt lat="14.563822087681713" lon="120.99836470776586"><ele>7.0</ele><time>2026-04-30T03:04:16Z</time></trkpt><trkpt lat="14.563718170205107" lon="120.99839297191716"><ele>7.0</ele><time>2026-04-30T03:04:18Z</time></trkpt><trkpt lat="14.56364800583193" lon="120.99842178935288"><ele>7.0</ele><time>2026-04-30T03:04:19Z</time></trkpt><trkpt lat="14.563572978337001" lon="120.99842390246573"><ele>7.0</ele><time>2026-04-30T03:04:20Z</time></trkpt><trkpt lat="14.563498461258183" lon="120.99843362838644"><ele>7.0</ele><time>2026-04-30T03:04:21Z</time></trkpt><trkpt lat="14.563428353094942" lon="120.9984470523034"><ele>7.0</ele><time>2026-04-30T03:04:22Z</time></trkpt><trkpt lat="14.563360050024535" lon="120.99846183380485"><ele>7.0</ele><time>2026-04-30T03:04:23Z</time></trkpt><trkpt lat="14.56329765886055" lon="120.99847928598433"><ele>7.0</ele><time>2026-04-30T03:04:24Z</time></trkpt><trkpt lat="14.563195274479016" lon="120.99850753048999"><ele>7.0</ele><time>2026-04-30T03:04:26Z</time></trkpt><trkpt lat="14.563114782217882" lon="120.9985339044065"><ele>6.999999999999999</ele><time>2026-04-30T03:04:28Z</time></trkpt><trkpt lat="14.563049990231859" lon="120.99853521925928"><ele>6.999999999999999</ele><time>2026-04-30T03:04:33Z</time></trkpt><trkpt lat="14.562920418986117" lon="120.9986052847721"><ele>7.0</ele><time>2026-04-30T03:06:22Z</time></trkpt><trkpt lat="14.562851300893696" lon="120.99864801182144"><ele>7.0</ele><time>2026-04-30T03:06:24Z</time></trkpt><trkpt lat="14.562751363874899" lon="120.99865109316441"><ele>7.333333333333334</ele><time>2026-04-30T03:06:26Z</time></trkpt><trkpt lat="14.562691035275451" lon="120.99867248556711"><ele>7.666666666666667</ele><time>2026-04-30T03:06:27Z</time></trkpt><trkpt lat="14.562589136468501" lon="120.9987038182233"><ele>8.0</ele><time>2026-04-30T03:06:29Z</time></trkpt><trkpt lat="14.562496595342791" lon="120.9987428310224"><ele>8.333333333333334</ele><time>2026-04-30T03:06:31Z</time></trkpt><trkpt lat="14.562408245123756" lon="120.9987789148186"><ele>8.666666666666666</ele><time>2026-04-30T03:06:33Z</time></trkpt><trkpt lat="14.562335217101806" lon="120.99881177509987"><ele>9.0</ele><time>2026-04-30T03:06:35Z</time></trkpt><trkpt lat="14.56227010199908" lon="120.99884498100919"><ele>9.0</ele><time>2026-04-30T03:06:38Z</time></trkpt><trkpt lat="14.562195809391378" lon="120.9988757582798"><ele>9.0</ele><time>2026-04-30T03:06:42Z</time></trkpt><trkpt lat="14.562127450686674" lon="120.9989099391457"><ele>9.0</ele><time>2026-04-30T03:06:45Z</time></trkpt><trkpt lat="14.562056266039297" lon="120.99894496273792"><ele>9.0</ele><time>2026-04-30T03:06:49Z</time></trkpt><trkpt lat="14.561986516565801" lon="120.99897847718525"><ele>9.0</ele><time>2026-04-30T03:06:53Z</time></trkpt><trkpt lat="14.561960688685927" lon="120.99906309655249"><ele>9.0</ele><time>2026-04-30T03:06:58Z</time></trkpt><trkpt lat="14.561996207289164" lon="120.9991179575767"><ele>8.8</ele><time>2026-04-30T03:07:00Z</time></trkpt><trkpt lat="14.562055382185088" lon="120.99917713989647"><ele>8.600000000000001</ele><time>2026-04-30T03:07:02Z</time></trkpt><trkpt lat="14.562133212477395" lon="120.99925156480226"><ele>8.4</ele><time>2026-04-30T03:07:04Z</time></trkpt><trkpt lat="14.562220354016397" lon="120.99933267433111"><ele>8.200000000000001</ele><time>2026-04-30T03:07:06Z</time></trkpt><trkpt lat="14.562308585001581" lon="120.99941228798339"><ele>8.0</ele><time>2026-04-30T03:07:08Z</time></trkpt><trkpt lat="14.56235524346233" lon="120.99945693415381"><ele>8.0</ele><time>2026-04-30T03:07:09Z</time></trkpt><trkpt lat="14.562443915337084" lon="120.99954736476381"><ele>8.0</ele><time>2026-04-30T03:07:11Z</time></trkpt><trkpt lat="14.562528574298875" lon="120.99961862010511"><ele>8.0</ele><time>2026-04-30T03:07:13Z</time></trkpt><trkpt lat="14.562603175294939" lon="120.99969765723817"><ele>8.0</ele><time>2026-04-30T03:07:15Z</time></trkpt><trkpt lat="14.562669863875353" lon="120.99977271343889"><ele>8.0</ele><time>2026-04-30T03:07:17Z</time></trkpt><trkpt lat="14.562723907530696" lon="120.99983157489035"><ele>7.999999999999999</ele><time>2026-04-30T03:07:19Z</time></trkpt><trkpt lat="14.56277665105236" lon="120.99988970550764"><ele>8.0</ele><time>2026-04-30T03:07:22Z</time></trkpt><trkpt lat="14.56282391720921" lon="120.9999389404091"><ele>8.0</ele><time>2026-04-30T03:07:24Z</time></trkpt><trkpt lat="14.562884446933353" lon="121.00000382214664"><ele>8.0</ele><time>2026-04-30T03:07:26Z</time></trkpt><trkpt lat="14.56295604557366" lon="121.00008043561238"><ele>7.999999999999999</ele><time>2026-04-30T03:07:28Z</time></trkpt><trkpt lat="14.56303626002015" lon="121.00016154324248"><ele>8.0</ele><time>2026-04-30T03:07:30Z</time></trkpt><trkpt lat="14.563126342337876" lon="121.00024624355538"><ele>7.833333333333333</ele><time>2026-04-30T03:07:32Z</time></trkpt><trkpt lat="14.563220997984116" lon="121.0003357523598"><ele>7.666666666666666</ele><time>2026-04-30T03:07:34Z</time></trkpt><trkpt lat="14.563269429754001" lon="121.00038433739303"><ele>7.5</ele><time>2026-04-30T03:07:35Z</time></trkpt><trkpt lat="14.563318583995374" lon="121.00043493301263"><ele>7.333333333333334</ele><time>2026-04-30T03:07:36Z</time></trkpt><trkpt lat="14.563368764731846" lon="121.0004864264352"><ele>7.166666666666667</ele><time>2026-04-30T03:07:37Z</time></trkpt><trkpt lat="14.563416942385286" lon="121.00053830856876"><ele>7.0</ele><time>2026-04-30T03:07:38Z</time></trkpt><trkpt lat="14.563465797843147" lon="121.00058631882499"><ele>7.000000000000001</ele><time>2026-04-30T03:07:39Z</time></trkpt><trkpt lat="14.563543833494633" lon="121.0006641031631"><ele>7.0</ele><time>2026-04-30T03:07:41Z</time></trkpt><trkpt lat="14.56358669414192" lon="121.00071284595425"><ele>7.0</ele><time>2026-04-30T03:07:43Z</time></trkpt><trkpt lat="14.563638156555921" lon="121.00076988864231"><ele>7.0</ele><time>2026-04-30T03:07:45Z</time></trkpt><trkpt lat="14.563694035575658" lon="121.00082707845283"><ele>7.000000000000001</ele><time>2026-04-30T03:07:47Z</time></trkpt><trkpt lat="14.563755635988295" lon="121.00088174361382"><ele>7.0</ele><time>2026-04-30T03:07:49Z</time></trkpt><trkpt lat="14.563822713416416" lon="121.00094342202105"><ele>7.199999999999999</ele><time>2026-04-30T03:07:51Z</time></trkpt><trkpt lat="14.563884672207582" lon="121.00100668922555"><ele>7.3999999999999995</ele><time>2026-04-30T03:07:53Z</time></trkpt><trkpt lat="14.563951914210358" lon="121.00107548476241"><ele>7.6000000000000005</ele><time>2026-04-30T03:07:55Z</time></trkpt><trkpt lat="14.564023568098746" lon="121.00115342744712"><ele>7.800000000000001</ele><time>2026-04-30T03:07:57Z</time></trkpt><trkpt lat="14.564114760111377" lon="121.00124106112877"><ele>8.0</ele><time>2026-04-30T03:07:59Z</time></trkpt><trkpt lat="14.564161015417987" lon="121.00128780171818"><ele>7.999999999999999</ele><time>2026-04-30T03:08:00Z</time></trkpt><trkpt lat="14.564208293577146" lon="121.00135599219128"><ele>8.0</ele><time>2026-04-30T03:08:01Z</time></trkpt><trkpt lat="14.564266987739954" lon="121.00140911817132"><ele>8.0</ele><time>2026-04-30T03:08:02Z</time></trkpt><trkpt lat="14.564325088734645" lon="121.00146400842162"><ele>8.0</ele><time>2026-04-30T03:08:03Z</time></trkpt><trkpt lat="14.564381101794183" lon="121.00152499707463"><ele>7.999999999999999</ele><time>2026-04-30T03:08:04Z</time></trkpt><trkpt lat="14.564438019217949" lon="121.00158580231844"><ele>8.0</ele><time>2026-04-30T03:08:05Z</time></trkpt><trkpt lat="14.564498093764817" lon="121.00164671725011"><ele>7.666666666666666</ele><time>2026-04-30T03:08:06Z</time></trkpt><trkpt lat="14.564559134409077" lon="121.00170874656574"><ele>7.333333333333333</ele><time>2026-04-30T03:08:07Z</time></trkpt><trkpt lat="14.564621951000332" lon="121.00177365275955"><ele>7.0</ele><time>2026-04-30T03:08:08Z</time></trkpt><trkpt lat="14.564686426827391" lon="121.00183952065365"><ele>6.666666666666666</ele><time>2026-04-30T03:08:09Z</time></trkpt><trkpt lat="14.564748425021023" lon="121.00190559680743"><ele>6.333333333333333</ele><time>2026-04-30T03:08:10Z</time></trkpt><trkpt lat="14.564811664319686" lon="121.00196936574109"><ele>6.0</ele><time>2026-04-30T03:08:11Z</time></trkpt><trkpt lat="14.564873496286136" lon="121.0020323525341"><ele>6.0</ele><time>2026-04-30T03:08:12Z</time></trkpt><trkpt lat="14.564935882607077" lon="121.00209243700422"><ele>6.0</ele><time>2026-04-30T03:08:13Z</time></trkpt><trkpt lat="14.56499692681692" lon="121.00215411913467"><ele>6.0</ele><time>2026-04-30T03:08:14Z</time></trkpt><trkpt lat="14.565054144553477" lon="121.00221103948688"><ele>6.0</ele><time>2026-04-30T03:08:15Z</time></trkpt><trkpt lat="14.56511732620411" lon="121.0022515061844"><ele>6.0</ele><time>2026-04-30T03:08:16Z</time></trkpt><trkpt lat="14.565169526645409" lon="121.00230219043618"><ele>6.0</ele><time>2026-04-30T03:08:17Z</time></trkpt><trkpt lat="14.56526246907405" lon="121.00238787939877"><ele>6.0</ele><time>2026-04-30T03:08:19Z</time></trkpt><trkpt lat="14.565354621868652" lon="121.00246702325134"><ele>6.0</ele><time>2026-04-30T03:08:21Z</time></trkpt><trkpt lat="14.565426255438577" lon="121.00253138711896"><ele>6.0</ele><time>2026-04-30T03:08:23Z</time></trkpt><trkpt lat="14.565468176846018" lon="121.00258042121585"><ele>6.0</ele><time>2026-04-30T03:08:25Z</time></trkpt><trkpt lat="14.565511066562568" lon="121.00264028411881"><ele>6.0</ele><time>2026-04-30T03:08:28Z</time></trkpt><trkpt lat="14.565573130189524" lon="121.00268338638797"><ele>6.0</ele><time>2026-04-30T03:08:31Z</time></trkpt><trkpt lat="14.565625193192611" lon="121.00273110703417"><ele>6.4</ele><time>2026-04-30T03:08:33Z</time></trkpt><trkpt lat="14.565679967639616" lon="121.00278131297777"><ele>6.8</ele><time>2026-04-30T03:08:35Z</time></trkpt><trkpt lat="14.565736396932126" lon="121.00283303574601"><ele>7.200000000000001</ele><time>2026-04-30T03:08:37Z</time></trkpt><trkpt lat="14.565792692912256" lon="121.00288463652507"><ele>7.6000000000000005</ele><time>2026-04-30T03:08:40Z</time></trkpt><trkpt lat="14.56578032121365" lon="121.00304325048036"><ele>8.0</ele><time>2026-04-30T03:08:45Z</time></trkpt><trkpt lat="14.565726633279812" lon="121.00311139728396"><ele>7.999999999999999</ele><time>2026-04-30T03:08:46Z</time></trkpt><trkpt lat="14.565651288310159" lon="121.00315886850765"><ele>8.0</ele><time>2026-04-30T03:08:48Z</time></trkpt><trkpt lat="14.565578344995277" lon="121.00323774045548"><ele>8.0</ele><time>2026-04-30T03:08:50Z</time></trkpt><trkpt lat="14.56549696793428" lon="121.00331847333533"><ele>8.0</ele><time>2026-04-30T03:08:52Z</time></trkpt><trkpt lat="14.565444783366814" lon="121.00335990641129"><ele>7.999999999999999</ele><time>2026-04-30T03:08:53Z</time></trkpt><trkpt lat="14.565387900908583" lon="121.00340830100066"><ele>8.0</ele><time>2026-04-30T03:08:54Z</time></trkpt><trkpt lat="14.565316424996917" lon="121.00343628978123"><ele>7.7142857142857135</ele><time>2026-04-30T03:08:55Z</time></trkpt><trkpt lat="14.56524747951052" lon="121.00347412414226"><ele>7.428571428571428</ele><time>2026-04-30T03:08:56Z</time></trkpt><trkpt lat="14.565179389714798" lon="121.00351124416137"><ele>7.142857142857142</ele><time>2026-04-30T03:08:57Z</time></trkpt><trkpt lat="14.5651197078127" lon="121.00354991541559"><ele>6.857142857142857</ele><time>2026-04-30T03:08:58Z</time></trkpt><trkpt lat="14.565046840954832" lon="121.00356435724768"><ele>6.571428571428571</ele><time>2026-04-30T03:08:59Z</time></trkpt><trkpt lat="14.56498016264542" lon="121.00358897050198"><ele>6.285714285714285</ele><time>2026-04-30T03:09:00Z</time></trkpt><trkpt lat="14.56491453883719" lon="121.00362146072308"><ele>6.0</ele><time>2026-04-30T03:09:01Z</time></trkpt><trkpt lat="14.564795918098294" lon="121.0036727840216"><ele>6.0</ele><time>2026-04-30T03:09:03Z</time></trkpt><trkpt lat="14.564726306713672" lon="121.00370788431347"><ele>6.0</ele><time>2026-04-30T03:09:04Z</time></trkpt><trkpt lat="14.564650869109956" lon="121.00374747797456"><ele>6.0</ele><time>2026-04-30T03:09:05Z</time></trkpt><trkpt lat="14.564556496927777" lon="121.00380231710194"><ele>6.0</ele><time>2026-04-30T03:09:06Z</time></trkpt><trkpt lat="14.564469096088338" lon="121.00384635188051"><ele>6.0</ele><time>2026-04-30T03:09:07Z</time></trkpt><trkpt lat="14.564363636339495" lon="121.00390899952698"><ele>6.0</ele><time>2026-04-30T03:09:08Z</time></trkpt><trkpt lat="14.564269666039499" lon="121.00396282562184"><ele>6.0</ele><time>2026-04-30T03:09:09Z</time></trkpt><trkpt lat="14.56419894980509" lon="121.00400040624356"><ele>6.0</ele><time>2026-04-30T03:09:10Z</time></trkpt><trkpt lat="14.564122926711029" lon="121.00404108649307"><ele>6.0</ele><time>2026-04-30T03:09:11Z</time></trkpt><trkpt lat="14.564058147022902" lon="121.00408354920715"><ele>6.0</ele><time>2026-04-30T03:09:12Z</time></trkpt><trkpt lat="14.563987292991497" lon="121.00412541969267"><ele>6.0</ele><time>2026-04-30T03:09:13Z</time></trkpt><trkpt lat="14.563922572915432" lon="121.00416263090229"><ele>6.0</ele><time>2026-04-30T03:09:14Z</time></trkpt><trkpt lat="14.563855685097652" lon="121.00420247959724"><ele>6.0</ele><time>2026-04-30T03:09:15Z</time></trkpt><trkpt lat="14.563787141128579" lon="121.00424566272737"><ele>6.0</ele><time>2026-04-30T03:09:16Z</time></trkpt><trkpt lat="14.563723388215418" lon="121.00427833190439"><ele>6.0</ele><time>2026-04-30T03:09:17Z</time></trkpt><trkpt lat="14.5636547508422" lon="121.00433885173301"><ele>6.0</ele><time>2026-04-30T03:09:18Z</time></trkpt><trkpt lat="14.563584838864452" lon="121.0043765980132"><ele>6.0</ele><time>2026-04-30T03:09:19Z</time></trkpt><trkpt lat="14.563515991387094" lon="121.00441267448521"><ele>6.166666666666667</ele><time>2026-04-30T03:09:20Z</time></trkpt><trkpt lat="14.563446839011345" lon="121.0044505215034"><ele>6.333333333333334</ele><time>2026-04-30T03:09:21Z</time></trkpt><trkpt lat="14.56337369446341" lon="121.00448637875077"><ele>6.5</ele><time>2026-04-30T03:09:22Z</time></trkpt><trkpt lat="14.563290919666999" lon="121.00449225173925"><ele>6.666666666666667</ele><time>2026-04-30T03:09:23Z</time></trkpt><trkpt lat="14.5632219959244" lon="121.0045242537949"><ele>6.833333333333334</ele><time>2026-04-30T03:09:24Z</time></trkpt><trkpt lat="14.563160708156614" lon="121.00455239984484"><ele>7.0</ele><time>2026-04-30T03:09:25Z</time></trkpt><trkpt lat="14.563062632165582" lon="121.00456725564298"><ele>7.000000000000001</ele><time>2026-04-30T03:09:27Z</time></trkpt><trkpt lat="14.562949800827917" lon="121.00460947750847"><ele>7.0</ele><time>2026-04-30T03:09:29Z</time></trkpt><trkpt lat="14.562888030164073" lon="121.00463637050079"><ele>7.0</ele><time>2026-04-30T03:09:30Z</time></trkpt><trkpt lat="14.562825878623633" lon="121.00467323166828"><ele>7.0</ele><time>2026-04-30T03:09:32Z</time></trkpt><trkpt lat="14.56275888818556" lon="121.00469926243684"><ele>7.000000000000001</ele><time>2026-04-30T03:09:33Z</time></trkpt><trkpt lat="14.562686681548291" lon="121.00472914970301"><ele>7.0</ele><time>2026-04-30T03:09:34Z</time></trkpt><trkpt lat="14.562609312128606" lon="121.00476715299715"><ele>6.6</ele><time>2026-04-30T03:09:35Z</time></trkpt><trkpt lat="14.5624911602608" lon="121.00481901809123"><ele>6.199999999999999</ele><time>2026-04-30T03:09:37Z</time></trkpt><trkpt lat="14.56242611001894" lon="121.00485293570524"><ele>5.8</ele><time>2026-04-30T03:09:38Z</time></trkpt><trkpt lat="14.562325282475944" lon="121.00490671300882"><ele>5.4</ele><time>2026-04-30T03:09:39Z</time></trkpt><trkpt lat="14.562261047605585" lon="121.00494640344796"><ele>5.0</ele><time>2026-04-30T03:09:40Z</time></trkpt><trkpt lat="14.562185020513292" lon="121.00498925582414"><ele>5.0</ele><time>2026-04-30T03:09:41Z</time></trkpt><trkpt lat="14.562118342692608" lon="121.00502633877089"><ele>5.0</ele><time>2026-04-30T03:09:42Z</time></trkpt><trkpt lat="14.56205041949244" lon="121.00506453633608"><ele>5.0</ele><time>2026-04-30T03:09:43Z</time></trkpt><trkpt lat="14.561936884884204" lon="121.00512582755067"><ele>5.0</ele><time>2026-04-30T03:09:45Z</time></trkpt><trkpt lat="14.561864213080442" lon="121.00515469176352"><ele>5.0</ele><time>2026-04-30T03:09:46Z</time></trkpt><trkpt lat="14.56175360370488" lon="121.00520046916783"><ele>5.166666666666667</ele><time>2026-04-30T03:09:48Z</time></trkpt><trkpt lat="14.56162772272087" lon="121.00525266564473"><ele>5.333333333333334</ele><time>2026-04-30T03:09:50Z</time></trkpt><trkpt lat="14.561567704344949" lon="121.00527907627284"><ele>5.5</ele><time>2026-04-30T03:09:51Z</time></trkpt><trkpt lat="14.561509474939884" lon="121.00530729462126"><ele>5.666666666666667</ele><time>2026-04-30T03:09:52Z</time></trkpt><trkpt lat="14.561448402042208" lon="121.00533793730213"><ele>5.833333333333333</ele><time>2026-04-30T03:09:53Z</time></trkpt><trkpt lat="14.56139304135978" lon="121.00538695227279"><ele>6.0</ele><time>2026-04-30T03:09:54Z</time></trkpt><trkpt lat="14.561336395248423" lon="121.00541759826567"><ele>6.0</ele><time>2026-04-30T03:09:55Z</time></trkpt><trkpt lat="14.56128032653747" lon="121.00544793200444"><ele>6.0</ele><time>2026-04-30T03:09:56Z</time></trkpt><trkpt lat="14.561163686048975" lon="121.00551234231385"><ele>6.0</ele><time>2026-04-30T03:09:58Z</time></trkpt><trkpt lat="14.561096311111722" lon="121.00554923069409"><ele>6.0</ele><time>2026-04-30T03:09:59Z</time></trkpt><trkpt lat="14.561029252336144" lon="121.00558594596636"><ele>6.0</ele><time>2026-04-30T03:09:59.999Z</time></trkpt><trkpt lat="14.560961411969418" lon="121.00562292843193"><ele>6.0</ele><time>2026-04-30T03:10:00.999Z</time></trkpt><trkpt lat="14.560894760759394" lon="121.0056586542544"><ele>6.166666666666667</ele><time>2026-04-30T03:10:01.999Z</time></trkpt><trkpt lat="14.56082273122779" lon="121.00569726292483"><ele>6.333333333333334</ele><time>2026-04-30T03:10:02.999Z</time></trkpt><trkpt lat="14.560753752716844" lon="121.00573423622416"><ele>6.5</ele><time>2026-04-30T03:10:03.999Z</time></trkpt><trkpt lat="14.560679014499707" lon="121.00577429676778"><ele>6.666666666666667</ele><time>2026-04-30T03:10:04.999Z</time></trkpt><trkpt lat="14.560589029931888" lon="121.0058225295493"><ele>6.833333333333334</ele><time>2026-04-30T03:10:05.999Z</time></trkpt><trkpt lat="14.560515331345062" lon="121.00586203284703"><ele>7.0</ele><time>2026-04-30T03:10:06.999Z</time></trkpt><trkpt lat="14.560443249151712" lon="121.00590185526575"><ele>6.833333333333334</ele><time>2026-04-30T03:10:07.999Z</time></trkpt><trkpt lat="14.56036728279965" lon="121.00594431890104"><ele>6.666666666666667</ele><time>2026-04-30T03:10:08.999Z</time></trkpt><trkpt lat="14.560297373762852" lon="121.0059833966266"><ele>6.5</ele><time>2026-04-30T03:10:09.999Z</time></trkpt><trkpt lat="14.560241645018438" lon="121.00601454785603"><ele>6.333333333333334</ele><time>2026-04-30T03:10:10.999Z</time></trkpt><trkpt lat="14.56016753978739" lon="121.00605597115884"><ele>6.166666666666667</ele><time>2026-04-30T03:10:11.999Z</time></trkpt><trkpt lat="14.5600989121483" lon="121.00609433260834"><ele>6.0</ele><time>2026-04-30T03:10:12.999Z</time></trkpt><trkpt lat="14.560027789655482" lon="121.00613430217236"><ele>6.0</ele><time>2026-04-30T03:10:13.999Z</time></trkpt><trkpt lat="14.559947931716973" lon="121.00617881231223"><ele>6.0</ele><time>2026-04-30T03:10:14.999Z</time></trkpt><trkpt lat="14.559818136020834" lon="121.00619134264635"><ele>6.0</ele><time>2026-04-30T03:10:15.999Z</time></trkpt><trkpt lat="14.559724575429353" lon="121.00622307637926"><ele>6.0</ele><time>2026-04-30T03:10:16.999Z</time></trkpt><trkpt lat="14.559614736608085" lon="121.00623149499104"><ele>6.0</ele><time>2026-04-30T03:10:17.999Z</time></trkpt><trkpt lat="14.559512995125905" lon="121.00630960762933"><ele>5.6</ele><time>2026-04-30T03:10:18.999Z</time></trkpt><trkpt lat="14.55942088992877" lon="121.00637286588949"><ele>5.199999999999999</ele><time>2026-04-30T03:10:19.999Z</time></trkpt><trkpt lat="14.559326057142407" lon="121.00643702615572"><ele>4.800000000000001</ele><time>2026-04-30T03:10:20.999Z</time></trkpt><trkpt lat="14.559229259235005" lon="121.00649827279496"><ele>4.4</ele><time>2026-04-30T03:10:21.999Z</time></trkpt><trkpt lat="14.55914217260909" lon="121.00654518793735"><ele>4.0</ele><time>2026-04-30T03:10:22.999Z</time></trkpt><trkpt lat="14.559053855376389" lon="121.00660864582768"><ele>4.6</ele><time>2026-04-30T03:10:23.999Z</time></trkpt><trkpt lat="14.558972330135632" lon="121.00666525446117"><ele>5.2</ele><time>2026-04-30T03:10:24.999Z</time></trkpt><trkpt lat="14.558877572550324" lon="121.0067089835774"><ele>5.799999999999999</ele><time>2026-04-30T03:10:25.999Z</time></trkpt><trkpt lat="14.558802692628829" lon="121.00674059407707"><ele>6.3999999999999995</ele><time>2026-04-30T03:10:26.999Z</time></trkpt><trkpt lat="14.558721894093672" lon="121.00678911834186"><ele>7.0</ele><time>2026-04-30T03:10:27.999Z</time></trkpt><trkpt lat="14.558640537349719" lon="121.00683509018785"><ele>7.333333333333334</ele><time>2026-04-30T03:10:28.999Z</time></trkpt><trkpt lat="14.558557760204359" lon="121.00688890701811"><ele>7.666666666666667</ele><time>2026-04-30T03:10:29.999Z</time></trkpt><trkpt lat="14.558482450503234" lon="121.0069323336193"><ele>8.0</ele><time>2026-04-30T03:10:30.999Z</time></trkpt><trkpt lat="14.558408197927116" lon="121.00697170243441"><ele>8.333333333333334</ele><time>2026-04-30T03:10:31.999Z</time></trkpt><trkpt lat="14.558334629387941" lon="121.00701062036332"><ele>8.666666666666666</ele><time>2026-04-30T03:10:32.999Z</time></trkpt><trkpt lat="14.558256828984524" lon="121.00706452801221"><ele>9.0</ele><time>2026-04-30T03:10:33.999Z</time></trkpt><trkpt lat="14.55818696974162" lon="121.00710110548643"><ele>9.0</ele><time>2026-04-30T03:10:34.999Z</time></trkpt><trkpt lat="14.558113492231032" lon="121.00715326162344"><ele>9.0</ele><time>2026-04-30T03:10:35.999Z</time></trkpt><trkpt lat="14.558033638142165" lon="121.0071913638026"><ele>9.0</ele><time>2026-04-30T03:10:36.999Z</time></trkpt><trkpt lat="14.557952196243942" lon="121.00723041814287"><ele>9.0</ele><time>2026-04-30T03:10:37.999Z</time></trkpt><trkpt lat="14.557872529046104" lon="121.0072689928151"><ele>9.0</ele><time>2026-04-30T03:10:38.999Z</time></trkpt><trkpt lat="14.557789732130853" lon="121.00731150270325"><ele>9.0</ele><time>2026-04-30T03:10:39.999Z</time></trkpt><trkpt lat="14.557707007090816" lon="121.00735160569579"><ele>8.833333333333334</ele><time>2026-04-30T03:10:40.999Z</time></trkpt><trkpt lat="14.557624532992804" lon="121.0073934497003"><ele>8.666666666666666</ele><time>2026-04-30T03:10:41.999Z</time></trkpt><trkpt lat="14.557536883182557" lon="121.00743421442489"><ele>8.5</ele><time>2026-04-30T03:10:42.999Z</time></trkpt><trkpt lat="14.557454839481125" lon="121.00747808763087"><ele>8.333333333333332</ele><time>2026-04-30T03:10:43.999Z</time></trkpt><trkpt lat="14.557374113154117" lon="121.0075216663805"><ele>8.166666666666666</ele><time>2026-04-30T03:10:44.999Z</time></trkpt><trkpt lat="14.557333634179331" lon="121.0075830169553"><ele>8.0</ele><time>2026-04-30T03:10:45.999Z</time></trkpt><trkpt lat="14.557258405298457" lon="121.00763572275471"><ele>7.833333333333333</ele><time>2026-04-30T03:10:46.999Z</time></trkpt><trkpt lat="14.557182510743546" lon="121.00768249560812"><ele>7.666666666666666</ele><time>2026-04-30T03:10:47.999Z</time></trkpt><trkpt lat="14.557157068123862" lon="121.007782919108"><ele>7.5</ele><time>2026-04-30T03:10:48.999Z</time></trkpt><trkpt lat="14.557080655028942" lon="121.00782462889937"><ele>7.333333333333334</ele><time>2026-04-30T03:10:49.999Z</time></trkpt><trkpt lat="14.557003711861551" lon="121.007862521871"><ele>7.166666666666667</ele><time>2026-04-30T03:10:50.999Z</time></trkpt><trkpt lat="14.556935685612212" lon="121.0079105581241"><ele>7.0</ele><time>2026-04-30T03:10:51.999Z</time></trkpt><trkpt lat="14.556859595666266" lon="121.00795342847358"><ele>6.6</ele><time>2026-04-30T03:10:52.999Z</time></trkpt><trkpt lat="14.556780679413146" lon="121.00799274804893"><ele>6.199999999999999</ele><time>2026-04-30T03:10:53.999Z</time></trkpt><trkpt lat="14.556693583150222" lon="121.00803057568274"><ele>5.8</ele><time>2026-04-30T03:10:54.999Z</time></trkpt><trkpt lat="14.556616701050341" lon="121.00806856067388"><ele>5.4</ele><time>2026-04-30T03:10:55.999Z</time></trkpt><trkpt lat="14.556537120484974" lon="121.00812052269218"><ele>5.0</ele><time>2026-04-30T03:10:56.999Z</time></trkpt><trkpt lat="14.556454402647097" lon="121.00816173794242"><ele>5.0</ele><time>2026-04-30T03:10:57.999Z</time></trkpt><trkpt lat="14.556380674590708" lon="121.00819990257212"><ele>5.0</ele><time>2026-04-30T03:10:58.999Z</time></trkpt><trkpt lat="14.556305909612414" lon="121.0082357354204"><ele>5.0</ele><time>2026-04-30T03:10:59.999Z</time></trkpt><trkpt lat="14.556229803601084" lon="121.00827326502572"><ele>5.0</ele><time>2026-04-30T03:11:00.999Z</time></trkpt><trkpt lat="14.556148343642498" lon="121.00831205730785"><ele>5.0</ele><time>2026-04-30T03:11:01.999Z</time></trkpt><trkpt lat="14.556086226347817" lon="121.00834793545675"><ele>5.0</ele><time>2026-04-30T03:11:02.999Z</time></trkpt><trkpt lat="14.556021186416281" lon="121.00838124155204"><ele>5.428571428571429</ele><time>2026-04-30T03:11:03.999Z</time></trkpt><trkpt lat="14.555959572746607" lon="121.00841520342927"><ele>5.857142857142858</ele><time>2026-04-30T03:11:04.999Z</time></trkpt><trkpt lat="14.555903469451104" lon="121.00844558184183"><ele>6.285714285714286</ele><time>2026-04-30T03:11:05.999Z</time></trkpt><trkpt lat="14.55584400087141" lon="121.0084786512068"><ele>6.7142857142857135</ele><time>2026-04-30T03:11:06.999Z</time></trkpt><trkpt lat="14.555783367176303" lon="121.00851253580176"><ele>7.142857142857142</ele><time>2026-04-30T03:11:07.999Z</time></trkpt><trkpt lat="14.55572213726518" lon="121.0085456034238"><ele>7.571428571428571</ele><time>2026-04-30T03:11:08.999Z</time></trkpt><trkpt lat="14.5556578057861" lon="121.00858107818121"><ele>8.0</ele><time>2026-04-30T03:11:09.999Z</time></trkpt><trkpt lat="14.555585915805002" lon="121.00861492326408"><ele>7.999999999999999</ele><time>2026-04-30T03:11:10.999Z</time></trkpt><trkpt lat="14.555516185051907" lon="121.00865044866407"><ele>8.0</ele><time>2026-04-30T03:11:11.999Z</time></trkpt><trkpt lat="14.555444629890797" lon="121.00868753910716"><ele>8.0</ele><time>2026-04-30T03:11:12.999Z</time></trkpt><trkpt lat="14.555368965665938" lon="121.00872668983241"><ele>8.0</ele><time>2026-04-30T03:11:13.999Z</time></trkpt><trkpt lat="14.55529175358637" lon="121.00876611653052"><ele>7.999999999999999</ele><time>2026-04-30T03:11:14.999Z</time></trkpt><trkpt lat="14.555203817920534" lon="121.00880448377319"><ele>8.0</ele><time>2026-04-30T03:11:15.999Z</time></trkpt><trkpt lat="14.55511467700384" lon="121.00885009153411"><ele>7.4</ele><time>2026-04-30T03:11:16.999Z</time></trkpt><trkpt lat="14.555026436205" lon="121.00890050238468"><ele>6.800000000000001</ele><time>2026-04-30T03:11:17.999Z</time></trkpt><trkpt lat="14.554930867195951" lon="121.0089496575666"><ele>6.2</ele><time>2026-04-30T03:11:18.999Z</time></trkpt><trkpt lat="14.554833555788486" lon="121.00899810684655"><ele>5.6</ele><time>2026-04-30T03:11:19.999Z</time></trkpt><trkpt lat="14.55473370091559" lon="121.00905050533616"><ele>5.0</ele><time>2026-04-30T03:11:20.999Z</time></trkpt><trkpt lat="14.554641277309859" lon="121.00910395841498"><ele>5.0</ele><time>2026-04-30T03:11:21.999Z</time></trkpt><trkpt lat="14.554549187095553" lon="121.00915545143296"><ele>5.0</ele><time>2026-04-30T03:11:22.999Z</time></trkpt><trkpt lat="14.554455320077622" lon="121.00920703050174"><ele>5.0</ele><time>2026-04-30T03:11:23.999Z</time></trkpt><trkpt lat="14.554363156019782" lon="121.00925445131293"><ele>5.0</ele><time>2026-04-30T03:11:24.999Z</time></trkpt><trkpt lat="14.554267285154706" lon="121.00930531736758"><ele>5.0</ele><time>2026-04-30T03:11:25.999Z</time></trkpt><trkpt lat="14.554180000335975" lon="121.00935209833699"><ele>5.4</ele><time>2026-04-30T03:11:26.999Z</time></trkpt><trkpt lat="14.554087760153966" lon="121.00940231306684"><ele>5.8</ele><time>2026-04-30T03:11:27.999Z</time></trkpt><trkpt lat="14.553996075233844" lon="121.00945239782706"><ele>6.199999999999999</ele><time>2026-04-30T03:11:28.999Z</time></trkpt><trkpt lat="14.553905327331222" lon="121.00950223221852"><ele>6.6</ele><time>2026-04-30T03:11:29.999Z</time></trkpt><trkpt lat="14.553817096276378" lon="121.00955177288894"><ele>7.0</ele><time>2026-04-30T03:11:30.999Z</time></trkpt><trkpt lat="14.553730084866103" lon="121.00960319357219"><ele>7.0</ele><time>2026-04-30T03:11:31.999Z</time></trkpt><trkpt lat="14.553644967593165" lon="121.00965420528907"><ele>6.999999999999999</ele><time>2026-04-30T03:11:32.999Z</time></trkpt><trkpt lat="14.553561953042516" lon="121.00970410925264"><ele>6.999999999999999</ele><time>2026-04-30T03:11:33.999Z</time></trkpt><trkpt lat="14.553476604729138" lon="121.00975617314118"><ele>7.0</ele><time>2026-04-30T03:11:35.079Z</time></trkpt><trkpt lat="14.553405594517733" lon="121.0098016019357"><ele>7.0</ele><time>2026-04-30T03:11:36.045Z</time></trkpt><trkpt lat="14.55333130508285" lon="121.00984611423047"><ele>7.000000000000001</ele><time>2026-04-30T03:11:37.038Z</time></trkpt><trkpt lat="14.553236138805914" lon="121.00988675924665"><ele>7.0</ele><time>2026-04-30T03:11:38.034Z</time></trkpt><trkpt lat="14.553164511814362" lon="121.00993533492775"><ele>7.0</ele><time>2026-04-30T03:11:39.037Z</time></trkpt><trkpt lat="14.553094294418228" lon="121.00998477111095"><ele>7.0</ele><time>2026-04-30T03:11:40.033Z</time></trkpt><trkpt lat="14.553027902054392" lon="121.0100303224327"><ele>7.000000000000001</ele><time>2026-04-30T03:11:41.034Z</time></trkpt><trkpt lat="14.55295242531723" lon="121.01007594445011"><ele>7.0</ele><time>2026-04-30T03:11:42.032Z</time></trkpt><trkpt lat="14.552887444496436" lon="121.01011884259601"><ele>7.0</ele><time>2026-04-30T03:11:43.032Z</time></trkpt><trkpt lat="14.552813969010868" lon="121.01016403144993"><ele>6.999999999999999</ele><time>2026-04-30T03:11:44.032Z</time></trkpt><trkpt lat="14.552734908359207" lon="121.01021282880583"><ele>6.999999999999999</ele><time>2026-04-30T03:11:45.034Z</time></trkpt><trkpt lat="14.552654619919899" lon="121.01026113543867"><ele>7.0</ele><time>2026-04-30T03:11:46.034Z</time></trkpt><trkpt lat="14.55257192125481" lon="121.01030724368245"><ele>7.0</ele><time>2026-04-30T03:11:47.033Z</time></trkpt><trkpt lat="14.552487963126632" lon="121.01035763090469"><ele>11.0</ele><time>2026-04-30T03:11:48.033Z</time></trkpt><trkpt lat="14.551451117667764" lon="121.01095387090209"><ele>9.0</ele><time>2026-04-30T03:12:01.477Z</time></trkpt><trkpt lat="14.54698723763461" lon="121.01237935472578"><ele>8.0</ele><time>2026-04-30T03:14:32.008Z</time></trkpt><trkpt lat="14.547905803011481" lon="121.01260197696573"><ele>17.0</ele><time>2026-04-30T03:14:35.011Z</time></trkpt><trkpt lat="14.542804773339856" lon="121.01559397194067"><ele>17.0</ele><time>2026-04-30T03:15:11Z</time></trkpt><trkpt lat="14.542366164619747" lon="121.01564672017413"><ele>17.0</ele><time>2026-04-30T03:15:14Z</time></trkpt><trkpt lat="14.542209556411331" lon="121.01573648882699"><ele>17.0</ele><time>2026-04-30T03:15:15Z</time></trkpt><trkpt lat="14.542098859181655" lon="121.01579155984948"><ele>17.0</ele><time>2026-04-30T03:15:16Z</time></trkpt><trkpt lat="14.541996849431253" lon="121.01583607826007"><ele>17.0</ele><time>2026-04-30T03:15:16.999Z</time></trkpt><trkpt lat="14.541917495722773" lon="121.01586508367916"><ele>17.0</ele><time>2026-04-30T03:15:17.999Z</time></trkpt><trkpt lat="14.541834033469504" lon="121.0158953125431"><ele>17.0</ele><time>2026-04-30T03:15:18.999Z</time></trkpt><trkpt lat="14.541784335931538" lon="121.01594262141262"><ele>16.0</ele><time>2026-04-30T03:15:19.999Z</time></trkpt><trkpt lat="14.541703654893631" lon="121.01597080678177"><ele>15.0</ele><time>2026-04-30T03:15:21Z</time></trkpt><trkpt lat="14.54162229061453" lon="121.01599681341001"><ele>14.0</ele><time>2026-04-30T03:15:22Z</time></trkpt><trkpt lat="14.541547574323557" lon="121.01603302111556"><ele>13.0</ele><time>2026-04-30T03:15:23Z</time></trkpt><trkpt lat="14.541466522891975" lon="121.01607140980019"><ele>12.0</ele><time>2026-04-30T03:15:24Z</time></trkpt><trkpt lat="14.541382152944509" lon="121.01610214804462"><ele>11.0</ele><time>2026-04-30T03:15:25Z</time></trkpt><trkpt lat="14.541298264494253" lon="121.01613026935978"><ele>11.0</ele><time>2026-04-30T03:15:26Z</time></trkpt><trkpt lat="14.541216492595929" lon="121.01615534809122"><ele>11.0</ele><time>2026-04-30T03:15:26.999Z</time></trkpt><trkpt lat="14.541134288825724" lon="121.01618286106292"><ele>11.0</ele><time>2026-04-30T03:15:27.999Z</time></trkpt><trkpt lat="14.541051393801778" lon="121.01621253929652"><ele>11.0</ele><time>2026-04-30T03:15:28.999Z</time></trkpt><trkpt lat="14.540966602760328" lon="121.01624186654075"><ele>11.0</ele><time>2026-04-30T03:15:29.999Z</time></trkpt><trkpt lat="14.540878191969941" lon="121.01627309618914"><ele>11.0</ele><time>2026-04-30T03:15:31Z</time></trkpt><trkpt lat="14.540789894249956" lon="121.01631000084795"><ele>11.200000000000001</ele><time>2026-04-30T03:15:32Z</time></trkpt><trkpt lat="14.540679693412915" lon="121.01635664459678"><ele>11.4</ele><time>2026-04-30T03:15:33Z</time></trkpt><trkpt lat="14.54058708647247" lon="121.01639630813428"><ele>11.6</ele><time>2026-04-30T03:15:34Z</time></trkpt><trkpt lat="14.540488154199169" lon="121.01644306389181"><ele>11.8</ele><time>2026-04-30T03:15:35Z</time></trkpt><trkpt lat="14.540382748697256" lon="121.01648793110233"><ele>12.0</ele><time>2026-04-30T03:15:36Z</time></trkpt><trkpt lat="14.540274725576783" lon="121.01654522912348"><ele>11.666666666666666</ele><time>2026-04-30T03:15:37Z</time></trkpt><trkpt lat="14.54013668158864" lon="121.01666870291604"><ele>11.333333333333332</ele><time>2026-04-30T03:15:38Z</time></trkpt><trkpt lat="14.540009568134366" lon="121.01676443346572"><ele>11.0</ele><time>2026-04-30T03:15:39Z</time></trkpt><trkpt lat="14.539896103380814" lon="121.01678355175815"><ele>11.0</ele><time>2026-04-30T03:15:40Z</time></trkpt><trkpt lat="14.539759548566634" lon="121.0168870291809"><ele>11.0</ele><time>2026-04-30T03:15:42Z</time></trkpt><trkpt lat="14.539682659168193" lon="121.01695030935693"><ele>11.0</ele><time>2026-04-30T03:15:43Z</time></trkpt><trkpt lat="14.53960680446127" lon="121.01700628378832"><ele>11.0</ele><time>2026-04-30T03:15:44Z</time></trkpt><trkpt lat="14.539536233831326" lon="121.01705510997556"><ele>11.0</ele><time>2026-04-30T03:15:45Z</time></trkpt><trkpt lat="14.539471856510634" lon="121.01710727975961"><ele>11.4</ele><time>2026-04-30T03:15:46Z</time></trkpt><trkpt lat="14.539402645721708" lon="121.01716391585987"><ele>11.8</ele><time>2026-04-30T03:15:47Z</time></trkpt><trkpt lat="14.53933323144636" lon="121.01721968106465"><ele>12.200000000000001</ele><time>2026-04-30T03:15:48Z</time></trkpt><trkpt lat="14.539261428681689" lon="121.01727777896723"><ele>12.600000000000001</ele><time>2026-04-30T03:15:49Z</time></trkpt><trkpt lat="14.539191128365053" lon="121.01733719047935"><ele>13.0</ele><time>2026-04-30T03:15:50Z</time></trkpt><trkpt lat="14.539118427284256" lon="121.01739821333273"><ele>12.999999999999998</ele><time>2026-04-30T03:15:51Z</time></trkpt><trkpt lat="14.539050798188432" lon="121.01744763795196"><ele>13.0</ele><time>2026-04-30T03:15:52Z</time></trkpt><trkpt lat="14.539002196883603" lon="121.01749315914644"><ele>13.0</ele><time>2026-04-30T03:15:53Z</time></trkpt><trkpt lat="14.538922112903293" lon="121.01753403179995"><ele>13.0</ele><time>2026-04-30T03:15:54Z</time></trkpt><trkpt lat="14.538853693210184" lon="121.01758017414268"><ele>12.999999999999998</ele><time>2026-04-30T03:15:55Z</time></trkpt><trkpt lat="14.538771743400991" lon="121.01762575026034"><ele>13.0</ele><time>2026-04-30T03:15:56Z</time></trkpt><trkpt lat="14.538691862487534" lon="121.01767845540574"><ele>12.600000000000001</ele><time>2026-04-30T03:15:57Z</time></trkpt><trkpt lat="14.53860390996826" lon="121.01772697090881"><ele>12.200000000000001</ele><time>2026-04-30T03:15:58Z</time></trkpt><trkpt lat="14.538505892062023" lon="121.01777952145568"><ele>11.8</ele><time>2026-04-30T03:15:59Z</time></trkpt><trkpt lat="14.538412460319533" lon="121.01782283347389"><ele>11.4</ele><time>2026-04-30T03:16:00Z</time></trkpt><trkpt lat="14.53831568941744" lon="121.0178705481557"><ele>11.0</ele><time>2026-04-30T03:16:01Z</time></trkpt><trkpt lat="14.538235122164512" lon="121.01792045510702"><ele>11.0</ele><time>2026-04-30T03:16:02Z</time></trkpt><trkpt lat="14.538146573296956" lon="121.01796320295507"><ele>11.0</ele><time>2026-04-30T03:16:03Z</time></trkpt><trkpt lat="14.538057079109972" lon="121.01801100863078"><ele>11.0</ele><time>2026-04-30T03:16:04Z</time></trkpt><trkpt lat="14.537967060094475" lon="121.01806087346213"><ele>11.0</ele><time>2026-04-30T03:16:05Z</time></trkpt><trkpt lat="14.537873274097254" lon="121.0181080587265"><ele>11.0</ele><time>2026-04-30T03:16:06Z</time></trkpt><trkpt lat="14.537779663580416" lon="121.01816415816931"><ele>11.0</ele><time>2026-04-30T03:16:07Z</time></trkpt><trkpt lat="14.537679004983053" lon="121.01822042908017"><ele>11.0</ele><time>2026-04-30T03:16:08Z</time></trkpt><trkpt lat="14.537575441495438" lon="121.01827817572968"><ele>11.0</ele><time>2026-04-30T03:16:09Z</time></trkpt><trkpt lat="14.53746807095167" lon="121.01833971054621"><ele>11.0</ele><time>2026-04-30T03:16:10Z</time></trkpt><trkpt lat="14.537356678120474" lon="121.01839670164782"><ele>11.0</ele><time>2026-04-30T03:16:11Z</time></trkpt><trkpt lat="14.537241328600157" lon="121.01845390755247"><ele>11.0</ele><time>2026-04-30T03:16:12Z</time></trkpt><trkpt lat="14.53711856389516" lon="121.01852740532979"><ele>11.0</ele><time>2026-04-30T03:16:13Z</time></trkpt><trkpt lat="14.536994909094387" lon="121.01859496782194"><ele>11.0</ele><time>2026-04-30T03:16:14Z</time></trkpt><trkpt lat="14.536871397677235" lon="121.01866135887326"><ele>11.0</ele><time>2026-04-30T03:16:15Z</time></trkpt><trkpt lat="14.536746624982756" lon="121.0187287344269"><ele>11.0</ele><time>2026-04-30T03:16:16Z</time></trkpt><trkpt lat="14.536621841459207" lon="121.01879672688528"><ele>11.0</ele><time>2026-04-30T03:16:17Z</time></trkpt><trkpt lat="14.536488941809738" lon="121.01886727473527"><ele>11.0</ele><time>2026-04-30T03:16:18Z</time></trkpt><trkpt lat="14.536370644766837" lon="121.0189435563516"><ele>11.0</ele><time>2026-04-30T03:16:19Z</time></trkpt><trkpt lat="14.536225238401133" lon="121.01901891616885"><ele>11.0</ele><time>2026-04-30T03:16:20Z</time></trkpt><trkpt lat="14.536091105296824" lon="121.01909367896859"><ele>11.0</ele><time>2026-04-30T03:16:21Z</time></trkpt><trkpt lat="14.535956209895033" lon="121.0191687813614"><ele>12.333333333333332</ele><time>2026-04-30T03:16:22Z</time></trkpt><trkpt lat="14.535821336703501" lon="121.01924424557016"><ele>13.666666666666666</ele><time>2026-04-30T03:16:23Z</time></trkpt><trkpt lat="14.535686796065509" lon="121.01931553857527"><ele>15.0</ele><time>2026-04-30T03:16:24Z</time></trkpt><trkpt lat="14.53554062027223" lon="121.0193926319469"><ele>15.0</ele><time>2026-04-30T03:16:25Z</time></trkpt><trkpt lat="14.535403951405542" lon="121.01947071339828"><ele>15.0</ele><time>2026-04-30T03:16:26Z</time></trkpt><trkpt lat="14.535265925866714" lon="121.01955412915596"><ele>15.0</ele><time>2026-04-30T03:16:27Z</time></trkpt><trkpt lat="14.535118761321195" lon="121.0196399580877"><ele>14.333333333333332</ele><time>2026-04-30T03:16:28Z</time></trkpt><trkpt lat="14.534972281470502" lon="121.01972472780534"><ele>13.666666666666666</ele><time>2026-04-30T03:16:29Z</time></trkpt><trkpt lat="14.534828687602008" lon="121.01980139521707"><ele>13.0</ele><time>2026-04-30T03:16:30Z</time></trkpt><trkpt lat="14.534676312917025" lon="121.01988118061008"><ele>12.666666666666666</ele><time>2026-04-30T03:16:31Z</time></trkpt><trkpt lat="14.534518875450162" lon="121.01996489888802"><ele>12.333333333333332</ele><time>2026-04-30T03:16:32Z</time></trkpt><trkpt lat="14.534361460574031" lon="121.02003339834471"><ele>12.0</ele><time>2026-04-30T03:16:33Z</time></trkpt><trkpt lat="14.534198880831848" lon="121.02011284031224"><ele>13.333333333333332</ele><time>2026-04-30T03:16:34Z</time></trkpt><trkpt lat="14.534028768637345" lon="121.02020012339848"><ele>14.666666666666666</ele><time>2026-04-30T03:16:35Z</time></trkpt><trkpt lat="14.53386477650599" lon="121.02028479638456"><ele>16.0</ele><time>2026-04-30T03:16:36Z</time></trkpt><trkpt lat="14.53370289870237" lon="121.0203750248062"><ele>16.333333333333332</ele><time>2026-04-30T03:16:37Z</time></trkpt><trkpt lat="14.53353903199367" lon="121.02046194486674"><ele>16.666666666666668</ele><time>2026-04-30T03:16:38Z</time></trkpt><trkpt lat="14.533372684090617" lon="121.02054760837406"><ele>17.0</ele><time>2026-04-30T03:16:39Z</time></trkpt><trkpt lat="14.533203538139581" lon="121.02063970051492"><ele>17.0</ele><time>2026-04-30T03:16:40Z</time></trkpt><trkpt lat="14.533027625679868" lon="121.02073588253623"><ele>17.0</ele><time>2026-04-30T03:16:41Z</time></trkpt><trkpt lat="14.532858447351703" lon="121.02082325505265"><ele>17.0</ele><time>2026-04-30T03:16:42Z</time></trkpt><trkpt lat="14.532693745349693" lon="121.02091110985022"><ele>15.333333333333334</ele><time>2026-04-30T03:16:43Z</time></trkpt><trkpt lat="14.532529152268898" lon="121.02100882551245"><ele>13.666666666666668</ele><time>2026-04-30T03:16:44Z</time></trkpt><trkpt lat="14.532369318205093" lon="121.02109753328588"><ele>12.0</ele><time>2026-04-30T03:16:45Z</time></trkpt><trkpt lat="14.532209914418777" lon="121.02118792230765"><ele>10.666666666666666</ele><time>2026-04-30T03:16:46Z</time></trkpt><trkpt lat="14.53205398923328" lon="121.02127431713252"><ele>9.333333333333332</ele><time>2026-04-30T03:16:47Z</time></trkpt><trkpt lat="14.531886980493116" lon="121.02136495709928"><ele>8.0</ele><time>2026-04-30T03:16:48Z</time></trkpt><trkpt lat="14.531733653341075" lon="121.02144651257456"><ele>8.0</ele><time>2026-04-30T03:16:49Z</time></trkpt><trkpt lat="14.531573614178797" lon="121.02153002773036"><ele>8.0</ele><time>2026-04-30T03:16:50Z</time></trkpt><trkpt lat="14.53142123410783" lon="121.02161564797606"><ele>8.0</ele><time>2026-04-30T03:16:51Z</time></trkpt><trkpt lat="14.5312655688299" lon="121.02169706725809"><ele>8.333333333333332</ele><time>2026-04-30T03:16:52Z</time></trkpt><trkpt lat="14.531104415976278" lon="121.02179186089495"><ele>8.666666666666666</ele><time>2026-04-30T03:16:53Z</time></trkpt><trkpt lat="14.530944611707534" lon="121.02188151967371"><ele>9.0</ele><time>2026-04-30T03:16:54Z</time></trkpt><trkpt lat="14.530784918897913" lon="121.02196991521825"><ele>9.0</ele><time>2026-04-30T03:16:55Z</time></trkpt><trkpt lat="14.530619052126383" lon="121.02205827000692"><ele>9.0</ele><time>2026-04-30T03:16:56Z</time></trkpt><trkpt lat="14.530452497488579" lon="121.0221463375061"><ele>9.0</ele><time>2026-04-30T03:16:57Z</time></trkpt><trkpt lat="14.530283971312226" lon="121.02223589771846"><ele>8.666666666666666</ele><time>2026-04-30T03:16:58Z</time></trkpt><trkpt lat="14.530136543825783" lon="121.02231233123646"><ele>8.333333333333332</ele><time>2026-04-30T03:16:59Z</time></trkpt><trkpt lat="14.529981403591297" lon="121.02241649051342"><ele>8.0</ele><time>2026-04-30T03:17:00Z</time></trkpt><trkpt lat="14.529823927416144" lon="121.02250056325856"><ele>8.666666666666666</ele><time>2026-04-30T03:17:01Z</time></trkpt><trkpt lat="14.529672460327351" lon="121.02258362997878"><ele>9.333333333333334</ele><time>2026-04-30T03:17:02Z</time></trkpt><trkpt lat="14.529524276729752" lon="121.02265291054157"><ele>10.0</ele><time>2026-04-30T03:17:03Z</time></trkpt><trkpt lat="14.52937225628544" lon="121.02272672631443"><ele>10.0</ele><time>2026-04-30T03:17:04Z</time></trkpt><trkpt lat="14.529215197811821" lon="121.0228150130128"><ele>10.0</ele><time>2026-04-30T03:17:05Z</time></trkpt><trkpt lat="14.529059563111545" lon="121.02289858733604"><ele>10.0</ele><time>2026-04-30T03:17:06Z</time></trkpt><trkpt lat="14.528907749171456" lon="121.02298119552441"><ele>10.0</ele><time>2026-04-30T03:17:07Z</time></trkpt><trkpt lat="14.528748829213367" lon="121.02305994549386"><ele>10.0</ele><time>2026-04-30T03:17:08Z</time></trkpt><trkpt lat="14.528595222282803" lon="121.02314616252856"><ele>10.0</ele><time>2026-04-30T03:17:09Z</time></trkpt><trkpt lat="14.528441990154587" lon="121.02323200564943"><ele>10.0</ele><time>2026-04-30T03:17:10Z</time></trkpt><trkpt lat="14.528288579475682" lon="121.02332125828097"><ele>10.0</ele><time>2026-04-30T03:17:11Z</time></trkpt><trkpt lat="14.528161059618634" lon="121.02339698014568"><ele>10.0</ele><time>2026-04-30T03:17:12Z</time></trkpt><trkpt lat="14.528029472239764" lon="121.02346645416853"><ele>10.25</ele><time>2026-04-30T03:17:13Z</time></trkpt><trkpt lat="14.52787295134789" lon="121.02352137608192"><ele>10.5</ele><time>2026-04-30T03:17:14Z</time></trkpt><trkpt lat="14.527744251121485" lon="121.02358545844847"><ele>10.75</ele><time>2026-04-30T03:17:15Z</time></trkpt><trkpt lat="14.527638688767707" lon="121.0236566977176"><ele>11.0</ele><time>2026-04-30T03:17:16Z</time></trkpt><trkpt lat="14.527520081927497" lon="121.02371898208001"><ele>11.0</ele><time>2026-04-30T03:17:17Z</time></trkpt><trkpt lat="14.52738272987464" lon="121.02378715667734"><ele>11.0</ele><time>2026-04-30T03:17:18Z</time></trkpt><trkpt lat="14.527247844888063" lon="121.0238614589975"><ele>11.0</ele><time>2026-04-30T03:17:19Z</time></trkpt><trkpt lat="14.527128446915734" lon="121.02393202388566"><ele>11.0</ele><time>2026-04-30T03:17:20Z</time></trkpt><trkpt lat="14.527001271830615" lon="121.02399900127521"><ele>11.25</ele><time>2026-04-30T03:17:21Z</time></trkpt><trkpt lat="14.526885157294103" lon="121.02406007629408"><ele>11.5</ele><time>2026-04-30T03:17:22Z</time></trkpt><trkpt lat="14.52678245128978" lon="121.02411660027829"><ele>11.75</ele><time>2026-04-30T03:17:23Z</time></trkpt><trkpt lat="14.526677219728814" lon="121.02418417744089"><ele>12.0</ele><time>2026-04-30T03:17:24Z</time></trkpt><trkpt lat="14.52658023733286" lon="121.0242597907738"><ele>12.0</ele><time>2026-04-30T03:17:25Z</time></trkpt><trkpt lat="14.526447228027743" lon="121.02434246667936"><ele>12.0</ele><time>2026-04-30T03:17:26Z</time></trkpt><trkpt lat="14.52633250088724" lon="121.02440576837336"><ele>12.0</ele><time>2026-04-30T03:17:27Z</time></trkpt><trkpt lat="14.526214893547005" lon="121.02446355007685"><ele>12.0</ele><time>2026-04-30T03:17:28Z</time></trkpt><trkpt lat="14.526100055801711" lon="121.02453374536677"><ele>10.75</ele><time>2026-04-30T03:17:29Z</time></trkpt><trkpt lat="14.52597409204509" lon="121.0245994767257"><ele>9.5</ele><time>2026-04-30T03:17:30Z</time></trkpt><trkpt lat="14.525834311689454" lon="121.0246616649198"><ele>8.25</ele><time>2026-04-30T03:17:31Z</time></trkpt><trkpt lat="14.52570573602111" lon="121.02472062340254"><ele>7.0</ele><time>2026-04-30T03:17:32Z</time></trkpt><trkpt lat="14.525588117403391" lon="121.02478850707928"><ele>7.0</ele><time>2026-04-30T03:17:33Z</time></trkpt><trkpt lat="14.525470531755762" lon="121.02484908569728"><ele>7.0</ele><time>2026-04-30T03:17:34Z</time></trkpt><trkpt lat="14.525352428170633" lon="121.02491138393168"><ele>7.0</ele><time>2026-04-30T03:17:35Z</time></trkpt><trkpt lat="14.525233314290707" lon="121.0249737317523"><ele>7.0</ele><time>2026-04-30T03:17:36Z</time></trkpt><trkpt lat="14.525115858204583" lon="121.02503951078897"><ele>8.0</ele><time>2026-04-30T03:17:37Z</time></trkpt><trkpt lat="14.524996304679053" lon="121.02510127873111"><ele>9.0</ele><time>2026-04-30T03:17:38Z</time></trkpt><trkpt lat="14.524885376589948" lon="121.02516218888812"><ele>10.0</ele><time>2026-04-30T03:17:39Z</time></trkpt><trkpt lat="14.52476952949165" lon="121.02522516865236"><ele>11.0</ele><time>2026-04-30T03:17:40Z</time></trkpt><trkpt lat="14.524651591731624" lon="121.02528747209647"><ele>12.0</ele><time>2026-04-30T03:17:41Z</time></trkpt><trkpt lat="14.52453636187341" lon="121.0253516536605"><ele>13.0</ele><time>2026-04-30T03:17:42Z</time></trkpt><trkpt lat="14.524412548381651" lon="121.02541722045476"><ele>14.0</ele><time>2026-04-30T03:17:43Z</time></trkpt><trkpt lat="14.524287349145805" lon="121.02548626737594"><ele>15.0</ele><time>2026-04-30T03:17:44Z</time></trkpt><trkpt lat="14.524154963144815" lon="121.02555512370735"><ele>15.0</ele><time>2026-04-30T03:17:45Z</time></trkpt><trkpt lat="14.524017419478653" lon="121.02562853745098"><ele>15.0</ele><time>2026-04-30T03:17:46Z</time></trkpt><trkpt lat="14.523885914913444" lon="121.0256903093378"><ele>15.0</ele><time>2026-04-30T03:17:47Z</time></trkpt><trkpt lat="14.523744470245015" lon="121.02577207007653"><ele>15.333333333333332</ele><time>2026-04-30T03:17:48Z</time></trkpt><trkpt lat="14.523606596073304" lon="121.0258432446589"><ele>15.666666666666666</ele><time>2026-04-30T03:17:49Z</time></trkpt><trkpt lat="14.523455975487177" lon="121.02592111507927"><ele>16.0</ele><time>2026-04-30T03:17:50Z</time></trkpt><trkpt lat="14.52330698565998" lon="121.02599803895488"><ele>16.0</ele><time>2026-04-30T03:17:51Z</time></trkpt><trkpt lat="14.523149663707747" lon="121.02607130634036"><ele>16.0</ele><time>2026-04-30T03:17:52Z</time></trkpt><trkpt lat="14.522990003623235" lon="121.02614650247365"><ele>16.0</ele><time>2026-04-30T03:17:53Z</time></trkpt><trkpt lat="14.52282587554301" lon="121.02621561119689"><ele>15.333333333333332</ele><time>2026-04-30T03:17:54Z</time></trkpt><trkpt lat="14.522662248211946" lon="121.02629217350223"><ele>14.666666666666668</ele><time>2026-04-30T03:17:55Z</time></trkpt><trkpt lat="14.522493188439208" lon="121.02636182990992"><ele>14.0</ele><time>2026-04-30T03:17:56Z</time></trkpt><trkpt lat="14.522322317347559" lon="121.02643136877818"><ele>14.0</ele><time>2026-04-30T03:17:57Z</time></trkpt><trkpt lat="14.522152281738315" lon="121.0264979556962"><ele>14.0</ele><time>2026-04-30T03:17:58Z</time></trkpt><trkpt lat="14.521982724393977" lon="121.02656315563536"><ele>14.0</ele><time>2026-04-30T03:17:59Z</time></trkpt><trkpt lat="14.52181054896238" lon="121.02662891769097"><ele>14.666666666666668</ele><time>2026-04-30T03:18:00Z</time></trkpt><trkpt lat="14.52163792615705" lon="121.02669570729553"><ele>15.333333333333332</ele><time>2026-04-30T03:18:01Z</time></trkpt><trkpt lat="14.521466900779437" lon="121.02676246851698"><ele>16.0</ele><time>2026-04-30T03:18:02Z</time></trkpt><trkpt lat="14.521295228647173" lon="121.0268273436029"><ele>16.0</ele><time>2026-04-30T03:18:03Z</time></trkpt><trkpt lat="14.521122881644846" lon="121.02689481679685"><ele>16.0</ele><time>2026-04-30T03:18:04Z</time></trkpt><trkpt lat="14.520951182772494" lon="121.02696403671824"><ele>16.0</ele><time>2026-04-30T03:18:05Z</time></trkpt><trkpt lat="14.520780951640178" lon="121.02703810680735"><ele>16.0</ele><time>2026-04-30T03:18:06Z</time></trkpt><trkpt lat="14.520613660087927" lon="121.02711569381383"><ele>16.0</ele><time>2026-04-30T03:18:07Z</time></trkpt><trkpt lat="14.52044996222327" lon="121.02719846630282"><ele>16.0</ele><time>2026-04-30T03:18:08Z</time></trkpt><trkpt lat="14.52028857518976" lon="121.02728193992657"><ele>16.0</ele><time>2026-04-30T03:18:09Z</time></trkpt><trkpt lat="14.520127994699273" lon="121.0273662715859"><ele>16.0</ele><time>2026-04-30T03:18:10Z</time></trkpt><trkpt lat="14.519965772046401" lon="121.02745031910314"><ele>16.0</ele><time>2026-04-30T03:18:11Z</time></trkpt><trkpt lat="14.519806161986937" lon="121.02753263036341"><ele>16.333333333333332</ele><time>2026-04-30T03:18:12Z</time></trkpt><trkpt lat="14.519647971277935" lon="121.02761421443942"><ele>16.666666666666668</ele><time>2026-04-30T03:18:13Z</time></trkpt><trkpt lat="14.519491021186996" lon="121.02769477303322"><ele>17.0</ele><time>2026-04-30T03:18:14Z</time></trkpt><trkpt lat="14.519336758352523" lon="121.02777548235723"><ele>17.0</ele><time>2026-04-30T03:18:15Z</time></trkpt><trkpt lat="14.51918261196225" lon="121.0278553460421"><ele>17.0</ele><time>2026-04-30T03:18:16Z</time></trkpt><trkpt lat="14.519033016858344" lon="121.0279367127687"><ele>17.0</ele><time>2026-04-30T03:18:17Z</time></trkpt><trkpt lat="14.518887837854342" lon="121.02801437011216"><ele>17.0</ele><time>2026-04-30T03:18:18Z</time></trkpt><trkpt lat="14.518745748029149" lon="121.02808940296919"><ele>17.0</ele><time>2026-04-30T03:18:19Z</time></trkpt><trkpt lat="14.518605049620726" lon="121.02816686979286"><ele>17.0</ele><time>2026-04-30T03:18:20Z</time></trkpt><trkpt lat="14.518470426805168" lon="121.02824146813704"><ele>18.333333333333336</ele><time>2026-04-30T03:18:21Z</time></trkpt><trkpt lat="14.518339222589608" lon="121.02832018012107"><ele>19.666666666666668</ele><time>2026-04-30T03:18:22Z</time></trkpt><trkpt lat="14.518209624532204" lon="121.02839972639684"><ele>21.0</ele><time>2026-04-30T03:18:23Z</time></trkpt><trkpt lat="14.518086548334027" lon="121.02848925544292"><ele>21.0</ele><time>2026-04-30T03:18:24Z</time></trkpt><trkpt lat="14.517961485396059" lon="121.02858236540997"><ele>21.0</ele><time>2026-04-30T03:18:25Z</time></trkpt><trkpt lat="14.517833463580338" lon="121.02867381412536"><ele>21.0</ele><time>2026-04-30T03:18:26Z</time></trkpt><trkpt lat="14.517700142887735" lon="121.0287666164926"><ele>21.666666666666668</ele><time>2026-04-30T03:18:27Z</time></trkpt><trkpt lat="14.517563393826586" lon="121.02886353873299"><ele>22.333333333333336</ele><time>2026-04-30T03:18:28Z</time></trkpt><trkpt lat="14.517422499147163" lon="121.02896356134109"><ele>23.0</ele><time>2026-04-30T03:18:29Z</time></trkpt><trkpt lat="14.517279522778292" lon="121.02906854638205"><ele>22.333333333333336</ele><time>2026-04-30T03:18:30Z</time></trkpt><trkpt lat="14.517133735874898" lon="121.02917805406119"><ele>21.666666666666668</ele><time>2026-04-30T03:18:31Z</time></trkpt><trkpt lat="14.51698617102764" lon="121.02928990186187"><ele>21.0</ele><time>2026-04-30T03:18:32Z</time></trkpt><trkpt lat="14.516837972822103" lon="121.02940482365055"><ele>22.333333333333336</ele><time>2026-04-30T03:18:33Z</time></trkpt><trkpt lat="14.516687457159884" lon="121.0295217160677"><ele>23.666666666666668</ele><time>2026-04-30T03:18:34Z</time></trkpt><trkpt lat="14.51653218198505" lon="121.02963310377967"><ele>25.0</ele><time>2026-04-30T03:18:35Z</time></trkpt><trkpt lat="14.516371631869124" lon="121.029737230893"><ele>24.333333333333336</ele><time>2026-04-30T03:18:36Z</time></trkpt><trkpt lat="14.516206441480797" lon="121.02983662123107"><ele>23.666666666666668</ele><time>2026-04-30T03:18:37Z</time></trkpt><trkpt lat="14.51603867553773" lon="121.02993085918204"><ele>23.0</ele><time>2026-04-30T03:18:38Z</time></trkpt><trkpt lat="14.515870128218651" lon="121.03002346379245"><ele>23.333333333333336</ele><time>2026-04-30T03:18:39Z</time></trkpt><trkpt lat="14.515700460280998" lon="121.03011451509573"><ele>23.666666666666668</ele><time>2026-04-30T03:18:40Z</time></trkpt><trkpt lat="14.515532161056026" lon="121.03020535060486"><ele>24.0</ele><time>2026-04-30T03:18:41Z</time></trkpt><trkpt lat="14.515364643195484" lon="121.03029466307814"><ele>24.0</ele><time>2026-04-30T03:18:42Z</time></trkpt><trkpt lat="14.515197673633107" lon="121.03038197358767"><ele>24.0</ele><time>2026-04-30T03:18:43Z</time></trkpt><trkpt lat="14.515032611889355" lon="121.03046725239189"><ele>24.0</ele><time>2026-04-30T03:18:44Z</time></trkpt><trkpt lat="14.51487274131767" lon="121.03055057328493"><ele>24.0</ele><time>2026-04-30T03:18:45Z</time></trkpt><trkpt lat="14.514716974415924" lon="121.030633863214"><ele>24.0</ele><time>2026-04-30T03:18:46Z</time></trkpt><trkpt lat="14.514564440583996" lon="121.03071510504282"><ele>24.0</ele><time>2026-04-30T03:18:47Z</time></trkpt><trkpt lat="14.514416791087347" lon="121.03079409622777"><ele>24.0</ele><time>2026-04-30T03:18:48Z</time></trkpt><trkpt lat="14.51427205495875" lon="121.03087128217186"><ele>24.0</ele><time>2026-04-30T03:18:49Z</time></trkpt><trkpt lat="14.514130644956515" lon="121.03094490940491"><ele>24.0</ele><time>2026-04-30T03:18:50Z</time></trkpt><trkpt lat="14.513993561162874" lon="121.03101584579724"><ele>24.0</ele><time>2026-04-30T03:18:51Z</time></trkpt><trkpt lat="14.513862850084777" lon="121.03108280832477"><ele>24.0</ele><time>2026-04-30T03:18:52Z</time></trkpt><trkpt lat="14.513740243266977" lon="121.03114303397318"><ele>24.0</ele><time>2026-04-30T03:18:53Z</time></trkpt><trkpt lat="14.513622568352558" lon="121.0311977364525"><ele>24.0</ele><time>2026-04-30T03:18:54Z</time></trkpt><trkpt lat="14.513511390239582" lon="121.03124701779976"><ele>23.6</ele><time>2026-04-30T03:18:55Z</time></trkpt><trkpt lat="14.513407628931901" lon="121.03129022350426"><ele>23.2</ele><time>2026-04-30T03:18:56Z</time></trkpt><trkpt lat="14.513315793966358" lon="121.03132845874563"><ele>22.8</ele><time>2026-04-30T03:18:57Z</time></trkpt><trkpt lat="14.51323323300093" lon="121.03136392901963"><ele>22.400000000000002</ele><time>2026-04-30T03:18:58Z</time></trkpt><trkpt lat="14.513158722599" lon="121.03139591861701"><ele>22.0</ele><time>2026-04-30T03:18:59Z</time></trkpt><trkpt lat="14.513094358837563" lon="121.03142397550981"><ele>22.0</ele><time>2026-04-30T03:19:00Z</time></trkpt><trkpt lat="14.513034508863159" lon="121.03144891958391"><ele>22.0</ele><time>2026-04-30T03:19:01Z</time></trkpt><trkpt lat="14.512937951084547" lon="121.03149405269134"><ele>22.0</ele><time>2026-04-30T03:19:03Z</time></trkpt><trkpt lat="14.512874929784507" lon="121.03152734453884"><ele>22.0</ele><time>2026-04-30T03:19:05Z</time></trkpt><trkpt lat="14.51280696271991" lon="121.03156818872446"><ele>22.0</ele><time>2026-04-30T03:19:09Z</time></trkpt><trkpt lat="14.512717370314196" lon="121.03161397627139"><ele>22.0</ele><time>2026-04-30T03:19:12Z</time></trkpt><trkpt lat="14.512615762847988" lon="121.03169064074996"><ele>22.42857142857143</ele><time>2026-04-30T03:19:14Z</time></trkpt><trkpt lat="14.512561560607486" lon="121.03173578970943"><ele>22.857142857142858</ele><time>2026-04-30T03:19:15Z</time></trkpt><trkpt lat="14.512505803420966" lon="121.03178069129973"><ele>23.285714285714285</ele><time>2026-04-30T03:19:16Z</time></trkpt><trkpt lat="14.51245220009644" lon="121.03182306420516"><ele>23.714285714285715</ele><time>2026-04-30T03:19:17Z</time></trkpt><trkpt lat="14.512396621728751" lon="121.03186415393594"><ele>24.142857142857142</ele><time>2026-04-30T03:19:18Z</time></trkpt><trkpt lat="14.512339790680004" lon="121.03190440653074"><ele>24.571428571428573</ele><time>2026-04-30T03:19:19Z</time></trkpt><trkpt lat="14.512280381666361" lon="121.03194616790098"><ele>25.0</ele><time>2026-04-30T03:19:20Z</time></trkpt><trkpt lat="14.51221510298782" lon="121.03198914945486"><ele>25.0</ele><time>2026-04-30T03:19:21Z</time></trkpt><trkpt lat="14.512142752432554" lon="121.03203112177007"><ele>25.0</ele><time>2026-04-30T03:19:22Z</time></trkpt><trkpt lat="14.512063009628932" lon="121.03207404812736"><ele>25.0</ele><time>2026-04-30T03:19:23Z</time></trkpt><trkpt lat="14.511977609259558" lon="121.03211969322969"><ele>25.0</ele><time>2026-04-30T03:19:24Z</time></trkpt><trkpt lat="14.511886476496628" lon="121.0321684779733"><ele>25.0</ele><time>2026-04-30T03:19:25Z</time></trkpt><trkpt lat="14.511788182457405" lon="121.03221831272498"><ele>24.75</ele><time>2026-04-30T03:19:26Z</time></trkpt><trkpt lat="14.511688484660578" lon="121.03227045053208"><ele>24.5</ele><time>2026-04-30T03:19:27Z</time></trkpt><trkpt lat="14.511587083703898" lon="121.03232319468832"><ele>24.25</ele><time>2026-04-30T03:19:28Z</time></trkpt><trkpt lat="14.511487730005843" lon="121.03237696588332"><ele>24.0</ele><time>2026-04-30T03:19:29Z</time></trkpt><trkpt lat="14.511388256043238" lon="121.03243051949627"><ele>24.75</ele><time>2026-04-30T03:19:30Z</time></trkpt><trkpt lat="14.511288988280358" lon="121.03248590149221"><ele>25.5</ele><time>2026-04-30T03:19:31Z</time></trkpt><trkpt lat="14.511189959268467" lon="121.03254444077945"><ele>26.25</ele><time>2026-04-30T03:19:32Z</time></trkpt><trkpt lat="14.511090533137319" lon="121.03260774780497"><ele>27.0</ele><time>2026-04-30T03:19:33Z</time></trkpt><trkpt lat="14.51098122602834" lon="121.03267665063741"><ele>27.0</ele><time>2026-04-30T03:19:34Z</time></trkpt><trkpt lat="14.51087085059133" lon="121.03274305117696"><ele>27.0</ele><time>2026-04-30T03:19:35Z</time></trkpt><trkpt lat="14.510755408853974" lon="121.03281126618357"><ele>27.0</ele><time>2026-04-30T03:19:36Z</time></trkpt><trkpt lat="14.510634567119391" lon="121.0328781912807"><ele>27.0</ele><time>2026-04-30T03:19:37Z</time></trkpt><trkpt lat="14.510508043522455" lon="121.03294438757429"><ele>26.5</ele><time>2026-04-30T03:19:38Z</time></trkpt><trkpt lat="14.510378966262143" lon="121.03301351843024"><ele>26.0</ele><time>2026-04-30T03:19:39Z</time></trkpt><trkpt lat="14.51024498637426" lon="121.0330844193693"><ele>25.5</ele><time>2026-04-30T03:19:40Z</time></trkpt><trkpt lat="14.510108936435392" lon="121.03315624968317"><ele>25.0</ele><time>2026-04-30T03:19:41Z</time></trkpt><trkpt lat="14.509970604632922" lon="121.03322959353272"><ele>25.0</ele><time>2026-04-30T03:19:42Z</time></trkpt><trkpt lat="14.509829520186704" lon="121.03330513148232"><ele>25.0</ele><time>2026-04-30T03:19:43Z</time></trkpt><trkpt lat="14.509685352306851" lon="121.03338274631521"><ele>25.0</ele><time>2026-04-30T03:19:44Z</time></trkpt><trkpt lat="14.50953701623895" lon="121.03346277970131"><ele>24.0</ele><time>2026-04-30T03:19:45Z</time></trkpt><trkpt lat="14.509385674923823" lon="121.03354432571994"><ele>23.0</ele><time>2026-04-30T03:19:46Z</time></trkpt><trkpt lat="14.50923187211691" lon="121.0336273309529"><ele>22.0</ele><time>2026-04-30T03:19:47Z</time></trkpt><trkpt lat="14.50907582114261" lon="121.03371122907043"><ele>22.0</ele><time>2026-04-30T03:19:48Z</time></trkpt><trkpt lat="14.508917111693215" lon="121.03379795854148"><ele>22.0</ele><time>2026-04-30T03:19:49Z</time></trkpt><trkpt lat="14.508757179106569" lon="121.03388324932558"><ele>22.0</ele><time>2026-04-30T03:19:50Z</time></trkpt><trkpt lat="14.508598441255378" lon="121.03396673355574"><ele>21.666666666666664</ele><time>2026-04-30T03:19:51Z</time></trkpt><trkpt lat="14.50844165013709" lon="121.03404937595514"><ele>21.333333333333332</ele><time>2026-04-30T03:19:52Z</time></trkpt><trkpt lat="14.508286132869932" lon="121.03413193487953"><ele>21.0</ele><time>2026-04-30T03:19:53Z</time></trkpt><trkpt lat="14.508130883150523" lon="121.03421511926264"><ele>20.333333333333332</ele><time>2026-04-30T03:19:54Z</time></trkpt><trkpt lat="14.507975444209332" lon="121.03429901343736"><ele>19.666666666666664</ele><time>2026-04-30T03:19:55Z</time></trkpt><trkpt lat="14.507819928177035" lon="121.03438263969522"><ele>19.0</ele><time>2026-04-30T03:19:56Z</time></trkpt><trkpt lat="14.507666797425943" lon="121.03446629215627"><ele>18.666666666666664</ele><time>2026-04-30T03:19:57Z</time></trkpt><trkpt lat="14.507515001084327" lon="121.03454989634326"><ele>18.333333333333332</ele><time>2026-04-30T03:19:58Z</time></trkpt><trkpt lat="14.507363490102554" lon="121.03463155038241"><ele>18.0</ele><time>2026-04-30T03:19:59Z</time></trkpt><trkpt lat="14.507213354608208" lon="121.03471179354155"><ele>17.666666666666668</ele><time>2026-04-30T03:20:00Z</time></trkpt><trkpt lat="14.507066397175242" lon="121.034790995419"><ele>17.333333333333336</ele><time>2026-04-30T03:20:01Z</time></trkpt><trkpt lat="14.506923910950052" lon="121.0348684201662"><ele>17.0</ele><time>2026-04-30T03:20:02Z</time></trkpt><trkpt lat="14.506784261505528" lon="121.03494232508926"><ele>17.5</ele><time>2026-04-30T03:20:03Z</time></trkpt><trkpt lat="14.506650182692688" lon="121.03501378982865"><ele>18.0</ele><time>2026-04-30T03:20:04Z</time></trkpt><trkpt lat="14.506519676507358" lon="121.03508361729902"><ele>18.5</ele><time>2026-04-30T03:20:05Z</time></trkpt><trkpt lat="14.506392761640264" lon="121.0351511370378"><ele>19.0</ele><time>2026-04-30T03:20:06Z</time></trkpt><trkpt lat="14.506268567259308" lon="121.03521753421785"><ele>18.0</ele><time>2026-04-30T03:20:07Z</time></trkpt><trkpt lat="14.506147744048384" lon="121.03527961868927"><ele>17.0</ele><time>2026-04-30T03:20:08Z</time></trkpt><trkpt lat="14.506026108420192" lon="121.03534330266305"><ele>16.0</ele><time>2026-04-30T03:20:09Z</time></trkpt><trkpt lat="14.505899201663468" lon="121.03540929157067"><ele>15.0</ele><time>2026-04-30T03:20:10Z</time></trkpt><trkpt lat="14.505769359215288" lon="121.03547746043473"><ele>15.0</ele><time>2026-04-30T03:20:11Z</time></trkpt><trkpt lat="14.505636801527892" lon="121.03555152208916"><ele>15.0</ele><time>2026-04-30T03:20:12Z</time></trkpt><trkpt lat="14.50550280090694" lon="121.03562436479423"><ele>15.0</ele><time>2026-04-30T03:20:13Z</time></trkpt><trkpt lat="14.50536584293445" lon="121.03569850905934"><ele>15.0</ele><time>2026-04-30T03:20:14Z</time></trkpt><trkpt lat="14.50522774829082" lon="121.03577336708626"><ele>15.0</ele><time>2026-04-30T03:20:15Z</time></trkpt><trkpt lat="14.505091353565275" lon="121.03584940138595"><ele>15.0</ele><time>2026-04-30T03:20:16Z</time></trkpt><trkpt lat="14.504956289688296" lon="121.03592696071603"><ele>16.333333333333332</ele><time>2026-04-30T03:20:17Z</time></trkpt><trkpt lat="14.504819394253913" lon="121.0360005658828"><ele>17.666666666666664</ele><time>2026-04-30T03:20:18Z</time></trkpt><trkpt lat="14.504681977732357" lon="121.03607540617108"><ele>19.0</ele><time>2026-04-30T03:20:19Z</time></trkpt><trkpt lat="14.504544346421797" lon="121.0361502808931"><ele>19.5</ele><time>2026-04-30T03:20:20Z</time></trkpt><trkpt lat="14.504408827444541" lon="121.03622383166442"><ele>20.0</ele><time>2026-04-30T03:20:21Z</time></trkpt><trkpt lat="14.504277077646886" lon="121.03629513008167"><ele>20.5</ele><time>2026-04-30T03:20:22Z</time></trkpt><trkpt lat="14.504148505609693" lon="121.03636427878773"><ele>21.0</ele><time>2026-04-30T03:20:23Z</time></trkpt><trkpt lat="14.504020644122654" lon="121.03643092727617"><ele>21.0</ele><time>2026-04-30T03:20:24Z</time></trkpt><trkpt lat="14.503895203700516" lon="121.03649891452312"><ele>21.0</ele><time>2026-04-30T03:20:25Z</time></trkpt><trkpt lat="14.503767803103385" lon="121.03656831633758"><ele>21.0</ele><time>2026-04-30T03:20:26Z</time></trkpt><trkpt lat="14.50364288108943" lon="121.03663853266552"><ele>21.0</ele><time>2026-04-30T03:20:27Z</time></trkpt><trkpt lat="14.503513677898281" lon="121.03670724845723"><ele>21.5</ele><time>2026-04-30T03:20:28Z</time></trkpt><trkpt lat="14.503384864770231" lon="121.0367792274313"><ele>22.0</ele><time>2026-04-30T03:20:29Z</time></trkpt><trkpt lat="14.503257357195636" lon="121.03685162967858"><ele>22.5</ele><time>2026-04-30T03:20:30Z</time></trkpt><trkpt lat="14.503124322492225" lon="121.03692369413672"><ele>23.0</ele><time>2026-04-30T03:20:31Z</time></trkpt><trkpt lat="14.502991016359733" lon="121.03699521686111"><ele>22.666666666666668</ele><time>2026-04-30T03:20:32Z</time></trkpt><trkpt lat="14.502859371778678" lon="121.0370730937576"><ele>22.333333333333332</ele><time>2026-04-30T03:20:33Z</time></trkpt><trkpt lat="14.502721980350136" lon="121.03714610729432"><ele>22.0</ele><time>2026-04-30T03:20:34Z</time></trkpt><trkpt lat="14.502582179465188" lon="121.03721945243207"><ele>22.0</ele><time>2026-04-30T03:20:35Z</time></trkpt><trkpt lat="14.50243885488226" lon="121.03729505955145"><ele>22.0</ele><time>2026-04-30T03:20:36Z</time></trkpt><trkpt lat="14.502295634611503" lon="121.03737316116774"><ele>22.0</ele><time>2026-04-30T03:20:37Z</time></trkpt><trkpt lat="14.502145849937614" lon="121.03744992387719"><ele>23.0</ele><time>2026-04-30T03:20:38Z</time></trkpt><trkpt lat="14.50199530789678" lon="121.03752965509908"><ele>24.0</ele><time>2026-04-30T03:20:39Z</time></trkpt><trkpt lat="14.501842014173851" lon="121.03761023262494"><ele>25.0</ele><time>2026-04-30T03:20:40Z</time></trkpt><trkpt lat="14.501685060479359" lon="121.03768743936784"><ele>25.0</ele><time>2026-04-30T03:20:41Z</time></trkpt><trkpt lat="14.501529622631832" lon="121.03777136290518"><ele>25.0</ele><time>2026-04-30T03:20:42Z</time></trkpt><trkpt lat="14.50136860412351" lon="121.03785534489278"><ele>25.0</ele><time>2026-04-30T03:20:43Z</time></trkpt><trkpt lat="14.501207747776673" lon="121.03794342305062"><ele>24.666666666666668</ele><time>2026-04-30T03:20:44Z</time></trkpt><trkpt lat="14.501044855073081" lon="121.03803200732668"><ele>24.333333333333336</ele><time>2026-04-30T03:20:45Z</time></trkpt><trkpt lat="14.50088190151448" lon="121.03812181583744"><ele>24.0</ele><time>2026-04-30T03:20:46Z</time></trkpt><trkpt lat="14.50071664078024" lon="121.03821109879655"><ele>24.0</ele><time>2026-04-30T03:20:47Z</time></trkpt><trkpt lat="14.500552309994866" lon="121.03829708619435"><ele>24.0</ele><time>2026-04-30T03:20:48Z</time></trkpt><trkpt lat="14.500390582110086" lon="121.03838048856376"><ele>24.0</ele><time>2026-04-30T03:20:49Z</time></trkpt><trkpt lat="14.500236831171886" lon="121.03846640188667"><ele>24.666666666666664</ele><time>2026-04-30T03:20:50Z</time></trkpt><trkpt lat="14.500082582206225" lon="121.03855121790443"><ele>25.333333333333332</ele><time>2026-04-30T03:20:51Z</time></trkpt><trkpt lat="14.499932737475458" lon="121.0386349679077"><ele>26.0</ele><time>2026-04-30T03:20:52Z</time></trkpt><trkpt lat="14.499780444334974" lon="121.03871529543513"><ele>26.0</ele><time>2026-04-30T03:20:53Z</time></trkpt><trkpt lat="14.499629347738065" lon="121.03879571389493"><ele>26.0</ele><time>2026-04-30T03:20:54Z</time></trkpt><trkpt lat="14.499479122819812" lon="121.03887498864785"><ele>26.0</ele><time>2026-04-30T03:20:55Z</time></trkpt><trkpt lat="14.49932048575376" lon="121.03895425570501"><ele>26.0</ele><time>2026-04-30T03:20:56Z</time></trkpt><trkpt lat="14.499172735902729" lon="121.03903258120644"><ele>26.0</ele><time>2026-04-30T03:20:57Z</time></trkpt><trkpt lat="14.499027109445269" lon="121.0391106208849"><ele>26.0</ele><time>2026-04-30T03:20:58Z</time></trkpt><trkpt lat="14.498883774483696" lon="121.03918808126902"><ele>27.666666666666664</ele><time>2026-04-30T03:20:59Z</time></trkpt><trkpt lat="14.498738528834455" lon="121.03926511074498"><ele>29.333333333333336</ele><time>2026-04-30T03:21:00Z</time></trkpt><trkpt lat="14.498595725000358" lon="121.0393412771109"><ele>31.0</ele><time>2026-04-30T03:21:01Z</time></trkpt><trkpt lat="14.498452022370909" lon="121.03941363991657"><ele>31.0</ele><time>2026-04-30T03:21:02Z</time></trkpt><trkpt lat="14.498310196482514" lon="121.03948909790891"><ele>31.0</ele><time>2026-04-30T03:21:03Z</time></trkpt><trkpt lat="14.498167131445422" lon="121.03956886586737"><ele>31.0</ele><time>2026-04-30T03:21:04Z</time></trkpt><trkpt lat="14.49801979458254" lon="121.03965053848309"><ele>31.333333333333336</ele><time>2026-04-30T03:21:05Z</time></trkpt><trkpt lat="14.497872286071718" lon="121.03972952848984"><ele>31.666666666666664</ele><time>2026-04-30T03:21:06Z</time></trkpt><trkpt lat="14.497717570024223" lon="121.03980862301952"><ele>32.0</ele><time>2026-04-30T03:21:07Z</time></trkpt><trkpt lat="14.497562856190072" lon="121.03989297764736"><ele>32.0</ele><time>2026-04-30T03:21:08Z</time></trkpt><trkpt lat="14.497409414962702" lon="121.03997386095925"><ele>32.0</ele><time>2026-04-30T03:21:09Z</time></trkpt><trkpt lat="14.497246465899957" lon="121.04006112791686"><ele>32.0</ele><time>2026-04-30T03:21:10Z</time></trkpt><trkpt lat="14.497089676751095" lon="121.040147556932"><ele>30.333333333333332</ele><time>2026-04-30T03:21:11Z</time></trkpt><trkpt lat="14.496932566524704" lon="121.04023352603154"><ele>28.666666666666664</ele><time>2026-04-30T03:21:12Z</time></trkpt><trkpt lat="14.496768851088598" lon="121.04031735137357"><ele>27.0</ele><time>2026-04-30T03:21:13Z</time></trkpt><trkpt lat="14.496601836887658" lon="121.04040840118861"><ele>27.0</ele><time>2026-04-30T03:21:14Z</time></trkpt><trkpt lat="14.496434199463504" lon="121.04050223529619"><ele>27.0</ele><time>2026-04-30T03:21:15Z</time></trkpt><trkpt lat="14.496260418796144" lon="121.04059754093825"><ele>27.0</ele><time>2026-04-30T03:21:16Z</time></trkpt><trkpt lat="14.496087801419801" lon="121.04069215768806"><ele>26.666666666666664</ele><time>2026-04-30T03:21:17Z</time></trkpt><trkpt lat="14.495917572519565" lon="121.04078486007874"><ele>26.333333333333332</ele><time>2026-04-30T03:21:18Z</time></trkpt><trkpt lat="14.495744989908335" lon="121.04087935941746"><ele>26.0</ele><time>2026-04-30T03:21:19Z</time></trkpt><trkpt lat="14.495567420012577" lon="121.04097240586916"><ele>26.0</ele><time>2026-04-30T03:21:20Z</time></trkpt><trkpt lat="14.495393215921274" lon="121.04106910388018"><ele>26.0</ele><time>2026-04-30T03:21:21Z</time></trkpt><trkpt lat="14.495217587362468" lon="121.0411678398399"><ele>26.0</ele><time>2026-04-30T03:21:22Z</time></trkpt><trkpt lat="14.495042998230664" lon="121.0412623423018"><ele>26.0</ele><time>2026-04-30T03:21:23Z</time></trkpt><trkpt lat="14.494869833240594" lon="121.04135550011843"><ele>26.0</ele><time>2026-04-30T03:21:24Z</time></trkpt><trkpt lat="14.494701236130352" lon="121.04145238311249"><ele>26.0</ele><time>2026-04-30T03:21:25Z</time></trkpt><trkpt lat="14.49453189375521" lon="121.04154581132177"><ele>26.333333333333332</ele><time>2026-04-30T03:21:26Z</time></trkpt><trkpt lat="14.494360393555977" lon="121.04164064878478"><ele>26.666666666666664</ele><time>2026-04-30T03:21:27Z</time></trkpt><trkpt lat="14.494188784224498" lon="121.0417330719938"><ele>27.0</ele><time>2026-04-30T03:21:28Z</time></trkpt><trkpt lat="14.494015726992107" lon="121.04182370580585"><ele>27.0</ele><time>2026-04-30T03:21:29Z</time></trkpt><trkpt lat="14.493841168368306" lon="121.04191331682979"><ele>27.0</ele><time>2026-04-30T03:21:30Z</time></trkpt><trkpt lat="14.493668795897031" lon="121.04200343043338"><ele>27.0</ele><time>2026-04-30T03:21:31Z</time></trkpt><trkpt lat="14.493492766644444" lon="121.04209660489353"><ele>27.333333333333336</ele><time>2026-04-30T03:21:32Z</time></trkpt><trkpt lat="14.493309172660306" lon="121.04218974365456"><ele>27.666666666666668</ele><time>2026-04-30T03:21:33Z</time></trkpt><trkpt lat="14.49312873594677" lon="121.04227534998805"><ele>28.0</ele><time>2026-04-30T03:21:34Z</time></trkpt><trkpt lat="14.492947583928375" lon="121.04236842734029"><ele>30.333333333333336</ele><time>2026-04-30T03:21:35Z</time></trkpt><trkpt lat="14.492764595045916" lon="121.04246431626214"><ele>32.666666666666664</ele><time>2026-04-30T03:21:36Z</time></trkpt><trkpt lat="14.492581269294163" lon="121.04256703464665"><ele>35.0</ele><time>2026-04-30T03:21:37Z</time></trkpt><trkpt lat="14.492397856372575" lon="121.04266043099301"><ele>35.666666666666664</ele><time>2026-04-30T03:21:38Z</time></trkpt><trkpt lat="14.492222520949523" lon="121.0427575820935"><ele>36.333333333333336</ele><time>2026-04-30T03:21:39Z</time></trkpt><trkpt lat="14.492050980540576" lon="121.04284815383004"><ele>37.0</ele><time>2026-04-30T03:21:40Z</time></trkpt><trkpt lat="14.491889189236769" lon="121.04293517328746"><ele>37.333333333333336</ele><time>2026-04-30T03:21:41Z</time></trkpt><trkpt lat="14.491725370188458" lon="121.04302304464069"><ele>37.666666666666664</ele><time>2026-04-30T03:21:42Z</time></trkpt><trkpt lat="14.491570573516025" lon="121.04310627700532"><ele>38.0</ele><time>2026-04-30T03:21:43Z</time></trkpt><trkpt lat="14.491417833940108" lon="121.04318764037303"><ele>38.0</ele><time>2026-04-30T03:21:44Z</time></trkpt><trkpt lat="14.491280593114503" lon="121.0432664236189"><ele>38.0</ele><time>2026-04-30T03:21:45Z</time></trkpt><trkpt lat="14.49115229042713" lon="121.04333651589079"><ele>38.0</ele><time>2026-04-30T03:21:46Z</time></trkpt><trkpt lat="14.491031068815287" lon="121.04340655413746"><ele>38.0</ele><time>2026-04-30T03:21:47Z</time></trkpt><trkpt lat="14.490843575466004" lon="121.04351754518576"><ele>37.5</ele><time>2026-04-30T03:21:48Z</time></trkpt><trkpt lat="14.49069924846099" lon="121.04359535246515"><ele>37.0</ele><time>2026-04-30T03:21:49Z</time></trkpt><trkpt lat="14.490586886139178" lon="121.0436497997884"><ele>36.5</ele><time>2026-04-30T03:21:50Z</time></trkpt><trkpt lat="14.490485204364587" lon="121.04369891976191"><ele>36.0</ele><time>2026-04-30T03:21:51Z</time></trkpt><trkpt lat="14.490385235946162" lon="121.0437443422214"><ele>35.5</ele><time>2026-04-30T03:21:52Z</time></trkpt><trkpt lat="14.490282995004005" lon="121.04379173621902"><ele>35.0</ele><time>2026-04-30T03:21:53Z</time></trkpt><trkpt lat="14.490170708266708" lon="121.04384227713842"><ele>34.5</ele><time>2026-04-30T03:21:54Z</time></trkpt><trkpt lat="14.490053027918217" lon="121.04389477235412"><ele>34.0</ele><time>2026-04-30T03:21:55Z</time></trkpt><trkpt lat="14.489929898195497" lon="121.04394496259103"><ele>34.0</ele><time>2026-04-30T03:21:56Z</time></trkpt><trkpt lat="14.48981140623847" lon="121.04399486747758"><ele>34.0</ele><time>2026-04-30T03:21:57Z</time></trkpt><trkpt lat="14.489689176465891" lon="121.04404287917285"><ele>34.0</ele><time>2026-04-30T03:21:58Z</time></trkpt><trkpt lat="14.489565919646843" lon="121.04408802196275"><ele>34.0</ele><time>2026-04-30T03:21:59Z</time></trkpt><trkpt lat="14.489454333762573" lon="121.04412896817882"><ele>32.75</ele><time>2026-04-30T03:22:00Z</time></trkpt><trkpt lat="14.489342787789418" lon="121.04417062834433"><ele>31.5</ele><time>2026-04-30T03:22:01Z</time></trkpt><trkpt lat="14.489234995109085" lon="121.04421364153293"><ele>30.25</ele><time>2026-04-30T03:22:02Z</time></trkpt><trkpt lat="14.489106608761531" lon="121.04425725570783"><ele>29.0</ele><time>2026-04-30T03:22:03Z</time></trkpt><trkpt lat="14.488999265532186" lon="121.0442874972778"><ele>29.0</ele><time>2026-04-30T03:22:04Z</time></trkpt><trkpt lat="14.48889649162155" lon="121.04431299520442"><ele>29.0</ele><time>2026-04-30T03:22:05Z</time></trkpt><trkpt lat="14.488794988594524" lon="121.0443345670119"><ele>29.0</ele><time>2026-04-30T03:22:06Z</time></trkpt><trkpt lat="14.488698478350306" lon="121.04435196601452"><ele>29.0</ele><time>2026-04-30T03:22:07Z</time></trkpt><trkpt lat="14.488604409386282" lon="121.0443688904571"><ele>29.0</ele><time>2026-04-30T03:22:08Z</time></trkpt><trkpt lat="14.488511233142656" lon="121.04437934208543"><ele>29.999999999999996</ele><time>2026-04-30T03:22:09Z</time></trkpt><trkpt lat="14.488437098619439" lon="121.0443953763985"><ele>31.0</ele><time>2026-04-30T03:22:10Z</time></trkpt><trkpt lat="14.488355787109384" lon="121.04441171881562"><ele>32.0</ele><time>2026-04-30T03:22:11Z</time></trkpt><trkpt lat="14.488282169781469" lon="121.04442681292173"><ele>33.0</ele><time>2026-04-30T03:22:12Z</time></trkpt><trkpt lat="14.4881775693554" lon="121.04443975408397"><ele>34.0</ele><time>2026-04-30T03:22:14Z</time></trkpt><trkpt lat="14.4881106231986" lon="121.04444803513648"><ele>35.0</ele><time>2026-04-30T03:22:16Z</time></trkpt><trkpt lat="14.488044774620963" lon="121.0444598818648"><ele>35.0</ele><time>2026-04-30T03:22:20Z</time></trkpt><trkpt lat="14.48796835314362" lon="121.04446660859983"><ele>35.0</ele><time>2026-04-30T03:22:23Z</time></trkpt><trkpt lat="14.487904307497368" lon="121.0444735492652"><ele>35.0</ele><time>2026-04-30T03:22:25Z</time></trkpt><trkpt lat="14.487834012728484" lon="121.04448008757628"><ele>35.0</ele><time>2026-04-30T03:22:28Z</time></trkpt><trkpt lat="14.487767237588073" lon="121.04449006518679"><ele>35.0</ele><time>2026-04-30T03:22:45Z</time></trkpt><trkpt lat="14.487698477630708" lon="121.04447353894558"><ele>35.0</ele><time>2026-04-30T03:26:52Z</time></trkpt><trkpt lat="14.48761537868458" lon="121.04447613603534"><ele>35.0</ele><time>2026-04-30T03:26:58Z</time></trkpt><trkpt lat="14.487547837788334" lon="121.04449385530546"><ele>34.57142857142857</ele><time>2026-04-30T03:27:11Z</time></trkpt><trkpt lat="14.487479200652885" lon="121.04450195986429"><ele>34.14285714285714</ele><time>2026-04-30T03:29:52Z</time></trkpt><trkpt lat="14.487416703145055" lon="121.0445112365376"><ele>33.714285714285715</ele><time>2026-04-30T03:30:06Z</time></trkpt><trkpt lat="14.487352474362629" lon="121.0445235241584"><ele>33.285714285714285</ele><time>2026-04-30T03:31:38Z</time></trkpt><trkpt lat="14.48727793463268" lon="121.04453678906472"><ele>32.857142857142854</ele><time>2026-04-30T03:31:45Z</time></trkpt><trkpt lat="14.487198235448039" lon="121.04455273335729"><ele>32.42857142857143</ele><time>2026-04-30T03:31:49Z</time></trkpt><trkpt lat="14.487131274467853" lon="121.04456473717724"><ele>32.0</ele><time>2026-04-30T03:31:52Z</time></trkpt><trkpt lat="14.487067206172906" lon="121.04457210204585"><ele>32.0</ele><time>2026-04-30T03:31:58Z</time></trkpt><trkpt lat="14.486990261043646" lon="121.04456674865389"><ele>31.999999999999996</ele><time>2026-04-30T03:33:23Z</time></trkpt><trkpt lat="14.48692166847809" lon="121.04456956771998"><ele>32.0</ele><time>2026-04-30T03:33:27Z</time></trkpt><trkpt lat="14.486848745768498" lon="121.04455659620464"><ele>32.0</ele><time>2026-04-30T03:33:51Z</time></trkpt><trkpt lat="14.486790633914437" lon="121.04452920252469"><ele>31.999999999999996</ele><time>2026-04-30T03:33:54Z</time></trkpt><trkpt lat="14.486723822915662" lon="121.04450152938003"><ele>32.0</ele><time>2026-04-30T03:33:56Z</time></trkpt><trkpt lat="14.486646104078131" lon="121.04448247057448"><ele>32.0</ele><time>2026-04-30T03:33:58Z</time></trkpt><trkpt lat="14.486563359694163" lon="121.04448866956466"><ele>32.0</ele><time>2026-04-30T03:34:00Z</time></trkpt><trkpt lat="14.486470954778744" lon="121.04449430194806"><ele>32.0</ele><time>2026-04-30T03:34:02Z</time></trkpt><trkpt lat="14.486363688945856" lon="121.04451927168492"><ele>32.0</ele><time>2026-04-30T03:34:04Z</time></trkpt><trkpt lat="14.486256808092753" lon="121.04456517829087"><ele>32.0</ele><time>2026-04-30T03:34:06Z</time></trkpt><trkpt lat="14.486161843919334" lon="121.04459634457092"><ele>32.0</ele><time>2026-04-30T03:34:08Z</time></trkpt><trkpt lat="14.486086258175472" lon="121.04462825775414"><ele>31.6</ele><time>2026-04-30T03:34:10Z</time></trkpt><trkpt lat="14.486009099858311" lon="121.04465289992912"><ele>31.200000000000003</ele><time>2026-04-30T03:34:12Z</time></trkpt><trkpt lat="14.485910985437457" lon="121.04470583780582"><ele>30.8</ele><time>2026-04-30T03:34:14Z</time></trkpt><trkpt lat="14.485802746420106" lon="121.04476955864156"><ele>30.4</ele><time>2026-04-30T03:34:16Z</time></trkpt><trkpt lat="14.485741202252457" lon="121.04479206297175"><ele>30.0</ele><time>2026-04-30T03:34:17Z</time></trkpt><trkpt lat="14.485628866931437" lon="121.04484682508523"><ele>30.0</ele><time>2026-04-30T03:34:19Z</time></trkpt><trkpt lat="14.485505632413902" lon="121.04488755271052"><ele>30.0</ele><time>2026-04-30T03:34:21Z</time></trkpt><trkpt lat="14.4854403689589" lon="121.04490590894353"><ele>30.0</ele><time>2026-04-30T03:34:22Z</time></trkpt><trkpt lat="14.485375781505356" lon="121.04492358787134"><ele>30.0</ele><time>2026-04-30T03:34:23Z</time></trkpt><trkpt lat="14.485311542078211" lon="121.04494156307871"><ele>30.0</ele><time>2026-04-30T03:34:24Z</time></trkpt><trkpt lat="14.485248078212368" lon="121.04495481561364"><ele>30.0</ele><time>2026-04-30T03:34:25Z</time></trkpt><trkpt lat="14.485184659473642" lon="121.04496885238207"><ele>30.0</ele><time>2026-04-30T03:34:26Z</time></trkpt><trkpt lat="14.485068735072595" lon="121.04496789898472"><ele>30.0</ele><time>2026-04-30T03:34:28Z</time></trkpt><trkpt lat="14.484956733101738" lon="121.04497191251507"><ele>30.0</ele><time>2026-04-30T03:34:30Z</time></trkpt><trkpt lat="14.484851943975803" lon="121.04497726341076"><ele>30.0</ele><time>2026-04-30T03:34:32Z</time></trkpt><trkpt lat="14.484734481073287" lon="121.04497608892018"><ele>30.0</ele><time>2026-04-30T03:34:34Z</time></trkpt><trkpt lat="14.484613639971073" lon="121.04497463388897"><ele>30.0</ele><time>2026-04-30T03:34:36Z</time></trkpt><trkpt lat="14.48449254644015" lon="121.04495924328067"><ele>30.0</ele><time>2026-04-30T03:34:38Z</time></trkpt><trkpt lat="14.48437707734789" lon="121.04495309848882"><ele>30.0</ele><time>2026-04-30T03:34:40Z</time></trkpt><trkpt lat="14.484265356736413" lon="121.0449599368527"><ele>30.166666666666668</ele><time>2026-04-30T03:34:42Z</time></trkpt><trkpt lat="14.48414843889209" lon="121.04499204145891"><ele>30.333333333333336</ele><time>2026-04-30T03:34:44Z</time></trkpt><trkpt lat="14.484081637511851" lon="121.0449967834994"><ele>30.5</ele><time>2026-04-30T03:34:45Z</time></trkpt><trkpt lat="14.484018606248785" lon="121.04499872266153"><ele>30.666666666666668</ele><time>2026-04-30T03:34:46Z</time></trkpt><trkpt lat="14.483953030006699" lon="121.04500227173581"><ele>30.833333333333336</ele><time>2026-04-30T03:34:47Z</time></trkpt><trkpt lat="14.483831437529282" lon="121.04500210549566"><ele>31.0</ele><time>2026-04-30T03:34:49Z</time></trkpt><trkpt lat="14.483703854332083" lon="121.04499909028124"><ele>31.166666666666668</ele><time>2026-04-30T03:34:51Z</time></trkpt><trkpt lat="14.483638161462554" lon="121.04500155780212"><ele>31.333333333333336</ele><time>2026-04-30T03:34:52Z</time></trkpt><trkpt lat="14.483512952574078" lon="121.04498979483579"><ele>31.5</ele><time>2026-04-30T03:34:54Z</time></trkpt><trkpt lat="14.48344823804437" lon="121.04497814856788"><ele>31.666666666666664</ele><time>2026-04-30T03:34:55Z</time></trkpt><trkpt lat="14.483378693839882" lon="121.04496461269076"><ele>31.833333333333332</ele><time>2026-04-30T03:34:56Z</time></trkpt><trkpt lat="14.48330838890416" lon="121.04494934134853"><ele>32.0</ele><time>2026-04-30T03:34:57Z</time></trkpt><trkpt lat="14.483184751210834" lon="121.04494940362025"><ele>32.0</ele><time>2026-04-30T03:34:59Z</time></trkpt><trkpt lat="14.483066071920783" lon="121.04495552006705"><ele>32.0</ele><time>2026-04-30T03:35:01Z</time></trkpt><trkpt lat="14.48295354929953" lon="121.04495103140829"><ele>32.0</ele><time>2026-04-30T03:35:03Z</time></trkpt><trkpt lat="14.482834145870836" lon="121.04494868306473"><ele>32.0</ele><time>2026-04-30T03:35:05Z</time></trkpt><trkpt lat="14.482722432250421" lon="121.0449672940093"><ele>32.2</ele><time>2026-04-30T03:35:07Z</time></trkpt><trkpt lat="14.482614249853242" lon="121.04499233846565"><ele>32.400000000000006</ele><time>2026-04-30T03:35:09Z</time></trkpt><trkpt lat="14.482513646116782" lon="121.0449977586321"><ele>32.599999999999994</ele><time>2026-04-30T03:35:11Z</time></trkpt><trkpt lat="14.482423262516015" lon="121.0449940492224"><ele>32.8</ele><time>2026-04-30T03:35:13Z</time></trkpt><trkpt lat="14.48233194628502" lon="121.04500688418878"><ele>33.0</ele><time>2026-04-30T03:35:15Z</time></trkpt><trkpt lat="14.48222562180628" lon="121.04500848092081"><ele>33.0</ele><time>2026-04-30T03:35:17Z</time></trkpt><trkpt lat="14.482101576779908" lon="121.04501451370595"><ele>33.0</ele><time>2026-04-30T03:35:19Z</time></trkpt><trkpt lat="14.482034437410933" lon="121.0450165055039"><ele>33.0</ele><time>2026-04-30T03:35:20Z</time></trkpt><trkpt lat="14.481967536411416" lon="121.04502077179546"><ele>33.0</ele><time>2026-04-30T03:35:21Z</time></trkpt><trkpt lat="14.481897687365633" lon="121.04502412706393"><ele>33.0</ele><time>2026-04-30T03:35:22Z</time></trkpt><trkpt lat="14.48182155502717" lon="121.04501833122966"><ele>33.0</ele><time>2026-04-30T03:35:23Z</time></trkpt><trkpt lat="14.48174528930128" lon="121.04501865492422"><ele>33.0</ele><time>2026-04-30T03:35:24Z</time></trkpt><trkpt lat="14.481674542812561" lon="121.04501541933129"><ele>33.0</ele><time>2026-04-30T03:35:25Z</time></trkpt><trkpt lat="14.48160554876705" lon="121.04501994542065"><ele>33.0</ele><time>2026-04-30T03:35:26Z</time></trkpt><trkpt lat="14.481537619280642" lon="121.04502268629147"><ele>33.0</ele><time>2026-04-30T03:35:27Z</time></trkpt><trkpt lat="14.481464815482274" lon="121.04502505982786"><ele>33.0</ele><time>2026-04-30T03:35:28Z</time></trkpt><trkpt lat="14.481396140152462" lon="121.04502722776945"><ele>33.0</ele><time>2026-04-30T03:35:29Z</time></trkpt><trkpt lat="14.481269084215288" lon="121.04502913407441"><ele>32.8</ele><time>2026-04-30T03:35:31Z</time></trkpt><trkpt lat="14.481206130376092" lon="121.04502808799016"><ele>32.599999999999994</ele><time>2026-04-30T03:35:32Z</time></trkpt><trkpt lat="14.481076425319507" lon="121.04502471397898"><ele>32.400000000000006</ele><time>2026-04-30T03:35:34Z</time></trkpt><trkpt lat="14.481012739644123" lon="121.04502441402715"><ele>32.2</ele><time>2026-04-30T03:35:35Z</time></trkpt><trkpt lat="14.48088588041616" lon="121.04502294084959"><ele>32.0</ele><time>2026-04-30T03:35:37Z</time></trkpt><trkpt lat="14.480817030936736" lon="121.04502237046634"><ele>32.0</ele><time>2026-04-30T03:35:38Z</time></trkpt><trkpt lat="14.480752158292834" lon="121.04502358546426"><ele>31.999999999999996</ele><time>2026-04-30T03:35:39Z</time></trkpt><trkpt lat="14.480684066042619" lon="121.04502674359918"><ele>32.0</ele><time>2026-04-30T03:35:40Z</time></trkpt><trkpt lat="14.480617549854859" lon="121.04502354732188"><ele>32.0</ele><time>2026-04-30T03:35:41Z</time></trkpt><trkpt lat="14.480548818355091" lon="121.04502554064038"><ele>31.999999999999996</ele><time>2026-04-30T03:35:42Z</time></trkpt><trkpt lat="14.480471478150108" lon="121.04503000373035"><ele>32.0</ele><time>2026-04-30T03:35:43Z</time></trkpt><trkpt lat="14.48039296348199" lon="121.04503957783704"><ele>32.0</ele><time>2026-04-30T03:35:44Z</time></trkpt><trkpt lat="14.480299930611464" lon="121.04504371679377"><ele>32.2</ele><time>2026-04-30T03:35:45Z</time></trkpt><trkpt lat="14.480200262395503" lon="121.04504644610213"><ele>32.400000000000006</ele><time>2026-04-30T03:35:46Z</time></trkpt><trkpt lat="14.480097520338207" lon="121.04504085600661"><ele>32.599999999999994</ele><time>2026-04-30T03:35:47Z</time></trkpt><trkpt lat="14.479995755500456" lon="121.04504257966997"><ele>32.8</ele><time>2026-04-30T03:35:48Z</time></trkpt><trkpt lat="14.479897654610237" lon="121.04504368623705"><ele>33.0</ele><time>2026-04-30T03:35:49Z</time></trkpt><trkpt lat="14.47980152875335" lon="121.04504376227946"><ele>33.0</ele><time>2026-04-30T03:35:50Z</time></trkpt><trkpt lat="14.479708329688025" lon="121.04503906315603"><ele>33.0</ele><time>2026-04-30T03:35:51Z</time></trkpt><trkpt lat="14.479618431201645" lon="121.04503923021488"><ele>33.0</ele><time>2026-04-30T03:35:52Z</time></trkpt><trkpt lat="14.479530673696507" lon="121.04503866350075"><ele>33.0</ele><time>2026-04-30T03:35:53Z</time></trkpt><trkpt lat="14.479444059475226" lon="121.04504073448948"><ele>33.0</ele><time>2026-04-30T03:35:54Z</time></trkpt><trkpt lat="14.479358566603361" lon="121.04504320456417"><ele>33.0</ele><time>2026-04-30T03:35:55Z</time></trkpt><trkpt lat="14.479275046279735" lon="121.0450393536472"><ele>33.333333333333336</ele><time>2026-04-30T03:35:56Z</time></trkpt><trkpt lat="14.479192438740318" lon="121.04502168762464"><ele>33.666666666666664</ele><time>2026-04-30T03:35:57Z</time></trkpt><trkpt lat="14.47910797482847" lon="121.04502192873498"><ele>34.0</ele><time>2026-04-30T03:35:58Z</time></trkpt><trkpt lat="14.479024920477713" lon="121.04502432114022"><ele>34.33333333333333</ele><time>2026-04-30T03:35:59Z</time></trkpt><trkpt lat="14.478937911058255" lon="121.04503543257051"><ele>34.666666666666664</ele><time>2026-04-30T03:36:00Z</time></trkpt><trkpt lat="14.478845435199005" lon="121.04504204612981"><ele>35.0</ele><time>2026-04-30T03:36:01Z</time></trkpt><trkpt lat="14.47875176944523" lon="121.04504586699298"><ele>35.0</ele><time>2026-04-30T03:36:02Z</time></trkpt><trkpt lat="14.478658515239045" lon="121.04504658221062"><ele>35.0</ele><time>2026-04-30T03:36:03Z</time></trkpt><trkpt lat="14.478562041638146" lon="121.04505490145088"><ele>35.0</ele><time>2026-04-30T03:36:04Z</time></trkpt><trkpt lat="14.478465043176161" lon="121.04505747723849"><ele>35.0</ele><time>2026-04-30T03:36:05Z</time></trkpt><trkpt lat="14.478372036185863" lon="121.04505859462745"><ele>35.0</ele><time>2026-04-30T03:36:06Z</time></trkpt><trkpt lat="14.478278534833805" lon="121.04505912187965"><ele>35.0</ele><time>2026-04-30T03:36:07Z</time></trkpt><trkpt lat="14.478184913679375" lon="121.0450574942004"><ele>35.0</ele><time>2026-04-30T03:36:08Z</time></trkpt><trkpt lat="14.478097651208612" lon="121.04505765546769"><ele>35.0</ele><time>2026-04-30T03:36:09Z</time></trkpt><trkpt lat="14.478014657306543" lon="121.04505871679332"><ele>35.0</ele><time>2026-04-30T03:36:10Z</time></trkpt><trkpt lat="14.477945218416734" lon="121.04506210283175"><ele>35.0</ele><time>2026-04-30T03:36:11Z</time></trkpt><trkpt lat="14.477881863997576" lon="121.04506539820841"><ele>35.0</ele><time>2026-04-30T03:36:12Z</time></trkpt><trkpt lat="14.477785056803928" lon="121.04506141261274"><ele>34.666666666666664</ele><time>2026-04-30T03:36:14Z</time></trkpt><trkpt lat="14.477686153245296" lon="121.04506073244069"><ele>34.33333333333333</ele><time>2026-04-30T03:36:16Z</time></trkpt><trkpt lat="14.477600799813711" lon="121.04505752328238"><ele>34.0</ele><time>2026-04-30T03:36:18Z</time></trkpt><trkpt lat="14.477524004398505" lon="121.0450541778134"><ele>33.666666666666664</ele><time>2026-04-30T03:36:20Z</time></trkpt><trkpt lat="14.477456497453218" lon="121.04506718545959"><ele>33.333333333333336</ele><time>2026-04-30T03:36:22Z</time></trkpt><trkpt lat="14.477385667871284" lon="121.04507074786828"><ele>33.0</ele><time>2026-04-30T03:36:24Z</time></trkpt><trkpt lat="14.477304034483515" lon="121.04507475771828"><ele>33.0</ele><time>2026-04-30T03:36:26Z</time></trkpt><trkpt lat="14.477221876229152" lon="121.04507137829144"><ele>33.0</ele><time>2026-04-30T03:36:28Z</time></trkpt><trkpt lat="14.477156739422998" lon="121.04506719013587"><ele>33.0</ele><time>2026-04-30T03:36:30Z</time></trkpt><trkpt lat="14.47706477080229" lon="121.04505576067842"><ele>33.0</ele><time>2026-04-30T03:36:33Z</time></trkpt><trkpt lat="14.476998870500266" lon="121.0450524321368"><ele>33.0</ele><time>2026-04-30T03:36:35Z</time></trkpt><trkpt lat="14.476922742080406" lon="121.04504775132779"><ele>33.0</ele><time>2026-04-30T03:36:37Z</time></trkpt><trkpt lat="14.476844524850545" lon="121.04503964069436"><ele>33.5</ele><time>2026-04-30T03:36:39Z</time></trkpt><trkpt lat="14.476760723369349" lon="121.04504632156338"><ele>34.0</ele><time>2026-04-30T03:36:41Z</time></trkpt><trkpt lat="14.476682253557684" lon="121.04505288262092"><ele>34.5</ele><time>2026-04-30T03:36:43Z</time></trkpt><trkpt lat="14.476616060693157" lon="121.04505740713634"><ele>35.0</ele><time>2026-04-30T03:36:45Z</time></trkpt><trkpt lat="14.476546100398934" lon="121.04505605551331"><ele>35.5</ele><time>2026-04-30T03:36:47Z</time></trkpt><trkpt lat="14.476481972862016" lon="121.04506126591497"><ele>36.0</ele><time>2026-04-30T03:36:49Z</time></trkpt><trkpt lat="14.476387726171428" lon="121.04505758503718"><ele>36.0</ele><time>2026-04-30T03:36:52Z</time></trkpt><trkpt lat="14.476317780993968" lon="121.04505888076093"><ele>36.0</ele><time>2026-04-30T03:36:54Z</time></trkpt><trkpt lat="14.476233434941422" lon="121.04506460432361"><ele>36.0</ele><time>2026-04-30T03:36:56Z</time></trkpt><trkpt lat="14.476148001450234" lon="121.04506640946595"><ele>36.0</ele><time>2026-04-30T03:36:58Z</time></trkpt><trkpt lat="14.476071242419474" lon="121.04506620137869"><ele>36.0</ele><time>2026-04-30T03:37:00Z</time></trkpt><trkpt lat="14.475996743021485" lon="121.04506575519991"><ele>36.0</ele><time>2026-04-30T03:37:04Z</time></trkpt><trkpt lat="14.47590961882819" lon="121.04506918432044"><ele>36.0</ele><time>2026-04-30T03:37:07Z</time></trkpt><trkpt lat="14.475836772582072" lon="121.04506304519201"><ele>36.0</ele><time>2026-04-30T03:37:09Z</time></trkpt><trkpt lat="14.47575311781382" lon="121.045061158507"><ele>36.0</ele><time>2026-04-30T03:37:11Z</time></trkpt><trkpt lat="14.475660913203901" lon="121.04505744184034"><ele>36.0</ele><time>2026-04-30T03:37:13Z</time></trkpt><trkpt lat="14.475568725535549" lon="121.04505819335216"><ele>36.0</ele><time>2026-04-30T03:37:15Z</time></trkpt><trkpt lat="14.47548595793134" lon="121.04505390997303"><ele>36.0</ele><time>2026-04-30T03:37:17Z</time></trkpt><trkpt lat="14.475401243596716" lon="121.04505606587493"><ele>36.0</ele><time>2026-04-30T03:37:19Z</time></trkpt><trkpt lat="14.47530319763161" lon="121.04505563984063"><ele>36.0</ele><time>2026-04-30T03:37:21Z</time></trkpt><trkpt lat="14.475216166925271" lon="121.04505884942348"><ele>36.0</ele><time>2026-04-30T03:37:23Z</time></trkpt><trkpt lat="14.475141622689732" lon="121.04506072793643"><ele>36.0</ele><time>2026-04-30T03:37:25Z</time></trkpt><trkpt lat="14.475078182063585" lon="121.04506320977916"><ele>36.0</ele><time>2026-04-30T03:37:27Z</time></trkpt><trkpt lat="14.474994584472316" lon="121.0450638676332"><ele>36.0</ele><time>2026-04-30T03:37:30Z</time></trkpt><trkpt lat="14.474923810510619" lon="121.04503985079994"><ele>36.0</ele><time>2026-04-30T03:37:34Z</time></trkpt><trkpt lat="14.474927649556019" lon="121.04497229433736"><ele>36.0</ele><time>2026-04-30T03:39:31Z</time></trkpt><trkpt lat="14.475018565145943" lon="121.04506700222551"><ele>36.0</ele><time>2026-04-30T03:43:44.999Z</time></trkpt><trkpt lat="14.475116004897059" lon="121.04509243506809"><ele>36.0</ele><time>2026-04-30T03:43:46.999Z</time></trkpt><trkpt lat="14.475210518838406" lon="121.04513156198936"><ele>36.0</ele><time>2026-04-30T03:43:48.999Z</time></trkpt><trkpt lat="14.475277128186624" lon="121.0451496190663"><ele>36.0</ele><time>2026-04-30T03:43:49.999Z</time></trkpt><trkpt lat="14.475380896400411" lon="121.0451662909578"><ele>36.0</ele><time>2026-04-30T03:43:50.999Z</time></trkpt><trkpt lat="14.47545574150561" lon="121.04515702577058"><ele>36.0</ele><time>2026-04-30T03:43:51.999Z</time></trkpt><trkpt lat="14.475524300567294" lon="121.04516232219538"><ele>36.0</ele><time>2026-04-30T03:43:52.999Z</time></trkpt><trkpt lat="14.47559066763847" lon="121.04515899148961"><ele>36.0</ele><time>2026-04-30T03:43:53.999Z</time></trkpt><trkpt lat="14.475653791654512" lon="121.04516288689717"><ele>36.0</ele><time>2026-04-30T03:43:54.999Z</time></trkpt><trkpt lat="14.47576210007214" lon="121.04515852802405"><ele>36.166666666666664</ele><time>2026-04-30T03:43:56.999Z</time></trkpt><trkpt lat="14.475837348030073" lon="121.04514147239792"><ele>36.333333333333336</ele><time>2026-04-30T03:43:58.999Z</time></trkpt><trkpt lat="14.47591569352831" lon="121.04511008120556"><ele>36.5</ele><time>2026-04-30T03:44:01.999Z</time></trkpt><trkpt lat="14.475976821293244" lon="121.0450741996731"><ele>36.66666666666667</ele><time>2026-04-30T03:44:04.999Z</time></trkpt><trkpt lat="14.476012682064296" lon="121.04501416691727"><ele>36.833333333333336</ele><time>2026-04-30T03:44:09.999Z</time></trkpt><trkpt lat="14.4760203125303" lon="121.0449445037145"><ele>37.0</ele><time>2026-04-30T03:44:12.999Z</time></trkpt><trkpt lat="14.476030144650773" lon="121.04484993751451"><ele>36.42857142857143</ele><time>2026-04-30T03:44:15.999Z</time></trkpt><trkpt lat="14.476024119246494" lon="121.0447851540885"><ele>35.857142857142854</ele><time>2026-04-30T03:44:17.999Z</time></trkpt><trkpt lat="14.47603055041061" lon="121.04471421754265"><ele>35.285714285714285</ele><time>2026-04-30T03:44:21.999Z</time></trkpt><trkpt lat="14.476013651910762" lon="121.04464714242528"><ele>34.714285714285715</ele><time>2026-04-30T03:44:24.999Z</time></trkpt><trkpt lat="14.475976228939228" lon="121.04457437898357"><ele>34.142857142857146</ele><time>2026-04-30T03:44:28.999Z</time></trkpt><trkpt lat="14.475979356980861" lon="121.04449197031673"><ele>33.57142857142857</ele><time>2026-04-30T03:44:37.999Z</time></trkpt><trkpt lat="14.475996428841862" lon="121.04440915711454"><ele>33.0</ele><time>2026-04-30T03:44:48.999Z</time></trkpt><trkpt lat="14.476056321727548" lon="121.04435504269225"><ele>33.0</ele><time>2026-04-30T03:44:52.999Z</time></trkpt><trkpt lat="14.476126107381413" lon="121.04434747224745"><ele>33.0</ele><time>2026-04-30T03:44:55.999Z</time></trkpt><trkpt lat="14.47621539016429" lon="121.04433824436013"><ele>33.0</ele><time>2026-04-30T03:44:58.999Z</time></trkpt><trkpt lat="14.476287430570261" lon="121.04431861257301"><ele>33.0</ele><time>2026-04-30T03:45:02.999Z</time></trkpt><trkpt lat="14.476344961603228" lon="121.04428765573189"><ele>33.0</ele><time>2026-04-30T03:45:16.999Z</time></trkpt><trkpt lat="14.476279996669104" lon="121.0442895165079"><ele>33.0</ele><time>2026-04-30T03:45:59.999Z</time></trkpt><trkpt lat="14.476218335485814" lon="121.04432083465557"><ele>33.0</ele><time>2026-04-30T03:46:14.999Z</time></trkpt><trkpt lat="14.476156346561726" lon="121.04434405597482"><ele>33.0</ele><time>2026-04-30T03:47:20.999Z</time></trkpt><trkpt lat="14.476089242273234" lon="121.04436025763026"><ele>33.0</ele><time>2026-04-30T03:47:28.999Z</time></trkpt><trkpt lat="14.476032568880994" lon="121.04440157549593"><ele>33.0</ele><time>2026-04-30T03:47:38.999Z</time></trkpt><trkpt lat="14.476009542620476" lon="121.04446526338636"><ele>33.0</ele><time>2026-04-30T03:47:48.999Z</time></trkpt><trkpt lat="14.475990741645012" lon="121.04452756321862"><ele>33.0</ele><time>2026-04-30T03:47:56.999Z</time></trkpt><trkpt lat="14.476017907087538" lon="121.04442765258904"><ele>33.0</ele><time>2026-04-30T03:48:46.999Z</time></trkpt><trkpt lat="14.47612652012533" lon="121.04453186099198"><ele>33.0</ele><time>2026-04-30T03:49:50.083Z</time></trkpt><trkpt lat="14.476175416391513" lon="121.04444280775627"><ele>33.0</ele><time>2026-04-30T03:51:33.014Z</time></trkpt><trkpt lat="14.47612911207306" lon="121.04450603458426"><ele>33.0</ele><time>2026-04-30T03:52:41.011Z</time></trkpt><trkpt lat="14.476257385796979" lon="121.0444990163675"><ele>33.0</ele><time>2026-04-30T04:52:01.001Z</time></trkpt><trkpt lat="14.476149902009068" lon="121.04449200478669"><ele>33.0</ele><time>2026-04-30T05:13:23Z</time></trkpt><trkpt lat="14.476146593862543" lon="121.04434899870732"><ele>33.0</ele><time>2026-04-30T05:15:56Z</time></trkpt><trkpt lat="14.476092010157776" lon="121.04430161253457"><ele>33.0</ele><time>2026-04-30T05:16:34Z</time></trkpt><trkpt lat="14.476003736345566" lon="121.04426049091067"><ele>33.0</ele><time>2026-04-30T05:16:40Z</time></trkpt><trkpt lat="14.47593840201548" lon="121.04423283498153"><ele>33.0</ele><time>2026-04-30T05:16:41Z</time></trkpt><trkpt lat="14.475881634520357" lon="121.04419714648886"><ele>33.0</ele><time>2026-04-30T05:16:42Z</time></trkpt><trkpt lat="14.47581723556513" lon="121.04417183943899"><ele>33.0</ele><time>2026-04-30T05:16:44Z</time></trkpt><trkpt lat="14.475746851055492" lon="121.04414956852628"><ele>33.0</ele><time>2026-04-30T05:16:46Z</time></trkpt><trkpt lat="14.475651277714299" lon="121.04410540087342"><ele>33.0</ele><time>2026-04-30T05:16:48Z</time></trkpt><trkpt lat="14.47590492734706" lon="121.04416629375751"><ele>33.0</ele><time>2026-04-30T05:16:50Z</time></trkpt><trkpt lat="14.476125789576718" lon="121.04415471549724"><ele>33.0</ele><time>2026-04-30T05:17:36Z</time></trkpt><trkpt lat="14.47621165887501" lon="121.04423347371069"><ele>33.0</ele><time>2026-04-30T05:18:25.023Z</time></trkpt><trkpt lat="14.476135423229119" lon="121.04434743510349"><ele>33.0</ele><time>2026-04-30T05:18:28.022Z</time></trkpt><trkpt lat="14.476138629310881" lon="121.04450703673565"><ele>33.0</ele><time>2026-04-30T05:43:20Z</time></trkpt><trkpt lat="14.476177745788968" lon="121.04484939350174"><ele>33.0</ele><time>2026-04-30T05:52:51Z</time></trkpt><trkpt lat="14.47612642925645" lon="121.04456275593671"><ele>33.0</ele><time>2026-04-30T06:00:21Z</time></trkpt><trkpt lat="14.476158079726734" lon="121.04448611937241"><ele>33.0</ele><time>2026-04-30T06:00:23Z</time></trkpt><trkpt lat="14.476228759576086" lon="121.04434783668137"><ele>33.0</ele><time>2026-04-30T06:00:24Z</time></trkpt><trkpt lat="14.476156577302433" lon="121.04433440377893"><ele>33.0</ele><time>2026-04-30T06:00:25Z</time></trkpt><trkpt lat="14.47622097119046" lon="121.04431041057704"><ele>33.0</ele><time>2026-04-30T06:00:29Z</time></trkpt><trkpt lat="14.476303338440577" lon="121.04429725522266"><ele>33.0</ele><time>2026-04-30T06:01:18Z</time></trkpt><trkpt lat="14.476370238103858" lon="121.04430974981719"><ele>33.0</ele><time>2026-04-30T06:01:22Z</time></trkpt><trkpt lat="14.476449511443995" lon="121.04431625234713"><ele>33.0</ele><time>2026-04-30T06:01:26Z</time></trkpt><trkpt lat="14.476533751850488" lon="121.04430727085338"><ele>33.285714285714285</ele><time>2026-04-30T06:01:30Z</time></trkpt><trkpt lat="14.476619296038113" lon="121.0443087817528"><ele>33.57142857142857</ele><time>2026-04-30T06:01:34Z</time></trkpt><trkpt lat="14.47669112848634" lon="121.0443042470262"><ele>33.85714285714286</ele><time>2026-04-30T06:01:37Z</time></trkpt><trkpt lat="14.476727742002597" lon="121.04423951238502"><ele>34.14285714285714</ele><time>2026-04-30T06:01:51Z</time></trkpt><trkpt lat="14.476660559602486" lon="121.04426096952544"><ele>34.42857142857143</ele><time>2026-04-30T06:02:06Z</time></trkpt><trkpt lat="14.476598162166217" lon="121.04429458165532"><ele>34.714285714285715</ele><time>2026-04-30T06:02:10Z</time></trkpt><trkpt lat="14.476533165233063" lon="121.0443053894156"><ele>35.0</ele><time>2026-04-30T06:02:13Z</time></trkpt><trkpt lat="14.476458819612754" lon="121.04431126976182"><ele>35.0</ele><time>2026-04-30T06:02:16Z</time></trkpt><trkpt lat="14.47637857201496" lon="121.04430961779681"><ele>35.0</ele><time>2026-04-30T06:02:20Z</time></trkpt><trkpt lat="14.476309501721971" lon="121.04430725280167"><ele>35.0</ele><time>2026-04-30T06:02:23Z</time></trkpt><trkpt lat="14.476229473706734" lon="121.04431016779907"><ele>35.0</ele><time>2026-04-30T06:02:26Z</time></trkpt><trkpt lat="14.476147208637096" lon="121.04431694966502"><ele>35.0</ele><time>2026-04-30T06:02:29Z</time></trkpt><trkpt lat="14.476073200415666" lon="121.04431617055913"><ele>35.0</ele><time>2026-04-30T06:02:32Z</time></trkpt><trkpt lat="14.476007913105812" lon="121.04431110035671"><ele>34.666666666666664</ele><time>2026-04-30T06:02:35Z</time></trkpt><trkpt lat="14.475941124186834" lon="121.04434959238488"><ele>34.33333333333333</ele><time>2026-04-30T06:02:39Z</time></trkpt><trkpt lat="14.475923046626137" lon="121.04443083225601"><ele>34.0</ele><time>2026-04-30T06:02:42Z</time></trkpt><trkpt lat="14.475924955400547" lon="121.04450728190221"><ele>33.666666666666664</ele><time>2026-04-30T06:02:46Z</time></trkpt><trkpt lat="14.475925961939918" lon="121.0445932458326"><ele>33.333333333333336</ele><time>2026-04-30T06:02:50Z</time></trkpt><trkpt lat="14.475926676624216" lon="121.04467607384696"><ele>33.0</ele><time>2026-04-30T06:02:53Z</time></trkpt><trkpt lat="14.475930553248928" lon="121.04477316150607"><ele>33.0</ele><time>2026-04-30T06:02:56Z</time></trkpt><trkpt lat="14.475921734900474" lon="121.04484478650456"><ele>33.0</ele><time>2026-04-30T06:02:58Z</time></trkpt><trkpt lat="14.47590270754148" lon="121.04492228980199"><ele>33.0</ele><time>2026-04-30T06:03:01Z</time></trkpt><trkpt lat="14.475847077562577" lon="121.04496410534003"><ele>33.0</ele><time>2026-04-30T06:03:05Z</time></trkpt><trkpt lat="14.475774666090553" lon="121.04497903584021"><ele>33.0</ele><time>2026-04-30T06:03:08Z</time></trkpt><trkpt lat="14.475704817037544" lon="121.04497345212253"><ele>33.0</ele><time>2026-04-30T06:03:10Z</time></trkpt><trkpt lat="14.475626504012771" lon="121.04498322842521"><ele>33.0</ele><time>2026-04-30T06:03:12Z</time></trkpt><trkpt lat="14.475543239775172" lon="121.04499068739345"><ele>33.6</ele><time>2026-04-30T06:03:14Z</time></trkpt><trkpt lat="14.475452655829045" lon="121.04499888127494"><ele>34.199999999999996</ele><time>2026-04-30T06:03:16Z</time></trkpt><trkpt lat="14.475357795187396" lon="121.04500458012276"><ele>34.8</ele><time>2026-04-30T06:03:18Z</time></trkpt><trkpt lat="14.47525283534699" lon="121.04501155819861"><ele>35.4</ele><time>2026-04-30T06:03:20Z</time></trkpt><trkpt lat="14.475138878203632" lon="121.04501914430253"><ele>36.0</ele><time>2026-04-30T06:03:22Z</time></trkpt><trkpt lat="14.475015034878412" lon="121.0450250030725"><ele>36.00000000000001</ele><time>2026-04-30T06:03:24Z</time></trkpt><trkpt lat="14.474948246885281" lon="121.04502529518012"><ele>36.0</ele><time>2026-04-30T06:03:25Z</time></trkpt><trkpt lat="14.474879319199337" lon="121.0450247479993"><ele>36.0</ele><time>2026-04-30T06:03:26Z</time></trkpt><trkpt lat="14.47480654822117" lon="121.04502525209627"><ele>36.0</ele><time>2026-04-30T06:03:27Z</time></trkpt><trkpt lat="14.4747306652229" lon="121.04502485721557"><ele>36.0</ele><time>2026-04-30T06:03:28Z</time></trkpt><trkpt lat="14.474652651342922" lon="121.04502559391169"><ele>36.00000000000001</ele><time>2026-04-30T06:03:29Z</time></trkpt><trkpt lat="14.474573710248267" lon="121.04502514295552"><ele>36.0</ele><time>2026-04-30T06:03:30Z</time></trkpt><trkpt lat="14.474491992395935" lon="121.0450252229237"><ele>35.833333333333336</ele><time>2026-04-30T06:03:31Z</time></trkpt><trkpt lat="14.474406336147705" lon="121.04502701722966"><ele>35.666666666666664</ele><time>2026-04-30T06:03:32Z</time></trkpt><trkpt lat="14.474318082348276" lon="121.04502782851844"><ele>35.5</ele><time>2026-04-30T06:03:33Z</time></trkpt><trkpt lat="14.47422815542559" lon="121.04503069729532"><ele>35.33333333333333</ele><time>2026-04-30T06:03:34Z</time></trkpt><trkpt lat="14.47413791356456" lon="121.04503034022652"><ele>35.166666666666664</ele><time>2026-04-30T06:03:35Z</time></trkpt><trkpt lat="14.474046232964016" lon="121.04503283457694"><ele>35.0</ele><time>2026-04-30T06:03:36Z</time></trkpt><trkpt lat="14.47395108992421" lon="121.04503588147283"><ele>35.0</ele><time>2026-04-30T06:03:37Z</time></trkpt><trkpt lat="14.473854290805539" lon="121.04503714556999"><ele>35.0</ele><time>2026-04-30T06:03:38Z</time></trkpt><trkpt lat="14.473752878152716" lon="121.04503789631801"><ele>35.0</ele><time>2026-04-30T06:03:39Z</time></trkpt><trkpt lat="14.473650403169021" lon="121.04503650844265"><ele>35.0</ele><time>2026-04-30T06:03:40Z</time></trkpt><trkpt lat="14.473545561537225" lon="121.04503709441911"><ele>35.0</ele><time>2026-04-30T06:03:41Z</time></trkpt><trkpt lat="14.473435104471356" lon="121.0450375627433"><ele>34.4</ele><time>2026-04-30T06:03:42Z</time></trkpt><trkpt lat="14.4733226866152" lon="121.04503821985249"><ele>33.8</ele><time>2026-04-30T06:03:43Z</time></trkpt><trkpt lat="14.47321286468204" lon="121.04503789193572"><ele>33.2</ele><time>2026-04-30T06:03:44Z</time></trkpt><trkpt lat="14.47310372587331" lon="121.04503990287292"><ele>32.6</ele><time>2026-04-30T06:03:45Z</time></trkpt><trkpt lat="14.472996501933352" lon="121.04504156215204"><ele>32.0</ele><time>2026-04-30T06:03:46Z</time></trkpt><trkpt lat="14.472890964211528" lon="121.04504210588294"><ele>31.400000000000002</ele><time>2026-04-30T06:03:47Z</time></trkpt><trkpt lat="14.472785794660048" lon="121.04504452351053"><ele>30.800000000000004</ele><time>2026-04-30T06:03:48Z</time></trkpt><trkpt lat="14.4726825004698" lon="121.0450423809425"><ele>30.2</ele><time>2026-04-30T06:03:49Z</time></trkpt><trkpt lat="14.472582143747875" lon="121.0450423869141"><ele>29.6</ele><time>2026-04-30T06:03:50Z</time></trkpt><trkpt lat="14.472479709700142" lon="121.04504326800867"><ele>29.0</ele><time>2026-04-30T06:03:51Z</time></trkpt><trkpt lat="14.472377806348328" lon="121.04504562304336"><ele>29.0</ele><time>2026-04-30T06:03:52Z</time></trkpt><trkpt lat="14.472276579526548" lon="121.04504682252991"><ele>29.0</ele><time>2026-04-30T06:03:53Z</time></trkpt><trkpt lat="14.472177304584587" lon="121.04504987156785"><ele>29.0</ele><time>2026-04-30T06:03:54Z</time></trkpt><trkpt lat="14.472077443556286" lon="121.04505299948336"><ele>29.0</ele><time>2026-04-30T06:03:55Z</time></trkpt><trkpt lat="14.471979759586619" lon="121.04505667238536"><ele>29.0</ele><time>2026-04-30T06:03:56Z</time></trkpt><trkpt lat="14.47187860887833" lon="121.0450592707763"><ele>29.2</ele><time>2026-04-30T06:03:57Z</time></trkpt><trkpt lat="14.471776435917432" lon="121.04505838002585"><ele>29.4</ele><time>2026-04-30T06:03:58Z</time></trkpt><trkpt lat="14.471674029720155" lon="121.04505981798934"><ele>29.6</ele><time>2026-04-30T06:03:59Z</time></trkpt><trkpt lat="14.471572614156745" lon="121.04505960901264"><ele>29.8</ele><time>2026-04-30T06:04:00Z</time></trkpt><trkpt lat="14.471473209033872" lon="121.04506128534936"><ele>30.0</ele><time>2026-04-30T06:04:01Z</time></trkpt><trkpt lat="14.47137599208972" lon="121.04506237745056"><ele>30.0</ele><time>2026-04-30T06:04:02Z</time></trkpt><trkpt lat="14.471280877709239" lon="121.04506351887619"><ele>30.0</ele><time>2026-04-30T06:04:03Z</time></trkpt><trkpt lat="14.471189797016928" lon="121.04506265777471"><ele>30.0</ele><time>2026-04-30T06:04:04Z</time></trkpt><trkpt lat="14.471101606552116" lon="121.04506094196508"><ele>30.0</ele><time>2026-04-30T06:04:05Z</time></trkpt><trkpt lat="14.471013246746578" lon="121.0450638642653"><ele>30.0</ele><time>2026-04-30T06:04:06Z</time></trkpt><trkpt lat="14.470928200715676" lon="121.04506213941875"><ele>30.0</ele><time>2026-04-30T06:04:07Z</time></trkpt><trkpt lat="14.47084653331045" lon="121.04506025436396"><ele>30.2</ele><time>2026-04-30T06:04:08Z</time></trkpt><trkpt lat="14.470764213538073" lon="121.04506026964677"><ele>30.4</ele><time>2026-04-30T06:04:09Z</time></trkpt><trkpt lat="14.47067951533783" lon="121.04506046552022"><ele>30.6</ele><time>2026-04-30T06:04:10Z</time></trkpt><trkpt lat="14.470588958229767" lon="121.04506199863368"><ele>30.8</ele><time>2026-04-30T06:04:11Z</time></trkpt><trkpt lat="14.470494725143832" lon="121.04506609928819"><ele>31.0</ele><time>2026-04-30T06:04:12Z</time></trkpt><trkpt lat="14.470396903379255" lon="121.04507041241135"><ele>31.000000000000004</ele><time>2026-04-30T06:04:13Z</time></trkpt><trkpt lat="14.470301210413577" lon="121.04507077682264"><ele>31.0</ele><time>2026-04-30T06:04:14Z</time></trkpt><trkpt lat="14.470209666787309" lon="121.04507243930493"><ele>31.0</ele><time>2026-04-30T06:04:15Z</time></trkpt><trkpt lat="14.470126328166685" lon="121.04507235182663"><ele>31.0</ele><time>2026-04-30T06:04:16Z</time></trkpt><trkpt lat="14.470057876794453" lon="121.04507295772909"><ele>31.000000000000004</ele><time>2026-04-30T06:04:17Z</time></trkpt><trkpt lat="14.469958468445645" lon="121.04507579865539"><ele>31.0</ele><time>2026-04-30T06:04:19Z</time></trkpt><trkpt lat="14.469872047754626" lon="121.04507045632293"><ele>31.000000000000004</ele><time>2026-04-30T06:04:21Z</time></trkpt><trkpt lat="14.469786979613902" lon="121.04506552847143"><ele>31.0</ele><time>2026-04-30T06:04:23Z</time></trkpt><trkpt lat="14.469689996712459" lon="121.04506355268241"><ele>31.0</ele><time>2026-04-30T06:04:25Z</time></trkpt><trkpt lat="14.469574828762207" lon="121.0450631663473"><ele>31.0</ele><time>2026-04-30T06:04:27Z</time></trkpt><trkpt lat="14.46950935734843" lon="121.04506171151641"><ele>31.000000000000004</ele><time>2026-04-30T06:04:28Z</time></trkpt><trkpt lat="14.469438376952333" lon="121.04506305892414"><ele>31.0</ele><time>2026-04-30T06:04:29Z</time></trkpt><trkpt lat="14.469365449042764" lon="121.04506378429456"><ele>31.166666666666668</ele><time>2026-04-30T06:04:30Z</time></trkpt><trkpt lat="14.469289202181917" lon="121.04506235312375"><ele>31.333333333333336</ele><time>2026-04-30T06:04:31Z</time></trkpt><trkpt lat="14.469211726769423" lon="121.04506294544929"><ele>31.5</ele><time>2026-04-30T06:04:32Z</time></trkpt><trkpt lat="14.469133975225544" lon="121.04506314786582"><ele>31.666666666666664</ele><time>2026-04-30T06:04:33Z</time></trkpt><trkpt lat="14.469057824928775" lon="121.04506172979322"><ele>31.833333333333332</ele><time>2026-04-30T06:04:34Z</time></trkpt><trkpt lat="14.468980877841807" lon="121.04506009115458"><ele>32.0</ele><time>2026-04-30T06:04:35Z</time></trkpt><trkpt lat="14.468905422477059" lon="121.04506090102116"><ele>31.999999999999996</ele><time>2026-04-30T06:04:36Z</time></trkpt><trkpt lat="14.468826985827437" lon="121.04506362871446"><ele>32.0</ele><time>2026-04-30T06:04:37Z</time></trkpt><trkpt lat="14.468749898091101" lon="121.04506580426231"><ele>32.0</ele><time>2026-04-30T06:04:38Z</time></trkpt><trkpt lat="14.468670998611879" lon="121.04506601983952"><ele>32.0</ele><time>2026-04-30T06:04:39Z</time></trkpt><trkpt lat="14.468589012321033" lon="121.04506634451293"><ele>31.999999999999996</ele><time>2026-04-30T06:04:40Z</time></trkpt><trkpt lat="14.468502860399411" lon="121.04506818311323"><ele>32.0</ele><time>2026-04-30T06:04:41Z</time></trkpt><trkpt lat="14.468414251575934" lon="121.04506881663649"><ele>32.2</ele><time>2026-04-30T06:04:42Z</time></trkpt><trkpt lat="14.468321038483824" lon="121.04507186741859"><ele>32.400000000000006</ele><time>2026-04-30T06:04:43Z</time></trkpt><trkpt lat="14.46822692180736" lon="121.04507112241569"><ele>32.599999999999994</ele><time>2026-04-30T06:04:44Z</time></trkpt><trkpt lat="14.468129084720003" lon="121.0450758016632"><ele>32.8</ele><time>2026-04-30T06:04:45Z</time></trkpt><trkpt lat="14.468027104764046" lon="121.04507562182386"><ele>33.0</ele><time>2026-04-30T06:04:46Z</time></trkpt><trkpt lat="14.467923673161593" lon="121.04507518714037"><ele>33.6</ele><time>2026-04-30T06:04:47Z</time></trkpt><trkpt lat="14.467818619564216" lon="121.04507822639019"><ele>34.199999999999996</ele><time>2026-04-30T06:04:48Z</time></trkpt><trkpt lat="14.46771445799399" lon="121.04508070879757"><ele>34.8</ele><time>2026-04-30T06:04:49Z</time></trkpt><trkpt lat="14.467609393306857" lon="121.04508256330818"><ele>35.4</ele><time>2026-04-30T06:04:50Z</time></trkpt><trkpt lat="14.467502305434529" lon="121.04507923891389"><ele>36.0</ele><time>2026-04-30T06:04:51Z</time></trkpt><trkpt lat="14.467395985304593" lon="121.04507701831946"><ele>36.0</ele><time>2026-04-30T06:04:52Z</time></trkpt><trkpt lat="14.467287665395313" lon="121.04507370784395"><ele>36.0</ele><time>2026-04-30T06:04:53Z</time></trkpt><trkpt lat="14.467177785774934" lon="121.0450790990645"><ele>36.0</ele><time>2026-04-30T06:04:54Z</time></trkpt><trkpt lat="14.467069649934137" lon="121.04508285130021"><ele>36.0</ele><time>2026-04-30T06:04:55Z</time></trkpt><trkpt lat="14.466957941947626" lon="121.0450792338131"><ele>36.0</ele><time>2026-04-30T06:04:56Z</time></trkpt><trkpt lat="14.466848110446433" lon="121.04508053853878"><ele>36.4</ele><time>2026-04-30T06:04:57Z</time></trkpt><trkpt lat="14.466739041718757" lon="121.04508107602697"><ele>36.8</ele><time>2026-04-30T06:04:58Z</time></trkpt><trkpt lat="14.466631028948415" lon="121.04508204099312"><ele>37.199999999999996</ele><time>2026-04-30T06:04:59Z</time></trkpt><trkpt lat="14.466524224926514" lon="121.04508288973966"><ele>37.6</ele><time>2026-04-30T06:05:00Z</time></trkpt><trkpt lat="14.46641774940006" lon="121.0450821963059"><ele>38.0</ele><time>2026-04-30T06:05:01Z</time></trkpt><trkpt lat="14.46631265110917" lon="121.04508259998686"><ele>38.0</ele><time>2026-04-30T06:05:02Z</time></trkpt><trkpt lat="14.466209721307784" lon="121.04508359843071"><ele>38.0</ele><time>2026-04-30T06:05:03Z</time></trkpt><trkpt lat="14.466111271678878" lon="121.04508416437524"><ele>38.0</ele><time>2026-04-30T06:05:04Z</time></trkpt><trkpt lat="14.466025394865627" lon="121.0450855477242"><ele>38.0</ele><time>2026-04-30T06:05:05Z</time></trkpt><trkpt lat="14.465952424023888" lon="121.04508129832213"><ele>38.0</ele><time>2026-04-30T06:05:06Z</time></trkpt><trkpt lat="14.46588292541076" lon="121.045082334803"><ele>38.0</ele><time>2026-04-30T06:05:07Z</time></trkpt><trkpt lat="14.465816063780533" lon="121.04508335383778"><ele>38.0</ele><time>2026-04-30T06:05:08Z</time></trkpt><trkpt lat="14.465752545505483" lon="121.04508151361405"><ele>38.0</ele><time>2026-04-30T06:05:09Z</time></trkpt><trkpt lat="14.465636945572584" lon="121.04508733382686"><ele>38.0</ele><time>2026-04-30T06:05:11Z</time></trkpt><trkpt lat="14.465513815082385" lon="121.04508786891483"><ele>38.0</ele><time>2026-04-30T06:05:13Z</time></trkpt><trkpt lat="14.465448746307656" lon="121.04508950776815"><ele>38.0</ele><time>2026-04-30T06:05:14Z</time></trkpt><trkpt lat="14.465325225184694" lon="121.0450871085757"><ele>38.0</ele><time>2026-04-30T06:05:16Z</time></trkpt><trkpt lat="14.465261071751836" lon="121.04508568675942"><ele>38.0</ele><time>2026-04-30T06:05:17Z</time></trkpt><trkpt lat="14.465197688297607" lon="121.0450838623113"><ele>38.0</ele><time>2026-04-30T06:05:18Z</time></trkpt><trkpt lat="14.465072057274597" lon="121.04508378622447"><ele>38.0</ele><time>2026-04-30T06:05:20Z</time></trkpt><trkpt lat="14.464948680317681" lon="121.04508932100819"><ele>38.0</ele><time>2026-04-30T06:05:22Z</time></trkpt><trkpt lat="14.464847538107957" lon="121.04509171042653"><ele>38.0</ele><time>2026-04-30T06:05:24Z</time></trkpt><trkpt lat="14.46476759664612" lon="121.04509338296465"><ele>38.0</ele><time>2026-04-30T06:05:26Z</time></trkpt><trkpt lat="14.46468789484502" lon="121.04509559275654"><ele>38.0</ele><time>2026-04-30T06:05:28Z</time></trkpt><trkpt lat="14.464598962195245" lon="121.04509384063044"><ele>38.0</ele><time>2026-04-30T06:05:30Z</time></trkpt><trkpt lat="14.4645026747117" lon="121.04509748324789"><ele>38.0</ele><time>2026-04-30T06:05:32Z</time></trkpt><trkpt lat="14.464397659652313" lon="121.04510553742007"><ele>38.0</ele><time>2026-04-30T06:05:34Z</time></trkpt><trkpt lat="14.464283244391254" lon="121.0451042383554"><ele>38.0</ele><time>2026-04-30T06:05:36Z</time></trkpt><trkpt lat="14.464154921142976" lon="121.0451022278562"><ele>38.0</ele><time>2026-04-30T06:05:38Z</time></trkpt><trkpt lat="14.464034151272047" lon="121.04510171110746"><ele>38.0</ele><time>2026-04-30T06:05:40Z</time></trkpt><trkpt lat="14.463916402444475" lon="121.0451025672804"><ele>38.0</ele><time>2026-04-30T06:05:42Z</time></trkpt><trkpt lat="14.463801746570905" lon="121.04509511441712"><ele>38.0</ele><time>2026-04-30T06:05:44Z</time></trkpt><trkpt lat="14.463692975514393" lon="121.04509327376135"><ele>38.0</ele><time>2026-04-30T06:05:46Z</time></trkpt><trkpt lat="14.463588757367488" lon="121.04509451866086"><ele>38.0</ele><time>2026-04-30T06:05:48Z</time></trkpt><trkpt lat="14.463488912292375" lon="121.04509400373995"><ele>38.0</ele><time>2026-04-30T06:05:50Z</time></trkpt><trkpt lat="14.463394443918444" lon="121.04508984962249"><ele>37.8</ele><time>2026-04-30T06:05:52Z</time></trkpt><trkpt lat="14.463312772321828" lon="121.04508623597839"><ele>37.599999999999994</ele><time>2026-04-30T06:05:54Z</time></trkpt><trkpt lat="14.463223980804644" lon="121.04509646009456"><ele>37.400000000000006</ele><time>2026-04-30T06:05:58Z</time></trkpt><trkpt lat="14.463141126687276" lon="121.04508580476016"><ele>37.2</ele><time>2026-04-30T06:06:00Z</time></trkpt><trkpt lat="14.46303786078785" lon="121.04507473866516"><ele>37.0</ele><time>2026-04-30T06:06:02Z</time></trkpt><trkpt lat="14.462908155454182" lon="121.04507153176068"><ele>37.0</ele><time>2026-04-30T06:06:04Z</time></trkpt><trkpt lat="14.462837149843981" lon="121.04507093806974"><ele>37.0</ele><time>2026-04-30T06:06:05Z</time></trkpt><trkpt lat="14.462765465344457" lon="121.04506635007432"><ele>37.0</ele><time>2026-04-30T06:06:06Z</time></trkpt><trkpt lat="14.462690622501036" lon="121.0450663589571"><ele>37.0</ele><time>2026-04-30T06:06:07Z</time></trkpt><trkpt lat="14.462613995719238" lon="121.04506672262809"><ele>37.0</ele><time>2026-04-30T06:06:08Z</time></trkpt><trkpt lat="14.462534914959248" lon="121.04506631362771"><ele>37.0</ele><time>2026-04-30T06:06:09Z</time></trkpt><trkpt lat="14.46245976539885" lon="121.04506667694186"><ele>37.0</ele><time>2026-04-30T06:06:10Z</time></trkpt><trkpt lat="14.462384474393057" lon="121.04506797386021"><ele>37.0</ele><time>2026-04-30T06:06:11Z</time></trkpt><trkpt lat="14.462303816788674" lon="121.04506810368818"><ele>37.0</ele><time>2026-04-30T06:06:12Z</time></trkpt><trkpt lat="14.462225073221093" lon="121.04506958356195"><ele>37.0</ele><time>2026-04-30T06:06:13Z</time></trkpt><trkpt lat="14.462152809302973" lon="121.04507276552908"><ele>37.0</ele><time>2026-04-30T06:06:14Z</time></trkpt><trkpt lat="14.462079324875502" lon="121.04507294139185"><ele>37.0</ele><time>2026-04-30T06:06:15Z</time></trkpt><trkpt lat="14.462007748604307" lon="121.04507250347474"><ele>37.0</ele><time>2026-04-30T06:06:16Z</time></trkpt><trkpt lat="14.461887801286533" lon="121.04507828414076"><ele>37.2</ele><time>2026-04-30T06:06:18Z</time></trkpt><trkpt lat="14.461781195022063" lon="121.04507683236902"><ele>37.400000000000006</ele><time>2026-04-30T06:06:20Z</time></trkpt><trkpt lat="14.461684129603267" lon="121.04507909947318"><ele>37.599999999999994</ele><time>2026-04-30T06:06:22Z</time></trkpt><trkpt lat="14.461589903418506" lon="121.04508219672036"><ele>37.8</ele><time>2026-04-30T06:06:24Z</time></trkpt><trkpt lat="14.461520245228755" lon="121.04507358987082"><ele>38.0</ele><time>2026-04-30T06:06:26Z</time></trkpt><trkpt lat="14.461433839050244" lon="121.04507478890437"><ele>38.0</ele><time>2026-04-30T06:06:29Z</time></trkpt><trkpt lat="14.461368649308117" lon="121.04507378928962"><ele>38.0</ele><time>2026-04-30T06:06:31Z</time></trkpt><trkpt lat="14.461298189708522" lon="121.04506922191065"><ele>38.0</ele><time>2026-04-30T06:06:33Z</time></trkpt><trkpt lat="14.461221932569043" lon="121.0450710255421"><ele>38.0</ele><time>2026-04-30T06:06:35Z</time></trkpt><trkpt lat="14.46114491427035" lon="121.04507047961704"><ele>38.0</ele><time>2026-04-30T06:06:37Z</time></trkpt><trkpt lat="14.461063756546785" lon="121.0450701118997"><ele>38.0</ele><time>2026-04-30T06:06:39Z</time></trkpt><trkpt lat="14.460979469524608" lon="121.0450810309992"><ele>38.285714285714285</ele><time>2026-04-30T06:06:41.999Z</time></trkpt><trkpt lat="14.460906875151275" lon="121.04507047404114"><ele>38.57142857142858</ele><time>2026-04-30T06:06:44.999Z</time></trkpt><trkpt lat="14.460837286614934" lon="121.04506690385745"><ele>38.85714285714286</ele><time>2026-04-30T06:06:47.999Z</time></trkpt><trkpt lat="14.460763490823366" lon="121.0450614310628"><ele>39.14285714285714</ele><time>2026-04-30T06:06:50.999Z</time></trkpt><trkpt lat="14.460696073741566" lon="121.04506595156367"><ele>39.42857142857143</ele><time>2026-04-30T06:06:56.999Z</time></trkpt><trkpt lat="14.46062439951244" lon="121.04507486149292"><ele>39.714285714285715</ele><time>2026-04-30T06:07:10Z</time></trkpt><trkpt lat="14.460546329636589" lon="121.04507930504106"><ele>40.0</ele><time>2026-04-30T06:07:14Z</time></trkpt><trkpt lat="14.4604710199744" lon="121.04507996122696"><ele>40.333333333333336</ele><time>2026-04-30T06:07:18Z</time></trkpt><trkpt lat="14.460398574929627" lon="121.04507928877003"><ele>40.66666666666667</ele><time>2026-04-30T06:07:22Z</time></trkpt><trkpt lat="14.46032444026277" lon="121.04506500092316"><ele>41.0</ele><time>2026-04-30T06:07:28Z</time></trkpt><trkpt lat="14.460221016623684" lon="121.04506980503663"><ele>41.333333333333336</ele><time>2026-04-30T06:07:31Z</time></trkpt><trkpt lat="14.460113610169902" lon="121.04507253563905"><ele>41.666666666666664</ele><time>2026-04-30T06:07:33Z</time></trkpt><trkpt lat="14.460049866381866" lon="121.04507375892868"><ele>42.0</ele><time>2026-04-30T06:07:34Z</time></trkpt><trkpt lat="14.459981165757913" lon="121.04507601578418"><ele>42.0</ele><time>2026-04-30T06:07:35Z</time></trkpt><trkpt lat="14.459907325878614" lon="121.04507866329008"><ele>42.0</ele><time>2026-04-30T06:07:36Z</time></trkpt><trkpt lat="14.459828915266383" lon="121.04507899425226"><ele>42.0</ele><time>2026-04-30T06:07:37Z</time></trkpt><trkpt lat="14.459750182949762" lon="121.0450786893778"><ele>42.0</ele><time>2026-04-30T06:07:38Z</time></trkpt><trkpt lat="14.459673281913497" lon="121.0450804245688"><ele>42.0</ele><time>2026-04-30T06:07:39Z</time></trkpt><trkpt lat="14.459598404146256" lon="121.0450795386297"><ele>42.0</ele><time>2026-04-30T06:07:40Z</time></trkpt><trkpt lat="14.459525307548677" lon="121.04507665567648"><ele>42.0</ele><time>2026-04-30T06:07:41Z</time></trkpt><trkpt lat="14.45944821391358" lon="121.04507630161561"><ele>42.0</ele><time>2026-04-30T06:07:42Z</time></trkpt><trkpt lat="14.459368883817728" lon="121.04507630197287"><ele>42.0</ele><time>2026-04-30T06:07:43Z</time></trkpt><trkpt lat="14.459287980177203" lon="121.04507480973678"><ele>42.0</ele><time>2026-04-30T06:07:44Z</time></trkpt><trkpt lat="14.459204707576045" lon="121.04507486407962"><ele>42.0</ele><time>2026-04-30T06:07:45Z</time></trkpt><trkpt lat="14.459118284054762" lon="121.04507900452914"><ele>42.0</ele><time>2026-04-30T06:07:46Z</time></trkpt><trkpt lat="14.459030464444604" lon="121.04508112248473"><ele>42.0</ele><time>2026-04-30T06:07:47Z</time></trkpt><trkpt lat="14.458936594858365" lon="121.0450807351829"><ele>42.0</ele><time>2026-04-30T06:07:48Z</time></trkpt><trkpt lat="14.458840625936931" lon="121.04508208384087"><ele>42.0</ele><time>2026-04-30T06:07:49Z</time></trkpt><trkpt lat="14.458745789893099" lon="121.04508169171639"><ele>42.0</ele><time>2026-04-30T06:07:50Z</time></trkpt><trkpt lat="14.45865736288771" lon="121.0450835137623"><ele>42.0</ele><time>2026-04-30T06:07:51Z</time></trkpt><trkpt lat="14.458565474832652" lon="121.04508442168118"><ele>41.8</ele><time>2026-04-30T06:07:52Z</time></trkpt><trkpt lat="14.4584743832668" lon="121.04508373170978"><ele>41.6</ele><time>2026-04-30T06:07:53Z</time></trkpt><trkpt lat="14.458383835746972" lon="121.04508109782185"><ele>41.4</ele><time>2026-04-30T06:07:54Z</time></trkpt><trkpt lat="14.458288674748772" lon="121.04508035816495"><ele>41.199999999999996</ele><time>2026-04-30T06:07:55Z</time></trkpt><trkpt lat="14.458193439500056" lon="121.04507866990458"><ele>41.0</ele><time>2026-04-30T06:07:56Z</time></trkpt><trkpt lat="14.45809785007583" lon="121.04507866298472"><ele>41.0</ele><time>2026-04-30T06:07:57Z</time></trkpt><trkpt lat="14.458000706718117" lon="121.04507500317979"><ele>41.0</ele><time>2026-04-30T06:07:58Z</time></trkpt><trkpt lat="14.457900945677174" lon="121.04506939841902"><ele>41.0</ele><time>2026-04-30T06:07:59Z</time></trkpt><trkpt lat="14.457801931985784" lon="121.04506074518906"><ele>41.0</ele><time>2026-04-30T06:08:00Z</time></trkpt><trkpt lat="14.457705231337089" lon="121.04505695598206"><ele>41.0</ele><time>2026-04-30T06:08:01Z</time></trkpt><trkpt lat="14.457609284510198" lon="121.04504734017641"><ele>40.199999999999996</ele><time>2026-04-30T06:08:02Z</time></trkpt><trkpt lat="14.457505946143975" lon="121.04506901094418"><ele>39.4</ele><time>2026-04-30T06:08:03Z</time></trkpt><trkpt lat="14.457404262892293" lon="121.04509669073225"><ele>38.6</ele><time>2026-04-30T06:08:04Z</time></trkpt><trkpt lat="14.457295743364" lon="121.04510095269235"><ele>37.8</ele><time>2026-04-30T06:08:05Z</time></trkpt><trkpt lat="14.457189408682416" lon="121.04510476859977"><ele>37.0</ele><time>2026-04-30T06:08:06Z</time></trkpt><trkpt lat="14.45708557627222" lon="121.04510644062681"><ele>36.800000000000004</ele><time>2026-04-30T06:08:07Z</time></trkpt><trkpt lat="14.456982837870285" lon="121.04510972110391"><ele>36.6</ele><time>2026-04-30T06:08:08Z</time></trkpt><trkpt lat="14.456888661705907" lon="121.04511143592875"><ele>36.400000000000006</ele><time>2026-04-30T06:08:09Z</time></trkpt><trkpt lat="14.456796152533856" lon="121.04511221024032"><ele>36.2</ele><time>2026-04-30T06:08:10Z</time></trkpt><trkpt lat="14.456702223513789" lon="121.04511541598708"><ele>36.0</ele><time>2026-04-30T06:08:11Z</time></trkpt><trkpt lat="14.456610320874992" lon="121.04511147868567"><ele>36.0</ele><time>2026-04-30T06:08:12Z</time></trkpt><trkpt lat="14.456522114636668" lon="121.0451025217877"><ele>36.0</ele><time>2026-04-30T06:08:13Z</time></trkpt><trkpt lat="14.456435313131255" lon="121.04509946938269"><ele>36.0</ele><time>2026-04-30T06:08:14Z</time></trkpt><trkpt lat="14.456352759727034" lon="121.0450991546553"><ele>36.0</ele><time>2026-04-30T06:08:15Z</time></trkpt><trkpt lat="14.456272879898604" lon="121.0451002368392"><ele>36.0</ele><time>2026-04-30T06:08:16Z</time></trkpt><trkpt lat="14.45619663149774" lon="121.04510229409745"><ele>36.0</ele><time>2026-04-30T06:08:17Z</time></trkpt><trkpt lat="14.456119814027604" lon="121.04510420225267"><ele>36.333333333333336</ele><time>2026-04-30T06:08:18Z</time></trkpt><trkpt lat="14.45604591907486" lon="121.04509969957327"><ele>36.666666666666664</ele><time>2026-04-30T06:08:19Z</time></trkpt><trkpt lat="14.455971582740158" lon="121.04509541636659"><ele>37.0</ele><time>2026-04-30T06:08:20Z</time></trkpt><trkpt lat="14.455890444258388" lon="121.04508957539608"><ele>37.33333333333333</ele><time>2026-04-30T06:08:21Z</time></trkpt><trkpt lat="14.455809879115781" lon="121.04508760518245"><ele>37.666666666666664</ele><time>2026-04-30T06:08:22Z</time></trkpt><trkpt lat="14.455732598610668" lon="121.04508722475015"><ele>38.0</ele><time>2026-04-30T06:08:23Z</time></trkpt><trkpt lat="14.455652768057165" lon="121.04508632962516"><ele>38.0</ele><time>2026-04-30T06:08:24Z</time></trkpt><trkpt lat="14.455565612299308" lon="121.04507463565422"><ele>38.0</ele><time>2026-04-30T06:08:25Z</time></trkpt><trkpt lat="14.45547974829311" lon="121.04506163249792"><ele>38.0</ele><time>2026-04-30T06:08:26Z</time></trkpt><trkpt lat="14.455397332239771" lon="121.04504568604506"><ele>38.0</ele><time>2026-04-30T06:08:27Z</time></trkpt><trkpt lat="14.455311870424874" lon="121.04502275077697"><ele>38.0</ele><time>2026-04-30T06:08:28Z</time></trkpt><trkpt lat="14.455237268162737" lon="121.04499822914715"><ele>38.0</ele><time>2026-04-30T06:08:29Z</time></trkpt><trkpt lat="14.455169880483412" lon="121.04497513441818"><ele>37.0</ele><time>2026-04-30T06:08:30Z</time></trkpt><trkpt lat="14.455085894857145" lon="121.04494479352995"><ele>36.0</ele><time>2026-04-30T06:08:31Z</time></trkpt><trkpt lat="14.454999348300905" lon="121.04491883776977"><ele>35.0</ele><time>2026-04-30T06:08:32Z</time></trkpt><trkpt lat="14.454915306071191" lon="121.04488712159343"><ele>34.0</ele><time>2026-04-30T06:08:33Z</time></trkpt><trkpt lat="14.454835483146441" lon="121.0448496891391"><ele>33.0</ele><time>2026-04-30T06:08:34Z</time></trkpt><trkpt lat="14.454761014555631" lon="121.04482199401635"><ele>32.0</ele><time>2026-04-30T06:08:35Z</time></trkpt><trkpt lat="14.454689353722879" lon="121.04479601804806"><ele>31.999999999999996</ele><time>2026-04-30T06:08:36Z</time></trkpt><trkpt lat="14.45462140775636" lon="121.04477059513994"><ele>32.0</ele><time>2026-04-30T06:08:37Z</time></trkpt><trkpt lat="14.454556698830432" lon="121.04474952817915"><ele>32.0</ele><time>2026-04-30T06:08:38Z</time></trkpt><trkpt lat="14.45444901602095" lon="121.04471277013236"><ele>32.0</ele><time>2026-04-30T06:08:40Z</time></trkpt><trkpt lat="14.454362655707339" lon="121.04467567726928"><ele>31.999999999999996</ele><time>2026-04-30T06:08:42Z</time></trkpt><trkpt lat="14.454294188137242" lon="121.04463525511152"><ele>32.0</ele><time>2026-04-30T06:08:44Z</time></trkpt><trkpt lat="14.454232411200033" lon="121.0446077770992"><ele>31.833333333333332</ele><time>2026-04-30T06:08:46Z</time></trkpt><trkpt lat="14.454158683077711" lon="121.04458553684498"><ele>31.666666666666664</ele><time>2026-04-30T06:08:56.999Z</time></trkpt><trkpt lat="14.45409175117331" lon="121.04457849520709"><ele>31.5</ele><time>2026-04-30T06:09:01.999Z</time></trkpt><trkpt lat="14.45402305309649" lon="121.04457550493585"><ele>31.333333333333336</ele><time>2026-04-30T06:09:37Z</time></trkpt><trkpt lat="14.453952720441732" lon="121.0446052106309"><ele>31.166666666666668</ele><time>2026-04-30T06:09:39Z</time></trkpt><trkpt lat="14.453885046527285" lon="121.04467165249777"><ele>31.0</ele><time>2026-04-30T06:09:41Z</time></trkpt><trkpt lat="14.453835158180365" lon="121.0447752859298"><ele>31.000000000000004</ele><time>2026-04-30T06:09:43Z</time></trkpt><trkpt lat="14.453807227661496" lon="121.04490415744833"><ele>31.0</ele><time>2026-04-30T06:09:45Z</time></trkpt><trkpt lat="14.453797489075622" lon="121.04497835271182"><ele>31.0</ele><time>2026-04-30T06:09:46Z</time></trkpt><trkpt lat="14.453783421923994" lon="121.04505767221343"><ele>31.0</ele><time>2026-04-30T06:09:47Z</time></trkpt><trkpt lat="14.453765650441014" lon="121.04514132499206"><ele>31.000000000000004</ele><time>2026-04-30T06:09:48Z</time></trkpt><trkpt lat="14.45374427353113" lon="121.04522885053815"><ele>31.0</ele><time>2026-04-30T06:09:49Z</time></trkpt><trkpt lat="14.453722341432096" lon="121.04531115406924"><ele>30.333333333333336</ele><time>2026-04-30T06:09:50Z</time></trkpt><trkpt lat="14.45370177957773" lon="121.04538852774958"><ele>29.666666666666668</ele><time>2026-04-30T06:09:51Z</time></trkpt><trkpt lat="14.453688061452464" lon="121.04545230967729"><ele>29.0</ele><time>2026-04-30T06:09:52Z</time></trkpt><trkpt lat="14.453667589705136" lon="121.04554623177143"><ele>28.333333333333336</ele><time>2026-04-30T06:09:54Z</time></trkpt><trkpt lat="14.453661062731781" lon="121.0456153726808"><ele>27.666666666666668</ele><time>2026-04-30T06:09:57Z</time></trkpt><trkpt lat="14.45364528801732" lon="121.04568887818363"><ele>27.0</ele><time>2026-04-30T06:10:02Z</time></trkpt><trkpt lat="14.453800594304305" lon="121.04573785347218"><ele>27.0</ele><time>2026-04-30T06:10:06Z</time></trkpt><trkpt lat="14.45388262784915" lon="121.04572442475099"><ele>27.0</ele><time>2026-04-30T06:10:08Z</time></trkpt><trkpt lat="14.453995053826011" lon="121.04568736544456"><ele>27.0</ele><time>2026-04-30T06:10:10Z</time></trkpt><trkpt lat="14.454060634202113" lon="121.04566623306732"><ele>27.0</ele><time>2026-04-30T06:10:11Z</time></trkpt><trkpt lat="14.4541258077503" lon="121.04564657790245"><ele>27.0</ele><time>2026-04-30T06:10:12Z</time></trkpt><trkpt lat="14.454189436310644" lon="121.04562734481782"><ele>27.0</ele><time>2026-04-30T06:10:13Z</time></trkpt><trkpt lat="14.454303609019744" lon="121.04559510278663"><ele>27.0</ele><time>2026-04-30T06:10:15Z</time></trkpt><trkpt lat="14.454396750711537" lon="121.04557339889202"><ele>27.0</ele><time>2026-04-30T06:10:17Z</time></trkpt><trkpt lat="14.45446661586088" lon="121.0455610234513"><ele>27.0</ele><time>2026-04-30T06:10:19Z</time></trkpt><trkpt lat="14.454530263458588" lon="121.04555297808398"><ele>27.0</ele><time>2026-04-30T06:10:22Z</time></trkpt><trkpt lat="14.45459571066073" lon="121.04554416042009"><ele>27.0</ele><time>2026-04-30T06:10:24Z</time></trkpt><trkpt lat="14.454692973797894" lon="121.04551975247753"><ele>27.0</ele><time>2026-04-30T06:10:26Z</time></trkpt><trkpt lat="14.454798817117293" lon="121.04548420386399"><ele>27.714285714285715</ele><time>2026-04-30T06:10:28Z</time></trkpt><trkpt lat="14.454884183593597" lon="121.04545045216004"><ele>28.428571428571427</ele><time>2026-04-30T06:10:30Z</time></trkpt><trkpt lat="14.454953069168054" lon="121.04542522924139"><ele>29.142857142857142</ele><time>2026-04-30T06:10:35Z</time></trkpt><trkpt lat="14.455024621104682" lon="121.0454164756087"><ele>29.857142857142854</ele><time>2026-04-30T06:10:44Z</time></trkpt><trkpt lat="14.455088027346097" lon="121.04540903139073"><ele>30.57142857142857</ele><time>2026-04-30T06:10:57.999Z</time></trkpt><trkpt lat="14.455155803190207" lon="121.04540107419966"><ele>31.285714285714285</ele><time>2026-04-30T06:11:01.999Z</time></trkpt><trkpt lat="14.455217623713379" lon="121.04537985868566"><ele>32.0</ele><time>2026-04-30T06:11:07Z</time></trkpt><trkpt lat="14.455288610352223" lon="121.04537337074802"><ele>32.0</ele><time>2026-04-30T06:11:11.999Z</time></trkpt><trkpt lat="14.455382761468387" lon="121.04537117304596"><ele>32.0</ele><time>2026-04-30T06:11:14.999Z</time></trkpt><trkpt lat="14.45544520943004" lon="121.04535741088114"><ele>32.0</ele><time>2026-04-30T06:11:16.999Z</time></trkpt><trkpt lat="14.455531327722186" lon="121.04535429578611"><ele>32.0</ele><time>2026-04-30T06:11:18.999Z</time></trkpt><trkpt lat="14.455636404796872" lon="121.0453532327219"><ele>32.0</ele><time>2026-04-30T06:11:20.999Z</time></trkpt><trkpt lat="14.455770586353664" lon="121.04533692389855"><ele>32.666666666666664</ele><time>2026-04-30T06:11:22.999Z</time></trkpt><trkpt lat="14.455846029678654" lon="121.04532988610372"><ele>33.33333333333333</ele><time>2026-04-30T06:11:23.999Z</time></trkpt><trkpt lat="14.45593205068613" lon="121.04532418094485"><ele>34.0</ele><time>2026-04-30T06:11:24.999Z</time></trkpt><trkpt lat="14.456025104824981" lon="121.04532349123897"><ele>34.666666666666664</ele><time>2026-04-30T06:11:25.999Z</time></trkpt><trkpt lat="14.456118595541492" lon="121.04532418454839"><ele>35.333333333333336</ele><time>2026-04-30T06:11:26.999Z</time></trkpt><trkpt lat="14.456214337262091" lon="121.0453240153982"><ele>36.0</ele><time>2026-04-30T06:11:27.999Z</time></trkpt><trkpt lat="14.456314666049083" lon="121.04532468619959"><ele>36.0</ele><time>2026-04-30T06:11:28.999Z</time></trkpt><trkpt lat="14.456409116313345" lon="121.04532125946453"><ele>36.0</ele><time>2026-04-30T06:11:29.999Z</time></trkpt><trkpt lat="14.456501924033821" lon="121.04531862895811"><ele>36.0</ele><time>2026-04-30T06:11:30.999Z</time></trkpt><trkpt lat="14.45659546910092" lon="121.0453172108719"><ele>36.0</ele><time>2026-04-30T06:11:31.999Z</time></trkpt><trkpt lat="14.456696426959764" lon="121.04531155079313"><ele>36.0</ele><time>2026-04-30T06:11:32.999Z</time></trkpt><trkpt lat="14.45679804843519" lon="121.0453078351832"><ele>36.0</ele><time>2026-04-30T06:11:33.999Z</time></trkpt><trkpt lat="14.456904097221885" lon="121.04530811206715"><ele>36.0</ele><time>2026-04-30T06:11:34.999Z</time></trkpt><trkpt lat="14.457011633109785" lon="121.0453083340385"><ele>36.0</ele><time>2026-04-30T06:11:35.999Z</time></trkpt><trkpt lat="14.457118838887329" lon="121.04531445606362"><ele>36.0</ele><time>2026-04-30T06:11:36.999Z</time></trkpt><trkpt lat="14.457232284711363" lon="121.04531272437056"><ele>36.0</ele><time>2026-04-30T06:11:37.999Z</time></trkpt><trkpt lat="14.45734849154405" lon="121.0453123829308"><ele>36.25</ele><time>2026-04-30T06:11:38.999Z</time></trkpt><trkpt lat="14.45746629854582" lon="121.04531288207512"><ele>36.5</ele><time>2026-04-30T06:11:39.999Z</time></trkpt><trkpt lat="14.457591452915558" lon="121.04531128994452"><ele>36.75</ele><time>2026-04-30T06:11:40.999Z</time></trkpt><trkpt lat="14.45772258151289" lon="121.04531099468329"><ele>37.0</ele><time>2026-04-30T06:11:41.999Z</time></trkpt><trkpt lat="14.45785639820235" lon="121.04531041584845"><ele>38.0</ele><time>2026-04-30T06:11:42.999Z</time></trkpt><trkpt lat="14.457990544604264" lon="121.04531296988156"><ele>39.0</ele><time>2026-04-30T06:11:43.999Z</time></trkpt><trkpt lat="14.458128180616171" lon="121.04531489454504"><ele>40.0</ele><time>2026-04-30T06:11:44.999Z</time></trkpt><trkpt lat="14.458264268394412" lon="121.04531563657387"><ele>41.0</ele><time>2026-04-30T06:11:45.999Z</time></trkpt><trkpt lat="14.458394539310493" lon="121.04532584739512"><ele>41.0</ele><time>2026-04-30T06:11:46.999Z</time></trkpt><trkpt lat="14.458530105965846" lon="121.0453277853372"><ele>41.0</ele><time>2026-04-30T06:11:47.999Z</time></trkpt><trkpt lat="14.458680583169867" lon="121.04532166168639"><ele>41.0</ele><time>2026-04-30T06:11:48.999Z</time></trkpt><trkpt lat="14.458844276766582" lon="121.04532592230223"><ele>41.25</ele><time>2026-04-30T06:11:49.999Z</time></trkpt><trkpt lat="14.458999583790241" lon="121.04532628819021"><ele>41.5</ele><time>2026-04-30T06:11:50.999Z</time></trkpt><trkpt lat="14.459133861948901" lon="121.04531768744543"><ele>41.75</ele><time>2026-04-30T06:11:51.999Z</time></trkpt><trkpt lat="14.459286157645305" lon="121.04530769341676"><ele>42.0</ele><time>2026-04-30T06:11:52.999Z</time></trkpt><trkpt lat="14.45942941328278" lon="121.04530718298935"><ele>42.0</ele><time>2026-04-30T06:11:53.999Z</time></trkpt><trkpt lat="14.459573269440268" lon="121.04530553926553"><ele>42.0</ele><time>2026-04-30T06:11:54.999Z</time></trkpt><trkpt lat="14.459721194562292" lon="121.0453051470256"><ele>42.0</ele><time>2026-04-30T06:11:55.999Z</time></trkpt><trkpt lat="14.459911002737853" lon="121.04531547344716"><ele>42.0</ele><time>2026-04-30T06:11:56.999Z</time></trkpt><trkpt lat="14.460066414459147" lon="121.04532083785438"><ele>42.0</ele><time>2026-04-30T06:11:57.999Z</time></trkpt><trkpt lat="14.46022135717014" lon="121.04531756560482"><ele>42.0</ele><time>2026-04-30T06:11:58.999Z</time></trkpt><trkpt lat="14.460375122390955" lon="121.04531645778115"><ele>41.5</ele><time>2026-04-30T06:11:59.999Z</time></trkpt><trkpt lat="14.460522105269739" lon="121.04531883179769"><ele>41.0</ele><time>2026-04-30T06:12:00.999Z</time></trkpt><trkpt lat="14.460661439661159" lon="121.04532491079749"><ele>40.5</ele><time>2026-04-30T06:12:01.999Z</time></trkpt><trkpt lat="14.460806911836906" lon="121.04532325856864"><ele>40.0</ele><time>2026-04-30T06:12:02.999Z</time></trkpt><trkpt lat="14.460949477700538" lon="121.04532009794194"><ele>40.0</ele><time>2026-04-30T06:12:03.999Z</time></trkpt><trkpt lat="14.461087401940363" lon="121.04532387908738"><ele>40.0</ele><time>2026-04-30T06:12:04.999Z</time></trkpt><trkpt lat="14.461219391819254" lon="121.04533114949618"><ele>40.0</ele><time>2026-04-30T06:12:05.999Z</time></trkpt><trkpt lat="14.461377204489976" lon="121.0453262807758"><ele>40.0</ele><time>2026-04-30T06:12:06.999Z</time></trkpt><trkpt lat="14.461533442041127" lon="121.04532625813796"><ele>39.333333333333336</ele><time>2026-04-30T06:12:07.999Z</time></trkpt><trkpt lat="14.461676350905082" lon="121.04533241871518"><ele>38.666666666666664</ele><time>2026-04-30T06:12:08.999Z</time></trkpt><trkpt lat="14.461843976853523" lon="121.04530420406567"><ele>38.0</ele><time>2026-04-30T06:12:09.999Z</time></trkpt><trkpt lat="14.462020827075477" lon="121.04527969776768"><ele>37.5</ele><time>2026-04-30T06:12:10.999Z</time></trkpt><trkpt lat="14.462234060739076" lon="121.04526821082062"><ele>37.0</ele><time>2026-04-30T06:12:11.999Z</time></trkpt><trkpt lat="14.462560755800489" lon="121.0453760672447"><ele>37.0</ele><time>2026-04-30T06:12:12.999Z</time></trkpt><trkpt lat="14.462751584059985" lon="121.04538814679695"><ele>37.0</ele><time>2026-04-30T06:12:13.999Z</time></trkpt><trkpt lat="14.462955646902103" lon="121.04538166130402"><ele>37.0</ele><time>2026-04-30T06:12:14.999Z</time></trkpt><trkpt lat="14.463236278368964" lon="121.04540779218154"><ele>36.5</ele><time>2026-04-30T06:12:15.999Z</time></trkpt><trkpt lat="14.463483695029787" lon="121.04540538047388"><ele>36.0</ele><time>2026-04-30T06:12:16.999Z</time></trkpt><trkpt lat="14.46375063666804" lon="121.04540285243962"><ele>36.666666666666664</ele><time>2026-04-30T06:12:17.999Z</time></trkpt><trkpt lat="14.463971973310233" lon="121.04540079505342"><ele>37.33333333333333</ele><time>2026-04-30T06:12:18.999Z</time></trkpt><trkpt lat="14.4641762128261" lon="121.04539901974105"><ele>38.0</ele><time>2026-04-30T06:12:19.999Z</time></trkpt><trkpt lat="14.464398668932134" lon="121.04539708446484"><ele>38.0</ele><time>2026-04-30T06:12:20.999Z</time></trkpt><trkpt lat="14.464607287630022" lon="121.04539526957329"><ele>38.0</ele><time>2026-04-30T06:12:21.999Z</time></trkpt><trkpt lat="14.46481164779537" lon="121.04539349173726"><ele>38.0</ele><time>2026-04-30T06:12:22.999Z</time></trkpt><trkpt lat="14.465027240413272" lon="121.0453916161752"><ele>38.0</ele><time>2026-04-30T06:12:23.999Z</time></trkpt><trkpt lat="14.465236563319104" lon="121.0453897951522"><ele>38.0</ele><time>2026-04-30T06:12:24.999Z</time></trkpt><trkpt lat="14.465440215124211" lon="121.04538802347253"><ele>38.0</ele><time>2026-04-30T06:12:25.999Z</time></trkpt><trkpt lat="14.465639323160328" lon="121.04538638909719"><ele>38.0</ele><time>2026-04-30T06:12:26.999Z</time></trkpt><trkpt lat="14.465830393109124" lon="121.04538483221468"><ele>38.0</ele><time>2026-04-30T06:12:27.999Z</time></trkpt><trkpt lat="14.466022385226713" lon="121.04538339783193"><ele>38.0</ele><time>2026-04-30T06:12:28.999Z</time></trkpt><trkpt lat="14.46621432160844" lon="121.04538219236365"><ele>38.0</ele><time>2026-04-30T06:12:29.999Z</time></trkpt><trkpt lat="14.46638485680781" lon="121.04538112131902"><ele>38.0</ele><time>2026-04-30T06:12:30.999Z</time></trkpt><trkpt lat="14.466545945253543" lon="121.04538006838838"><ele>38.0</ele><time>2026-04-30T06:12:31.999Z</time></trkpt><trkpt lat="14.466720611993393" lon="121.04537872759563"><ele>38.0</ele><time>2026-04-30T06:12:32.999Z</time></trkpt><trkpt lat="14.466893090129645" lon="121.04537732219819"><ele>38.0</ele><time>2026-04-30T06:12:33.999Z</time></trkpt><trkpt lat="14.467054299574173" lon="121.04537600862135"><ele>38.0</ele><time>2026-04-30T06:12:34.999Z</time></trkpt><trkpt lat="14.467204949395175" lon="121.04537485939888"><ele>37.5</ele><time>2026-04-30T06:12:35.999Z</time></trkpt><trkpt lat="14.467351757806442" lon="121.04537376139214"><ele>37.0</ele><time>2026-04-30T06:12:36.999Z</time></trkpt><trkpt lat="14.467489809864713" lon="121.04537283137263"><ele>36.5</ele><time>2026-04-30T06:12:37.999Z</time></trkpt><trkpt lat="14.46764202514431" lon="121.0453720734037"><ele>36.0</ele><time>2026-04-30T06:12:38.999Z</time></trkpt><trkpt lat="14.467808266334913" lon="121.04537124560721"><ele>35.0</ele><time>2026-04-30T06:12:39.999Z</time></trkpt><trkpt lat="14.467963954158353" lon="121.04537047034364"><ele>34.0</ele><time>2026-04-30T06:12:40.999Z</time></trkpt><trkpt lat="14.468102843128365" lon="121.04536977874267"><ele>33.0</ele><time>2026-04-30T06:12:41.999Z</time></trkpt><trkpt lat="14.468272890879778" lon="121.04536893197755"><ele>33.0</ele><time>2026-04-30T06:12:42.999Z</time></trkpt><trkpt lat="14.468456201746847" lon="121.04536801917506"><ele>33.0</ele><time>2026-04-30T06:12:43.999Z</time></trkpt><trkpt lat="14.468636185833335" lon="121.04536712292277"><ele>33.0</ele><time>2026-04-30T06:12:44.999Z</time></trkpt><trkpt lat="14.468820862888085" lon="121.04536618619579"><ele>32.666666666666664</ele><time>2026-04-30T06:12:45.999Z</time></trkpt><trkpt lat="14.469004776484734" lon="121.045365153568"><ele>32.33333333333333</ele><time>2026-04-30T06:12:46.999Z</time></trkpt><trkpt lat="14.469194251456093" lon="121.04537871893085"><ele>32.0</ele><time>2026-04-30T06:12:47.999Z</time></trkpt><trkpt lat="14.469386982027812" lon="121.04536836473825"><ele>32.0</ele><time>2026-04-30T06:12:48.999Z</time></trkpt><trkpt lat="14.469589882867217" lon="121.04535692364925"><ele>32.0</ele><time>2026-04-30T06:12:49.999Z</time></trkpt><trkpt lat="14.469796686739214" lon="121.0453374974968"><ele>32.0</ele><time>2026-04-30T06:12:50.999Z</time></trkpt><trkpt lat="14.470001916613214" lon="121.04531695044267"><ele>31.666666666666664</ele><time>2026-04-30T06:12:51.999Z</time></trkpt><trkpt lat="14.470207085586358" lon="121.04530889613655"><ele>31.333333333333336</ele><time>2026-04-30T06:12:52.999Z</time></trkpt><trkpt lat="14.470414511197141" lon="121.04531843024048"><ele>31.0</ele><time>2026-04-30T06:12:53.999Z</time></trkpt><trkpt lat="14.470632707636454" lon="121.04531278369535"><ele>31.0</ele><time>2026-04-30T06:12:54.999Z</time></trkpt><trkpt lat="14.470844583845798" lon="121.04530070158174"><ele>31.0</ele><time>2026-04-30T06:12:55.999Z</time></trkpt><trkpt lat="14.471054354872422" lon="121.04528788958099"><ele>31.0</ele><time>2026-04-30T06:12:56.999Z</time></trkpt><trkpt lat="14.471271022158016" lon="121.04526024130264"><ele>30.666666666666668</ele><time>2026-04-30T06:12:57.999Z</time></trkpt><trkpt lat="14.47148723911977" lon="121.04525053712324"><ele>30.333333333333336</ele><time>2026-04-30T06:12:58.999Z</time></trkpt><trkpt lat="14.471700809641018" lon="121.04524410907801"><ele>30.0</ele><time>2026-04-30T06:12:59.999Z</time></trkpt><trkpt lat="14.471918159119786" lon="121.04523557744675"><ele>29.666666666666664</ele><time>2026-04-30T06:13:00.999Z</time></trkpt><trkpt lat="14.472133122020013" lon="121.04522206096044"><ele>29.333333333333332</ele><time>2026-04-30T06:13:01.999Z</time></trkpt><trkpt lat="14.47235322073781" lon="121.04521030126422"><ele>29.0</ele><time>2026-04-30T06:13:02.999Z</time></trkpt><trkpt lat="14.472560146607957" lon="121.04521955617517"><ele>29.0</ele><time>2026-04-30T06:13:03.999Z</time></trkpt><trkpt lat="14.472768430348356" lon="121.0452181379757"><ele>29.0</ele><time>2026-04-30T06:13:04.999Z</time></trkpt><trkpt lat="14.472972628963115" lon="121.04521674758729"><ele>29.0</ele><time>2026-04-30T06:13:05.999Z</time></trkpt><trkpt lat="14.473175124202044" lon="121.0452153688036"><ele>30.0</ele><time>2026-04-30T06:13:06.999Z</time></trkpt><trkpt lat="14.473374116401121" lon="121.04521401387936"><ele>31.0</ele><time>2026-04-30T06:13:07.999Z</time></trkpt><trkpt lat="14.473567200874161" lon="121.04521270800758"><ele>32.0</ele><time>2026-04-30T06:13:08.999Z</time></trkpt><trkpt lat="14.473767209312559" lon="121.04521139196756"><ele>33.0</ele><time>2026-04-30T06:13:09.999Z</time></trkpt><trkpt lat="14.473970876358202" lon="121.04521005184401"><ele>34.0</ele><time>2026-04-30T06:13:10.999Z</time></trkpt><trkpt lat="14.474161311983398" lon="121.04520879877734"><ele>35.0</ele><time>2026-04-30T06:13:11.999Z</time></trkpt><trkpt lat="14.474357915385605" lon="121.04520750511378"><ele>35.0</ele><time>2026-04-30T06:13:12.999Z</time></trkpt><trkpt lat="14.474544369493128" lon="121.04520627824058"><ele>35.0</ele><time>2026-04-30T06:13:13.999Z</time></trkpt><trkpt lat="14.474773318875" lon="121.0452047718596"><ele>35.0</ele><time>2026-04-30T06:13:14.999Z</time></trkpt><trkpt lat="14.474958486182354" lon="121.04520355347556"><ele>35.33333333333333</ele><time>2026-04-30T06:13:15.999Z</time></trkpt><trkpt lat="14.47513360446688" lon="121.0451936335488"><ele>35.666666666666664</ele><time>2026-04-30T06:13:16.999Z</time></trkpt><trkpt lat="14.475332166517774" lon="121.04520698326913"><ele>36.0</ele><time>2026-04-30T06:13:17.999Z</time></trkpt><trkpt lat="14.475522411971601" lon="121.04519420830125"><ele>36.5</ele><time>2026-04-30T06:13:18.999Z</time></trkpt><trkpt lat="14.47574236730884" lon="121.04523738010387"><ele>37.0</ele><time>2026-04-30T06:13:19.999Z</time></trkpt><trkpt lat="14.476028582344323" lon="121.04529302659539"><ele>36.5</ele><time>2026-04-30T06:13:20.999Z</time></trkpt><trkpt lat="14.476305752264807" lon="121.0452755884325"><ele>36.0</ele><time>2026-04-30T06:13:21.999Z</time></trkpt><trkpt lat="14.476516896037548" lon="121.04528026674117"><ele>36.0</ele><time>2026-04-30T06:13:22.999Z</time></trkpt><trkpt lat="14.47672719571538" lon="121.04528254137705"><ele>36.0</ele><time>2026-04-30T06:13:23.999Z</time></trkpt><trkpt lat="14.476981842832881" lon="121.04529101105393"><ele>35.0</ele><time>2026-04-30T06:13:24.999Z</time></trkpt><trkpt lat="14.477209208813628" lon="121.0452501444784"><ele>34.0</ele><time>2026-04-30T06:13:25.999Z</time></trkpt><trkpt lat="14.477414035870963" lon="121.04525249284548"><ele>33.0</ele><time>2026-04-30T06:13:26.999Z</time></trkpt><trkpt lat="14.477644654151659" lon="121.0452565972842"><ele>33.0</ele><time>2026-04-30T06:13:27.999Z</time></trkpt><trkpt lat="14.477874697021706" lon="121.04525621661313"><ele>33.0</ele><time>2026-04-30T06:13:28.999Z</time></trkpt><trkpt lat="14.478103427845769" lon="121.04523792244989"><ele>34.0</ele><time>2026-04-30T06:13:30Z</time></trkpt><trkpt lat="14.478327273024659" lon="121.04522345273078"><ele>35.0</ele><time>2026-04-30T06:13:31Z</time></trkpt><trkpt lat="14.478556832745529" lon="121.04522366217206"><ele>35.0</ele><time>2026-04-30T06:13:32Z</time></trkpt><trkpt lat="14.478782277246479" lon="121.04521918589569"><ele>35.0</ele><time>2026-04-30T06:13:33Z</time></trkpt><trkpt lat="14.479000464506964" lon="121.04522243006345"><ele>35.0</ele><time>2026-04-30T06:13:34Z</time></trkpt><trkpt lat="14.479227040019914" lon="121.04522440867693"><ele>35.0</ele><time>2026-04-30T06:13:35Z</time></trkpt><trkpt lat="14.479457953613824" lon="121.04524348750145"><ele>35.0</ele><time>2026-04-30T06:13:36Z</time></trkpt><trkpt lat="14.479679327917164" lon="121.0452445138446"><ele>34.33333333333333</ele><time>2026-04-30T06:13:37Z</time></trkpt><trkpt lat="14.479896895599698" lon="121.04524283053945"><ele>33.666666666666664</ele><time>2026-04-30T06:13:38Z</time></trkpt><trkpt lat="14.480119106325965" lon="121.04521649723621"><ele>33.0</ele><time>2026-04-30T06:13:39Z</time></trkpt><trkpt lat="14.480337957972484" lon="121.04521624150958"><ele>32.666666666666664</ele><time>2026-04-30T06:13:40Z</time></trkpt><trkpt lat="14.480553756546072" lon="121.04521655544465"><ele>32.33333333333333</ele><time>2026-04-30T06:13:41Z</time></trkpt><trkpt lat="14.480766882192695" lon="121.04521803746378"><ele>32.0</ele><time>2026-04-30T06:13:42Z</time></trkpt><trkpt lat="14.480980742418893" lon="121.04520632718007"><ele>32.0</ele><time>2026-04-30T06:13:43Z</time></trkpt><trkpt lat="14.481199747158284" lon="121.04521573324321"><ele>32.0</ele><time>2026-04-30T06:13:44Z</time></trkpt><trkpt lat="14.48140767178585" lon="121.04521502413755"><ele>32.0</ele><time>2026-04-30T06:13:45Z</time></trkpt><trkpt lat="14.48159713641087" lon="121.04521902071808"><ele>32.33333333333333</ele><time>2026-04-30T06:13:46Z</time></trkpt><trkpt lat="14.481777405331774" lon="121.04522286211407"><ele>32.666666666666664</ele><time>2026-04-30T06:13:47Z</time></trkpt><trkpt lat="14.48197322846309" lon="121.04522183077808"><ele>33.0</ele><time>2026-04-30T06:13:48Z</time></trkpt><trkpt lat="14.482153438891595" lon="121.04522449054363"><ele>33.0</ele><time>2026-04-30T06:13:49Z</time></trkpt><trkpt lat="14.48232704812854" lon="121.04522554366618"><ele>33.0</ele><time>2026-04-30T06:13:50Z</time></trkpt><trkpt lat="14.48250937449788" lon="121.04522425583036"><ele>33.0</ele><time>2026-04-30T06:13:51Z</time></trkpt><trkpt lat="14.482686106199163" lon="121.0452248059017"><ele>33.0</ele><time>2026-04-30T06:13:52Z</time></trkpt><trkpt lat="14.482860262015855" lon="121.04522842976812"><ele>33.0</ele><time>2026-04-30T06:13:53Z</time></trkpt><trkpt lat="14.483034981823124" lon="121.04522988853448"><ele>33.0</ele><time>2026-04-30T06:13:54Z</time></trkpt><trkpt lat="14.483207488454232" lon="121.04523197391615"><ele>32.666666666666664</ele><time>2026-04-30T06:13:55Z</time></trkpt><trkpt lat="14.483370042753506" lon="121.04523307553859"><ele>32.33333333333333</ele><time>2026-04-30T06:13:56Z</time></trkpt><trkpt lat="14.48353557390629" lon="121.04523420941042"><ele>32.0</ele><time>2026-04-30T06:13:57Z</time></trkpt><trkpt lat="14.483695383071751" lon="121.04523634634444"><ele>31.666666666666664</ele><time>2026-04-30T06:13:58Z</time></trkpt><trkpt lat="14.483871375040984" lon="121.045227638454"><ele>31.333333333333336</ele><time>2026-04-30T06:13:59Z</time></trkpt><trkpt lat="14.48403600055626" lon="121.04522952834203"><ele>31.0</ele><time>2026-04-30T06:14:00Z</time></trkpt><trkpt lat="14.484197429200462" lon="121.04523302926285"><ele>31.0</ele><time>2026-04-30T06:14:01Z</time></trkpt><trkpt lat="14.484375488467396" lon="121.04522760654011"><ele>31.0</ele><time>2026-04-30T06:14:02Z</time></trkpt><trkpt lat="14.484544009838155" lon="121.04522638169797"><ele>31.0</ele><time>2026-04-30T06:14:03Z</time></trkpt><trkpt lat="14.484712291842067" lon="121.04522387212131"><ele>30.666666666666668</ele><time>2026-04-30T06:14:04Z</time></trkpt><trkpt lat="14.484862076167255" lon="121.04523292776933"><ele>30.333333333333336</ele><time>2026-04-30T06:14:05Z</time></trkpt><trkpt lat="14.485031839524874" lon="121.04524291969007"><ele>30.0</ele><time>2026-04-30T06:14:06Z</time></trkpt><trkpt lat="14.485205887624705" lon="121.04525777580301"><ele>30.0</ele><time>2026-04-30T06:14:07Z</time></trkpt><trkpt lat="14.48537275421597" lon="121.04528107216088"><ele>30.0</ele><time>2026-04-30T06:14:08Z</time></trkpt><trkpt lat="14.48550392618442" lon="121.04529660235896"><ele>30.0</ele><time>2026-04-30T06:14:09Z</time></trkpt><trkpt lat="14.485647337284727" lon="121.04530996821866"><ele>30.0</ele><time>2026-04-30T06:14:10Z</time></trkpt><trkpt lat="14.485790233878806" lon="121.04529286052333"><ele>31.666666666666664</ele><time>2026-04-30T06:14:11Z</time></trkpt><trkpt lat="14.48593058684951" lon="121.04527863670461"><ele>33.33333333333333</ele><time>2026-04-30T06:14:12Z</time></trkpt><trkpt lat="14.486105771283077" lon="121.04529250473323"><ele>35.0</ele><time>2026-04-30T06:14:13Z</time></trkpt><trkpt lat="14.486258343532795" lon="121.04526246361144"><ele>34.666666666666664</ele><time>2026-04-30T06:14:14Z</time></trkpt><trkpt lat="14.486424387678822" lon="121.04516384087053"><ele>34.333333333333336</ele><time>2026-04-30T06:14:15Z</time></trkpt><trkpt lat="14.486589051601367" lon="121.04512688313832"><ele>34.0</ele><time>2026-04-30T06:14:16Z</time></trkpt><trkpt lat="14.486726430962088" lon="121.04505442947868"><ele>34.0</ele><time>2026-04-30T06:14:17Z</time></trkpt><trkpt lat="14.4868602559061" lon="121.04504401424342"><ele>34.0</ele><time>2026-04-30T06:14:18Z</time></trkpt><trkpt lat="14.487014317018206" lon="121.04501081669626"><ele>34.0</ele><time>2026-04-30T06:14:19Z</time></trkpt><trkpt lat="14.48716658378716" lon="121.04498251042324"><ele>34.0</ele><time>2026-04-30T06:14:20Z</time></trkpt><trkpt lat="14.487316954861015" lon="121.0449574595144"><ele>33.5</ele><time>2026-04-30T06:14:21Z</time></trkpt><trkpt lat="14.487473751717229" lon="121.0449310492804"><ele>33.0</ele><time>2026-04-30T06:14:22Z</time></trkpt><trkpt lat="14.487622315555859" lon="121.04489691698929"><ele>32.5</ele><time>2026-04-30T06:14:23Z</time></trkpt><trkpt lat="14.487744157199838" lon="121.04485135120507"><ele>32.0</ele><time>2026-04-30T06:14:24Z</time></trkpt><trkpt lat="14.487897020972436" lon="121.04481631044145"><ele>32.75</ele><time>2026-04-30T06:14:25Z</time></trkpt><trkpt lat="14.488043292396695" lon="121.04477752954296"><ele>33.5</ele><time>2026-04-30T06:14:26Z</time></trkpt><trkpt lat="14.488187162649984" lon="121.0447372800786"><ele>34.25</ele><time>2026-04-30T06:14:27Z</time></trkpt><trkpt lat="14.488326491499318" lon="121.04469709078701"><ele>35.0</ele><time>2026-04-30T06:14:28Z</time></trkpt><trkpt lat="14.488466736818694" lon="121.04465663714556"><ele>35.0</ele><time>2026-04-30T06:14:29Z</time></trkpt><trkpt lat="14.488610584196408" lon="121.0446106948268"><ele>35.0</ele><time>2026-04-30T06:14:30Z</time></trkpt><trkpt lat="14.488747435973103" lon="121.04455949032908"><ele>35.0</ele><time>2026-04-30T06:14:31Z</time></trkpt><trkpt lat="14.488884406563896" lon="121.04448783338177"><ele>33.5</ele><time>2026-04-30T06:14:32Z</time></trkpt><trkpt lat="14.489027723042875" lon="121.0444385836589"><ele>32.0</ele><time>2026-04-30T06:14:33Z</time></trkpt><trkpt lat="14.48916610024669" lon="121.04438776895901"><ele>30.5</ele><time>2026-04-30T06:14:34Z</time></trkpt><trkpt lat="14.489304862703268" lon="121.0443349140907"><ele>29.0</ele><time>2026-04-30T06:14:35Z</time></trkpt><trkpt lat="14.489439632046233" lon="121.04428396851635"><ele>29.0</ele><time>2026-04-30T06:14:36Z</time></trkpt><trkpt lat="14.489576086431835" lon="121.04423023256649"><ele>29.0</ele><time>2026-04-30T06:14:37Z</time></trkpt><trkpt lat="14.489709835993448" lon="121.04417363226432"><ele>29.0</ele><time>2026-04-30T06:14:38Z</time></trkpt><trkpt lat="14.489842715773898" lon="121.04412195787118"><ele>29.0</ele><time>2026-04-30T06:14:39Z</time></trkpt><trkpt lat="14.489975910202029" lon="121.04407303796145"><ele>30.25</ele><time>2026-04-30T06:14:40Z</time></trkpt><trkpt lat="14.49011205101263" lon="121.04401938370796"><ele>31.5</ele><time>2026-04-30T06:14:41Z</time></trkpt><trkpt lat="14.490250060757749" lon="121.04396295974483"><ele>32.75</ele><time>2026-04-30T06:14:42Z</time></trkpt><trkpt lat="14.490376121841331" lon="121.0439052225189"><ele>34.0</ele><time>2026-04-30T06:14:43Z</time></trkpt><trkpt lat="14.490497259077408" lon="121.04384327318273"><ele>34.5</ele><time>2026-04-30T06:14:44Z</time></trkpt><trkpt lat="14.490628540154455" lon="121.04377495885305"><ele>35.0</ele><time>2026-04-30T06:14:45Z</time></trkpt><trkpt lat="14.490754352509148" lon="121.04371389629212"><ele>35.5</ele><time>2026-04-30T06:14:46Z</time></trkpt><trkpt lat="14.490887797014114" lon="121.04364480099203"><ele>36.0</ele><time>2026-04-30T06:14:47Z</time></trkpt><trkpt lat="14.491025608499946" lon="121.04357288294432"><ele>36.0</ele><time>2026-04-30T06:14:48Z</time></trkpt><trkpt lat="14.491166891707314" lon="121.04349555010405"><ele>36.0</ele><time>2026-04-30T06:14:49Z</time></trkpt><trkpt lat="14.49131282471972" lon="121.04341681292703"><ele>36.0</ele><time>2026-04-30T06:14:50Z</time></trkpt><trkpt lat="14.491458530833766" lon="121.04334166869359"><ele>36.666666666666664</ele><time>2026-04-30T06:14:51Z</time></trkpt><trkpt lat="14.491604003740504" lon="121.04326325611605"><ele>37.33333333333333</ele><time>2026-04-30T06:14:52Z</time></trkpt><trkpt lat="14.491741760085603" lon="121.04318256398328"><ele>38.0</ele><time>2026-04-30T06:14:53Z</time></trkpt><trkpt lat="14.491892125042874" lon="121.04311732079732"><ele>38.0</ele><time>2026-04-30T06:14:54Z</time></trkpt><trkpt lat="14.49203436240396" lon="121.04303696967608"><ele>38.0</ele><time>2026-04-30T06:14:55Z</time></trkpt><trkpt lat="14.492185452788341" lon="121.04295889461415"><ele>38.0</ele><time>2026-04-30T06:14:56Z</time></trkpt><trkpt lat="14.492335848159243" lon="121.04288051837283"><ele>37.666666666666664</ele><time>2026-04-30T06:14:57Z</time></trkpt><trkpt lat="14.492492623046594" lon="121.0427981052204"><ele>37.333333333333336</ele><time>2026-04-30T06:14:58Z</time></trkpt><trkpt lat="14.492638806049653" lon="121.04272071356901"><ele>37.0</ele><time>2026-04-30T06:14:59Z</time></trkpt><trkpt lat="14.492789901106727" lon="121.04265673642216"><ele>35.0</ele><time>2026-04-30T06:15:00Z</time></trkpt><trkpt lat="14.492941474389237" lon="121.04256825708602"><ele>33.0</ele><time>2026-04-30T06:15:01Z</time></trkpt><trkpt lat="14.493088463769647" lon="121.04249875292786"><ele>31.0</ele><time>2026-04-30T06:15:02Z</time></trkpt><trkpt lat="14.49324954724541" lon="121.04242454970903"><ele>30.0</ele><time>2026-04-30T06:15:03Z</time></trkpt><trkpt lat="14.493405948384002" lon="121.04234157818276"><ele>29.0</ele><time>2026-04-30T06:15:04Z</time></trkpt><trkpt lat="14.493550515021628" lon="121.04226290483567"><ele>28.0</ele><time>2026-04-30T06:15:05Z</time></trkpt><trkpt lat="14.493698201286364" lon="121.04218689301716"><ele>27.666666666666668</ele><time>2026-04-30T06:15:06Z</time></trkpt><trkpt lat="14.493852060846216" lon="121.04210347299059"><ele>27.333333333333336</ele><time>2026-04-30T06:15:07Z</time></trkpt><trkpt lat="14.494036175312086" lon="121.04197556213302"><ele>27.0</ele><time>2026-04-30T06:15:08Z</time></trkpt><trkpt lat="14.494260928802158" lon="121.0418491247853"><ele>27.0</ele><time>2026-04-30T06:15:09Z</time></trkpt><trkpt lat="14.494458467405918" lon="121.04171886442558"><ele>27.0</ele><time>2026-04-30T06:15:10Z</time></trkpt><trkpt lat="14.494662030731925" lon="121.04161454130897"><ele>26.5</ele><time>2026-04-30T06:15:11Z</time></trkpt><trkpt lat="14.494910447415455" lon="121.04148752999855"><ele>26.0</ele><time>2026-04-30T06:15:12Z</time></trkpt><trkpt lat="14.495083495203572" lon="121.04139554492176"><ele>26.0</ele><time>2026-04-30T06:15:13Z</time></trkpt><trkpt lat="14.495297706317352" lon="121.04124971857115"><ele>26.0</ele><time>2026-04-30T06:15:14Z</time></trkpt><trkpt lat="14.495516728339757" lon="121.0411336956603"><ele>27.0</ele><time>2026-04-30T06:15:15Z</time></trkpt><trkpt lat="14.49570734534473" lon="121.0410247986675"><ele>28.0</ele><time>2026-04-30T06:15:16Z</time></trkpt><trkpt lat="14.495890086270494" lon="121.04092209158549"><ele>29.0</ele><time>2026-04-30T06:15:17Z</time></trkpt><trkpt lat="14.496072377473443" lon="121.04082037972468"><ele>28.333333333333332</ele><time>2026-04-30T06:15:18Z</time></trkpt><trkpt lat="14.496251135490398" lon="121.04072308742516"><ele>27.666666666666664</ele><time>2026-04-30T06:15:19Z</time></trkpt><trkpt lat="14.496440277549443" lon="121.0406265894351"><ele>27.0</ele><time>2026-04-30T06:15:20Z</time></trkpt><trkpt lat="14.496619126568934" lon="121.04052813490763"><ele>27.0</ele><time>2026-04-30T06:15:21Z</time></trkpt><trkpt lat="14.496805967386058" lon="121.04042534134703"><ele>27.0</ele><time>2026-04-30T06:15:22Z</time></trkpt><trkpt lat="14.497001671120673" lon="121.0403145124523"><ele>27.0</ele><time>2026-04-30T06:15:23Z</time></trkpt><trkpt lat="14.497189979445615" lon="121.04021102234637"><ele>28.666666666666664</ele><time>2026-04-30T06:15:24Z</time></trkpt><trkpt lat="14.497357488357975" lon="121.04010631837629"><ele>30.333333333333332</ele><time>2026-04-30T06:15:25Z</time></trkpt><trkpt lat="14.49754462328982" lon="121.039989406611"><ele>32.0</ele><time>2026-04-30T06:15:26Z</time></trkpt><trkpt lat="14.497736034948383" lon="121.03989051241584"><ele>31.666666666666664</ele><time>2026-04-30T06:15:27Z</time></trkpt><trkpt lat="14.497929567106814" lon="121.0397916723979"><ele>31.333333333333336</ele><time>2026-04-30T06:15:28Z</time></trkpt><trkpt lat="14.498115950041692" lon="121.03969868992972"><ele>31.0</ele><time>2026-04-30T06:15:29Z</time></trkpt><trkpt lat="14.498311402147392" lon="121.03959476840008"><ele>31.0</ele><time>2026-04-30T06:15:30Z</time></trkpt><trkpt lat="14.498516626165681" lon="121.03948230803279"><ele>31.0</ele><time>2026-04-30T06:15:31Z</time></trkpt><trkpt lat="14.498732827403906" lon="121.03935597821844"><ele>29.5</ele><time>2026-04-30T06:15:32Z</time></trkpt><trkpt lat="14.498952469674217" lon="121.03923075334158"><ele>28.0</ele><time>2026-04-30T06:15:33Z</time></trkpt><trkpt lat="14.499167113011362" lon="121.03910018170232"><ele>27.0</ele><time>2026-04-30T06:15:34Z</time></trkpt><trkpt lat="14.499370775341102" lon="121.03897174966366"><ele>26.0</ele><time>2026-04-30T06:15:35Z</time></trkpt><trkpt lat="14.499585873484008" lon="121.03886957218918"><ele>26.0</ele><time>2026-04-30T06:15:36Z</time></trkpt><trkpt lat="14.499823848813326" lon="121.03873889104845"><ele>26.0</ele><time>2026-04-30T06:15:37Z</time></trkpt><trkpt lat="14.500050471759392" lon="121.03861463679985"><ele>26.0</ele><time>2026-04-30T06:15:38Z</time></trkpt><trkpt lat="14.50027531567505" lon="121.03849135668077"><ele>26.0</ele><time>2026-04-30T06:15:39Z</time></trkpt><trkpt lat="14.500514191299423" lon="121.03836038442381"><ele>25.0</ele><time>2026-04-30T06:15:40Z</time></trkpt><trkpt lat="14.500741001499938" lon="121.0382391984295"><ele>24.0</ele><time>2026-04-30T06:15:41Z</time></trkpt><trkpt lat="14.500998757664066" lon="121.03810199236784"><ele>24.0</ele><time>2026-04-30T06:15:42Z</time></trkpt><trkpt lat="14.501242256811613" lon="121.03797265484543"><ele>24.0</ele><time>2026-04-30T06:15:43Z</time></trkpt><trkpt lat="14.50148394848747" lon="121.0378443823993"><ele>24.5</ele><time>2026-04-30T06:15:44Z</time></trkpt><trkpt lat="14.501730634265018" lon="121.03771366767857"><ele>25.0</ele><time>2026-04-30T06:15:45Z</time></trkpt><trkpt lat="14.501978483225054" lon="121.03758233690152"><ele>23.5</ele><time>2026-04-30T06:15:46Z</time></trkpt><trkpt lat="14.50221577164388" lon="121.03745504033499"><ele>22.0</ele><time>2026-04-30T06:15:47Z</time></trkpt><trkpt lat="14.502453677892706" lon="121.03732819938206"><ele>22.0</ele><time>2026-04-30T06:15:48Z</time></trkpt><trkpt lat="14.502691792234687" lon="121.03720071081942"><ele>22.0</ele><time>2026-04-30T06:15:49Z</time></trkpt><trkpt lat="14.502933786001533" lon="121.03707151032245"><ele>22.5</ele><time>2026-04-30T06:15:50Z</time></trkpt><trkpt lat="14.503179671926883" lon="121.03693603783702"><ele>23.0</ele><time>2026-04-30T06:15:51Z</time></trkpt><trkpt lat="14.503394601680275" lon="121.03681820462565"><ele>23.0</ele><time>2026-04-30T06:15:52Z</time></trkpt><trkpt lat="14.50361914096144" lon="121.03669510295688"><ele>23.0</ele><time>2026-04-30T06:15:53Z</time></trkpt><trkpt lat="14.503843861843427" lon="121.03657190160602"><ele>22.0</ele><time>2026-04-30T06:15:54Z</time></trkpt><trkpt lat="14.504059141317878" lon="121.0364583203625"><ele>21.0</ele><time>2026-04-30T06:15:55Z</time></trkpt><trkpt lat="14.504281777062376" lon="121.03634021419913"><ele>21.0</ele><time>2026-04-30T06:15:56Z</time></trkpt><trkpt lat="14.50450030967337" lon="121.03622411461915"><ele>21.0</ele><time>2026-04-30T06:15:57Z</time></trkpt><trkpt lat="14.50470139866032" lon="121.03611724096999"><ele>20.333333333333332</ele><time>2026-04-30T06:15:58Z</time></trkpt><trkpt lat="14.50489194757593" lon="121.03601596909391"><ele>19.666666666666664</ele><time>2026-04-30T06:15:59Z</time></trkpt><trkpt lat="14.505075324403727" lon="121.03591850905568"><ele>19.0</ele><time>2026-04-30T06:16:00Z</time></trkpt><trkpt lat="14.505233785609743" lon="121.03583411447894"><ele>17.666666666666664</ele><time>2026-04-30T06:16:01Z</time></trkpt><trkpt lat="14.505391949167251" lon="121.03574976664433"><ele>16.333333333333332</ele><time>2026-04-30T06:16:02Z</time></trkpt><trkpt lat="14.505566673032197" lon="121.03565658732892"><ele>15.0</ele><time>2026-04-30T06:16:03Z</time></trkpt><trkpt lat="14.505754739854263" lon="121.0355564429744"><ele>15.0</ele><time>2026-04-30T06:16:04Z</time></trkpt><trkpt lat="14.505941179137784" lon="121.03545729901514"><ele>15.0</ele><time>2026-04-30T06:16:05Z</time></trkpt><trkpt lat="14.506170304510729" lon="121.03546111489537"><ele>15.0</ele><time>2026-04-30T06:16:06Z</time></trkpt><trkpt lat="14.506379234623022" lon="121.03536572478218"><ele>16.333333333333332</ele><time>2026-04-30T06:16:07Z</time></trkpt><trkpt lat="14.506562011604377" lon="121.03524258480215"><ele>17.666666666666664</ele><time>2026-04-30T06:16:08Z</time></trkpt><trkpt lat="14.506690526494898" lon="121.03516556796401"><ele>19.0</ele><time>2026-04-30T06:16:09Z</time></trkpt><trkpt lat="14.506817239542482" lon="121.03508647327693"><ele>19.0</ele><time>2026-04-30T06:16:10Z</time></trkpt><trkpt lat="14.507023019319835" lon="121.03497545821357"><ele>19.0</ele><time>2026-04-30T06:16:11Z</time></trkpt><trkpt lat="14.50727892258733" lon="121.03482559833726"><ele>18.5</ele><time>2026-04-30T06:16:12Z</time></trkpt><trkpt lat="14.507472334401717" lon="121.03472362428319"><ele>18.0</ele><time>2026-04-30T06:16:13Z</time></trkpt><trkpt lat="14.507684261648057" lon="121.03461072615276"><ele>18.0</ele><time>2026-04-30T06:16:14Z</time></trkpt><trkpt lat="14.507891114785947" lon="121.03450646277082"><ele>18.0</ele><time>2026-04-30T06:16:15Z</time></trkpt><trkpt lat="14.508100539080997" lon="121.03439173785233"><ele>18.5</ele><time>2026-04-30T06:16:16Z</time></trkpt><trkpt lat="14.508313601312773" lon="121.0342772041864"><ele>19.0</ele><time>2026-04-30T06:16:17Z</time></trkpt><trkpt lat="14.508531388819607" lon="121.03416121435002"><ele>20.5</ele><time>2026-04-30T06:16:18Z</time></trkpt><trkpt lat="14.50875324776832" lon="121.03404165228483"><ele>22.0</ele><time>2026-04-30T06:16:19Z</time></trkpt><trkpt lat="14.50897577796495" lon="121.03392451829095"><ele>22.0</ele><time>2026-04-30T06:16:20Z</time></trkpt><trkpt lat="14.509198338522927" lon="121.03381156858799"><ele>22.0</ele><time>2026-04-30T06:16:21Z</time></trkpt><trkpt lat="14.509419225856487" lon="121.03369660185699"><ele>22.5</ele><time>2026-04-30T06:16:22Z</time></trkpt><trkpt lat="14.509643653566995" lon="121.03357871518472"><ele>23.0</ele><time>2026-04-30T06:16:23Z</time></trkpt><trkpt lat="14.509867816808514" lon="121.03345933373012"><ele>23.0</ele><time>2026-04-30T06:16:24Z</time></trkpt><trkpt lat="14.51009258206878" lon="121.03333834679422"><ele>23.0</ele><time>2026-04-30T06:16:25Z</time></trkpt><trkpt lat="14.51031616193334" lon="121.03321784762895"><ele>25.0</ele><time>2026-04-30T06:16:26Z</time></trkpt><trkpt lat="14.510538754401496" lon="121.03309394759573"><ele>27.0</ele><time>2026-04-30T06:16:27Z</time></trkpt><trkpt lat="14.51076163091558" lon="121.03296642530756"><ele>27.0</ele><time>2026-04-30T06:16:28Z</time></trkpt><trkpt lat="14.510983883454118" lon="121.03283847931344"><ele>27.0</ele><time>2026-04-30T06:16:29Z</time></trkpt><trkpt lat="14.511205781291036" lon="121.03271081704018"><ele>27.0</ele><time>2026-04-30T06:16:30Z</time></trkpt><trkpt lat="14.511429038844177" lon="121.03258318411896"><ele>27.0</ele><time>2026-04-30T06:16:31Z</time></trkpt><trkpt lat="14.511651296722835" lon="121.03245810095905"><ele>26.0</ele><time>2026-04-30T06:16:32Z</time></trkpt><trkpt lat="14.511874458963796" lon="121.03233196256404"><ele>25.0</ele><time>2026-04-30T06:16:33Z</time></trkpt><trkpt lat="14.512096410949988" lon="121.03220647076624"><ele>25.0</ele><time>2026-04-30T06:16:34Z</time></trkpt><trkpt lat="14.512317787047484" lon="121.03208291185479"><ele>25.0</ele><time>2026-04-30T06:16:35Z</time></trkpt><trkpt lat="14.512535580933788" lon="121.03195770184327"><ele>25.0</ele><time>2026-04-30T06:16:36Z</time></trkpt><trkpt lat="14.51275341259451" lon="121.03183330895402"><ele>25.0</ele><time>2026-04-30T06:16:37Z</time></trkpt><trkpt lat="14.512971834830338" lon="121.03171164367505"><ele>23.5</ele><time>2026-04-30T06:16:38Z</time></trkpt><trkpt lat="14.513194508841918" lon="121.03158807837093"><ele>22.0</ele><time>2026-04-30T06:16:39Z</time></trkpt><trkpt lat="14.513415874271677" lon="121.03146680233934"><ele>22.0</ele><time>2026-04-30T06:16:40Z</time></trkpt><trkpt lat="14.513635638202867" lon="121.03134919090452"><ele>22.0</ele><time>2026-04-30T06:16:41Z</time></trkpt><trkpt lat="14.513851058882135" lon="121.03123085159574"><ele>22.666666666666664</ele><time>2026-04-30T06:16:42Z</time></trkpt><trkpt lat="14.514054132918952" lon="121.03111949375747"><ele>23.333333333333332</ele><time>2026-04-30T06:16:43Z</time></trkpt><trkpt lat="14.51424511200551" lon="121.03101683842793"><ele>24.0</ele><time>2026-04-30T06:16:44Z</time></trkpt><trkpt lat="14.51442588432515" lon="121.03092080759666"><ele>24.0</ele><time>2026-04-30T06:16:45Z</time></trkpt><trkpt lat="14.514593906909644" lon="121.03083061240963"><ele>24.0</ele><time>2026-04-30T06:16:46Z</time></trkpt><trkpt lat="14.514756534858567" lon="121.03074280040316"><ele>24.0</ele><time>2026-04-30T06:16:47Z</time></trkpt><trkpt lat="14.51491748921525" lon="121.03065632097888"><ele>24.0</ele><time>2026-04-30T06:16:48Z</time></trkpt><trkpt lat="14.515076059338746" lon="121.03057176080748"><ele>24.0</ele><time>2026-04-30T06:16:49Z</time></trkpt><trkpt lat="14.515230095176413" lon="121.03049040084422"><ele>24.0</ele><time>2026-04-30T06:16:50Z</time></trkpt><trkpt lat="14.515380518816436" lon="121.03040848474525"><ele>23.0</ele><time>2026-04-30T06:16:51Z</time></trkpt><trkpt lat="14.515529390868807" lon="121.03032787146707"><ele>22.0</ele><time>2026-04-30T06:16:52Z</time></trkpt><trkpt lat="14.51567713163999" lon="121.03024784771439"><ele>21.0</ele><time>2026-04-30T06:16:53Z</time></trkpt><trkpt lat="14.515823113971813" lon="121.03016927716777"><ele>21.0</ele><time>2026-04-30T06:16:54Z</time></trkpt><trkpt lat="14.515966832301677" lon="121.03009137424608"><ele>21.0</ele><time>2026-04-30T06:16:55Z</time></trkpt><trkpt lat="14.516109834112774" lon="121.03001430259714"><ele>21.0</ele><time>2026-04-30T06:16:56Z</time></trkpt><trkpt lat="14.516252381824552" lon="121.02993708561289"><ele>22.333333333333336</ele><time>2026-04-30T06:16:57Z</time></trkpt><trkpt lat="14.516393643480527" lon="121.02986293220583"><ele>23.666666666666668</ele><time>2026-04-30T06:16:58Z</time></trkpt><trkpt lat="14.516531347934777" lon="121.02978442095032"><ele>25.0</ele><time>2026-04-30T06:16:59Z</time></trkpt><trkpt lat="14.516668705280154" lon="121.02970760449318"><ele>25.0</ele><time>2026-04-30T06:17:00Z</time></trkpt><trkpt lat="14.516804428164107" lon="121.02962880360913"><ele>25.0</ele><time>2026-04-30T06:17:01Z</time></trkpt><trkpt lat="14.516939458088178" lon="121.02954907251204"><ele>25.0</ele><time>2026-04-30T06:17:02Z</time></trkpt><trkpt lat="14.517071330275169" lon="121.02946871261517"><ele>24.0</ele><time>2026-04-30T06:17:03Z</time></trkpt><trkpt lat="14.517200091664257" lon="121.02939304328656"><ele>23.0</ele><time>2026-04-30T06:17:04Z</time></trkpt><trkpt lat="14.517324829973605" lon="121.02931876774977"><ele>22.0</ele><time>2026-04-30T06:17:05Z</time></trkpt><trkpt lat="14.5174440505314" lon="121.02924712327632"><ele>21.0</ele><time>2026-04-30T06:17:06Z</time></trkpt><trkpt lat="14.517559468473461" lon="121.02917656990907"><ele>21.0</ele><time>2026-04-30T06:17:07Z</time></trkpt><trkpt lat="14.517667125355583" lon="121.02910608334993"><ele>21.0</ele><time>2026-04-30T06:17:08Z</time></trkpt><trkpt lat="14.517763726339398" lon="121.02903918018488"><ele>21.0</ele><time>2026-04-30T06:17:09Z</time></trkpt><trkpt lat="14.517850073486029" lon="121.02898038690363"><ele>21.0</ele><time>2026-04-30T06:17:10Z</time></trkpt><trkpt lat="14.517933009592415" lon="121.02892706910845"><ele>21.0</ele><time>2026-04-30T06:17:11Z</time></trkpt><trkpt lat="14.518014071335342" lon="121.02887313148237"><ele>21.0</ele><time>2026-04-30T06:17:11.999Z</time></trkpt><trkpt lat="14.518092358082502" lon="121.02882449399732"><ele>21.0</ele><time>2026-04-30T06:17:12.999Z</time></trkpt><trkpt lat="14.51816986187815" lon="121.02877606764561"><ele>21.0</ele><time>2026-04-30T06:17:13.999Z</time></trkpt><trkpt lat="14.518245279437336" lon="121.02872952984936"><ele>21.0</ele><time>2026-04-30T06:17:14.999Z</time></trkpt><trkpt lat="14.518315660211139" lon="121.02868865231093"><ele>21.0</ele><time>2026-04-30T06:17:15.999Z</time></trkpt><trkpt lat="14.51838039461428" lon="121.0286524625979"><ele>21.0</ele><time>2026-04-30T06:17:16.999Z</time></trkpt><trkpt lat="14.5184424757432" lon="121.0286194239479"><ele>21.0</ele><time>2026-04-30T06:17:17.999Z</time></trkpt><trkpt lat="14.518503298773455" lon="121.02858807948465"><ele>21.0</ele><time>2026-04-30T06:17:18.999Z</time></trkpt><trkpt lat="14.518603125341905" lon="121.02853509315591"><ele>21.0</ele><time>2026-04-30T06:17:20.999Z</time></trkpt><trkpt lat="14.518674409836976" lon="121.0284977089329"><ele>21.0</ele><time>2026-04-30T06:17:22.999Z</time></trkpt><trkpt lat="14.518738364811913" lon="121.02846298111548"><ele>21.0</ele><time>2026-04-30T06:17:24.999Z</time></trkpt><trkpt lat="14.518806524519912" lon="121.02842636588151"><ele>21.0</ele><time>2026-04-30T06:17:28.999Z</time></trkpt><trkpt lat="14.518888246561447" lon="121.02838334856945"><ele>20.6</ele><time>2026-04-30T06:17:32.999Z</time></trkpt><trkpt lat="14.51896612041056" lon="121.02834563815924"><ele>20.200000000000003</ele><time>2026-04-30T06:17:34.999Z</time></trkpt><trkpt lat="14.519080511092426" lon="121.02828485985142"><ele>19.799999999999997</ele><time>2026-04-30T06:17:36.999Z</time></trkpt><trkpt lat="14.51915346413732" lon="121.02824452259873"><ele>19.4</ele><time>2026-04-30T06:17:37.999Z</time></trkpt><trkpt lat="14.519230408053101" lon="121.02820561038514"><ele>19.0</ele><time>2026-04-30T06:17:38.999Z</time></trkpt><trkpt lat="14.519313413391119" lon="121.02816813002163"><ele>18.599999999999998</ele><time>2026-04-30T06:17:39.999Z</time></trkpt><trkpt lat="14.519401786027114" lon="121.02812978569239"><ele>18.2</ele><time>2026-04-30T06:17:40.999Z</time></trkpt><trkpt lat="14.51949351339412" lon="121.02809219343952"><ele>17.799999999999997</ele><time>2026-04-30T06:17:41.999Z</time></trkpt><trkpt lat="14.519587290228282" lon="121.02805885800198"><ele>17.4</ele><time>2026-04-30T06:17:42.999Z</time></trkpt><trkpt lat="14.519680202474941" lon="121.02802520733898"><ele>17.0</ele><time>2026-04-30T06:17:43.999Z</time></trkpt><trkpt lat="14.519772835534974" lon="121.02799431277624"><ele>17.0</ele><time>2026-04-30T06:17:44.999Z</time></trkpt><trkpt lat="14.519871546342353" lon="121.0279620913617"><ele>17.0</ele><time>2026-04-30T06:17:45.999Z</time></trkpt><trkpt lat="14.519968589753459" lon="121.02793093624061"><ele>17.0</ele><time>2026-04-30T06:17:46.999Z</time></trkpt><trkpt lat="14.52006503643318" lon="121.02789780060004"><ele>17.0</ele><time>2026-04-30T06:17:47.999Z</time></trkpt><trkpt lat="14.520163946700293" lon="121.02786082888979"><ele>17.0</ele><time>2026-04-30T06:17:48.999Z</time></trkpt><trkpt lat="14.520263336536386" lon="121.02782024604998"><ele>17.0</ele><time>2026-04-30T06:17:49.999Z</time></trkpt><trkpt lat="14.520361468606644" lon="121.0277731199428"><ele>17.0</ele><time>2026-04-30T06:17:50.999Z</time></trkpt><trkpt lat="14.52046216092465" lon="121.02772215835809"><ele>17.0</ele><time>2026-04-30T06:17:51.999Z</time></trkpt><trkpt lat="14.520564846098196" lon="121.02766790314361"><ele>17.0</ele><time>2026-04-30T06:17:52.999Z</time></trkpt><trkpt lat="14.520669460100404" lon="121.02761304470647"><ele>16.75</ele><time>2026-04-30T06:17:53.999Z</time></trkpt><trkpt lat="14.520775970636409" lon="121.02755504369767"><ele>16.5</ele><time>2026-04-30T06:17:54.999Z</time></trkpt><trkpt lat="14.520885408771479" lon="121.02749490526018"><ele>16.25</ele><time>2026-04-30T06:17:55.999Z</time></trkpt><trkpt lat="14.520997679134657" lon="121.0274329191154"><ele>16.0</ele><time>2026-04-30T06:17:56.999Z</time></trkpt><trkpt lat="14.521113108243464" lon="121.02736658660392"><ele>16.0</ele><time>2026-04-30T06:17:57.999Z</time></trkpt><trkpt lat="14.521231623827006" lon="121.02729818132882"><ele>16.0</ele><time>2026-04-30T06:17:58.999Z</time></trkpt><trkpt lat="14.521354575018302" lon="121.02722771173342"><ele>16.0</ele><time>2026-04-30T06:17:59.999Z</time></trkpt><trkpt lat="14.521480524605387" lon="121.02715467465337"><ele>16.0</ele><time>2026-04-30T06:18:00.999Z</time></trkpt><trkpt lat="14.521609347250353" lon="121.02708303419091"><ele>16.0</ele><time>2026-04-30T06:18:01.999Z</time></trkpt><trkpt lat="14.521740692714603" lon="121.02701228178455"><ele>16.0</ele><time>2026-04-30T06:18:02.999Z</time></trkpt><trkpt lat="14.521874562722015" lon="121.0269409115263"><ele>16.0</ele><time>2026-04-30T06:18:03.999Z</time></trkpt><trkpt lat="14.522008889167775" lon="121.02686704151002"><ele>16.333333333333332</ele><time>2026-04-30T06:18:04.999Z</time></trkpt><trkpt lat="14.522146896215085" lon="121.02679340789074"><ele>16.666666666666668</ele><time>2026-04-30T06:18:05.999Z</time></trkpt><trkpt lat="14.522284210939882" lon="121.02671796019887"><ele>17.0</ele><time>2026-04-30T06:18:06.999Z</time></trkpt><trkpt lat="14.522422777779477" lon="121.02664315423242"><ele>16.0</ele><time>2026-04-30T06:18:07.999Z</time></trkpt><trkpt lat="14.52256131330841" lon="121.02656629607137"><ele>15.0</ele><time>2026-04-30T06:18:08.999Z</time></trkpt><trkpt lat="14.522698782569819" lon="121.02648930712951"><ele>14.0</ele><time>2026-04-30T06:18:09.999Z</time></trkpt><trkpt lat="14.52283330750599" lon="121.02641667457833"><ele>14.5</ele><time>2026-04-30T06:18:10.999Z</time></trkpt><trkpt lat="14.522967036597198" lon="121.02634204507086"><ele>15.0</ele><time>2026-04-30T06:18:11.999Z</time></trkpt><trkpt lat="14.523098288859208" lon="121.02627239512294"><ele>15.5</ele><time>2026-04-30T06:18:12.999Z</time></trkpt><trkpt lat="14.5232275321263" lon="121.02620286276044"><ele>16.0</ele><time>2026-04-30T06:18:13.999Z</time></trkpt><trkpt lat="14.523357020417674" lon="121.02613513713459"><ele>16.0</ele><time>2026-04-30T06:18:14.999Z</time></trkpt><trkpt lat="14.523488980001673" lon="121.0260654274148"><ele>16.0</ele><time>2026-04-30T06:18:15.999Z</time></trkpt><trkpt lat="14.523621314482202" lon="121.02599477055135"><ele>16.0</ele><time>2026-04-30T06:18:16.999Z</time></trkpt><trkpt lat="14.52375147676542" lon="121.02592536952503"><ele>16.0</ele><time>2026-04-30T06:18:17.999Z</time></trkpt><trkpt lat="14.523869811312133" lon="121.02586398479711"><ele>15.75</ele><time>2026-04-30T06:18:18.999Z</time></trkpt><trkpt lat="14.523982761822737" lon="121.02580183209204"><ele>15.5</ele><time>2026-04-30T06:18:19.999Z</time></trkpt><trkpt lat="14.52409278218336" lon="121.02574142452431"><ele>15.25</ele><time>2026-04-30T06:18:20.999Z</time></trkpt><trkpt lat="14.524200039887223" lon="121.02568237023637"><ele>15.0</ele><time>2026-04-30T06:18:21.999Z</time></trkpt><trkpt lat="14.524300921532195" lon="121.0256257610167"><ele>15.0</ele><time>2026-04-30T06:18:22.999Z</time></trkpt><trkpt lat="14.524400594765131" lon="121.02557109647462"><ele>15.0</ele><time>2026-04-30T06:18:23.999Z</time></trkpt><trkpt lat="14.52449393329449" lon="121.02552007777456"><ele>15.0</ele><time>2026-04-30T06:18:24.999Z</time></trkpt><trkpt lat="14.524587441437124" lon="121.0254694446315"><ele>15.0</ele><time>2026-04-30T06:18:25.999Z</time></trkpt><trkpt lat="14.524685058662214" lon="121.02541563778775"><ele>15.0</ele><time>2026-04-30T06:18:26.999Z</time></trkpt><trkpt lat="14.524777565555912" lon="121.02536512574112"><ele>14.2</ele><time>2026-04-30T06:18:27.999Z</time></trkpt><trkpt lat="14.524869597931122" lon="121.02531677106836"><ele>13.4</ele><time>2026-04-30T06:18:28.999Z</time></trkpt><trkpt lat="14.524961409183549" lon="121.02526946873378"><ele>12.600000000000001</ele><time>2026-04-30T06:18:29.999Z</time></trkpt><trkpt lat="14.525052952388075" lon="121.02522211018191"><ele>11.8</ele><time>2026-04-30T06:18:30.999Z</time></trkpt><trkpt lat="14.525145542368767" lon="121.02517294018894"><ele>11.0</ele><time>2026-04-30T06:18:31.999Z</time></trkpt><trkpt lat="14.525240637311288" lon="121.02512236031863"><ele>11.0</ele><time>2026-04-30T06:18:32.999Z</time></trkpt><trkpt lat="14.525338249339283" lon="121.0250722866433"><ele>11.0</ele><time>2026-04-30T06:18:33.999Z</time></trkpt><trkpt lat="14.52543649949133" lon="121.02502103485172"><ele>11.0</ele><time>2026-04-30T06:18:34.999Z</time></trkpt><trkpt lat="14.525532341546544" lon="121.02496859450234"><ele>11.0</ele><time>2026-04-30T06:18:35.999Z</time></trkpt><trkpt lat="14.525631446152996" lon="121.02491389382068"><ele>11.0</ele><time>2026-04-30T06:18:36.999Z</time></trkpt><trkpt lat="14.525729423147663" lon="121.02485986180956"><ele>10.200000000000001</ele><time>2026-04-30T06:18:37.999Z</time></trkpt><trkpt lat="14.52582805886986" lon="121.02480683106629"><ele>9.4</ele><time>2026-04-30T06:18:38.999Z</time></trkpt><trkpt lat="14.525924973576403" lon="121.02475244435594"><ele>8.6</ele><time>2026-04-30T06:18:39.999Z</time></trkpt><trkpt lat="14.526021486084291" lon="121.02469904154594"><ele>7.8</ele><time>2026-04-30T06:18:40.999Z</time></trkpt><trkpt lat="14.526113157779731" lon="121.02464567505281"><ele>7.0</ele><time>2026-04-30T06:18:41.999Z</time></trkpt><trkpt lat="14.526202492562065" lon="121.02459165463065"><ele>8.0</ele><time>2026-04-30T06:18:42.999Z</time></trkpt><trkpt lat="14.526292840740586" lon="121.02453442603361"><ele>9.0</ele><time>2026-04-30T06:18:43.999Z</time></trkpt><trkpt lat="14.526379266531183" lon="121.02448195046955"><ele>10.0</ele><time>2026-04-30T06:18:44.999Z</time></trkpt><trkpt lat="14.52646527521087" lon="121.02442871778463"><ele>11.0</ele><time>2026-04-30T06:18:45.999Z</time></trkpt><trkpt lat="14.526553998320724" lon="121.02437727177335"><ele>12.0</ele><time>2026-04-30T06:18:46.999Z</time></trkpt><trkpt lat="14.526636846086559" lon="121.02432315489115"><ele>12.0</ele><time>2026-04-30T06:18:47.999Z</time></trkpt><trkpt lat="14.526719359561413" lon="121.02426768277446"><ele>12.0</ele><time>2026-04-30T06:18:48.999Z</time></trkpt><trkpt lat="14.526800139225319" lon="121.0242115213874"><ele>12.0</ele><time>2026-04-30T06:18:49.999Z</time></trkpt><trkpt lat="14.526876093878005" lon="121.02416004915386"><ele>12.0</ele><time>2026-04-30T06:18:50.999Z</time></trkpt><trkpt lat="14.526970509584785" lon="121.02410942895456"><ele>12.0</ele><time>2026-04-30T06:18:52.999Z</time></trkpt><trkpt lat="14.527038033369681" lon="121.02406427197602"><ele>11.857142857142856</ele><time>2026-04-30T06:18:53.999Z</time></trkpt><trkpt lat="14.52710533569822" lon="121.02402817890976"><ele>11.714285714285714</ele><time>2026-04-30T06:18:54.999Z</time></trkpt><trkpt lat="14.527164259745676" lon="121.02399383438122"><ele>11.571428571428571</ele><time>2026-04-30T06:18:55.999Z</time></trkpt><trkpt lat="14.527236333783911" lon="121.02399433676305"><ele>11.428571428571427</ele><time>2026-04-30T06:18:56.999Z</time></trkpt><trkpt lat="14.527298633243625" lon="121.0239592268746"><ele>11.285714285714285</ele><time>2026-04-30T06:18:57.999Z</time></trkpt><trkpt lat="14.527356056015426" lon="121.02392930071167"><ele>11.142857142857142</ele><time>2026-04-30T06:18:58.999Z</time></trkpt><trkpt lat="14.527421548377086" lon="121.02388816324407"><ele>11.0</ele><time>2026-04-30T06:18:59.999Z</time></trkpt><trkpt lat="14.527536710444158" lon="121.02385469760388"><ele>11.0</ele><time>2026-04-30T06:19:01.999Z</time></trkpt><trkpt lat="14.527610036534744" lon="121.02382067238068"><ele>11.0</ele><time>2026-04-30T06:19:02.999Z</time></trkpt><trkpt lat="14.52771844681025" lon="121.02383232747657"><ele>11.0</ele><time>2026-04-30T06:19:05.999Z</time></trkpt><trkpt lat="14.527781487642152" lon="121.02380605630682"><ele>11.0</ele><time>2026-04-30T06:19:06.999Z</time></trkpt><trkpt lat="14.527843896038064" lon="121.02378172858245"><ele>11.0</ele><time>2026-04-30T06:19:07.999Z</time></trkpt><trkpt lat="14.527913969048571" lon="121.02375120296038"><ele>11.0</ele><time>2026-04-30T06:19:08.999Z</time></trkpt><trkpt lat="14.52797258265778" lon="121.02372725844181"><ele>10.8</ele><time>2026-04-30T06:19:09.999Z</time></trkpt><trkpt lat="14.528039501021615" lon="121.02369880417837"><ele>10.600000000000001</ele><time>2026-04-30T06:19:11Z</time></trkpt><trkpt lat="14.528137066356951" lon="121.02364507023752"><ele>10.4</ele><time>2026-04-30T06:19:12Z</time></trkpt><trkpt lat="14.528205148532608" lon="121.02359250015458"><ele>10.2</ele><time>2026-04-30T06:19:13Z</time></trkpt><trkpt lat="14.528299829877277" lon="121.0235424585121"><ele>10.0</ele><time>2026-04-30T06:19:14Z</time></trkpt><trkpt lat="14.528380000656536" lon="121.02351810308379"><ele>10.0</ele><time>2026-04-30T06:19:15Z</time></trkpt><trkpt lat="14.528452947458682" lon="121.02347977944187"><ele>10.0</ele><time>2026-04-30T06:19:16Z</time></trkpt><trkpt lat="14.52853398927774" lon="121.023423408628"><ele>10.0</ele><time>2026-04-30T06:19:16.999Z</time></trkpt><trkpt lat="14.528616985130816" lon="121.02336165404746"><ele>10.0</ele><time>2026-04-30T06:19:17.999Z</time></trkpt><trkpt lat="14.528697724154469" lon="121.02330032185603"><ele>10.0</ele><time>2026-04-30T06:19:18.999Z</time></trkpt><trkpt lat="14.528770291846634" lon="121.02324448729483"><ele>10.0</ele><time>2026-04-30T06:19:19.999Z</time></trkpt><trkpt lat="14.528841869233826" lon="121.02319624477525"><ele>10.0</ele><time>2026-04-30T06:19:20.999Z</time></trkpt><trkpt lat="14.52891508142995" lon="121.02315298136801"><ele>10.0</ele><time>2026-04-30T06:19:21.999Z</time></trkpt><trkpt lat="14.528990879894296" lon="121.02311358734562"><ele>10.0</ele><time>2026-04-30T06:19:22.999Z</time></trkpt><trkpt lat="14.529060004326325" lon="121.02310373266151"><ele>10.0</ele><time>2026-04-30T06:19:23.999Z</time></trkpt><trkpt lat="14.529131515120287" lon="121.0230327475845"><ele>10.0</ele><time>2026-04-30T06:19:25.999Z</time></trkpt><trkpt lat="14.529201293967892" lon="121.02299235834205"><ele>10.0</ele><time>2026-04-30T06:19:26.999Z</time></trkpt><trkpt lat="14.52927127321783" lon="121.02295184462584"><ele>10.0</ele><time>2026-04-30T06:19:27.999Z</time></trkpt><trkpt lat="14.529342414686885" lon="121.02291122369104"><ele>10.0</ele><time>2026-04-30T06:19:28.999Z</time></trkpt><trkpt lat="14.529415954597514" lon="121.02287021225088"><ele>10.0</ele><time>2026-04-30T06:19:29.999Z</time></trkpt><trkpt lat="14.52948935906779" lon="121.02282984604746"><ele>10.0</ele><time>2026-04-30T06:19:30.999Z</time></trkpt><trkpt lat="14.529562077397657" lon="121.0227890432176"><ele>10.0</ele><time>2026-04-30T06:19:31.999Z</time></trkpt><trkpt lat="14.529633454320095" lon="121.02274868116744"><ele>10.0</ele><time>2026-04-30T06:19:32.999Z</time></trkpt><trkpt lat="14.529704328957319" lon="121.0227084258375"><ele>10.0</ele><time>2026-04-30T06:19:33.999Z</time></trkpt><trkpt lat="14.528971945433424" lon="121.02309533264872"><ele>10.0</ele><time>2026-04-30T06:19:41.031Z</time></trkpt><trkpt lat="14.529491367959361" lon="121.02287852186845"><ele>10.0</ele><time>2026-04-30T06:20:03.031Z</time></trkpt><trkpt lat="14.52955382078534" lon="121.02285027967949"><ele>10.0</ele><time>2026-04-30T06:20:06.026Z</time></trkpt><trkpt lat="14.529634329746528" lon="121.02281339529779"><ele>10.0</ele><time>2026-04-30T06:20:08.024Z</time></trkpt><trkpt lat="14.5298961629527" lon="121.02267588242889"><ele>10.25</ele><time>2026-04-30T06:20:29.011Z</time></trkpt><trkpt lat="14.530033376578746" lon="121.02262014763436"><ele>10.5</ele><time>2026-04-30T06:20:54.025Z</time></trkpt><trkpt lat="14.530099152412651" lon="121.02258363570152"><ele>10.75</ele><time>2026-04-30T06:20:59.025Z</time></trkpt><trkpt lat="14.530265216596357" lon="121.02248335283936"><ele>11.0</ele><time>2026-04-30T06:22:02.01Z</time></trkpt><trkpt lat="14.530491831789412" lon="121.02240575999636"><ele>10.0</ele><time>2026-04-30T06:22:26.009Z</time></trkpt><trkpt lat="14.530530985462907" lon="121.02229121001274"><ele>9.0</ele><time>2026-04-30T06:25:19.001Z</time></trkpt><trkpt lat="14.539035367730694" lon="121.01736583229423"><ele>8.5</ele><time>2026-04-30T06:25:21.001Z</time></trkpt><trkpt lat="14.538916284371105" lon="121.0173810739032"><ele>8.0</ele><time>2026-04-30T06:25:22.001Z</time></trkpt><trkpt lat="14.538803114568518" lon="121.01739648106127"><ele>7.5</ele><time>2026-04-30T06:25:23.001Z</time></trkpt><trkpt lat="14.538691681824101" lon="121.01739938748533"><ele>7.0</ele><time>2026-04-30T06:25:24Z</time></trkpt><trkpt lat="14.53858745934892" lon="121.01741851804967"><ele>7.0</ele><time>2026-04-30T06:25:25Z</time></trkpt><trkpt lat="14.538478033205132" lon="121.01744813307732"><ele>7.0</ele><time>2026-04-30T06:25:26Z</time></trkpt><trkpt lat="14.538357277302554" lon="121.01746399120165"><ele>7.0</ele><time>2026-04-30T06:25:27Z</time></trkpt><trkpt lat="14.538239482048663" lon="121.01747799336245"><ele>7.0</ele><time>2026-04-30T06:25:28Z</time></trkpt><trkpt lat="14.538124645125537" lon="121.01748954860105"><ele>7.199999999999999</ele><time>2026-04-30T06:25:29Z</time></trkpt><trkpt lat="14.538016433454876" lon="121.01751336003176"><ele>7.3999999999999995</ele><time>2026-04-30T06:25:30Z</time></trkpt><trkpt lat="14.537905597513662" lon="121.01753887592535"><ele>7.6000000000000005</ele><time>2026-04-30T06:25:31Z</time></trkpt><trkpt lat="14.537800796596413" lon="121.01756600648191"><ele>7.800000000000001</ele><time>2026-04-30T06:25:32Z</time></trkpt><trkpt lat="14.53769911584518" lon="121.0176000944492"><ele>8.0</ele><time>2026-04-30T06:25:33Z</time></trkpt><trkpt lat="14.537596311941924" lon="121.01763292190125"><ele>8.0</ele><time>2026-04-30T06:25:34Z</time></trkpt><trkpt lat="14.53750320706801" lon="121.01767605701389"><ele>8.0</ele><time>2026-04-30T06:25:35Z</time></trkpt><trkpt lat="14.537417667923062" lon="121.01771969764334"><ele>8.0</ele><time>2026-04-30T06:25:36Z</time></trkpt><trkpt lat="14.537332601236137" lon="121.01775645672986"><ele>8.0</ele><time>2026-04-30T06:25:37Z</time></trkpt><trkpt lat="14.53724359543573" lon="121.01780192323221"><ele>8.0</ele><time>2026-04-30T06:25:38Z</time></trkpt><trkpt lat="14.537152858774427" lon="121.01783425437284"><ele>8.0</ele><time>2026-04-30T06:25:39Z</time></trkpt><trkpt lat="14.537305222764555" lon="121.01829562140195"><ele>8.5</ele><time>2026-04-30T06:25:40Z</time></trkpt><trkpt lat="14.53725902687928" lon="121.01837900982765"><ele>9.0</ele><time>2026-04-30T06:25:41Z</time></trkpt><trkpt lat="14.537192143649513" lon="121.01841523448189"><ele>9.5</ele><time>2026-04-30T06:25:42Z</time></trkpt><trkpt lat="14.53711474934953" lon="121.0184969557487"><ele>10.0</ele><time>2026-04-30T06:25:44Z</time></trkpt><trkpt lat="14.537056277362284" lon="121.01853894353526"><ele>10.5</ele><time>2026-04-30T06:25:46Z</time></trkpt><trkpt lat="14.537000981323434" lon="121.01857098577354"><ele>11.0</ele><time>2026-04-30T06:25:50Z</time></trkpt><trkpt lat="14.536927708602754" lon="121.01859176929955"><ele>11.0</ele><time>2026-04-30T06:26:09Z</time></trkpt><trkpt lat="14.536874695257277" lon="121.01863819752244"><ele>11.0</ele><time>2026-04-30T06:26:37Z</time></trkpt><trkpt lat="14.53681836592282" lon="121.01867166293053"><ele>11.0</ele><time>2026-04-30T06:27:12Z</time></trkpt><trkpt lat="14.536759601153774" lon="121.01870061495651"><ele>11.0</ele><time>2026-04-30T06:27:27Z</time></trkpt><trkpt lat="14.53669473955147" lon="121.01870232178543"><ele>11.0</ele><time>2026-04-30T06:28:10Z</time></trkpt><trkpt lat="14.536624030715156" lon="121.01871626341803"><ele>11.0</ele><time>2026-04-30T06:28:32Z</time></trkpt><trkpt lat="14.536543987150143" lon="121.01876628275976"><ele>11.0</ele><time>2026-04-30T06:28:52Z</time></trkpt><trkpt lat="14.53648431353113" lon="121.01879860264546"><ele>11.0</ele><time>2026-04-30T06:29:03Z</time></trkpt><trkpt lat="14.53641611796053" lon="121.01883553807608"><ele>11.0</ele><time>2026-04-30T06:29:09Z</time></trkpt><trkpt lat="14.536357913424848" lon="121.01886706225247"><ele>11.0</ele><time>2026-04-30T06:29:15Z</time></trkpt><trkpt lat="14.53629547627375" lon="121.01890087887513"><ele>11.0</ele><time>2026-04-30T06:29:40Z</time></trkpt><trkpt lat="14.536236383903155" lon="121.01893288390082"><ele>11.0</ele><time>2026-04-30T06:29:51Z</time></trkpt><trkpt lat="14.536174803081279" lon="121.01896623685207"><ele>11.0</ele><time>2026-04-30T06:30:18Z</time></trkpt><trkpt lat="14.53611764044729" lon="121.01899723304916"><ele>11.0</ele><time>2026-04-30T06:30:37Z</time></trkpt><trkpt lat="14.536174718846748" lon="121.01896628897005"><ele>11.0</ele><time>2026-04-30T06:31:29Z</time></trkpt><trkpt lat="14.536233512275777" lon="121.0189344391755"><ele>11.0</ele><time>2026-04-30T06:31:38Z</time></trkpt><trkpt lat="14.536303891025478" lon="121.0188963213068"><ele>11.0</ele><time>2026-04-30T06:31:45Z</time></trkpt><trkpt lat="14.536361696538865" lon="121.01886501319578"><ele>11.0</ele><time>2026-04-30T06:31:48Z</time></trkpt><trkpt lat="14.53642003086469" lon="121.01883341879798"><ele>11.0</ele><time>2026-04-30T06:31:51Z</time></trkpt><trkpt lat="14.536311914036517" lon="121.01864071546116"><ele>11.0</ele><time>2026-04-30T06:33:34Z</time></trkpt><trkpt lat="14.53624651558732" lon="121.01864015245924"><ele>11.0</ele><time>2026-04-30T06:33:55Z</time></trkpt><trkpt lat="14.536223783935078" lon="121.01870469843772"><ele>11.0</ele><time>2026-04-30T06:34:08Z</time></trkpt><trkpt lat="14.536168819475234" lon="121.01874333285217"><ele>11.0</ele><time>2026-04-30T06:34:15Z</time></trkpt><trkpt lat="14.536165361243196" lon="121.01881289572131"><ele>11.0</ele><time>2026-04-30T06:35:22Z</time></trkpt><trkpt lat="14.536097732253076" lon="121.01881038318311"><ele>11.0</ele><time>2026-04-30T06:35:37Z</time></trkpt><trkpt lat="14.536026024382235" lon="121.01878933729589"><ele>11.0</ele><time>2026-04-30T06:35:46Z</time></trkpt><trkpt lat="14.535974986734242" lon="121.01883136436417"><ele>11.0</ele><time>2026-04-30T06:40:59.001Z</time></trkpt><trkpt lat="14.536028903325425" lon="121.0188803341764"><ele>11.0</ele><time>2026-04-30T06:41:08.001Z</time></trkpt><trkpt lat="14.536251279248763" lon="121.01894949887081"><ele>11.0</ele><time>2026-04-30T06:42:52.001Z</time></trkpt><trkpt lat="14.53616978140632" lon="121.0189378834983"><ele>11.0</ele><time>2026-04-30T06:43:10.001Z</time></trkpt><trkpt lat="14.536128599210157" lon="121.01885859352628"><ele>11.0</ele><time>2026-04-30T06:43:36.001Z</time></trkpt><trkpt lat="14.536030115377592" lon="121.01883496571803"><ele>11.0</ele><time>2026-04-30T06:45:03.001Z</time></trkpt><trkpt lat="14.53605603334458" lon="121.01873066929859"><ele>11.0</ele><time>2026-04-30T06:46:08.001Z</time></trkpt><trkpt lat="14.53604412158142" lon="121.01865682646955"><ele>11.0</ele><time>2026-04-30T06:46:26.001Z</time></trkpt><trkpt lat="14.53636279158669" lon="121.01859795670255"><ele>11.0</ele><time>2026-04-30T07:29:37.008Z</time></trkpt><trkpt lat="14.536423212223573" lon="121.0185727260187"><ele>11.0</ele><time>2026-04-30T07:31:38Z</time></trkpt><trkpt lat="14.536498358842469" lon="121.01855848090807"><ele>11.0</ele><time>2026-04-30T07:31:43Z</time></trkpt><trkpt lat="14.536558298205259" lon="121.01853611003713"><ele>11.0</ele><time>2026-04-30T07:31:47Z</time></trkpt><trkpt lat="14.53663132071414" lon="121.01850889882873"><ele>11.0</ele><time>2026-04-30T07:31:51Z</time></trkpt><trkpt lat="14.536699930619642" lon="121.01847682869364"><ele>11.0</ele><time>2026-04-30T07:31:56Z</time></trkpt><trkpt lat="14.536755335724052" lon="121.01844501706549"><ele>11.0</ele><time>2026-04-30T07:32:01Z</time></trkpt><trkpt lat="14.536812894340967" lon="121.018407224919"><ele>11.0</ele><time>2026-04-30T07:32:48Z</time></trkpt><trkpt lat="14.536867714432859" lon="121.01837147184644"><ele>11.0</ele><time>2026-04-30T07:32:51Z</time></trkpt><trkpt lat="14.536929337498872" lon="121.018340969194"><ele>11.0</ele><time>2026-04-30T07:32:53Z</time></trkpt><trkpt lat="14.536996792471164" lon="121.01830806679155"><ele>11.0</ele><time>2026-04-30T07:32:55Z</time></trkpt><trkpt lat="14.537064915484985" lon="121.01827092973166"><ele>11.0</ele><time>2026-04-30T07:32:57Z</time></trkpt><trkpt lat="14.53713649345345" lon="121.01822878199143"><ele>11.0</ele><time>2026-04-30T07:32:59Z</time></trkpt><trkpt lat="14.537206254338965" lon="121.0181911429826"><ele>11.0</ele><time>2026-04-30T07:33:01Z</time></trkpt><trkpt lat="14.537280235411535" lon="121.01815116042668"><ele>10.5</ele><time>2026-04-30T07:33:03Z</time></trkpt><trkpt lat="14.53735730404814" lon="121.01810847856797"><ele>10.0</ele><time>2026-04-30T07:33:05Z</time></trkpt><trkpt lat="14.537439672614957" lon="121.01806186681053"><ele>9.5</ele><time>2026-04-30T07:33:07Z</time></trkpt><trkpt lat="14.5375196085776" lon="121.01801671078454"><ele>9.0</ele><time>2026-04-30T07:33:09Z</time></trkpt><trkpt lat="14.537593510982154" lon="121.01797573988115"><ele>8.5</ele><time>2026-04-30T07:33:11Z</time></trkpt><trkpt lat="14.537663144641717" lon="121.01793847812446"><ele>8.0</ele><time>2026-04-30T07:33:13Z</time></trkpt><trkpt lat="14.537726098238803" lon="121.0179006407843"><ele>7.999999999999999</ele><time>2026-04-30T07:33:15Z</time></trkpt><trkpt lat="14.537790633035563" lon="121.01786827283497"><ele>8.0</ele><time>2026-04-30T07:33:17Z</time></trkpt><trkpt lat="14.537862598511223" lon="121.01782946002945"><ele>8.0</ele><time>2026-04-30T07:33:19Z</time></trkpt><trkpt lat="14.53793763543474" lon="121.01779103761658"><ele>8.0</ele><time>2026-04-30T07:33:21Z</time></trkpt><trkpt lat="14.538011873166505" lon="121.01775530560533"><ele>7.999999999999999</ele><time>2026-04-30T07:33:23Z</time></trkpt><trkpt lat="14.53808999628322" lon="121.01771531545826"><ele>8.0</ele><time>2026-04-30T07:33:25Z</time></trkpt><trkpt lat="14.538169786977559" lon="121.0176733478813"><ele>7.800000000000001</ele><time>2026-04-30T07:33:27Z</time></trkpt><trkpt lat="14.538249433866515" lon="121.01762556353482"><ele>7.6000000000000005</ele><time>2026-04-30T07:33:29Z</time></trkpt><trkpt lat="14.53833345246835" lon="121.01757743147806"><ele>7.3999999999999995</ele><time>2026-04-30T07:33:31Z</time></trkpt><trkpt lat="14.538423804544847" lon="121.01752802022524"><ele>7.199999999999999</ele><time>2026-04-30T07:33:33Z</time></trkpt><trkpt lat="14.538522545748792" lon="121.01747518471466"><ele>7.0</ele><time>2026-04-30T07:33:35Z</time></trkpt><trkpt lat="14.538623264547937" lon="121.01743251906802"><ele>8.2</ele><time>2026-04-30T07:33:37Z</time></trkpt><trkpt lat="14.538722117671313" lon="121.01738257327311"><ele>9.399999999999999</ele><time>2026-04-30T07:33:39Z</time></trkpt><trkpt lat="14.538818910961954" lon="121.01732669620857"><ele>10.600000000000001</ele><time>2026-04-30T07:33:41Z</time></trkpt><trkpt lat="14.538918413562126" lon="121.01728080624531"><ele>11.8</ele><time>2026-04-30T07:33:43Z</time></trkpt><trkpt lat="14.539001574588454" lon="121.01722601315805"><ele>13.0</ele><time>2026-04-30T07:33:45Z</time></trkpt><trkpt lat="14.539073720292974" lon="121.01715417013308"><ele>12.999999999999998</ele><time>2026-04-30T07:33:47Z</time></trkpt><trkpt lat="14.539136768327602" lon="121.01707803494392"><ele>13.0</ele><time>2026-04-30T07:33:49Z</time></trkpt><trkpt lat="14.539198958726129" lon="121.0170058211353"><ele>13.0</ele><time>2026-04-30T07:33:51Z</time></trkpt><trkpt lat="14.539261386467972" lon="121.0169361387217"><ele>13.0</ele><time>2026-04-30T07:33:53Z</time></trkpt><trkpt lat="14.539315076950194" lon="121.01687139839483"><ele>12.999999999999998</ele><time>2026-04-30T07:33:55Z</time></trkpt><trkpt lat="14.539355371244387" lon="121.01680783320599"><ele>13.0</ele><time>2026-04-30T07:33:57Z</time></trkpt><trkpt lat="14.53937786102313" lon="121.01672965079887"><ele>12.999999999999998</ele><time>2026-04-30T07:34:00Z</time></trkpt><trkpt lat="14.53933384795215" lon="121.01666077014714"><ele>13.0</ele><time>2026-04-30T07:35:02Z</time></trkpt><trkpt lat="14.539303371148852" lon="121.01659363962763"><ele>13.0</ele><time>2026-04-30T07:35:06Z</time></trkpt><trkpt lat="14.539277065170543" lon="121.01650152121469"><ele>13.0</ele><time>2026-04-30T07:35:10Z</time></trkpt><trkpt lat="14.539243794748824" lon="121.01643536475845"><ele>12.999999999999998</ele><time>2026-04-30T07:35:12Z</time></trkpt><trkpt lat="14.539208939007453" lon="121.01636605599833"><ele>13.0</ele><time>2026-04-30T07:35:14Z</time></trkpt><trkpt lat="14.539172005676273" lon="121.01629261601833"><ele>12.833333333333332</ele><time>2026-04-30T07:35:16Z</time></trkpt><trkpt lat="14.53913445320228" lon="121.01621899572473"><ele>12.666666666666666</ele><time>2026-04-30T07:35:18Z</time></trkpt><trkpt lat="14.539096873703823" lon="121.01614566743895"><ele>12.5</ele><time>2026-04-30T07:35:20Z</time></trkpt><trkpt lat="14.539064556259348" lon="121.01608260696055"><ele>12.333333333333332</ele><time>2026-04-30T07:35:22Z</time></trkpt><trkpt lat="14.539033465560646" lon="121.01602194015352"><ele>12.166666666666666</ele><time>2026-04-30T07:35:25Z</time></trkpt><trkpt lat="14.53901777478629" lon="121.01595445688419"><ele>12.0</ele><time>2026-04-30T07:35:38Z</time></trkpt><trkpt lat="14.539174116080003" lon="121.0158817496506"><ele>12.0</ele><time>2026-04-30T07:35:40Z</time></trkpt><trkpt lat="14.539239461927165" lon="121.0158471558371"><ele>12.0</ele><time>2026-04-30T07:35:43Z</time></trkpt><trkpt lat="14.539307460447546" lon="121.01581115769193"><ele>12.0</ele><time>2026-04-30T07:35:46Z</time></trkpt><trkpt lat="14.539334144636097" lon="121.0156512851171"><ele>12.0</ele><time>2026-04-30T07:35:48Z</time></trkpt><trkpt lat="14.539303527279829" lon="121.01556002229015"><ele>12.0</ele><time>2026-04-30T07:35:50Z</time></trkpt><trkpt lat="14.539273304662222" lon="121.01546993622397"><ele>11.333333333333334</ele><time>2026-04-30T07:35:52Z</time></trkpt><trkpt lat="14.53924305787298" lon="121.01541156407085"><ele>10.666666666666666</ele><time>2026-04-30T07:35:53Z</time></trkpt><trkpt lat="14.539212401981718" lon="121.01528662905918"><ele>10.0</ele><time>2026-04-30T07:35:55Z</time></trkpt><trkpt lat="14.539197608248815" lon="121.01522267446511"><ele>9.333333333333332</ele><time>2026-04-30T07:35:56Z</time></trkpt><trkpt lat="14.539162884884906" lon="121.01509808505138"><ele>8.666666666666666</ele><time>2026-04-30T07:35:58Z</time></trkpt><trkpt lat="14.539144697592619" lon="121.01503306072382"><ele>8.0</ele><time>2026-04-30T07:35:59Z</time></trkpt><trkpt lat="14.539124083131298" lon="121.01496370822147"><ele>7.833333333333333</ele><time>2026-04-30T07:36:00Z</time></trkpt><trkpt lat="14.539100274143735" lon="121.01489194226966"><ele>7.666666666666666</ele><time>2026-04-30T07:36:01Z</time></trkpt><trkpt lat="14.539076030206052" lon="121.01482360027887"><ele>7.5</ele><time>2026-04-30T07:36:02Z</time></trkpt><trkpt lat="14.539051418846514" lon="121.01476170110541"><ele>7.333333333333334</ele><time>2026-04-30T07:36:03Z</time></trkpt><trkpt lat="14.539008771244323" lon="121.0146467965067"><ele>7.166666666666667</ele><time>2026-04-30T07:36:05Z</time></trkpt><trkpt lat="14.538984835957049" lon="121.01456011025535"><ele>7.0</ele><time>2026-04-30T07:36:07Z</time></trkpt><trkpt lat="14.538958101018762" lon="121.01447999032443"><ele>7.0</ele><time>2026-04-30T07:36:10Z</time></trkpt><trkpt lat="14.538929726857042" lon="121.01439101455408"><ele>6.999999999999999</ele><time>2026-04-30T07:36:13Z</time></trkpt><trkpt lat="14.538909298339405" lon="121.01432425668564"><ele>6.999999999999999</ele><time>2026-04-30T07:36:18Z</time></trkpt><trkpt lat="14.539048254902495" lon="121.0142939497149"><ele>7.0</ele><time>2026-04-30T07:36:26Z</time></trkpt><trkpt lat="14.539118226773121" lon="121.01426270890207"><ele>7.0</ele><time>2026-04-30T07:36:29Z</time></trkpt><trkpt lat="14.539192390369902" lon="121.01424266582654"><ele>7.0</ele><time>2026-04-30T07:36:33Z</time></trkpt><trkpt lat="14.539295409085721" lon="121.01433664403619"><ele>6.999999999999999</ele><time>2026-04-30T07:36:38Z</time></trkpt><trkpt lat="14.539330828635256" lon="121.014437203572"><ele>6.999999999999999</ele><time>2026-04-30T07:36:40Z</time></trkpt><trkpt lat="14.539381489407598" lon="121.01455786127929"><ele>7.0</ele><time>2026-04-30T07:36:42Z</time></trkpt><trkpt lat="14.539410808544764" lon="121.01462512426704"><ele>7.0</ele><time>2026-04-30T07:36:43Z</time></trkpt><trkpt lat="14.53944086140989" lon="121.01469920444744"><ele>7.0</ele><time>2026-04-30T07:36:44Z</time></trkpt><trkpt lat="14.539472008738944" lon="121.01477961392605"><ele>6.999999999999999</ele><time>2026-04-30T07:36:45Z</time></trkpt><trkpt lat="14.53950294265664" lon="121.01486326864209"><ele>6.999999999999999</ele><time>2026-04-30T07:36:46Z</time></trkpt><trkpt lat="14.539533907014475" lon="121.01495359080698"><ele>7.0</ele><time>2026-04-30T07:36:47Z</time></trkpt><trkpt lat="14.539566680485796" lon="121.015045812165"><ele>7.0</ele><time>2026-04-30T07:36:48Z</time></trkpt><trkpt lat="14.539601538839054" lon="121.01514092414291"><ele>8.0</ele><time>2026-04-30T07:36:49Z</time></trkpt><trkpt lat="14.539637853629495" lon="121.01523500240589"><ele>9.0</ele><time>2026-04-30T07:36:50Z</time></trkpt><trkpt lat="14.539674064195392" lon="121.01533095507186"><ele>10.0</ele><time>2026-04-30T07:36:51Z</time></trkpt><trkpt lat="14.539710052498977" lon="121.01542746966112"><ele>11.0</ele><time>2026-04-30T07:36:52Z</time></trkpt><trkpt lat="14.539747956971746" lon="121.01552346338545"><ele>12.0</ele><time>2026-04-30T07:36:53Z</time></trkpt><trkpt lat="14.539787858688895" lon="121.01561982363889"><ele>12.0</ele><time>2026-04-30T07:36:54Z</time></trkpt><trkpt lat="14.539825680735776" lon="121.01571777717514"><ele>12.0</ele><time>2026-04-30T07:36:55Z</time></trkpt><trkpt lat="14.539864310531073" lon="121.01581586358759"><ele>12.0</ele><time>2026-04-30T07:36:56Z</time></trkpt><trkpt lat="14.539901967867882" lon="121.01591221017473"><ele>12.0</ele><time>2026-04-30T07:36:57Z</time></trkpt><trkpt lat="14.539941833260695" lon="121.01601031024715"><ele>12.0</ele><time>2026-04-30T07:36:58Z</time></trkpt><trkpt lat="14.539983541085777" lon="121.01610786654197"><ele>12.0</ele><time>2026-04-30T07:36:59Z</time></trkpt><trkpt lat="14.540026424753666" lon="121.01620653184483"><ele>12.0</ele><time>2026-04-30T07:37:00Z</time></trkpt><trkpt lat="14.540067413523976" lon="121.01630482922917"><ele>12.0</ele><time>2026-04-30T07:37:01Z</time></trkpt><trkpt lat="14.540113541120904" lon="121.01640049937062"><ele>12.0</ele><time>2026-04-30T07:37:02Z</time></trkpt><trkpt lat="14.54016034644742" lon="121.01649625536095"><ele>12.0</ele><time>2026-04-30T07:37:03Z</time></trkpt><trkpt lat="14.540208251108634" lon="121.01659415955085"><ele>11.8</ele><time>2026-04-30T07:37:04Z</time></trkpt><trkpt lat="14.540256163460361" lon="121.01668590481918"><ele>11.6</ele><time>2026-04-30T07:37:05Z</time></trkpt><trkpt lat="14.54029922895724" lon="121.01677902754513"><ele>11.4</ele><time>2026-04-30T07:37:06Z</time></trkpt><trkpt lat="14.540356581520813" lon="121.0168562284474"><ele>11.200000000000001</ele><time>2026-04-30T07:37:07Z</time></trkpt><trkpt lat="14.540411744333372" lon="121.01692586722156"><ele>11.0</ele><time>2026-04-30T07:37:08Z</time></trkpt><trkpt lat="14.540438108754683" lon="121.01702458648094"><ele>11.4</ele><time>2026-04-30T07:37:09Z</time></trkpt><trkpt lat="14.540475287311718" lon="121.01710572560454"><ele>11.8</ele><time>2026-04-30T07:37:10Z</time></trkpt><trkpt lat="14.540515140764823" lon="121.01722567514288"><ele>12.200000000000001</ele><time>2026-04-30T07:37:11Z</time></trkpt><trkpt lat="14.540573152447797" lon="121.01731150929157"><ele>12.600000000000001</ele><time>2026-04-30T07:37:12Z</time></trkpt><trkpt lat="14.540631745879013" lon="121.01739643013426"><ele>13.0</ele><time>2026-04-30T07:37:13Z</time></trkpt><trkpt lat="14.540689623780903" lon="121.01748234245551"><ele>12.600000000000001</ele><time>2026-04-30T07:37:14Z</time></trkpt><trkpt lat="14.540745569154344" lon="121.01757034824732"><ele>12.200000000000001</ele><time>2026-04-30T07:37:15Z</time></trkpt><trkpt lat="14.540799923498062" lon="121.01766091557286"><ele>11.8</ele><time>2026-04-30T07:37:16Z</time></trkpt><trkpt lat="14.540853582566559" lon="121.01775503627717"><ele>11.4</ele><time>2026-04-30T07:37:17Z</time></trkpt><trkpt lat="14.540905596287645" lon="121.01785411948292"><ele>11.0</ele><time>2026-04-30T07:37:18Z</time></trkpt><trkpt lat="14.54095980218148" lon="121.01795345992653"><ele>11.0</ele><time>2026-04-30T07:37:19Z</time></trkpt><trkpt lat="14.541018475468778" lon="121.01805314438778"><ele>11.0</ele><time>2026-04-30T07:37:20Z</time></trkpt><trkpt lat="14.541074038616118" lon="121.01815338765171"><ele>11.0</ele><time>2026-04-30T07:37:21Z</time></trkpt><trkpt lat="14.541130500082746" lon="121.01825268821693"><ele>11.0</ele><time>2026-04-30T07:37:22Z</time></trkpt><trkpt lat="14.541195796486914" lon="121.01835842950244"><ele>12.25</ele><time>2026-04-30T07:37:23Z</time></trkpt><trkpt lat="14.541259667172843" lon="121.01846283019188"><ele>13.5</ele><time>2026-04-30T07:37:24Z</time></trkpt><trkpt lat="14.541324715761913" lon="121.01856715179649"><ele>14.75</ele><time>2026-04-30T07:37:25Z</time></trkpt><trkpt lat="14.541390815100867" lon="121.01867121589123"><ele>16.0</ele><time>2026-04-30T07:37:26Z</time></trkpt><trkpt lat="14.54145326915636" lon="121.01877360193087"><ele>16.0</ele><time>2026-04-30T07:37:27Z</time></trkpt><trkpt lat="14.541516452431805" lon="121.01887434296202"><ele>16.0</ele><time>2026-04-30T07:37:28Z</time></trkpt><trkpt lat="14.541577729852412" lon="121.01897202205413"><ele>16.0</ele><time>2026-04-30T07:37:29Z</time></trkpt><trkpt lat="14.541641535870742" lon="121.01906896012102"><ele>16.0</ele><time>2026-04-30T07:37:30Z</time></trkpt><trkpt lat="14.541706151357669" lon="121.01916808757333"><ele>15.0</ele><time>2026-04-30T07:37:31Z</time></trkpt><trkpt lat="14.541774190242423" lon="121.01926615705788"><ele>14.0</ele><time>2026-04-30T07:37:32Z</time></trkpt><trkpt lat="14.541843718145882" lon="121.01936764754805"><ele>13.0</ele><time>2026-04-30T07:37:33Z</time></trkpt><trkpt lat="14.541913591947283" lon="121.0194703332148"><ele>12.0</ele><time>2026-04-30T07:37:34Z</time></trkpt><trkpt lat="14.541984703959484" lon="121.01957387158718"><ele>12.25</ele><time>2026-04-30T07:37:35Z</time></trkpt><trkpt lat="14.542056634418495" lon="121.01967288891025"><ele>12.5</ele><time>2026-04-30T07:37:36Z</time></trkpt><trkpt lat="14.54212512020148" lon="121.019766435732"><ele>12.75</ele><time>2026-04-30T07:37:37Z</time></trkpt><trkpt lat="14.542192564457594" lon="121.01985712630868"><ele>13.0</ele><time>2026-04-30T07:37:38Z</time></trkpt><trkpt lat="14.542258400149102" lon="121.0199463519396"><ele>13.0</ele><time>2026-04-30T07:37:39Z</time></trkpt><trkpt lat="14.54232541137011" lon="121.0200376846489"><ele>13.0</ele><time>2026-04-30T07:37:40Z</time></trkpt><trkpt lat="14.542382903140798" lon="121.02011232108875"><ele>13.0</ele><time>2026-04-30T07:37:41Z</time></trkpt><trkpt lat="14.542439411538902" lon="121.0201869720683"><ele>13.0</ele><time>2026-04-30T07:37:42Z</time></trkpt><trkpt lat="14.542497012235714" lon="121.02026044119643"><ele>13.0</ele><time>2026-04-30T07:37:43Z</time></trkpt><trkpt lat="14.54254325558628" lon="121.02030764804091"><ele>13.0</ele><time>2026-04-30T07:37:44Z</time></trkpt><trkpt lat="14.542604471381607" lon="121.02037488410843"><ele>13.0</ele><time>2026-04-30T07:37:45Z</time></trkpt><trkpt lat="14.542654168956984" lon="121.02045726236197"><ele>13.0</ele><time>2026-04-30T07:37:46Z</time></trkpt><trkpt lat="14.54271304666988" lon="121.02053850955602"><ele>13.0</ele><time>2026-04-30T07:37:47Z</time></trkpt><trkpt lat="14.542779012053824" lon="121.02062179236822"><ele>13.0</ele><time>2026-04-30T07:37:48Z</time></trkpt><trkpt lat="14.542849148729767" lon="121.02070899409598"><ele>13.25</ele><time>2026-04-30T07:37:49Z</time></trkpt><trkpt lat="14.542929522415221" lon="121.02079850192305"><ele>13.5</ele><time>2026-04-30T07:37:50Z</time></trkpt><trkpt lat="14.543005780959193" lon="121.02088817132613"><ele>13.75</ele><time>2026-04-30T07:37:51Z</time></trkpt><trkpt lat="14.54308232282486" lon="121.02098052115191"><ele>14.0</ele><time>2026-04-30T07:37:52Z</time></trkpt><trkpt lat="14.543161490045852" lon="121.02107377047136"><ele>14.5</ele><time>2026-04-30T07:37:53Z</time></trkpt><trkpt lat="14.543243477383836" lon="121.02116891229358"><ele>15.0</ele><time>2026-04-30T07:37:54Z</time></trkpt><trkpt lat="14.543325813353263" lon="121.02126649957982"><ele>15.5</ele><time>2026-04-30T07:37:55Z</time></trkpt><trkpt lat="14.543410670307054" lon="121.0213681543602"><ele>16.0</ele><time>2026-04-30T07:37:56Z</time></trkpt><trkpt lat="14.543496238988258" lon="121.02146996476583"><ele>16.0</ele><time>2026-04-30T07:37:57Z</time></trkpt><trkpt lat="14.543584060406126" lon="121.02157486589685"><ele>16.0</ele><time>2026-04-30T07:37:58Z</time></trkpt><trkpt lat="14.543672154784367" lon="121.02168066953647"><ele>16.0</ele><time>2026-04-30T07:37:59Z</time></trkpt><trkpt lat="14.543761223117247" lon="121.02178740755042"><ele>16.0</ele><time>2026-04-30T07:38:00Z</time></trkpt><trkpt lat="14.543849519287381" lon="121.02189157344968"><ele>16.0</ele><time>2026-04-30T07:38:01Z</time></trkpt><trkpt lat="14.54393798242763" lon="121.02199691000085"><ele>16.0</ele><time>2026-04-30T07:38:02Z</time></trkpt><trkpt lat="14.544025970236193" lon="121.02210359316481"><ele>16.0</ele><time>2026-04-30T07:38:03Z</time></trkpt><trkpt lat="14.544113697956714" lon="121.0222092504441"><ele>16.0</ele><time>2026-04-30T07:38:04Z</time></trkpt><trkpt lat="14.544202390411511" lon="121.02231426250323"><ele>16.0</ele><time>2026-04-30T07:38:05Z</time></trkpt><trkpt lat="14.544291137680535" lon="121.02242057973123"><ele>16.0</ele><time>2026-04-30T07:38:06Z</time></trkpt><trkpt lat="14.544379082486088" lon="121.02252674708517"><ele>16.0</ele><time>2026-04-30T07:38:07Z</time></trkpt><trkpt lat="14.544463853156634" lon="121.02263223020007"><ele>16.0</ele><time>2026-04-30T07:38:08Z</time></trkpt><trkpt lat="14.54454880686791" lon="121.02273573810014"><ele>15.75</ele><time>2026-04-30T07:38:09Z</time></trkpt><trkpt lat="14.54463127507553" lon="121.02283347450656"><ele>15.5</ele><time>2026-04-30T07:38:10Z</time></trkpt><trkpt lat="14.544708137812991" lon="121.02292849535168"><ele>15.25</ele><time>2026-04-30T07:38:11Z</time></trkpt><trkpt lat="14.544782125134192" lon="121.02301856945046"><ele>15.0</ele><time>2026-04-30T07:38:12Z</time></trkpt><trkpt lat="14.544853591389792" lon="121.0231047002734"><ele>15.0</ele><time>2026-04-30T07:38:13Z</time></trkpt><trkpt lat="14.544919014172367" lon="121.02318517361645"><ele>15.0</ele><time>2026-04-30T07:38:14Z</time></trkpt><trkpt lat="14.544983769771912" lon="121.02326525561911"><ele>15.0</ele><time>2026-04-30T07:38:15Z</time></trkpt><trkpt lat="14.545047583790952" lon="121.02334218532478"><ele>15.0</ele><time>2026-04-30T07:38:16Z</time></trkpt><trkpt lat="14.545114863325807" lon="121.0234170940843"><ele>15.0</ele><time>2026-04-30T07:38:17Z</time></trkpt><trkpt lat="14.545178140361882" lon="121.02348793725797"><ele>15.0</ele><time>2026-04-30T07:38:18Z</time></trkpt><trkpt lat="14.545239008986048" lon="121.02355582398197"><ele>15.0</ele><time>2026-04-30T07:38:19Z</time></trkpt><trkpt lat="14.545294460445962" lon="121.02363100140003"><ele>15.0</ele><time>2026-04-30T07:38:20Z</time></trkpt><trkpt lat="14.545351330737072" lon="121.0236995482534"><ele>15.0</ele><time>2026-04-30T07:38:21Z</time></trkpt><trkpt lat="14.54540769609945" lon="121.02376814914577"><ele>15.0</ele><time>2026-04-30T07:38:22Z</time></trkpt><trkpt lat="14.545462533237497" lon="121.02383297207366"><ele>15.0</ele><time>2026-04-30T07:38:23Z</time></trkpt><trkpt lat="14.545517650181917" lon="121.02389677836494"><ele>15.0</ele><time>2026-04-30T07:38:24Z</time></trkpt><trkpt lat="14.545570766326163" lon="121.02396155981609"><ele>15.0</ele><time>2026-04-30T07:38:25Z</time></trkpt><trkpt lat="14.545622548004053" lon="121.02402438320594"><ele>15.0</ele><time>2026-04-30T07:38:26Z</time></trkpt><trkpt lat="14.545676125510626" lon="121.0240876646023"><ele>15.0</ele><time>2026-04-30T07:38:27Z</time></trkpt><trkpt lat="14.545729854493715" lon="121.02415143195549"><ele>15.0</ele><time>2026-04-30T07:38:28Z</time></trkpt><trkpt lat="14.545783154630422" lon="121.02421491694605"><ele>15.0</ele><time>2026-04-30T07:38:29Z</time></trkpt><trkpt lat="14.545836237098658" lon="121.02427735708977"><ele>14.5</ele><time>2026-04-30T07:38:30Z</time></trkpt><trkpt lat="14.5458909716877" lon="121.02434232899209"><ele>14.0</ele><time>2026-04-30T07:38:31Z</time></trkpt><trkpt lat="14.545944096487066" lon="121.02440363284437"><ele>13.5</ele><time>2026-04-30T07:38:32Z</time></trkpt><trkpt lat="14.545999215350935" lon="121.02446681500628"><ele>13.0</ele><time>2026-04-30T07:38:33Z</time></trkpt><trkpt lat="14.546051311001994" lon="121.02452585404606"><ele>12.5</ele><time>2026-04-30T07:38:34Z</time></trkpt><trkpt lat="14.546104898505186" lon="121.02458713639028"><ele>12.0</ele><time>2026-04-30T07:38:35Z</time></trkpt><trkpt lat="14.546157605861854" lon="121.02464400241992"><ele>12.0</ele><time>2026-04-30T07:38:36Z</time></trkpt><trkpt lat="14.546207311653703" lon="121.02470379727964"><ele>12.0</ele><time>2026-04-30T07:38:37Z</time></trkpt><trkpt lat="14.546258897252883" lon="121.02476514118105"><ele>12.0</ele><time>2026-04-30T07:38:38Z</time></trkpt><trkpt lat="14.546314841135159" lon="121.02482944694934"><ele>12.0</ele><time>2026-04-30T07:38:39Z</time></trkpt><trkpt lat="14.546370111912541" lon="121.02489511905785"><ele>12.0</ele><time>2026-04-30T07:38:40Z</time></trkpt><trkpt lat="14.546427892384926" lon="121.02496454250995"><ele>12.0</ele><time>2026-04-30T07:38:41Z</time></trkpt><trkpt lat="14.546488286113028" lon="121.02503640011314"><ele>12.399999999999999</ele><time>2026-04-30T07:38:42Z</time></trkpt><trkpt lat="14.54655397134142" lon="121.0251136435046"><ele>12.799999999999999</ele><time>2026-04-30T07:38:43Z</time></trkpt><trkpt lat="14.546617084838843" lon="121.02519254844225"><ele>13.2</ele><time>2026-04-30T07:38:44Z</time></trkpt><trkpt lat="14.546683778895392" lon="121.02527375239038"><ele>13.6</ele><time>2026-04-30T07:38:45Z</time></trkpt><trkpt lat="14.54675312720374" lon="121.02535854244579"><ele>14.0</ele><time>2026-04-30T07:38:46Z</time></trkpt><trkpt lat="14.546824868970884" lon="121.02544622348982"><ele>14.0</ele><time>2026-04-30T07:38:47Z</time></trkpt><trkpt lat="14.546899451297941" lon="121.02553613152597"><ele>14.0</ele><time>2026-04-30T07:38:48Z</time></trkpt><trkpt lat="14.546976556116173" lon="121.0256294825348"><ele>14.0</ele><time>2026-04-30T07:38:49Z</time></trkpt><trkpt lat="14.547055671182846" lon="121.0257247567803"><ele>14.0</ele><time>2026-04-30T07:38:50Z</time></trkpt><trkpt lat="14.547134574247712" lon="121.02582173651312"><ele>14.25</ele><time>2026-04-30T07:38:51Z</time></trkpt><trkpt lat="14.547215622540897" lon="121.02591760178457"><ele>14.5</ele><time>2026-04-30T07:38:52Z</time></trkpt><trkpt lat="14.547295909746888" lon="121.02601280961038"><ele>14.75</ele><time>2026-04-30T07:38:53Z</time></trkpt><trkpt lat="14.547374525442308" lon="121.02610600088445"><ele>15.0</ele><time>2026-04-30T07:38:54Z</time></trkpt><trkpt lat="14.547451822002916" lon="121.02619718884726"><ele>15.0</ele><time>2026-04-30T07:38:55Z</time></trkpt><trkpt lat="14.547515764179286" lon="121.02629677220342"><ele>15.0</ele><time>2026-04-30T07:38:56Z</time></trkpt><trkpt lat="14.547584063085647" lon="121.02639025582451"><ele>15.0</ele><time>2026-04-30T07:38:57Z</time></trkpt><trkpt lat="14.547686578604553" lon="121.02651838100181"><ele>15.0</ele><time>2026-04-30T07:38:58Z</time></trkpt><trkpt lat="14.547785524818615" lon="121.02664296520973"><ele>18.333333333333336</ele><time>2026-04-30T07:38:59Z</time></trkpt><trkpt lat="14.547885594227564" lon="121.02676838097425"><ele>21.666666666666668</ele><time>2026-04-30T07:39:00Z</time></trkpt><trkpt lat="14.547993091741683" lon="121.02690333772547"><ele>25.0</ele><time>2026-04-30T07:39:01Z</time></trkpt><trkpt lat="14.548123806682213" lon="121.02703361612723"><ele>25.0</ele><time>2026-04-30T07:39:02Z</time></trkpt><trkpt lat="14.54821420270175" lon="121.02713735825371"><ele>25.0</ele><time>2026-04-30T07:39:03Z</time></trkpt><trkpt lat="14.548303349108412" lon="121.0272400121881"><ele>25.0</ele><time>2026-04-30T07:39:04Z</time></trkpt><trkpt lat="14.548381438173202" lon="121.02733280502741"><ele>25.0</ele><time>2026-04-30T07:39:05Z</time></trkpt><trkpt lat="14.548453143792758" lon="121.02741984213033"><ele>24.333333333333336</ele><time>2026-04-30T07:39:06Z</time></trkpt><trkpt lat="14.54852161515892" lon="121.02749997370779"><ele>23.666666666666668</ele><time>2026-04-30T07:39:07Z</time></trkpt><trkpt lat="14.548585287286096" lon="121.02757244730422"><ele>23.0</ele><time>2026-04-30T07:39:08Z</time></trkpt><trkpt lat="14.548640288470418" lon="121.02763560872859"><ele>22.333333333333336</ele><time>2026-04-30T07:39:09Z</time></trkpt><trkpt lat="14.548687206059816" lon="121.02768911831727"><ele>21.666666666666668</ele><time>2026-04-30T07:39:10Z</time></trkpt><trkpt lat="14.548729531742897" lon="121.02773791080294"><ele>21.0</ele><time>2026-04-30T07:39:11Z</time></trkpt><trkpt lat="14.548803379738313" lon="121.02782205432234"><ele>21.0</ele><time>2026-04-30T07:39:13Z</time></trkpt><trkpt lat="14.548848740046312" lon="121.02788850068676"><ele>21.0</ele><time>2026-04-30T07:39:15Z</time></trkpt><trkpt lat="14.548890493662409" lon="121.02794926405294"><ele>21.0</ele><time>2026-04-30T07:39:18Z</time></trkpt><trkpt lat="14.548957615810151" lon="121.027979064855"><ele>21.0</ele><time>2026-04-30T07:39:41Z</time></trkpt><trkpt lat="14.5490037552621" lon="121.02802331108455"><ele>21.0</ele><time>2026-04-30T07:39:44Z</time></trkpt><trkpt lat="14.54906788280714" lon="121.028086178417"><ele>21.0</ele><time>2026-04-30T07:39:47Z</time></trkpt><trkpt lat="14.549116272710867" lon="121.02814221971654"><ele>21.0</ele><time>2026-04-30T07:39:49Z</time></trkpt><trkpt lat="14.549160567386018" lon="121.02819083071121"><ele>21.0</ele><time>2026-04-30T07:39:51Z</time></trkpt><trkpt lat="14.549203174237139" lon="121.0282448750277"><ele>21.0</ele><time>2026-04-30T07:39:53Z</time></trkpt><trkpt lat="14.549249737441999" lon="121.02830110862892"><ele>21.0</ele><time>2026-04-30T07:39:55Z</time></trkpt><trkpt lat="14.549306991858632" lon="121.02836347918931"><ele>21.0</ele><time>2026-04-30T07:39:58Z</time></trkpt><trkpt lat="14.549357384986612" lon="121.02842040961322"><ele>21.0</ele><time>2026-04-30T07:40:01Z</time></trkpt><trkpt lat="14.54940810071885" lon="121.02848147866686"><ele>21.0</ele><time>2026-04-30T07:40:04Z</time></trkpt><trkpt lat="14.549475992309791" lon="121.0285638622945"><ele>21.0</ele><time>2026-04-30T07:40:08Z</time></trkpt><trkpt lat="14.549522758958764" lon="121.02862392076092"><ele>21.0</ele><time>2026-04-30T07:40:10Z</time></trkpt><trkpt lat="14.549522909687875" lon="121.0286982257751"><ele>21.0</ele><time>2026-04-30T07:40:13Z</time></trkpt><trkpt lat="14.549623451787296" lon="121.0286868326177"><ele>21.0</ele><time>2026-04-30T07:40:56Z</time></trkpt><trkpt lat="14.549678365115293" lon="121.02874300242661"><ele>21.0</ele><time>2026-04-30T07:42:23Z</time></trkpt><trkpt lat="14.549727201279307" lon="121.02879953164184"><ele>21.0</ele><time>2026-04-30T07:42:26Z</time></trkpt><trkpt lat="14.549775686615234" lon="121.02885742367208"><ele>21.0</ele><time>2026-04-30T07:42:28Z</time></trkpt><trkpt lat="14.54982210338312" lon="121.02891397319625"><ele>21.0</ele><time>2026-04-30T07:42:30Z</time></trkpt><trkpt lat="14.549868079814068" lon="121.02896932552109"><ele>21.0</ele><time>2026-04-30T07:42:33Z</time></trkpt><trkpt lat="14.549924720778524" lon="121.02903292313013"><ele>21.0</ele><time>2026-04-30T07:42:36Z</time></trkpt><trkpt lat="14.549976749652139" lon="121.02909332126723"><ele>21.0</ele><time>2026-04-30T07:42:38Z</time></trkpt><trkpt lat="14.550030972265203" lon="121.02915113552072"><ele>21.0</ele><time>2026-04-30T07:42:40Z</time></trkpt><trkpt lat="14.550089401136697" lon="121.02920122925043"><ele>20.333333333333332</ele><time>2026-04-30T07:42:42Z</time></trkpt><trkpt lat="14.550161475444204" lon="121.02923616396008"><ele>19.666666666666664</ele><time>2026-04-30T07:42:44Z</time></trkpt><trkpt lat="14.550199950637065" lon="121.02931040289867"><ele>19.0</ele><time>2026-04-30T07:42:47Z</time></trkpt><trkpt lat="14.550486920389902" lon="121.02913883203836"><ele>20.75</ele><time>2026-04-30T07:42:51Z</time></trkpt><trkpt lat="14.550577295196089" lon="121.02907611787796"><ele>22.5</ele><time>2026-04-30T07:42:53Z</time></trkpt><trkpt lat="14.550722454875642" lon="121.02904886021344"><ele>24.25</ele><time>2026-04-30T07:42:55Z</time></trkpt><trkpt lat="14.550806552983943" lon="121.02896194145632"><ele>26.0</ele><time>2026-04-30T07:42:57Z</time></trkpt><trkpt lat="14.550891973966118" lon="121.02888166404976"><ele>25.999999999999996</ele><time>2026-04-30T07:42:59Z</time></trkpt><trkpt lat="14.550969056199934" lon="121.02880885790711"><ele>26.0</ele><time>2026-04-30T07:43:01Z</time></trkpt><trkpt lat="14.551027562190486" lon="121.02875359751754"><ele>26.0</ele><time>2026-04-30T07:43:03Z</time></trkpt><trkpt lat="14.551087466840553" lon="121.02870169915272"><ele>26.0</ele><time>2026-04-30T07:43:07Z</time></trkpt><trkpt lat="14.551144340082637" lon="121.02866241786428"><ele>25.999999999999996</ele><time>2026-04-30T07:43:10Z</time></trkpt><trkpt lat="14.551197740347222" lon="121.02861685349076"><ele>26.0</ele><time>2026-04-30T07:43:12Z</time></trkpt><trkpt lat="14.551263217611126" lon="121.0285584145547"><ele>26.8</ele><time>2026-04-30T07:43:14Z</time></trkpt><trkpt lat="14.55133399439747" lon="121.02849387862861"><ele>27.6</ele><time>2026-04-30T07:43:16Z</time></trkpt><trkpt lat="14.551411118234087" lon="121.02842185761016"><ele>28.4</ele><time>2026-04-30T07:43:18Z</time></trkpt><trkpt lat="14.551491651484367" lon="121.02834636975454"><ele>29.2</ele><time>2026-04-30T07:43:20Z</time></trkpt><trkpt lat="14.551555624209913" lon="121.02828801749351"><ele>30.0</ele><time>2026-04-30T07:43:22Z</time></trkpt><trkpt lat="14.551593854027756" lon="121.02821401473527"><ele>30.0</ele><time>2026-04-30T07:44:25Z</time></trkpt><trkpt lat="14.5516521257614" lon="121.02816501996871"><ele>30.0</ele><time>2026-04-30T07:44:34Z</time></trkpt><trkpt lat="14.551721409873146" lon="121.02810385041185"><ele>30.0</ele><time>2026-04-30T07:44:37Z</time></trkpt><trkpt lat="14.551756375126647" lon="121.02804976441638"><ele>30.0</ele><time>2026-04-30T07:44:40Z</time></trkpt><trkpt lat="14.551715125259477" lon="121.02794200615251"><ele>30.0</ele><time>2026-04-30T07:44:41Z</time></trkpt><trkpt lat="14.551646875946792" lon="121.02786781042725"><ele>30.0</ele><time>2026-04-30T07:44:43Z</time></trkpt><trkpt lat="14.551580949438522" lon="121.02779613988837"><ele>30.0</ele><time>2026-04-30T07:44:45Z</time></trkpt><trkpt lat="14.551529105190072" lon="121.0277397785722"><ele>30.0</ele><time>2026-04-30T07:44:47Z</time></trkpt><trkpt lat="14.551468001710568" lon="121.02770242535341"><ele>30.0</ele><time>2026-04-30T07:44:49Z</time></trkpt><trkpt lat="14.551412072859408" lon="121.02764382713403"><ele>30.0</ele><time>2026-04-30T07:44:51Z</time></trkpt><trkpt lat="14.551374723062542" lon="121.02757475036711"><ele>30.0</ele><time>2026-04-30T07:44:53Z</time></trkpt><trkpt lat="14.551322006124625" lon="121.02753367904008"><ele>30.0</ele><time>2026-04-30T07:44:55Z</time></trkpt><trkpt lat="14.551272427423413" lon="121.02746984811893"><ele>30.0</ele><time>2026-04-30T07:44:59Z</time></trkpt><trkpt lat="14.551228956814136" lon="121.02739338338219"><ele>30.8</ele><time>2026-04-30T07:45:06Z</time></trkpt><trkpt lat="14.55138353969278" lon="121.02730107017888"><ele>31.6</ele><time>2026-04-30T07:45:20Z</time></trkpt><trkpt lat="14.551440769612462" lon="121.02727067941326"><ele>32.4</ele><time>2026-04-30T07:45:21Z</time></trkpt><trkpt lat="14.551495970888766" lon="121.02731051489287"><ele>33.2</ele><time>2026-04-30T07:45:24Z</time></trkpt><trkpt lat="14.551547642678068" lon="121.02736754307712"><ele>34.0</ele><time>2026-04-30T07:45:27Z</time></trkpt><trkpt lat="14.551614887114342" lon="121.02736769309945"><ele>33.99999999999999</ele><time>2026-04-30T07:45:29Z</time></trkpt><trkpt lat="14.551673179088343" lon="121.0274074039663"><ele>34.0</ele><time>2026-04-30T07:45:34Z</time></trkpt><trkpt lat="14.551728430160262" lon="121.02747322036126"><ele>34.0</ele><time>2026-04-30T07:45:37Z</time></trkpt><trkpt lat="14.551776197019063" lon="121.02752912787372"><ele>34.0</ele><time>2026-04-30T07:45:40Z</time></trkpt><trkpt lat="14.551839640456906" lon="121.02757079111805"><ele>34.0</ele><time>2026-04-30T07:45:44Z</time></trkpt><trkpt lat="14.55188065840986" lon="121.0275070314655"><ele>33.99999999999999</ele><time>2026-04-30T07:45:48Z</time></trkpt><trkpt lat="14.551933330111853" lon="121.02746712849427"><ele>34.0</ele><time>2026-04-30T07:45:53Z</time></trkpt><trkpt lat="14.551989826244531" lon="121.02741812254853"><ele>34.0</ele><time>2026-04-30T07:46:04Z</time></trkpt><trkpt lat="14.551931841392749" lon="121.0274686210076"><ele>34.0</ele><time>2026-04-30T07:46:19Z</time></trkpt><trkpt lat="14.551909399488716" lon="121.02753235545293"><ele>34.0</ele><time>2026-04-30T07:46:29Z</time></trkpt><trkpt lat="14.55194432226314" lon="121.02759884940384"><ele>34.0</ele><time>2026-04-30T07:46:38Z</time></trkpt><trkpt lat="14.551624520036368" lon="121.02673385541213"><ele>34.0</ele><time>2026-04-30T07:49:59.001Z</time></trkpt><trkpt lat="14.551684385452102" lon="121.02685181914495"><ele>34.0</ele><time>2026-04-30T07:50:00.001Z</time></trkpt><trkpt lat="14.551652060262676" lon="121.02691789170841"><ele>34.0</ele><time>2026-04-30T07:50:01.001Z</time></trkpt><trkpt lat="14.55179164358856" lon="121.026905368966"><ele>34.0</ele><time>2026-04-30T07:50:08Z</time></trkpt><trkpt lat="14.551756168682923" lon="121.02684602628159"><ele>34.0</ele><time>2026-04-30T07:50:15Z</time></trkpt><trkpt lat="14.551709589813647" lon="121.0267893728825"><ele>34.0</ele><time>2026-04-30T07:50:21Z</time></trkpt><trkpt lat="14.551748471012703" lon="121.02673400428793"><ele>34.0</ele><time>2026-04-30T07:50:26Z</time></trkpt><trkpt lat="14.552121546540793" lon="121.02605721499935"><ele>31.75</ele><time>2026-04-30T08:01:44.003Z</time></trkpt><trkpt lat="14.552189496988229" lon="121.02596680769793"><ele>29.5</ele><time>2026-04-30T08:01:49.001Z</time></trkpt><trkpt lat="14.552209268398698" lon="121.0258922865012"><ele>27.25</ele><time>2026-04-30T08:01:52.062Z</time></trkpt><trkpt lat="14.55225303938481" lon="121.02583298648989"><ele>25.0</ele><time>2026-04-30T08:04:52.012Z</time></trkpt><trkpt lat="14.552636681173635" lon="121.0241069080708"><ele>25.166666666666668</ele><time>2026-04-30T09:48:04.003Z</time></trkpt><trkpt lat="14.552543150588482" lon="121.02418562834437"><ele>25.333333333333336</ele><time>2026-04-30T09:48:05.003Z</time></trkpt><trkpt lat="14.552527444575285" lon="121.02409168127974"><ele>25.5</ele><time>2026-04-30T09:48:06.003Z</time></trkpt><trkpt lat="14.552523802567103" lon="121.02402053143055"><ele>25.666666666666664</ele><time>2026-04-30T09:48:10.011Z</time></trkpt><trkpt lat="14.552536779846287" lon="121.02394110244151"><ele>25.833333333333332</ele><time>2026-04-30T09:48:15.008Z</time></trkpt><trkpt lat="14.552520897856606" lon="121.02386990891694"><ele>26.0</ele><time>2026-04-30T09:48:20.006Z</time></trkpt><trkpt lat="14.552782765528272" lon="121.0251584021519"><ele>25.999999999999996</ele><time>2026-04-30T10:46:09.986Z</time></trkpt><trkpt lat="14.552749559674151" lon="121.02526834946362"><ele>26.0</ele><time>2026-04-30T10:46:11.986Z</time></trkpt><trkpt lat="14.552744001069788" lon="121.02533418814596"><ele>26.0</ele><time>2026-04-30T10:46:12.986Z</time></trkpt><trkpt lat="14.55272741565539" lon="121.02540234610798"><ele>26.0</ele><time>2026-04-30T10:46:16.985Z</time></trkpt><trkpt lat="14.55270655603543" lon="121.02547740115352"><ele>25.999999999999996</ele><time>2026-04-30T10:46:20.989Z</time></trkpt><trkpt lat="14.552641996430696" lon="121.02549086170124"><ele>26.0</ele><time>2026-04-30T10:46:36.997Z</time></trkpt><trkpt lat="14.552614375127526" lon="121.02555392486936"><ele>26.0</ele><time>2026-04-30T10:46:41.998Z</time></trkpt><trkpt lat="14.552588243970524" lon="121.02561892287217"><ele>26.0</ele><time>2026-04-30T10:46:48.999Z</time></trkpt><trkpt lat="14.552541816067526" lon="121.02566696216931"><ele>26.0</ele><time>2026-04-30T10:46:56Z</time></trkpt><trkpt lat="14.55252460985591" lon="121.02573122297069"><ele>26.0</ele><time>2026-04-30T10:47:03Z</time></trkpt><trkpt lat="14.552483158181026" lon="121.02578313171088"><ele>26.0</ele><time>2026-04-30T10:47:10.001Z</time></trkpt><trkpt lat="14.552451929551925" lon="121.0258449543116"><ele>26.0</ele><time>2026-04-30T10:47:16.001Z</time></trkpt><trkpt lat="14.552452919298828" lon="121.0259123210861"><ele>26.0</ele><time>2026-04-30T10:47:42.001Z</time></trkpt><trkpt lat="14.552438376546286" lon="121.02598979806125"><ele>25.833333333333332</ele><time>2026-04-30T10:47:45.001Z</time></trkpt><trkpt lat="14.552366104164603" lon="121.02602715529353"><ele>25.666666666666664</ele><time>2026-04-30T10:47:51.001Z</time></trkpt><trkpt lat="14.552324254857552" lon="121.02608455816052"><ele>25.5</ele><time>2026-04-30T10:47:54.001Z</time></trkpt><trkpt lat="14.552243216564296" lon="121.02611330736214"><ele>25.333333333333336</ele><time>2026-04-30T10:47:59.001Z</time></trkpt><trkpt lat="14.552176739455156" lon="121.02611028243182"><ele>25.166666666666668</ele><time>2026-04-30T10:48:04.001Z</time></trkpt><trkpt lat="14.552103426698457" lon="121.02613966538826"><ele>25.0</ele><time>2026-04-30T10:48:06.001Z</time></trkpt><trkpt lat="14.552021525129987" lon="121.02618119408301"><ele>25.4</ele><time>2026-04-30T10:48:10.001Z</time></trkpt><trkpt lat="14.551942785331931" lon="121.02621076279146"><ele>25.8</ele><time>2026-04-30T10:48:13.001Z</time></trkpt><trkpt lat="14.55188314786622" lon="121.02625199919623"><ele>26.200000000000003</ele><time>2026-04-30T10:48:16.001Z</time></trkpt><trkpt lat="14.551822739717924" lon="121.02628738004418"><ele>26.6</ele><time>2026-04-30T10:48:19.001Z</time></trkpt><trkpt lat="14.551766940893291" lon="121.02631978486363"><ele>27.0</ele><time>2026-04-30T10:48:22.001Z</time></trkpt><trkpt lat="14.551518426805089" lon="121.02647409038806"><ele>27.0</ele><time>2026-04-30T10:48:36Z</time></trkpt><trkpt lat="14.551777202335755" lon="121.02650428305573"><ele>27.0</ele><time>2026-04-30T10:48:59Z</time></trkpt><trkpt lat="14.551815790305715" lon="121.02655805082021"><ele>27.0</ele><time>2026-04-30T10:49:01Z</time></trkpt><trkpt lat="14.551805078928185" lon="121.02663277318892"><ele>27.0</ele><time>2026-04-30T10:49:07Z</time></trkpt><trkpt lat="14.551994231831726" lon="121.02999647475461"><ele>34.0</ele><time>2026-04-30T10:54:19Z</time></trkpt><trkpt lat="14.551688766073369" lon="121.0266980176104"><ele>34.0</ele><time>2026-04-30T10:54:25Z</time></trkpt><trkpt lat="14.551746415841832" lon="121.02675586244875"><ele>34.0</ele><time>2026-04-30T10:54:27Z</time></trkpt><trkpt lat="14.550609351094176" lon="121.02817911362878"><ele>22.0</ele><time>2026-04-30T10:54:41Z</time></trkpt><trkpt lat="14.54989494390545" lon="121.02616404380528"><ele>22.0</ele><time>2026-04-30T12:32:58.968Z</time></trkpt><trkpt lat="14.550079622625487" lon="121.02614947420881"><ele>22.0</ele><time>2026-04-30T12:33:28.994Z</time></trkpt><trkpt lat="14.550064058133621" lon="121.02601648288868"><ele>22.0</ele><time>2026-04-30T12:33:32.995Z</time></trkpt><trkpt lat="14.550006656231844" lon="121.02593016467138"><ele>22.0</ele><time>2026-04-30T12:33:34.996Z</time></trkpt><trkpt lat="14.550099842431766" lon="121.02579402543697"><ele>21.333333333333332</ele><time>2026-04-30T12:33:39.997Z</time></trkpt><trkpt lat="14.550187505249786" lon="121.02572188865122"><ele>20.666666666666668</ele><time>2026-04-30T12:33:42.998Z</time></trkpt><trkpt lat="14.550030555127636" lon="121.0254228547412"><ele>20.0</ele><time>2026-04-30T12:33:45.998Z</time></trkpt><trkpt lat="14.550090466889452" lon="121.02539653414557"><ele>20.0</ele><time>2026-04-30T12:33:47.999Z</time></trkpt><trkpt lat="14.550144171836875" lon="121.02535847060655"><ele>20.0</ele><time>2026-04-30T12:33:48.999Z</time></trkpt><trkpt lat="14.550223689864612" lon="121.0252981982352"><ele>20.0</ele><time>2026-04-30T12:33:50.999Z</time></trkpt><trkpt lat="14.55028927631327" lon="121.02520630028724"><ele>20.0</ele><time>2026-04-30T12:33:53Z</time></trkpt><trkpt lat="14.550345712044788" lon="121.02510260444963"><ele>20.0</ele><time>2026-04-30T12:33:55Z</time></trkpt><trkpt lat="14.550379862619884" lon="121.02501802422722"><ele>20.0</ele><time>2026-04-30T12:33:57Z</time></trkpt><trkpt lat="14.550365852116336" lon="121.02494351249268"><ele>20.0</ele><time>2026-04-30T12:33:59Z</time></trkpt><trkpt lat="14.550439169583182" lon="121.02490334752092"><ele>20.0</ele><time>2026-04-30T12:34:15.001Z</time></trkpt><trkpt lat="14.550477126193902" lon="121.0248485878181"><ele>20.0</ele><time>2026-04-30T12:34:19.001Z</time></trkpt><trkpt lat="14.550518778492068" lon="121.02478486082366"><ele>20.0</ele><time>2026-04-30T12:34:23.001Z</time></trkpt><trkpt lat="14.550560885596294" lon="121.0246754973089"><ele>20.0</ele><time>2026-04-30T12:34:26.001Z</time></trkpt><trkpt lat="14.55059812978501" lon="121.02459239218734"><ele>20.0</ele><time>2026-04-30T12:34:28.001Z</time></trkpt><trkpt lat="14.550667796696683" lon="121.02449761850758"><ele>20.0</ele><time>2026-04-30T12:34:30.001Z</time></trkpt><trkpt lat="14.550807030719257" lon="121.0244847434276"><ele>20.0</ele><time>2026-04-30T12:34:32.001Z</time></trkpt><trkpt lat="14.550888982363597" lon="121.02441656334982"><ele>20.0</ele><time>2026-04-30T12:34:34.001Z</time></trkpt><trkpt lat="14.550967323893039" lon="121.02436154667694"><ele>20.0</ele><time>2026-04-30T12:34:36.001Z</time></trkpt><trkpt lat="14.551057879986294" lon="121.02432231194157"><ele>20.0</ele><time>2026-04-30T12:34:38.001Z</time></trkpt><trkpt lat="14.5511247049869" lon="121.02427883981343"><ele>20.0</ele><time>2026-04-30T12:34:40.001Z</time></trkpt><trkpt lat="14.55118086180176" lon="121.02420907717787"><ele>20.0</ele><time>2026-04-30T12:34:43.001Z</time></trkpt><trkpt lat="14.551217388189448" lon="121.02415104015762"><ele>20.0</ele><time>2026-04-30T12:34:46.001Z</time></trkpt><trkpt lat="14.551235626744221" lon="121.02403735513276"><ele>20.0</ele><time>2026-04-30T12:36:00Z</time></trkpt><trkpt lat="14.551263567734924" lon="121.02397013176092"><ele>20.0</ele><time>2026-04-30T12:36:03Z</time></trkpt><trkpt lat="14.55129891609939" lon="121.02390000931356"><ele>20.0</ele><time>2026-04-30T12:36:05Z</time></trkpt><trkpt lat="14.55134606920433" lon="121.02380938475402"><ele>20.0</ele><time>2026-04-30T12:36:07Z</time></trkpt><trkpt lat="14.551405579958441" lon="121.0237006046408"><ele>20.0</ele><time>2026-04-30T12:36:09Z</time></trkpt><trkpt lat="14.551431962316139" lon="121.0236406485296"><ele>20.0</ele><time>2026-04-30T12:36:10Z</time></trkpt><trkpt lat="14.551493868203272" lon="121.02352297985713"><ele>20.0</ele><time>2026-04-30T12:36:12Z</time></trkpt><trkpt lat="14.551553715656325" lon="121.02342443676658"><ele>20.0</ele><time>2026-04-30T12:36:14Z</time></trkpt><trkpt lat="14.55160711349095" lon="121.02332966392999"><ele>20.0</ele><time>2026-04-30T12:36:16Z</time></trkpt><trkpt lat="14.551645186682773" lon="121.0232496181008"><ele>20.0</ele><time>2026-04-30T12:36:18Z</time></trkpt><trkpt lat="14.5516733955527" lon="121.0231902320945"><ele>20.0</ele><time>2026-04-30T12:36:21Z</time></trkpt><trkpt lat="14.55170677736964" lon="121.0231144425779"><ele>18.6</ele><time>2026-04-30T12:36:25Z</time></trkpt><trkpt lat="14.551737479078911" lon="121.02305247780615"><ele>17.2</ele><time>2026-04-30T12:36:27Z</time></trkpt><trkpt lat="14.551782738721013" lon="121.02297544100031"><ele>15.8</ele><time>2026-04-30T12:36:30Z</time></trkpt><trkpt lat="14.551894993978447" lon="121.02299973253818"><ele>14.4</ele><time>2026-04-30T12:36:32Z</time></trkpt><trkpt lat="14.551992808119438" lon="121.02303528154899"><ele>13.0</ele><time>2026-04-30T12:36:34Z</time></trkpt><trkpt lat="14.55210455985141" lon="121.02309326866474"><ele>12.999999999999998</ele><time>2026-04-30T12:36:36Z</time></trkpt><trkpt lat="14.552166157552508" lon="121.02312502757505"><ele>13.0</ele><time>2026-04-30T12:36:37Z</time></trkpt><trkpt lat="14.552226579929666" lon="121.02315762421257"><ele>13.0</ele><time>2026-04-30T12:36:38Z</time></trkpt><trkpt lat="14.552293858267063" lon="121.02319043059478"><ele>13.0</ele><time>2026-04-30T12:36:39Z</time></trkpt><trkpt lat="14.552358445680403" lon="121.02322380061088"><ele>12.999999999999998</ele><time>2026-04-30T12:36:40Z</time></trkpt><trkpt lat="14.552421245866283" lon="121.02325725635808"><ele>13.0</ele><time>2026-04-30T12:36:41Z</time></trkpt><trkpt lat="14.552521783581764" lon="121.02331408507071"><ele>12.499999999999998</ele><time>2026-04-30T12:36:43Z</time></trkpt><trkpt lat="14.552601938487008" lon="121.0233543951165"><ele>12.0</ele><time>2026-04-30T12:36:45Z</time></trkpt><trkpt lat="14.552664477531422" lon="121.02338816120809"><ele>11.5</ele><time>2026-04-30T12:37:07Z</time></trkpt><trkpt lat="14.55271770136334" lon="121.02342360889931"><ele>11.0</ele><time>2026-04-30T12:37:10Z</time></trkpt><trkpt lat="14.552780314094779" lon="121.02346167160377"><ele>10.5</ele><time>2026-04-30T12:37:12Z</time></trkpt><trkpt lat="14.552864040253137" lon="121.02350610743797"><ele>10.0</ele><time>2026-04-30T12:37:14Z</time></trkpt><trkpt lat="14.552962520449919" lon="121.02355803635845"><ele>10.0</ele><time>2026-04-30T12:37:16Z</time></trkpt><trkpt lat="14.55301923532487" lon="121.02358836258496"><ele>10.0</ele><time>2026-04-30T12:37:17Z</time></trkpt><trkpt lat="14.55308237447049" lon="121.02362056583733"><ele>10.0</ele><time>2026-04-30T12:37:18Z</time></trkpt><trkpt lat="14.553150191871547" lon="121.02365498586012"><ele>10.0</ele><time>2026-04-30T12:37:19Z</time></trkpt><trkpt lat="14.553218500015559" lon="121.02368951156357"><ele>10.0</ele><time>2026-04-30T12:37:20Z</time></trkpt><trkpt lat="14.55328974947312" lon="121.02372634798691"><ele>10.0</ele><time>2026-04-30T12:37:21Z</time></trkpt><trkpt lat="14.553361322085255" lon="121.02376392375187"><ele>10.0</ele><time>2026-04-30T12:37:22Z</time></trkpt><trkpt lat="14.553431661486657" lon="121.02380095612119"><ele>10.0</ele><time>2026-04-30T12:37:23Z</time></trkpt><trkpt lat="14.553498372759524" lon="121.02383708785037"><ele>10.0</ele><time>2026-04-30T12:37:24Z</time></trkpt><trkpt lat="14.553560721780414" lon="121.02386952505107"><ele>10.0</ele><time>2026-04-30T12:37:25Z</time></trkpt><trkpt lat="14.553619088047224" lon="121.02390046093738"><ele>10.0</ele><time>2026-04-30T12:37:26Z</time></trkpt><trkpt lat="14.553676321149188" lon="121.02393020064068"><ele>10.0</ele><time>2026-04-30T12:37:27Z</time></trkpt><trkpt lat="14.553788728434593" lon="121.0239841832894"><ele>10.0</ele><time>2026-04-30T12:37:29Z</time></trkpt><trkpt lat="14.553847226365843" lon="121.02401121441413"><ele>13.0</ele><time>2026-04-30T12:37:30Z</time></trkpt><trkpt lat="14.55390788193128" lon="121.02403918689089"><ele>16.0</ele><time>2026-04-30T12:37:31Z</time></trkpt><trkpt lat="14.553965964100337" lon="121.02406773447504"><ele>19.0</ele><time>2026-04-30T12:37:32Z</time></trkpt><trkpt lat="14.554021717779754" lon="121.02409814351658"><ele>22.0</ele><time>2026-04-30T12:37:33Z</time></trkpt><trkpt lat="14.554117309602725" lon="121.02414129162767"><ele>25.000000000000004</ele><time>2026-04-30T12:37:35Z</time></trkpt><trkpt lat="14.554178762031448" lon="121.0241763579194"><ele>28.0</ele><time>2026-04-30T12:37:38Z</time></trkpt><trkpt lat="14.554243222991476" lon="121.024189591762"><ele>31.0</ele><time>2026-04-30T12:39:48Z</time></trkpt><trkpt lat="14.554308672531958" lon="121.0242431027599"><ele>31.0</ele><time>2026-04-30T12:39:51Z</time></trkpt><trkpt lat="14.554375547429109" lon="121.02428298015656"><ele>31.000000000000004</ele><time>2026-04-30T12:39:53Z</time></trkpt><trkpt lat="14.554439213539247" lon="121.0243178401818"><ele>31.0</ele><time>2026-04-30T12:39:55Z</time></trkpt><trkpt lat="14.554498901979365" lon="121.02435193845409"><ele>31.0</ele><time>2026-04-30T12:39:57Z</time></trkpt><trkpt lat="14.554562320246879" lon="121.02438010430308"><ele>31.000000000000004</ele><time>2026-04-30T12:39:59Z</time></trkpt><trkpt lat="14.554641601281856" lon="121.02439269984194"><ele>31.0</ele><time>2026-04-30T12:40:01Z</time></trkpt><trkpt lat="14.554695977877326" lon="121.02442687911443"><ele>31.0</ele><time>2026-04-30T12:40:03Z</time></trkpt><trkpt lat="14.554789818397662" lon="121.02431570221202"><ele>30.833333333333336</ele><time>2026-04-30T12:40:05Z</time></trkpt><trkpt lat="14.554854957257827" lon="121.02421774949714"><ele>30.666666666666668</ele><time>2026-04-30T12:40:07Z</time></trkpt><trkpt lat="14.554895096847556" lon="121.02415836703139"><ele>30.5</ele><time>2026-04-30T12:40:08Z</time></trkpt><trkpt lat="14.554935820068842" lon="121.02409546619378"><ele>30.333333333333336</ele><time>2026-04-30T12:40:09Z</time></trkpt><trkpt lat="14.554981355199082" lon="121.02402477586254"><ele>30.166666666666668</ele><time>2026-04-30T12:40:10Z</time></trkpt><trkpt lat="14.555030658159822" lon="121.02395273878523"><ele>30.0</ele><time>2026-04-30T12:40:11Z</time></trkpt><trkpt lat="14.555083613927819" lon="121.02387847395501"><ele>30.0</ele><time>2026-04-30T12:40:12Z</time></trkpt><trkpt lat="14.555136415491985" lon="121.0238022921785"><ele>30.0</ele><time>2026-04-30T12:40:13Z</time></trkpt><trkpt lat="14.555186730557857" lon="121.02372837783001"><ele>30.0</ele><time>2026-04-30T12:40:14Z</time></trkpt><trkpt lat="14.555236690786531" lon="121.02365662516105"><ele>30.0</ele><time>2026-04-30T12:40:15Z</time></trkpt><trkpt lat="14.555287015055946" lon="121.02358116872985"><ele>30.0</ele><time>2026-04-30T12:40:16Z</time></trkpt><trkpt lat="14.555336136571466" lon="121.02350340093733"><ele>30.0</ele><time>2026-04-30T12:40:17Z</time></trkpt><trkpt lat="14.55538614074966" lon="121.02342425843122"><ele>30.0</ele><time>2026-04-30T12:40:18Z</time></trkpt><trkpt lat="14.555439302765576" lon="121.02334309173722"><ele>30.0</ele><time>2026-04-30T12:40:19Z</time></trkpt><trkpt lat="14.555488254087354" lon="121.02326328039734"><ele>30.0</ele><time>2026-04-30T12:40:20Z</time></trkpt><trkpt lat="14.555540611181414" lon="121.0231828275346"><ele>30.0</ele><time>2026-04-30T12:40:21Z</time></trkpt><trkpt lat="14.555591197721853" lon="121.02310624296942"><ele>30.0</ele><time>2026-04-30T12:40:22Z</time></trkpt><trkpt lat="14.55563858349605" lon="121.0230296806301"><ele>30.0</ele><time>2026-04-30T12:40:23Z</time></trkpt><trkpt lat="14.555686302705857" lon="121.02295345023126"><ele>30.0</ele><time>2026-04-30T12:40:24Z</time></trkpt><trkpt lat="14.555736361029302" lon="121.02287454966648"><ele>30.0</ele><time>2026-04-30T12:40:25Z</time></trkpt><trkpt lat="14.555788113172536" lon="121.0227955281947"><ele>30.0</ele><time>2026-04-30T12:40:26Z</time></trkpt><trkpt lat="14.555841003523774" lon="121.02271530323475"><ele>30.0</ele><time>2026-04-30T12:40:27Z</time></trkpt><trkpt lat="14.555895495617477" lon="121.0226327780088"><ele>30.0</ele><time>2026-04-30T12:40:28Z</time></trkpt><trkpt lat="14.555950385319026" lon="121.02254836327911"><ele>30.0</ele><time>2026-04-30T12:40:29Z</time></trkpt><trkpt lat="14.556005175079617" lon="121.02246149740063"><ele>30.0</ele><time>2026-04-30T12:40:30Z</time></trkpt><trkpt lat="14.556060459445433" lon="121.02237289335595"><ele>30.0</ele><time>2026-04-30T12:40:31Z</time></trkpt><trkpt lat="14.556117474231327" lon="121.02228574494148"><ele>30.0</ele><time>2026-04-30T12:40:32Z</time></trkpt><trkpt lat="14.55617308186597" lon="121.02219804752778"><ele>36.6</ele><time>2026-04-30T12:40:33Z</time></trkpt><trkpt lat="14.556228923119445" lon="121.02210954794214"><ele>43.2</ele><time>2026-04-30T12:40:34Z</time></trkpt><trkpt lat="14.556290830447809" lon="121.02202139699367"><ele>49.8</ele><time>2026-04-30T12:40:35Z</time></trkpt><trkpt lat="14.556354189277712" lon="121.02193236836982"><ele>56.4</ele><time>2026-04-30T12:40:36Z</time></trkpt><trkpt lat="14.556416333507299" lon="121.02184771033752"><ele>63.0</ele><time>2026-04-30T12:40:37Z</time></trkpt><trkpt lat="14.55647525679025" lon="121.02176361562265"><ele>63.0</ele><time>2026-04-30T12:40:38Z</time></trkpt><trkpt lat="14.556531771232809" lon="121.02167955072625"><ele>63.0</ele><time>2026-04-30T12:40:39Z</time></trkpt><trkpt lat="14.556589420788766" lon="121.02159862036659"><ele>63.0</ele><time>2026-04-30T12:40:40Z</time></trkpt><trkpt lat="14.556641983721496" lon="121.02151854472625"><ele>63.0</ele><time>2026-04-30T12:40:41Z</time></trkpt><trkpt lat="14.556690090805585" lon="121.02143892690003"><ele>63.0</ele><time>2026-04-30T12:40:42Z</time></trkpt><trkpt lat="14.556733383788458" lon="121.02136729830421"><ele>57.0</ele><time>2026-04-30T12:40:43Z</time></trkpt><trkpt lat="14.55678316797904" lon="121.02130518582432"><ele>51.0</ele><time>2026-04-30T12:40:44Z</time></trkpt><trkpt lat="14.556826407138105" lon="121.02124134526424"><ele>45.0</ele><time>2026-04-30T12:40:45Z</time></trkpt><trkpt lat="14.556869101963406" lon="121.02117707223053"><ele>39.0</ele><time>2026-04-30T12:40:46Z</time></trkpt><trkpt lat="14.556911965625332" lon="121.02110925875948"><ele>33.0</ele><time>2026-04-30T12:40:47Z</time></trkpt><trkpt lat="14.556953017412946" lon="121.02104276961292"><ele>27.0</ele><time>2026-04-30T12:40:48Z</time></trkpt><trkpt lat="14.556993809448976" lon="121.02097505991398"><ele>27.0</ele><time>2026-04-30T12:40:49Z</time></trkpt><trkpt lat="14.557033989511087" lon="121.02090717106695"><ele>27.0</ele><time>2026-04-30T12:40:50Z</time></trkpt><trkpt lat="14.557072725312459" lon="121.0208437145269"><ele>27.0</ele><time>2026-04-30T12:40:51Z</time></trkpt><trkpt lat="14.557112017606835" lon="121.02078595094507"><ele>27.0</ele><time>2026-04-30T12:40:52Z</time></trkpt><trkpt lat="14.557155287113055" lon="121.02073197134341"><ele>27.0</ele><time>2026-04-30T12:40:53Z</time></trkpt><trkpt lat="14.55719479995991" lon="121.02067112233132"><ele>27.0</ele><time>2026-04-30T12:40:54Z</time></trkpt><trkpt lat="14.557233990459894" lon="121.020609407293"><ele>27.0</ele><time>2026-04-30T12:40:55Z</time></trkpt><trkpt lat="14.557273519219992" lon="121.02054726910868"><ele>28.0</ele><time>2026-04-30T12:40:56Z</time></trkpt><trkpt lat="14.557313052980925" lon="121.0204837231188"><ele>29.0</ele><time>2026-04-30T12:40:57Z</time></trkpt><trkpt lat="14.557350522007503" lon="121.02042199892047"><ele>30.0</ele><time>2026-04-30T12:40:58Z</time></trkpt><trkpt lat="14.55738969505155" lon="121.02036282177835"><ele>31.0</ele><time>2026-04-30T12:40:59Z</time></trkpt><trkpt lat="14.55745142400702" lon="121.02027326362973"><ele>32.0</ele><time>2026-04-30T12:41:01Z</time></trkpt><trkpt lat="14.557489600626015" lon="121.02021368838568"><ele>33.0</ele><time>2026-04-30T12:41:03Z</time></trkpt><trkpt lat="14.557530972480976" lon="121.02014988891978"><ele>33.0</ele><time>2026-04-30T12:41:39Z</time></trkpt><trkpt lat="14.557566284847873" lon="121.02009569669656"><ele>33.0</ele><time>2026-04-30T12:41:41Z</time></trkpt><trkpt lat="14.557620095977631" lon="121.02001646971573"><ele>33.0</ele><time>2026-04-30T12:41:43Z</time></trkpt><trkpt lat="14.557683595001341" lon="121.01991742567753"><ele>33.0</ele><time>2026-04-30T12:41:45Z</time></trkpt><trkpt lat="14.557750906263696" lon="121.01981476602141"><ele>33.0</ele><time>2026-04-30T12:41:47Z</time></trkpt><trkpt lat="14.557815255642954" lon="121.01971402971878"><ele>34.666666666666664</ele><time>2026-04-30T12:41:49Z</time></trkpt><trkpt lat="14.557868993793297" lon="121.01963206108302"><ele>36.333333333333336</ele><time>2026-04-30T12:41:51Z</time></trkpt><trkpt lat="14.55790659191566" lon="121.01957458534527"><ele>38.0</ele><time>2026-04-30T12:41:53Z</time></trkpt><trkpt lat="14.557940027087357" lon="121.0195166584901"><ele>39.66666666666667</ele><time>2026-04-30T12:42:03Z</time></trkpt><trkpt lat="14.557979493302504" lon="121.01944767370479"><ele>41.333333333333336</ele><time>2026-04-30T12:42:20Z</time></trkpt><trkpt lat="14.5580272921245" lon="121.01938400272294"><ele>43.0</ele><time>2026-04-30T12:42:23Z</time></trkpt><trkpt lat="14.558069796562187" lon="121.0193218202143"><ele>43.0</ele><time>2026-04-30T12:42:25Z</time></trkpt><trkpt lat="14.558109964288018" lon="121.01926689318151"><ele>43.0</ele><time>2026-04-30T12:42:27Z</time></trkpt><trkpt lat="14.558148002007197" lon="121.01921037812082"><ele>43.0</ele><time>2026-04-30T12:42:29Z</time></trkpt><trkpt lat="14.55819265746848" lon="121.019142173606"><ele>43.0</ele><time>2026-04-30T12:42:31Z</time></trkpt><trkpt lat="14.558247936614409" lon="121.01905948842354"><ele>43.0</ele><time>2026-04-30T12:42:33Z</time></trkpt><trkpt lat="14.558309585552298" lon="121.01895860674824"><ele>43.0</ele><time>2026-04-30T12:42:35Z</time></trkpt><trkpt lat="14.5583732630224" lon="121.01885595305284"><ele>43.00000000000001</ele><time>2026-04-30T12:42:37Z</time></trkpt><trkpt lat="14.55841025581661" lon="121.01879982659892"><ele>43.0</ele><time>2026-04-30T12:42:38Z</time></trkpt><trkpt lat="14.5584482561342" lon="121.018743234301"><ele>43.0</ele><time>2026-04-30T12:42:39Z</time></trkpt><trkpt lat="14.558484381190594" lon="121.01868923849067"><ele>43.0</ele><time>2026-04-30T12:42:40Z</time></trkpt><trkpt lat="14.558524816152351" lon="121.01863005730897"><ele>43.0</ele><time>2026-04-30T12:42:41Z</time></trkpt><trkpt lat="14.558563254242106" lon="121.01856632255092"><ele>43.00000000000001</ele><time>2026-04-30T12:42:42Z</time></trkpt><trkpt lat="14.558603047067503" lon="121.01850117361458"><ele>43.0</ele><time>2026-04-30T12:42:43Z</time></trkpt><trkpt lat="14.558642507289553" lon="121.01843704052544"><ele>43.0</ele><time>2026-04-30T12:42:44Z</time></trkpt><trkpt lat="14.55868266292186" lon="121.01837427318358"><ele>43.0</ele><time>2026-04-30T12:42:45Z</time></trkpt><trkpt lat="14.558722950642183" lon="121.01831062850904"><ele>43.0</ele><time>2026-04-30T12:42:46Z</time></trkpt><trkpt lat="14.558765259236766" lon="121.01824390571943"><ele>43.0</ele><time>2026-04-30T12:42:47Z</time></trkpt><trkpt lat="14.55880934077129" lon="121.01817550287652"><ele>43.0</ele><time>2026-04-30T12:42:48Z</time></trkpt><trkpt lat="14.55885848000789" lon="121.01811075472668"><ele>43.0</ele><time>2026-04-30T12:42:49Z</time></trkpt><trkpt lat="14.558898055951934" lon="121.0180390094614"><ele>45.0</ele><time>2026-04-30T12:42:50Z</time></trkpt><trkpt lat="14.558944825392661" lon="121.0179698388114"><ele>47.0</ele><time>2026-04-30T12:42:51Z</time></trkpt><trkpt lat="14.558990173957177" lon="121.01789747586503"><ele>49.0</ele><time>2026-04-30T12:42:52Z</time></trkpt><trkpt lat="14.559038757834356" lon="121.01782474135724"><ele>51.0</ele><time>2026-04-30T12:42:53Z</time></trkpt><trkpt lat="14.559088568768153" lon="121.01775025138406"><ele>52.99999999999999</ele><time>2026-04-30T12:42:54Z</time></trkpt><trkpt lat="14.559140114223673" lon="121.01767237678885"><ele>55.0</ele><time>2026-04-30T12:42:55Z</time></trkpt><trkpt lat="14.559193661205065" lon="121.01758985309638"><ele>55.0</ele><time>2026-04-30T12:42:56Z</time></trkpt><trkpt lat="14.559255411146992" lon="121.01750729607286"><ele>55.0</ele><time>2026-04-30T12:42:57Z</time></trkpt><trkpt lat="14.55931398806989" lon="121.01741966288053"><ele>55.0</ele><time>2026-04-30T12:42:58Z</time></trkpt><trkpt lat="14.55937247076238" lon="121.01732931469925"><ele>55.0</ele><time>2026-04-30T12:42:59Z</time></trkpt><trkpt lat="14.559433556913504" lon="121.01723635718018"><ele>55.0</ele><time>2026-04-30T12:43:00Z</time></trkpt><trkpt lat="14.559494538635047" lon="121.01714266702791"><ele>51.8</ele><time>2026-04-30T12:43:01Z</time></trkpt><trkpt lat="14.559549482334408" lon="121.01705029327218"><ele>48.6</ele><time>2026-04-30T12:43:02Z</time></trkpt><trkpt lat="14.559603792037699" lon="121.01696314974805"><ele>45.4</ele><time>2026-04-30T12:43:03Z</time></trkpt><trkpt lat="14.559648550363924" lon="121.0168800335554"><ele>42.2</ele><time>2026-04-30T12:43:04Z</time></trkpt><trkpt lat="14.559692715711972" lon="121.01680731866588"><ele>39.0</ele><time>2026-04-30T12:43:05Z</time></trkpt><trkpt lat="14.559731672714706" lon="121.01674671088311"><ele>39.0</ele><time>2026-04-30T12:43:06Z</time></trkpt><trkpt lat="14.55979836914358" lon="121.01666314883903"><ele>39.0</ele><time>2026-04-30T12:43:08Z</time></trkpt><trkpt lat="14.55983997103044" lon="121.01660572117521"><ele>39.0</ele><time>2026-04-30T12:43:10Z</time></trkpt><trkpt lat="14.559888673359112" lon="121.01655165822064"><ele>39.0</ele><time>2026-04-30T12:43:14Z</time></trkpt><trkpt lat="14.559923753655587" lon="121.01647587114404"><ele>39.0</ele><time>2026-04-30T12:44:15Z</time></trkpt><trkpt lat="14.559974979851981" lon="121.01641082520185"><ele>39.0</ele><time>2026-04-30T12:44:17Z</time></trkpt><trkpt lat="14.560052074133889" lon="121.01632736221376"><ele>38.0</ele><time>2026-04-30T12:44:19Z</time></trkpt><trkpt lat="14.560099951416225" lon="121.0162773815063"><ele>37.0</ele><time>2026-04-30T12:44:20Z</time></trkpt><trkpt lat="14.560153367717811" lon="121.01622686996073"><ele>36.0</ele><time>2026-04-30T12:44:21Z</time></trkpt><trkpt lat="14.56021165035216" lon="121.01616917714246"><ele>35.0</ele><time>2026-04-30T12:44:22Z</time></trkpt><trkpt lat="14.560275404314051" lon="121.01611404716364"><ele>34.0</ele><time>2026-04-30T12:44:23Z</time></trkpt><trkpt lat="14.560338454821233" lon="121.01605587137675"><ele>33.0</ele><time>2026-04-30T12:44:24Z</time></trkpt><trkpt lat="14.560400648884478" lon="121.01600115360371"><ele>33.0</ele><time>2026-04-30T12:44:25Z</time></trkpt><trkpt lat="14.560466168259767" lon="121.01594854375156"><ele>33.0</ele><time>2026-04-30T12:44:26Z</time></trkpt><trkpt lat="14.560529633575436" lon="121.0159016181849"><ele>33.0</ele><time>2026-04-30T12:44:27Z</time></trkpt><trkpt lat="14.560586177280806" lon="121.01585656203966"><ele>33.0</ele><time>2026-04-30T12:44:28Z</time></trkpt><trkpt lat="14.560636993053354" lon="121.01581707827542"><ele>33.0</ele><time>2026-04-30T12:44:29Z</time></trkpt><trkpt lat="14.560729741488704" lon="121.01574991035278"><ele>33.0</ele><time>2026-04-30T12:44:31Z</time></trkpt><trkpt lat="14.560806050286768" lon="121.01570338583338"><ele>30.857142857142858</ele><time>2026-04-30T12:44:33Z</time></trkpt><trkpt lat="14.560878212461574" lon="121.01568630038015"><ele>28.714285714285715</ele><time>2026-04-30T12:44:35Z</time></trkpt><trkpt lat="14.560942723793538" lon="121.01565800547627"><ele>26.571428571428573</ele><time>2026-04-30T12:44:37Z</time></trkpt><trkpt lat="14.561013223870356" lon="121.01563594111073"><ele>24.42857142857143</ele><time>2026-04-30T12:44:39Z</time></trkpt><trkpt lat="14.561080913358008" lon="121.01561319732852"><ele>22.285714285714285</ele><time>2026-04-30T12:44:41Z</time></trkpt><trkpt lat="14.56115112358252" lon="121.01559739866921"><ele>20.142857142857146</ele><time>2026-04-30T12:44:43Z</time></trkpt><trkpt lat="14.561223898139486" lon="121.01558083088038"><ele>18.0</ele><time>2026-04-30T12:44:45Z</time></trkpt><trkpt lat="14.561290878468675" lon="121.0155638253091"><ele>18.0</ele><time>2026-04-30T12:44:47Z</time></trkpt><trkpt lat="14.561357744940038" lon="121.01555351696256"><ele>18.0</ele><time>2026-04-30T12:44:49Z</time></trkpt><trkpt lat="14.561439460466255" lon="121.01554019670466"><ele>18.0</ele><time>2026-04-30T12:44:51Z</time></trkpt><trkpt lat="14.561526508232548" lon="121.01552276158922"><ele>18.0</ele><time>2026-04-30T12:44:53Z</time></trkpt><trkpt lat="14.561621459631633" lon="121.01550700377193"><ele>18.0</ele><time>2026-04-30T12:44:55Z</time></trkpt><trkpt lat="14.561721953950679" lon="121.01549453386157"><ele>18.0</ele><time>2026-04-30T12:44:57Z</time></trkpt><trkpt lat="14.561816976425904" lon="121.0154824230059"><ele>18.0</ele><time>2026-04-30T12:44:59Z</time></trkpt><trkpt lat="14.561924821946112" lon="121.0154756701516"><ele>18.0</ele><time>2026-04-30T12:45:01Z</time></trkpt><trkpt lat="14.562034408021931" lon="121.01547174655603"><ele>18.0</ele><time>2026-04-30T12:45:03Z</time></trkpt><trkpt lat="14.562135771701762" lon="121.01548562973366"><ele>18.0</ele><time>2026-04-30T12:45:05Z</time></trkpt><trkpt lat="14.562238629541707" lon="121.01549542864736"><ele>18.0</ele><time>2026-04-30T12:45:07Z</time></trkpt><trkpt lat="14.562320388936099" lon="121.01550372616954"><ele>16.571428571428573</ele><time>2026-04-30T12:45:09Z</time></trkpt><trkpt lat="14.562387285810011" lon="121.01553201739567"><ele>15.142857142857142</ele><time>2026-04-30T12:45:11Z</time></trkpt><trkpt lat="14.56244826375934" lon="121.01555685126738"><ele>13.714285714285715</ele><time>2026-04-30T12:45:13Z</time></trkpt><trkpt lat="14.562521965767266" lon="121.01558194240317"><ele>12.285714285714286</ele><time>2026-04-30T12:45:17Z</time></trkpt><trkpt lat="14.562582913312578" lon="121.01560756992977"><ele>10.857142857142858</ele><time>2026-04-30T12:45:20Z</time></trkpt><trkpt lat="14.56266267088886" lon="121.01564533857578"><ele>9.428571428571429</ele><time>2026-04-30T12:45:24Z</time></trkpt><trkpt lat="14.562731246437345" lon="121.01567170769434"><ele>8.0</ele><time>2026-04-30T12:45:27Z</time></trkpt><trkpt lat="14.562791170082512" lon="121.01569293417903"><ele>8.0</ele><time>2026-04-30T12:45:29Z</time></trkpt><trkpt lat="14.56285605901168" lon="121.01568653840417"><ele>8.0</ele><time>2026-04-30T12:45:33Z</time></trkpt><trkpt lat="14.562932466114368" lon="121.0155600190257"><ele>8.0</ele><time>2026-04-30T12:45:34Z</time></trkpt><trkpt lat="14.562952761931568" lon="121.01543852932463"><ele>8.0</ele><time>2026-04-30T12:45:36Z</time></trkpt><trkpt lat="14.562972099286528" lon="121.01533510968012"><ele>8.0</ele><time>2026-04-30T12:45:38Z</time></trkpt><trkpt lat="14.562992244244159" lon="121.01522737168212"><ele>8.333333333333332</ele><time>2026-04-30T12:45:40Z</time></trkpt><trkpt lat="14.562974368045046" lon="121.01516275499061"><ele>8.666666666666666</ele><time>2026-04-30T12:45:41Z</time></trkpt><trkpt lat="14.562969236173313" lon="121.01504341938606"><ele>9.0</ele><time>2026-04-30T12:45:43Z</time></trkpt><trkpt lat="14.562967196702393" lon="121.01497815710952"><ele>9.333333333333334</ele><time>2026-04-30T12:45:44Z</time></trkpt><trkpt lat="14.56293671566432" lon="121.01490462257188"><ele>9.666666666666668</ele><time>2026-04-30T12:45:45Z</time></trkpt><trkpt lat="14.562923535116509" lon="121.01483198763827"><ele>10.0</ele><time>2026-04-30T12:45:46Z</time></trkpt><trkpt lat="14.562925206317106" lon="121.0147520620621"><ele>10.0</ele><time>2026-04-30T12:45:47Z</time></trkpt><trkpt lat="14.562900162284283" lon="121.01468079031754"><ele>10.0</ele><time>2026-04-30T12:45:48Z</time></trkpt><trkpt lat="14.562890515808489" lon="121.01460102068849"><ele>10.0</ele><time>2026-04-30T12:45:49Z</time></trkpt><trkpt lat="14.562874885332084" lon="121.01452576667472"><ele>10.0</ele><time>2026-04-30T12:45:50Z</time></trkpt><trkpt lat="14.562859943019195" lon="121.01445112318365"><ele>10.0</ele><time>2026-04-30T12:45:51Z</time></trkpt><trkpt lat="14.562845030164095" lon="121.0143853718277"><ele>10.0</ele><time>2026-04-30T12:45:52Z</time></trkpt><trkpt lat="14.562813569544392" lon="121.01425971216989"><ele>8.5</ele><time>2026-04-30T12:45:54Z</time></trkpt><trkpt lat="14.562780219001148" lon="121.01414666909984"><ele>7.0</ele><time>2026-04-30T12:45:56Z</time></trkpt><trkpt lat="14.562746145226331" lon="121.01403605680078"><ele>5.5</ele><time>2026-04-30T12:45:58Z</time></trkpt><trkpt lat="14.56271275164814" lon="121.01391500775695"><ele>4.0</ele><time>2026-04-30T12:46:00Z</time></trkpt><trkpt lat="14.562675160031942" lon="121.0137871484947"><ele>3.9999999999999996</ele><time>2026-04-30T12:46:02Z</time></trkpt><trkpt lat="14.562637469535783" lon="121.01367202838208"><ele>4.0</ele><time>2026-04-30T12:46:04Z</time></trkpt><trkpt lat="14.562605089882656" lon="121.01357648439168"><ele>4.0</ele><time>2026-04-30T12:46:06Z</time></trkpt><trkpt lat="14.562576406022679" lon="121.0134907687339"><ele>4.0</ele><time>2026-04-30T12:46:08Z</time></trkpt><trkpt lat="14.562552730137394" lon="121.01342309624586"><ele>3.9999999999999996</ele><time>2026-04-30T12:46:10Z</time></trkpt><trkpt lat="14.562523782779897" lon="121.01335156487289"><ele>4.0</ele><time>2026-04-30T12:46:12Z</time></trkpt><trkpt lat="14.562495233360933" lon="121.01325900223014"><ele>5.0</ele><time>2026-04-30T12:46:14Z</time></trkpt><trkpt lat="14.562461022747778" lon="121.0131495331975"><ele>6.0</ele><time>2026-04-30T12:46:16Z</time></trkpt><trkpt lat="14.562419449704823" lon="121.01303507090212"><ele>7.0</ele><time>2026-04-30T12:46:18Z</time></trkpt><trkpt lat="14.5623834846431" lon="121.01294242767578"><ele>8.0</ele><time>2026-04-30T12:46:20Z</time></trkpt><trkpt lat="14.562354585227187" lon="121.01286672154464"><ele>9.0</ele><time>2026-04-30T12:46:22Z</time></trkpt><trkpt lat="14.562325218020153" lon="121.01278776707298"><ele>9.0</ele><time>2026-04-30T12:46:24Z</time></trkpt><trkpt lat="14.562291406717037" lon="121.01270441783161"><ele>9.0</ele><time>2026-04-30T12:46:26Z</time></trkpt><trkpt lat="14.56225515013005" lon="121.01261332501034"><ele>9.0</ele><time>2026-04-30T12:46:28Z</time></trkpt><trkpt lat="14.562222863710977" lon="121.01253528347083"><ele>9.0</ele><time>2026-04-30T12:46:30Z</time></trkpt><trkpt lat="14.562190917417976" lon="121.01246715635354"><ele>9.0</ele><time>2026-04-30T12:46:32Z</time></trkpt><trkpt lat="14.562155082248333" lon="121.01238669058802"><ele>9.0</ele><time>2026-04-30T12:46:35Z</time></trkpt><trkpt lat="14.562122601511069" lon="121.01232102071032"><ele>9.333333333333334</ele><time>2026-04-30T12:46:40Z</time></trkpt><trkpt lat="14.562070001490188" lon="121.01224284071023"><ele>9.666666666666666</ele><time>2026-04-30T12:47:49Z</time></trkpt><trkpt lat="14.562031011686935" lon="121.01215180640817"><ele>10.0</ele><time>2026-04-30T12:47:53Z</time></trkpt><trkpt lat="14.561987341369703" lon="121.01209442219702"><ele>10.333333333333332</ele><time>2026-04-30T12:47:55Z</time></trkpt><trkpt lat="14.56195054125723" lon="121.01201213039347"><ele>10.666666666666666</ele><time>2026-04-30T12:47:57Z</time></trkpt><trkpt lat="14.561917914235805" lon="121.01193399191416"><ele>11.0</ele><time>2026-04-30T12:47:59Z</time></trkpt><trkpt lat="14.561887923847312" lon="121.01186526423254"><ele>10.333333333333332</ele><time>2026-04-30T12:48:01Z</time></trkpt><trkpt lat="14.561857588602889" lon="121.01180366042603"><ele>9.666666666666666</ele><time>2026-04-30T12:48:03Z</time></trkpt><trkpt lat="14.561817134519481" lon="121.01171783246714"><ele>9.0</ele><time>2026-04-30T12:48:06Z</time></trkpt><trkpt lat="14.561781281513504" lon="121.0116556188284"><ele>8.333333333333334</ele><time>2026-04-30T12:48:08Z</time></trkpt><trkpt lat="14.561748914107532" lon="121.01159486271948"><ele>7.666666666666667</ele><time>2026-04-30T12:48:10Z</time></trkpt><trkpt lat="14.561719785709764" lon="121.01153698043488"><ele>7.0</ele><time>2026-04-30T12:48:12Z</time></trkpt><trkpt lat="14.56166084424353" lon="121.01144150106296"><ele>8.333333333333334</ele><time>2026-04-30T12:50:26Z</time></trkpt><trkpt lat="14.56163926362163" lon="121.01136635832599"><ele>9.666666666666668</ele><time>2026-04-30T12:50:30Z</time></trkpt><trkpt lat="14.561603157726633" lon="121.01128402891638"><ele>11.0</ele><time>2026-04-30T12:50:33Z</time></trkpt><trkpt lat="14.561561041488545" lon="121.01119732122567"><ele>12.333333333333334</ele><time>2026-04-30T12:50:36Z</time></trkpt><trkpt lat="14.561530300151997" lon="121.01113530482473"><ele>13.666666666666666</ele><time>2026-04-30T12:50:38Z</time></trkpt><trkpt lat="14.561492778649171" lon="121.01106193644031"><ele>15.0</ele><time>2026-04-30T12:50:40Z</time></trkpt><trkpt lat="14.561446956113336" lon="121.01098234849746"><ele>15.0</ele><time>2026-04-30T12:50:43Z</time></trkpt><trkpt lat="14.561404695310387" lon="121.01090169141743"><ele>15.0</ele><time>2026-04-30T12:50:45Z</time></trkpt><trkpt lat="14.561356012581511" lon="121.01081091168794"><ele>15.0</ele><time>2026-04-30T12:50:47Z</time></trkpt><trkpt lat="14.561299354992604" lon="121.010699420034"><ele>15.0</ele><time>2026-04-30T12:50:49Z</time></trkpt><trkpt lat="14.561269002988913" lon="121.01063777381626"><ele>15.0</ele><time>2026-04-30T12:50:50Z</time></trkpt><trkpt lat="14.561238170220564" lon="121.01057357085362"><ele>15.0</ele><time>2026-04-30T12:50:51Z</time></trkpt><trkpt lat="14.561205449621221" lon="121.0105078405355"><ele>13.571428571428571</ele><time>2026-04-30T12:50:52Z</time></trkpt><trkpt lat="14.561171928331175" lon="121.01044052941326"><ele>12.142857142857142</ele><time>2026-04-30T12:50:53Z</time></trkpt><trkpt lat="14.561138749283577" lon="121.01037354412156"><ele>10.714285714285714</ele><time>2026-04-30T12:50:54Z</time></trkpt><trkpt lat="14.561102409555428" lon="121.01030416787574"><ele>9.285714285714286</ele><time>2026-04-30T12:50:55Z</time></trkpt><trkpt lat="14.56106675976371" lon="121.01023420132658"><ele>7.857142857142858</ele><time>2026-04-30T12:50:56Z</time></trkpt><trkpt lat="14.561030871934864" lon="121.01016729325427"><ele>6.428571428571429</ele><time>2026-04-30T12:50:57Z</time></trkpt><trkpt lat="14.560995269608394" lon="121.01009885880394"><ele>5.0</ele><time>2026-04-30T12:50:58Z</time></trkpt><trkpt lat="14.560961752892663" lon="121.01003625859201"><ele>5.428571428571429</ele><time>2026-04-30T12:50:59Z</time></trkpt><trkpt lat="14.560931289902221" lon="121.0099749504277"><ele>5.857142857142858</ele><time>2026-04-30T12:51:00Z</time></trkpt><trkpt lat="14.560904884385538" lon="121.00991558446223"><ele>6.285714285714286</ele><time>2026-04-30T12:51:01Z</time></trkpt><trkpt lat="14.560876139543206" lon="121.0098544835616"><ele>6.7142857142857135</ele><time>2026-04-30T12:51:02Z</time></trkpt><trkpt lat="14.560847118341924" lon="121.00979645995636"><ele>7.142857142857142</ele><time>2026-04-30T12:51:03Z</time></trkpt><trkpt lat="14.560803907001885" lon="121.00971069862635"><ele>7.571428571428571</ele><time>2026-04-30T12:51:05Z</time></trkpt><trkpt lat="14.560774749107608" lon="121.00964912784595"><ele>8.0</ele><time>2026-04-30T12:51:07Z</time></trkpt><trkpt lat="14.56074261823562" lon="121.0095858984041"><ele>7.999999999999999</ele><time>2026-04-30T12:51:14Z</time></trkpt><trkpt lat="14.560708424811986" lon="121.00951079125903"><ele>8.0</ele><time>2026-04-30T12:51:18Z</time></trkpt><trkpt lat="14.56067706757845" lon="121.00944341411963"><ele>8.0</ele><time>2026-04-30T12:51:23Z</time></trkpt><trkpt lat="14.560642347905828" lon="121.00937470629104"><ele>8.0</ele><time>2026-04-30T12:51:26Z</time></trkpt><trkpt lat="14.560589368350653" lon="121.00929583583633"><ele>7.999999999999999</ele><time>2026-04-30T12:51:29Z</time></trkpt><trkpt lat="14.560547892444209" lon="121.00923757441453"><ele>8.0</ele><time>2026-04-30T12:51:31Z</time></trkpt><trkpt lat="14.560501957424243" lon="121.00915737887242"><ele>8.600000000000001</ele><time>2026-04-30T12:51:33Z</time></trkpt><trkpt lat="14.560461351673515" lon="121.00907773230121"><ele>9.200000000000001</ele><time>2026-04-30T12:51:35Z</time></trkpt><trkpt lat="14.560417099416759" lon="121.00899030194569"><ele>9.8</ele><time>2026-04-30T12:51:37Z</time></trkpt><trkpt lat="14.560389196402234" lon="121.0089040385408"><ele>10.4</ele><time>2026-04-30T12:51:39Z</time></trkpt><trkpt lat="14.560345572538974" lon="121.00881821610648"><ele>11.0</ele><time>2026-04-30T12:51:41Z</time></trkpt><trkpt lat="14.560295833174903" lon="121.00872048152269"><ele>11.0</ele><time>2026-04-30T12:51:43Z</time></trkpt><trkpt lat="14.560242000991456" lon="121.00861470481179"><ele>11.0</ele><time>2026-04-30T12:51:45Z</time></trkpt><trkpt lat="14.56021258254348" lon="121.00855688985335"><ele>11.0</ele><time>2026-04-30T12:51:46Z</time></trkpt><trkpt lat="14.560177588372875" lon="121.0085024301481"><ele>11.0</ele><time>2026-04-30T12:51:47Z</time></trkpt><trkpt lat="14.560152741551384" lon="121.00843650530693"><ele>11.0</ele><time>2026-04-30T12:51:48Z</time></trkpt><trkpt lat="14.56012454491769" lon="121.00837319322694"><ele>11.0</ele><time>2026-04-30T12:51:49Z</time></trkpt><trkpt lat="14.560093497318151" lon="121.00830839078743"><ele>11.0</ele><time>2026-04-30T12:51:50Z</time></trkpt><trkpt lat="14.560061322343572" lon="121.00823940929499"><ele>10.571428571428571</ele><time>2026-04-30T12:51:51Z</time></trkpt><trkpt lat="14.560029982303723" lon="121.00817412579825"><ele>10.142857142857142</ele><time>2026-04-30T12:51:52Z</time></trkpt><trkpt lat="14.559997978593145" lon="121.0081114745712"><ele>9.714285714285714</ele><time>2026-04-30T12:51:53Z</time></trkpt><trkpt lat="14.559962200887377" lon="121.0080409806523"><ele>9.285714285714285</ele><time>2026-04-30T12:51:54Z</time></trkpt><trkpt lat="14.559927772705237" lon="121.00797126886195"><ele>8.857142857142856</ele><time>2026-04-30T12:51:55Z</time></trkpt><trkpt lat="14.559890878921305" lon="121.00790288497161"><ele>8.428571428571429</ele><time>2026-04-30T12:51:56Z</time></trkpt><trkpt lat="14.559855400233648" lon="121.00783665683294"><ele>8.0</ele><time>2026-04-30T12:51:57Z</time></trkpt><trkpt lat="14.559815470259727" lon="121.00775884934633"><ele>7.999999999999999</ele><time>2026-04-30T12:51:58Z</time></trkpt><trkpt lat="14.55977582632994" lon="121.00768362830048"><ele>8.0</ele><time>2026-04-30T12:51:59Z</time></trkpt><trkpt lat="14.559738636934142" lon="121.00761495422039"><ele>8.0</ele><time>2026-04-30T12:52:00Z</time></trkpt><trkpt lat="14.559700392607295" lon="121.00754126530357"><ele>8.0</ele><time>2026-04-30T12:52:01Z</time></trkpt><trkpt lat="14.559664880049574" lon="121.00746752252392"><ele>7.999999999999999</ele><time>2026-04-30T12:52:02Z</time></trkpt><trkpt lat="14.559630208818499" lon="121.0073966010984"><ele>8.0</ele><time>2026-04-30T12:52:02.999Z</time></trkpt><trkpt lat="14.55959795673505" lon="121.00733066877977"><ele>7.833333333333333</ele><time>2026-04-30T12:52:03.999Z</time></trkpt><trkpt lat="14.559567751761705" lon="121.00727134542628"><ele>7.666666666666666</ele><time>2026-04-30T12:52:04.999Z</time></trkpt><trkpt lat="14.559515801800814" lon="121.00717021159575"><ele>7.5</ele><time>2026-04-30T12:52:07Z</time></trkpt><trkpt lat="14.559461562022205" lon="121.00710726266519"><ele>7.333333333333334</ele><time>2026-04-30T12:52:09Z</time></trkpt><trkpt lat="14.559408665727387" lon="121.00714673924497"><ele>7.166666666666667</ele><time>2026-04-30T12:52:11Z</time></trkpt><trkpt lat="14.559335827541886" lon="121.00718740430061"><ele>7.0</ele><time>2026-04-30T12:52:13Z</time></trkpt><trkpt lat="14.559268622593953" lon="121.00722492433431"><ele>7.0</ele><time>2026-04-30T12:52:15Z</time></trkpt><trkpt lat="14.559208884466864" lon="121.00725827570326"><ele>7.0</ele><time>2026-04-30T12:52:20Z</time></trkpt><trkpt lat="14.559148292617483" lon="121.00729210369862"><ele>7.0</ele><time>2026-04-30T12:52:33Z</time></trkpt><trkpt lat="14.55907023042078" lon="121.00732331154032"><ele>7.0</ele><time>2026-04-30T12:52:37Z</time></trkpt><trkpt lat="14.559002310627346" lon="121.00736459812319"><ele>7.0</ele><time>2026-04-30T12:52:40Z</time></trkpt><trkpt lat="14.558943283948052" lon="121.00740029907128"><ele>7.0</ele><time>2026-04-30T12:52:43Z</time></trkpt><trkpt lat="14.558888737506214" lon="121.00743454611074"><ele>7.0</ele><time>2026-04-30T12:52:48Z</time></trkpt><trkpt lat="14.558817158253792" lon="121.00747620149689"><ele>7.142857142857142</ele><time>2026-04-30T12:52:53Z</time></trkpt><trkpt lat="14.558757892434226" lon="121.00751732561784"><ele>7.285714285714286</ele><time>2026-04-30T12:52:56Z</time></trkpt><trkpt lat="14.558700305843026" lon="121.00755868360129"><ele>7.428571428571429</ele><time>2026-04-30T12:52:59Z</time></trkpt><trkpt lat="14.55863894092137" lon="121.00759790607876"><ele>7.571428571428571</ele><time>2026-04-30T12:53:04Z</time></trkpt><trkpt lat="14.558575072772236" lon="121.00761684975097"><ele>7.7142857142857135</ele><time>2026-04-30T12:53:08Z</time></trkpt><trkpt lat="14.558500400726514" lon="121.0075765593834"><ele>7.857142857142857</ele><time>2026-04-30T12:53:12Z</time></trkpt><trkpt lat="14.558479686136776" lon="121.0075013977909"><ele>8.0</ele><time>2026-04-30T12:53:15Z</time></trkpt><trkpt lat="14.558479287849197" lon="121.00742405438072"><ele>8.200000000000001</ele><time>2026-04-30T12:55:07Z</time></trkpt><trkpt lat="14.558453987863503" lon="121.00733040080608"><ele>8.4</ele><time>2026-04-30T12:55:10Z</time></trkpt><trkpt lat="14.558423497879131" lon="121.00724211317181"><ele>8.600000000000001</ele><time>2026-04-30T12:55:12Z</time></trkpt><trkpt lat="14.558407464595419" lon="121.00713498299231"><ele>8.8</ele><time>2026-04-30T12:55:14Z</time></trkpt><trkpt lat="14.558368287659455" lon="121.00704437205755"><ele>9.0</ele><time>2026-04-30T12:55:16Z</time></trkpt><trkpt lat="14.558307734860907" lon="121.00692227486498"><ele>9.0</ele><time>2026-04-30T12:55:18Z</time></trkpt><trkpt lat="14.558251146561425" lon="121.00681222090535"><ele>9.0</ele><time>2026-04-30T12:55:20Z</time></trkpt><trkpt lat="14.558219144839164" lon="121.00675028605934"><ele>9.0</ele><time>2026-04-30T12:55:21Z</time></trkpt><trkpt lat="14.558184317394845" lon="121.00668288243503"><ele>9.0</ele><time>2026-04-30T12:55:22Z</time></trkpt><trkpt lat="14.558148853493107" lon="121.00661424702481"><ele>9.0</ele><time>2026-04-30T12:55:23Z</time></trkpt><trkpt lat="14.558109488686089" lon="121.00653806195638"><ele>9.0</ele><time>2026-04-30T12:55:24Z</time></trkpt><trkpt lat="14.55806983134484" lon="121.00646131074656"><ele>9.0</ele><time>2026-04-30T12:55:25Z</time></trkpt><trkpt lat="14.55802903323641" lon="121.00638235173923"><ele>9.0</ele><time>2026-04-30T12:55:26Z</time></trkpt><trkpt lat="14.557988287760438" lon="121.00630309578655"><ele>9.0</ele><time>2026-04-30T12:55:27Z</time></trkpt><trkpt lat="14.55794855782485" lon="121.00622581402322"><ele>9.0</ele><time>2026-04-30T12:55:28Z</time></trkpt><trkpt lat="14.557909453819601" lon="121.00614974981305"><ele>9.0</ele><time>2026-04-30T12:55:29Z</time></trkpt><trkpt lat="14.55787058916933" lon="121.00607415119336"><ele>9.0</ele><time>2026-04-30T12:55:30Z</time></trkpt><trkpt lat="14.55783251394479" lon="121.00600008812718"><ele>9.0</ele><time>2026-04-30T12:55:31Z</time></trkpt><trkpt lat="14.557798135162615" lon="121.00593321533033"><ele>9.0</ele><time>2026-04-30T12:55:32Z</time></trkpt><trkpt lat="14.55776697655584" lon="121.00587260631762"><ele>9.0</ele><time>2026-04-30T12:55:33Z</time></trkpt><trkpt lat="14.55770632880459" lon="121.00577651126413"><ele>9.0</ele><time>2026-04-30T12:55:35Z</time></trkpt><trkpt lat="14.557654641913759" lon="121.00568943122579"><ele>9.0</ele><time>2026-04-30T12:55:37Z</time></trkpt><trkpt lat="14.557635946807" lon="121.00561928476212"><ele>9.0</ele><time>2026-04-30T12:55:39Z</time></trkpt><trkpt lat="14.557602474904176" lon="121.00555476753027"><ele>9.0</ele><time>2026-04-30T12:55:42Z</time></trkpt><trkpt lat="14.55756102093211" lon="121.00547488258827"><ele>9.0</ele><time>2026-04-30T12:55:45Z</time></trkpt><trkpt lat="14.557519851409088" lon="121.0054002646829"><ele>9.0</ele><time>2026-04-30T12:55:47Z</time></trkpt><trkpt lat="14.557470718413631" lon="121.00530997582135"><ele>9.0</ele><time>2026-04-30T12:55:49Z</time></trkpt><trkpt lat="14.55741733267685" lon="121.0052118719314"><ele>9.0</ele><time>2026-04-30T12:55:51Z</time></trkpt><trkpt lat="14.55736418111648" lon="121.00511419838209"><ele>9.0</ele><time>2026-04-30T12:55:53Z</time></trkpt><trkpt lat="14.55732167586313" lon="121.00502884728971"><ele>9.0</ele><time>2026-04-30T12:55:55Z</time></trkpt><trkpt lat="14.557284799452498" lon="121.00495339364939"><ele>9.0</ele><time>2026-04-30T12:55:57Z</time></trkpt><trkpt lat="14.557246632040103" lon="121.00487529845307"><ele>9.0</ele><time>2026-04-30T12:55:59Z</time></trkpt><trkpt lat="14.557207348137414" lon="121.00479491876446"><ele>9.0</ele><time>2026-04-30T12:56:01Z</time></trkpt><trkpt lat="14.557158877254544" lon="121.00469574140516"><ele>9.166666666666666</ele><time>2026-04-30T12:56:03Z</time></trkpt><trkpt lat="14.557107966961054" lon="121.0045780832158"><ele>9.333333333333334</ele><time>2026-04-30T12:56:05Z</time></trkpt><trkpt lat="14.557080145398356" lon="121.00451397990811"><ele>9.5</ele><time>2026-04-30T12:56:06Z</time></trkpt><trkpt lat="14.557052258673396" lon="121.00444970595177"><ele>9.666666666666668</ele><time>2026-04-30T12:56:07Z</time></trkpt><trkpt lat="14.557024759712185" lon="121.00438731246389"><ele>9.833333333333334</ele><time>2026-04-30T12:56:08Z</time></trkpt><trkpt lat="14.55699649086891" lon="121.00432317217474"><ele>10.0</ele><time>2026-04-30T12:56:09Z</time></trkpt><trkpt lat="14.556968319404582" lon="121.00425925296398"><ele>10.0</ele><time>2026-04-30T12:56:10Z</time></trkpt><trkpt lat="14.556940245004983" lon="121.00419654073052"><ele>10.0</ele><time>2026-04-30T12:56:11Z</time></trkpt><trkpt lat="14.556912816401985" lon="121.00413509740444"><ele>10.0</ele><time>2026-04-30T12:56:12Z</time></trkpt><trkpt lat="14.55688639443864" lon="121.00407590908092"><ele>10.0</ele><time>2026-04-30T12:56:13Z</time></trkpt><trkpt lat="14.556842050324537" lon="121.00397664212105"><ele>10.0</ele><time>2026-04-30T12:56:15Z</time></trkpt><trkpt lat="14.556811401506753" lon="121.0039080528877"><ele>10.0</ele><time>2026-04-30T12:56:17Z</time></trkpt><trkpt lat="14.556782509921273" lon="121.00384339620636"><ele>10.0</ele><time>2026-04-30T12:56:21Z</time></trkpt><trkpt lat="14.556747704838925" lon="121.00375830461904"><ele>9.5</ele><time>2026-04-30T12:56:25Z</time></trkpt><trkpt lat="14.556711208886375" lon="121.00366674305079"><ele>9.0</ele><time>2026-04-30T12:56:27Z</time></trkpt><trkpt lat="14.55666434805928" lon="121.00354947441558"><ele>8.5</ele><time>2026-04-30T12:56:29Z</time></trkpt><trkpt lat="14.556637119142815" lon="121.00348089746203"><ele>8.0</ele><time>2026-04-30T12:56:30Z</time></trkpt><trkpt lat="14.556609371329186" lon="121.00341089376566"><ele>7.500000000000001</ele><time>2026-04-30T12:56:31Z</time></trkpt><trkpt lat="14.556582807814488" lon="121.00334042267747"><ele>7.0</ele><time>2026-04-30T12:56:32Z</time></trkpt><trkpt lat="14.556555648624865" lon="121.00326629583729"><ele>6.666666666666667</ele><time>2026-04-30T12:56:33Z</time></trkpt><trkpt lat="14.556529935572373" lon="121.00319611601114"><ele>6.333333333333334</ele><time>2026-04-30T12:56:34Z</time></trkpt><trkpt lat="14.556501074003062" lon="121.00311734279913"><ele>6.0</ele><time>2026-04-30T12:56:35Z</time></trkpt><trkpt lat="14.556471354778317" lon="121.00303622872849"><ele>5.666666666666667</ele><time>2026-04-30T12:56:36Z</time></trkpt><trkpt lat="14.556444320584902" lon="121.00296244303759"><ele>5.333333333333334</ele><time>2026-04-30T12:56:37Z</time></trkpt><trkpt lat="14.556419418851013" lon="121.00288921964471"><ele>5.0</ele><time>2026-04-30T12:56:38Z</time></trkpt><trkpt lat="14.55639520534428" lon="121.00281581890087"><ele>5.0</ele><time>2026-04-30T12:56:39Z</time></trkpt><trkpt lat="14.556371790886752" lon="121.00274444391263"><ele>5.0</ele><time>2026-04-30T12:56:40Z</time></trkpt><trkpt lat="14.556350834492003" lon="121.00267428036013"><ele>5.0</ele><time>2026-04-30T12:56:41Z</time></trkpt><trkpt lat="14.556330164471198" lon="121.00260507560812"><ele>5.0</ele><time>2026-04-30T12:56:42Z</time></trkpt><trkpt lat="14.55630863981266" lon="121.00253300944581"><ele>5.0</ele><time>2026-04-30T12:56:43Z</time></trkpt><trkpt lat="14.556287039158246" lon="121.0024613803974"><ele>5.0</ele><time>2026-04-30T12:56:44Z</time></trkpt><trkpt lat="14.556266495822664" lon="121.00239349481433"><ele>5.0</ele><time>2026-04-30T12:56:45Z</time></trkpt><trkpt lat="14.556245171322033" lon="121.00232302789065"><ele>5.6</ele><time>2026-04-30T12:56:46Z</time></trkpt><trkpt lat="14.556211117338986" lon="121.0022104963052"><ele>6.2</ele><time>2026-04-30T12:56:48Z</time></trkpt><trkpt lat="14.556186943949651" lon="121.00213061518427"><ele>6.800000000000001</ele><time>2026-04-30T12:56:50Z</time></trkpt><trkpt lat="14.556166747474704" lon="121.0020638758298"><ele>7.4</ele><time>2026-04-30T12:56:53Z</time></trkpt><trkpt lat="14.556141552586164" lon="121.00197065014494"><ele>8.0</ele><time>2026-04-30T12:56:56Z</time></trkpt><trkpt lat="14.556116143288051" lon="121.00187600765923"><ele>7.999999999999999</ele><time>2026-04-30T12:56:58Z</time></trkpt><trkpt lat="14.556083947087089" lon="121.00175608585388"><ele>8.0</ele><time>2026-04-30T12:57:00Z</time></trkpt><trkpt lat="14.556065486064378" lon="121.00168732370473"><ele>8.0</ele><time>2026-04-30T12:57:01Z</time></trkpt><trkpt lat="14.556045645633647" lon="121.00161342368003"><ele>8.0</ele><time>2026-04-30T12:57:02Z</time></trkpt><trkpt lat="14.55602546309727" lon="121.00153824984397"><ele>7.999999999999999</ele><time>2026-04-30T12:57:03Z</time></trkpt><trkpt lat="14.556005842804971" lon="121.00145682476891"><ele>8.0</ele><time>2026-04-30T12:57:04Z</time></trkpt><trkpt lat="14.555984764628942" lon="121.00137325730825"><ele>7.999999999999999</ele><time>2026-04-30T12:57:05Z</time></trkpt><trkpt lat="14.55596334408426" lon="121.00128833251539"><ele>8.0</ele><time>2026-04-30T12:57:06Z</time></trkpt><trkpt lat="14.555941452296414" lon="121.00120153942197"><ele>8.0</ele><time>2026-04-30T12:57:07Z</time></trkpt><trkpt lat="14.555920185456843" lon="121.00111722432753"><ele>8.0</ele><time>2026-04-30T12:57:08Z</time></trkpt><trkpt lat="14.555900369624688" lon="121.00103369173418"><ele>7.999999999999999</ele><time>2026-04-30T12:57:09Z</time></trkpt><trkpt lat="14.55588005501537" lon="121.000949778202"><ele>8.0</ele><time>2026-04-30T12:57:10Z</time></trkpt><trkpt lat="14.555860584584186" lon="121.00086935170087"><ele>7.666666666666666</ele><time>2026-04-30T12:57:11Z</time></trkpt><trkpt lat="14.555840832486645" lon="121.00078776173847"><ele>7.333333333333333</ele><time>2026-04-30T12:57:12Z</time></trkpt><trkpt lat="14.555821166191231" lon="121.00070652554936"><ele>7.0</ele><time>2026-04-30T12:57:13Z</time></trkpt><trkpt lat="14.555797398014732" lon="121.00062574308684"><ele>6.666666666666666</ele><time>2026-04-30T12:57:14Z</time></trkpt><trkpt lat="14.555775923086873" lon="121.00054795309579"><ele>6.333333333333333</ele><time>2026-04-30T12:57:15Z</time></trkpt><trkpt lat="14.555757138629303" lon="121.00047990895003"><ele>6.0</ele><time>2026-04-30T12:57:16Z</time></trkpt><trkpt lat="14.55572481314357" lon="121.0003623931637"><ele>6.0</ele><time>2026-04-30T12:57:18Z</time></trkpt><trkpt lat="14.555637331680199" lon="121.00024167459036"><ele>6.0</ele><time>2026-04-30T12:57:20Z</time></trkpt><trkpt lat="14.55555327730245" lon="121.00017046125149"><ele>6.0</ele><time>2026-04-30T12:57:22Z</time></trkpt><trkpt lat="14.555486361830564" lon="121.00017584341202"><ele>6.0</ele><time>2026-04-30T12:57:23Z</time></trkpt><trkpt lat="14.555412799997757" lon="121.0001472120368"><ele>6.0</ele><time>2026-04-30T12:57:25Z</time></trkpt><trkpt lat="14.555348344789763" lon="121.00012789603787"><ele>6.142857142857142</ele><time>2026-04-30T12:57:30Z</time></trkpt><trkpt lat="14.555259140882146" lon="121.00010885219184"><ele>6.285714285714286</ele><time>2026-04-30T12:57:34Z</time></trkpt><trkpt lat="14.555192557020392" lon="121.00009027660059"><ele>6.428571428571429</ele><time>2026-04-30T12:57:36Z</time></trkpt><trkpt lat="14.555124523086578" lon="121.00007055961437"><ele>6.571428571428571</ele><time>2026-04-30T12:57:38Z</time></trkpt><trkpt lat="14.555065003127659" lon="121.00004795449203"><ele>6.714285714285714</ele><time>2026-04-30T12:57:40Z</time></trkpt><trkpt lat="14.555002670305823" lon="121.00002058584289"><ele>6.857142857142857</ele><time>2026-04-30T12:57:43Z</time></trkpt><trkpt lat="14.554938076668762" lon="121.00000946679711"><ele>7.0</ele><time>2026-04-30T12:57:50Z</time></trkpt><trkpt lat="14.554898621457296" lon="120.99993624150075"><ele>7.0</ele><time>2026-04-30T12:58:03Z</time></trkpt><trkpt lat="14.554858051735458" lon="120.9998809484153"><ele>7.0</ele><time>2026-04-30T12:58:12Z</time></trkpt><trkpt lat="14.55484569849687" lon="120.99980013589439"><ele>7.0</ele><time>2026-04-30T12:58:40Z</time></trkpt><trkpt lat="14.554828995147108" lon="120.99973480955688"><ele>7.0</ele><time>2026-04-30T12:58:47Z</time></trkpt><trkpt lat="14.554800016553607" lon="120.99967258151617"><ele>7.0</ele><time>2026-04-30T12:59:01Z</time></trkpt><trkpt lat="14.554794760755533" lon="120.99960412838496"><ele>7.0</ele><time>2026-04-30T12:59:05Z</time></trkpt><trkpt lat="14.554777754459518" lon="120.99953446575401"><ele>7.0</ele><time>2026-04-30T12:59:09Z</time></trkpt><trkpt lat="14.554758120315341" lon="120.99945403875502"><ele>7.0</ele><time>2026-04-30T12:59:13Z</time></trkpt><trkpt lat="14.554735388391665" lon="120.9993609223167"><ele>7.0</ele><time>2026-04-30T12:59:16Z</time></trkpt><trkpt lat="14.55471813775783" lon="120.99929025887019"><ele>7.0</ele><time>2026-04-30T12:59:18Z</time></trkpt><trkpt lat="14.554701560021979" lon="120.99920971269226"><ele>7.0</ele><time>2026-04-30T12:59:21Z</time></trkpt><trkpt lat="14.554693924916315" lon="120.99913728047268"><ele>7.0</ele><time>2026-04-30T12:59:25Z</time></trkpt><trkpt lat="14.554679132998967" lon="120.99907269574196"><ele>7.0</ele><time>2026-04-30T12:59:30Z</time></trkpt><trkpt lat="14.554660950326653" lon="120.99900774972997"><ele>7.0</ele><time>2026-04-30T13:00:08Z</time></trkpt><trkpt lat="14.554639120703643" lon="120.99894499764358"><ele>7.0</ele><time>2026-04-30T13:00:17Z</time></trkpt><trkpt lat="14.554616301493093" lon="120.99887977940085"><ele>7.0</ele><time>2026-04-30T13:00:28Z</time></trkpt><trkpt lat="14.554585778286897" lon="120.99881697805853"><ele>7.0</ele><time>2026-04-30T13:00:35Z</time></trkpt><trkpt lat="14.554599689931713" lon="120.99875091659901"><ele>7.0</ele><time>2026-04-30T13:01:16Z</time></trkpt><trkpt lat="14.554571672112287" lon="120.99867508981943"><ele>7.0</ele><time>2026-04-30T13:01:22Z</time></trkpt><trkpt lat="14.554549775523956" lon="120.99859917381292"><ele>7.0</ele><time>2026-04-30T13:01:26Z</time></trkpt><trkpt lat="14.554534119213717" lon="120.99852666290528"><ele>7.0</ele><time>2026-04-30T13:01:30Z</time></trkpt><trkpt lat="14.55451338591514" lon="120.99845739514872"><ele>7.000000000000001</ele><time>2026-04-30T13:01:34Z</time></trkpt><trkpt lat="14.554495963971071" lon="120.99838355596391"><ele>7.0</ele><time>2026-04-30T13:01:38Z</time></trkpt><trkpt lat="14.554474293813266" lon="120.99830058885115"><ele>7.0</ele><time>2026-04-30T13:01:42Z</time></trkpt><trkpt lat="14.55446191780362" lon="120.99822580761152"><ele>7.0</ele><time>2026-04-30T13:01:53Z</time></trkpt><trkpt lat="14.554450406622436" lon="120.99815384341247"><ele>7.000000000000001</ele><time>2026-04-30T13:01:58Z</time></trkpt><trkpt lat="14.554442125362659" lon="120.99807459024977"><ele>7.0</ele><time>2026-04-30T13:02:02Z</time></trkpt><trkpt lat="14.554428464706586" lon="120.99799020845742"><ele>7.000000000000001</ele><time>2026-04-30T13:02:05Z</time></trkpt><trkpt lat="14.554404636448592" lon="120.99791541199835"><ele>7.0</ele><time>2026-04-30T13:02:08Z</time></trkpt><trkpt lat="14.554381342172109" lon="120.99784665063659"><ele>7.0</ele><time>2026-04-30T13:02:11Z</time></trkpt><trkpt lat="14.554357754060739" lon="120.99777147251856"><ele>7.0</ele><time>2026-04-30T13:02:14Z</time></trkpt><trkpt lat="14.554333822116906" lon="120.99768741884266"><ele>7.000000000000001</ele><time>2026-04-30T13:02:17Z</time></trkpt><trkpt lat="14.55431232615747" lon="120.99760062331336"><ele>7.0</ele><time>2026-04-30T13:02:19Z</time></trkpt><trkpt lat="14.554294748120357" lon="120.99751780141091"><ele>6.857142857142857</ele><time>2026-04-30T13:02:21Z</time></trkpt><trkpt lat="14.554276734956805" lon="120.99743858604987"><ele>6.714285714285714</ele><time>2026-04-30T13:02:23Z</time></trkpt><trkpt lat="14.554248931617298" lon="120.997356232776"><ele>6.571428571428571</ele><time>2026-04-30T13:02:26Z</time></trkpt><trkpt lat="14.55422433034983" lon="120.99729181540393"><ele>6.428571428571429</ele><time>2026-04-30T13:02:30Z</time></trkpt><trkpt lat="14.554220067832194" lon="120.99722603974887"><ele>6.285714285714286</ele><time>2026-04-30T13:02:40Z</time></trkpt><trkpt lat="14.554235404070708" lon="120.99715446940819"><ele>6.142857142857142</ele><time>2026-04-30T13:02:56Z</time></trkpt><trkpt lat="14.554189194760903" lon="120.99710945091847"><ele>6.0</ele><time>2026-04-30T13:03:08Z</time></trkpt><trkpt lat="14.554190052815034" lon="120.99702747834732"><ele>6.0</ele><time>2026-04-30T13:03:23Z</time></trkpt><trkpt lat="14.554220381058972" lon="120.9969524811875"><ele>6.0</ele><time>2026-04-30T13:03:34Z</time></trkpt><trkpt lat="14.554338949079417" lon="120.99656008689563"><ele>9.0</ele><time>2026-04-30T13:03:35Z</time></trkpt><trkpt lat="14.554633619996377" lon="120.99695466582304"><ele>9.0</ele><time>2026-04-30T13:03:37Z</time></trkpt><trkpt lat="14.554754692335734" lon="120.99694510797717"><ele>9.0</ele><time>2026-04-30T13:03:39Z</time></trkpt><trkpt lat="14.5548536035613" lon="120.99692329071942"><ele>9.0</ele><time>2026-04-30T13:03:41Z</time></trkpt><trkpt lat="14.554935013316008" lon="120.99689840022016"><ele>9.0</ele><time>2026-04-30T13:03:43Z</time></trkpt><trkpt lat="14.555024229786088" lon="120.99688387715852"><ele>9.0</ele><time>2026-04-30T13:03:45Z</time></trkpt><trkpt lat="14.555122613758176" lon="120.99686049789818"><ele>9.0</ele><time>2026-04-30T13:03:47Z</time></trkpt><trkpt lat="14.555186351103217" lon="120.99684498244787"><ele>9.0</ele><time>2026-04-30T13:03:48Z</time></trkpt><trkpt lat="14.555303524910848" lon="120.99681820692932"><ele>9.0</ele><time>2026-04-30T13:03:50Z</time></trkpt><trkpt lat="14.55542173852263" lon="120.99679858424531"><ele>9.0</ele><time>2026-04-30T13:03:52Z</time></trkpt><trkpt lat="14.555541513163957" lon="120.99678482933521"><ele>9.0</ele><time>2026-04-30T13:03:54Z</time></trkpt><trkpt lat="14.555657179457157" lon="120.99677796565129"><ele>9.0</ele><time>2026-04-30T13:03:56Z</time></trkpt><trkpt lat="14.55575930913822" lon="120.9967692734628"><ele>9.0</ele><time>2026-04-30T13:03:58Z</time></trkpt><trkpt lat="14.555855273731119" lon="120.99675454673152"><ele>9.0</ele><time>2026-04-30T13:04:00Z</time></trkpt><trkpt lat="14.555951255448864" lon="120.99674482598098"><ele>9.0</ele><time>2026-04-30T13:04:02Z</time></trkpt><trkpt lat="14.556043355161279" lon="120.99672524361229"><ele>9.0</ele><time>2026-04-30T13:04:04Z</time></trkpt><trkpt lat="14.556136642444653" lon="120.99670540874591"><ele>9.166666666666666</ele><time>2026-04-30T13:04:06Z</time></trkpt><trkpt lat="14.55622879875218" lon="120.99668531148095"><ele>9.333333333333334</ele><time>2026-04-30T13:04:08Z</time></trkpt><trkpt lat="14.556315165158038" lon="120.99666583677504"><ele>9.5</ele><time>2026-04-30T13:04:10Z</time></trkpt><trkpt lat="14.556398341552358" lon="120.99664602824491"><ele>9.666666666666668</ele><time>2026-04-30T13:04:12Z</time></trkpt><trkpt lat="14.556482031777476" lon="120.99662660689859"><ele>9.833333333333334</ele><time>2026-04-30T13:04:14Z</time></trkpt><trkpt lat="14.556568665393481" lon="120.99660650251494"><ele>10.0</ele><time>2026-04-30T13:04:16Z</time></trkpt><trkpt lat="14.556661354824406" lon="120.99658499279168"><ele>10.2</ele><time>2026-04-30T13:04:18Z</time></trkpt><trkpt lat="14.556749085750992" lon="120.99656463382337"><ele>10.4</ele><time>2026-04-30T13:04:20Z</time></trkpt><trkpt lat="14.556844694482866" lon="120.99654285347275"><ele>10.600000000000001</ele><time>2026-04-30T13:04:22Z</time></trkpt><trkpt lat="14.55694401982755" lon="120.99652016818267"><ele>10.8</ele><time>2026-04-30T13:04:24Z</time></trkpt><trkpt lat="14.55702954323628" lon="120.99650063834953"><ele>11.0</ele><time>2026-04-30T13:04:25Z</time></trkpt><trkpt lat="14.55715603126638" lon="120.99648826392196"><ele>11.0</ele><time>2026-04-30T13:04:27Z</time></trkpt><trkpt lat="14.557221145461206" lon="120.99648493395502"><ele>11.0</ele><time>2026-04-30T13:04:28Z</time></trkpt><trkpt lat="14.557284210561953" lon="120.99648592531015"><ele>11.0</ele><time>2026-04-30T13:04:29Z</time></trkpt><trkpt lat="14.557347223091456" lon="120.9964805865005"><ele>11.0</ele><time>2026-04-30T13:04:30Z</time></trkpt><trkpt lat="14.557404947318775" lon="120.99643448442532"><ele>11.0</ele><time>2026-04-30T13:04:31Z</time></trkpt><trkpt lat="14.55752601323561" lon="120.99641876775475"><ele>11.0</ele><time>2026-04-30T13:04:33Z</time></trkpt><trkpt lat="14.557635238846535" lon="120.99637630945695"><ele>11.0</ele><time>2026-04-30T13:04:35Z</time></trkpt><trkpt lat="14.557740869785775" lon="120.99634311301851"><ele>11.0</ele><time>2026-04-30T13:04:37Z</time></trkpt><trkpt lat="14.557838514498117" lon="120.99629676140754"><ele>11.0</ele><time>2026-04-30T13:04:39Z</time></trkpt><trkpt lat="14.557937713967245" lon="120.99628856142223"><ele>11.0</ele><time>2026-04-30T13:04:41Z</time></trkpt><trkpt lat="14.558032580009819" lon="120.99626622325336"><ele>11.0</ele><time>2026-04-30T13:04:43Z</time></trkpt><trkpt lat="14.558112223017464" lon="120.99624747762972"><ele>10.600000000000001</ele><time>2026-04-30T13:04:46Z</time></trkpt><trkpt lat="14.558178758841045" lon="120.99623181635573"><ele>10.200000000000001</ele><time>2026-04-30T13:04:48Z</time></trkpt><trkpt lat="14.558251442196827" lon="120.99621470883008"><ele>9.8</ele><time>2026-04-30T13:04:52Z</time></trkpt><trkpt lat="14.558182610524828" lon="120.99604014142903"><ele>9.4</ele><time>2026-04-30T13:05:03Z</time></trkpt><trkpt lat="14.558153827018712" lon="120.99596368435161"><ele>9.0</ele><time>2026-04-30T13:05:06Z</time></trkpt><trkpt lat="14.55811099891672" lon="120.99590756487939"><ele>9.0</ele><time>2026-04-30T13:05:09Z</time></trkpt><trkpt lat="14.558067815741872" lon="120.99585654579492"><ele>9.0</ele><time>2026-04-30T13:05:18Z</time></trkpt><trkpt lat="14.557901428777214" lon="120.99556491121675"><ele>9.0</ele><time>2026-04-30T13:05:21Z</time></trkpt><trkpt lat="14.557854670977427" lon="120.99550757283998"><ele>9.0</ele><time>2026-04-30T13:05:24Z</time></trkpt><trkpt lat="14.557789830575588" lon="120.99551685329759"><ele>9.0</ele><time>2026-04-30T13:05:28Z</time></trkpt><trkpt lat="14.55773286789755" lon="120.99555830399787"><ele>9.0</ele><time>2026-04-30T13:05:31Z</time></trkpt><trkpt lat="14.557700072874084" lon="120.9956383376063"><ele>9.0</ele><time>2026-04-30T13:05:34Z</time></trkpt><trkpt lat="14.557730772975354" lon="120.99571794761509"><ele>9.0</ele><time>2026-04-30T13:05:37Z</time></trkpt><trkpt lat="14.557814457085504" lon="120.99575295880742"><ele>9.0</ele><time>2026-04-30T13:05:40Z</time></trkpt><trkpt lat="14.557895589765842" lon="120.99571771984725"><ele>9.000000000000002</ele><time>2026-04-30T13:05:43Z</time></trkpt><trkpt lat="14.557944701620125" lon="120.99566221757435"><ele>9.0</ele><time>2026-04-30T13:05:47Z</time></trkpt><trkpt lat="14.557905430293493" lon="120.99557927933097"><ele>9.0</ele><time>2026-04-30T13:05:50Z</time></trkpt><trkpt lat="14.557880515327453" lon="120.995519372801"><ele>9.0</ele><time>2026-04-30T13:05:52Z</time></trkpt><trkpt lat="14.557816694877756" lon="120.99550636043571"><ele>9.0</ele><time>2026-04-30T13:05:56Z</time></trkpt><trkpt lat="14.557759824110484" lon="120.99553644226266"><ele>9.000000000000002</ele><time>2026-04-30T13:05:59Z</time></trkpt><trkpt lat="14.557712730485763" lon="120.9955977711357"><ele>9.0</ele><time>2026-04-30T13:06:02Z</time></trkpt><trkpt lat="14.55772311845576" lon="120.99568690501869"><ele>9.000000000000002</ele><time>2026-04-30T13:06:05Z</time></trkpt><trkpt lat="14.557780358179814" lon="120.99574443002187"><ele>9.0</ele><time>2026-04-30T13:06:08Z</time></trkpt><trkpt lat="14.557860112646564" lon="120.9957349504286"><ele>9.0</ele><time>2026-04-30T13:06:11Z</time></trkpt><trkpt lat="14.5579151301493" lon="120.99569663747856"><ele>9.0</ele><time>2026-04-30T13:06:13Z</time></trkpt><trkpt lat="14.55793095336939" lon="120.9956255421776"><ele>9.0</ele><time>2026-04-30T13:06:15Z</time></trkpt><trkpt lat="14.557909083311039" lon="120.99555752723609"><ele>9.000000000000002</ele><time>2026-04-30T13:06:17Z</time></trkpt><trkpt lat="14.557857436188584" lon="120.99549216414974"><ele>9.0</ele><time>2026-04-30T13:06:20Z</time></trkpt><trkpt lat="14.55779584424067" lon="120.99551370196554"><ele>9.0</ele><time>2026-04-30T13:06:24Z</time></trkpt><trkpt lat="14.557739660714189" lon="120.99555086862617"><ele>9.0</ele><time>2026-04-30T13:06:27Z</time></trkpt><trkpt lat="14.557705915370889" lon="120.99563175366666"><ele>9.0</ele><time>2026-04-30T13:06:30Z</time></trkpt><trkpt lat="14.557725708641307" lon="120.99569355824441"><ele>9.0</ele><time>2026-04-30T13:06:32Z</time></trkpt><trkpt lat="14.557786819015984" lon="120.99574557652159"><ele>9.0</ele><time>2026-04-30T13:06:35Z</time></trkpt><trkpt lat="14.557870248012371" lon="120.99573113388715"><ele>9.0</ele><time>2026-04-30T13:06:38Z</time></trkpt><trkpt lat="14.557932653846006" lon="120.99566129561727"><ele>9.0</ele><time>2026-04-30T13:06:41Z</time></trkpt><trkpt lat="14.557922932293634" lon="120.99558811252447"><ele>9.0</ele><time>2026-04-30T13:06:43Z</time></trkpt><trkpt lat="14.557897014921158" lon="120.99552312934622"><ele>9.0</ele><time>2026-04-30T13:06:45Z</time></trkpt><trkpt lat="14.557833810853413" lon="120.9954907182704"><ele>9.0</ele><time>2026-04-30T13:06:48Z</time></trkpt><trkpt lat="14.557758192422671" lon="120.99553519685983"><ele>9.0</ele><time>2026-04-30T13:06:53Z</time></trkpt><trkpt lat="14.557711384369886" lon="120.99560348726281"><ele>9.0</ele><time>2026-04-30T13:06:56Z</time></trkpt><trkpt lat="14.557728365586456" lon="120.9956932330043"><ele>9.0</ele><time>2026-04-30T13:06:59Z</time></trkpt><trkpt lat="14.557784576785963" lon="120.9957435484411"><ele>9.0</ele><time>2026-04-30T13:07:02Z</time></trkpt><trkpt lat="14.557863248518803" lon="120.99573127948862"><ele>9.0</ele><time>2026-04-30T13:07:05Z</time></trkpt><trkpt lat="14.557930735940339" lon="120.99566598756054"><ele>9.0</ele><time>2026-04-30T13:07:08Z</time></trkpt><trkpt lat="14.557927830620073" lon="120.99559760519256"><ele>9.0</ele><time>2026-04-30T13:07:10Z</time></trkpt><trkpt lat="14.557895397392663" lon="120.99553410846443"><ele>9.0</ele><time>2026-04-30T13:07:12Z</time></trkpt><trkpt lat="14.557866084765205" lon="120.99546624993978"><ele>8.857142857142858</ele><time>2026-04-30T13:07:14Z</time></trkpt><trkpt lat="14.55783567998074" lon="120.99539286272596"><ele>8.714285714285715</ele><time>2026-04-30T13:07:16Z</time></trkpt><trkpt lat="14.55780776874014" lon="120.99532580390361"><ele>8.571428571428571</ele><time>2026-04-30T13:07:18Z</time></trkpt><trkpt lat="14.557782037669462" lon="120.99526488975484"><ele>8.428571428571429</ele><time>2026-04-30T13:07:20Z</time></trkpt><trkpt lat="14.557720482869884" lon="120.99521256697903"><ele>8.285714285714285</ele><time>2026-04-30T13:07:23Z</time></trkpt><trkpt lat="14.557658820246232" lon="120.9952424108007"><ele>8.142857142857142</ele><time>2026-04-30T13:07:26Z</time></trkpt><trkpt lat="14.557642478418996" lon="120.99531084598712"><ele>8.0</ele><time>2026-04-30T13:07:30Z</time></trkpt><trkpt lat="14.557625847241079" lon="120.9952387318349"><ele>8.0</ele><time>2026-04-30T13:07:41Z</time></trkpt><trkpt lat="14.557598394980037" lon="120.99517773668005"><ele>8.0</ele><time>2026-04-30T13:07:48Z</time></trkpt></trkseg></trk></gpx>